GFSSE_sfc_wetblb_000.txt.gz
Wetbulb
69.73 70.62 72.30 73.25 72.97 72.89 72.52 72.68 72.56 72.53 72.61 72.68 72.48 72.05 71.46 71.17 70.87 70.61 70.44 70.30 70.28 69.98 69.89 70.25 71.01 70.72 70.61 71.57 72.24 71.19 71.06 71.63 70.75 71.18 71.91 71.71 70.15 71.33 71.05 71.95 71.26 69.28 70.47
71.02 70.88 72.45 72.83 72.91 72.89 72.80 72.75 73.06 73.00 72.88 72.48 72.09 71.83 71.64 71.41 70.85 69.83 69.76 69.86 70.06 69.97 70.19 70.41 70.90 71.06 71.55 72.13 71.15 70.76 71.04 70.76 71.02 70.72 70.88 71.09 70.94 70.05 70.03 71.14 70.81 68.35 68.98
70.35 71.11 71.80 72.46 72.73 72.72 72.80 73.40 73.16 73.14 72.89 72.36 72.07 71.59 71.35 70.83 70.19 69.70 69.31 69.38 69.35 69.56 69.99 70.18 70.17 70.20 69.91 69.84 69.42 69.93 70.02 70.43 69.70 70.29 70.78 66.26 65.88 69.98 69.23 69.94 71.11 70.87 70.47
71.28 71.81 72.03 72.30 72.60 72.81 72.78 72.69 72.71 72.60 72.32 71.93 71.68 71.44 70.90 70.31 69.62 68.99 68.50 68.98 68.79 68.83 68.86 68.88 68.54 69.63 69.13 68.61 68.66 68.80 68.99 69.08 69.26 69.58 67.55 65.51 67.23 68.74 69.24 70.30 70.84 71.24 70.40
72.08 72.10 72.59 72.13 72.30 72.74 73.01 72.62 72.33 72.46 72.16 71.86 71.75 71.27 70.34 69.43 68.61 68.07 68.10 68.28 67.79 67.72 67.89 67.93 67.40 66.74 66.78 67.38 67.77 68.31 68.54 68.69 68.49 67.72 65.53 65.28 65.51 66.13 67.69 68.96 70.55 70.94 70.13
70.66 71.67 71.18 71.06 71.85 72.68 72.61 72.42 72.23 71.53 71.21 71.13 70.87 70.44 69.56 68.88 68.03 67.61 67.25 66.46 66.24 66.00 66.32 66.55 66.52 66.92 67.02 67.19 67.43 67.10 67.26 67.56 68.08 65.00 63.85 66.11 63.42 64.57 67.86 69.12 69.44 69.86 69.88
69.46 70.88 71.47 70.31 71.32 71.76 71.82 71.45 71.31 70.90 70.55 70.09 69.55 68.94 68.80 68.04 67.18 66.47 65.89 65.39 65.00 64.79 64.56 64.46 64.16 64.55 65.05 65.47 65.62 66.08 66.45 66.38 65.49 63.72 65.49 64.27 63.33 65.22 67.21 66.92 67.44 68.02 68.62
67.60 69.40 69.56 70.86 70.51 70.48 70.40 70.18 69.94 69.62 69.48 69.47 69.12 68.07 67.92 67.06 66.38 65.87 65.31 64.93 64.40 64.18 63.83 63.29 62.89 62.89 63.51 63.88 64.16 64.84 64.94 65.12 64.23 63.29 64.94 65.67 63.40 62.76 66.47 67.18 67.22 66.72 66.69
66.23 66.03 67.22 67.85 68.48 68.80 68.39 68.62 68.57 68.63 68.63 68.14 67.75 67.40 67.06 66.67 66.13 65.19 64.75 64.09 63.62 63.23 62.94 62.42 62.17 61.70 61.79 62.46 63.10 63.76 63.70 64.10 62.70 63.07 63.80 63.60 67.05 66.41 66.37 67.31 66.97 66.72 66.17
66.04 66.50 66.82 67.19 67.15 66.80 67.02 67.61 68.08 68.10 67.80 67.59 67.14 66.87 67.01 66.47 66.03 65.15 64.92 63.76 62.83 62.28 61.95 61.41 61.12 60.88 61.03 61.45 62.49 62.89 62.45 62.76 60.60 62.36 62.54 62.67 65.92 66.22 66.22 66.84 66.75 67.23 66.89
64.43 66.52 66.92 66.84 67.37 68.01 66.69 66.67 67.30 67.68 67.57 67.12 67.15 66.35 65.53 66.31 65.44 64.28 63.93 64.40 63.60 63.00 62.46 61.70 61.05 60.60 61.08 61.57 62.44 62.76 62.66 59.20 61.05 59.99 62.19 64.14 64.11 64.68 65.43 65.37 65.50 65.59 66.61
63.89 65.32 67.84 67.37 67.30 66.36 65.40 65.98 67.25 66.82 66.89 67.16 66.84 66.70 66.69 65.84 65.22 64.99 64.88 64.41 64.27 64.16 63.74 63.04 62.21 62.02 61.69 59.23 58.64 61.52 59.71 59.57 58.60 58.29 59.94 62.44 61.90 62.34 64.33 65.20 65.21 65.30 65.39
64.35 65.22 67.69 68.40 68.11 67.28 65.67 65.69 65.79 65.81 65.85 67.15 67.19 66.15 66.05 65.53 66.24 65.17 64.87 64.01 63.85 63.63 63.44 61.89 61.15 59.96 60.43 58.69 56.61 56.85 57.04 57.09 56.77 57.34 58.42 60.27 59.60 60.27 62.45 63.45 63.92 64.45 64.73
63.63 64.53 67.90 68.12 67.97 66.88 66.65 65.07 65.84 65.17 65.30 64.96 65.48 66.03 65.48 64.46 64.16 62.92 62.10 60.78 60.21 59.97 59.93 60.22 59.38 60.01 59.39 57.96 55.37 54.80 55.36 55.52 53.76 53.94 56.26 59.24 58.75 58.53 60.49 61.47 62.21 62.40 63.07
63.44 64.66 66.74 67.68 67.25 67.76 65.97 66.95 66.48 65.64 65.64 64.78 65.05 65.15 64.47 63.26 63.01 62.59 61.04 60.16 59.55 59.22 58.65 58.39 57.91 57.82 57.39 56.18 54.72 53.60 54.00 54.24 54.38 54.21 54.54 57.70 57.75 57.30 58.01 59.71 60.85 61.68 62.01
63.65 65.30 67.52 67.77 67.26 66.03 65.27 65.63 66.30 65.72 64.79 65.05 63.42 62.16 63.04 62.53 62.02 61.39 60.17 60.04 59.16 58.97 58.58 57.64 57.21 57.62 57.25 56.13 54.43 54.26 53.51 53.76 53.46 54.17 54.39 53.14 57.04 57.68 58.23 59.17 60.06 60.81 61.17
63.05 64.05 66.36 66.28 64.45 64.37 64.62 65.07 64.91 62.24 61.53 61.81 61.91 62.02 61.72 61.83 61.07 61.40 60.20 59.93 59.90 60.13 59.11 58.72 58.63 57.77 57.45 57.20 55.23 54.66 53.84 54.20 53.84 53.65 54.35 53.79 52.18 56.78 58.64 59.74 59.70 60.41 60.46
64.28 63.54 63.08 66.82 64.88 63.40 64.38 62.78 62.99 63.17 62.27 61.96 62.22 61.86 61.73 61.81 61.41 60.42 59.90 59.62 60.32 60.69 59.17 58.43 57.56 56.37 55.94 55.71 55.11 54.83 53.23 53.34 53.60 53.58 53.66 53.43 52.19 52.09 56.20 59.08 60.11 59.70 58.83
62.66 64.06 65.08 63.88 63.21 62.35 62.82 62.50 62.51 62.41 61.47 60.72 59.77 60.30 60.05 59.81 60.96 59.55 58.63 59.36 60.04 58.70 58.14 58.32 57.01 56.36 55.49 55.28 55.65 54.60 54.30 52.83 52.55 54.67 53.29 53.00 52.74 52.88 51.96 56.08 58.10 57.85 58.39
63.84 63.53 64.77 63.21 61.64 62.29 62.41 61.98 60.55 59.89 60.04 59.93 59.43 58.51 59.22 58.43 58.90 58.47 57.61 58.22 59.52 57.31 56.34 56.65 56.79 55.83 55.50 55.38 56.81 56.33 55.02 55.29 54.70 52.38 52.90 54.20 53.36 53.18 52.61 51.91 54.27 54.49 56.73
62.96 62.60 63.27 62.28 62.31 61.49 60.80 58.30 56.90 55.88 57.08 57.57 57.59 57.87 57.41 57.68 57.03 56.26 55.62 55.83 55.07 54.38 54.36 54.50 53.76 52.62 53.12 54.15 53.90 53.60 53.60 54.54 55.16 55.12 54.61 53.88 53.12 53.17 52.38 52.31 52.06 51.29 52.31
61.72 61.32 60.77 60.14 59.18 58.09 57.45 57.31 57.03 56.70 56.36 56.45 57.18 56.55 57.16 56.08 55.63 54.40 54.37 53.77 53.51 52.55 52.07 52.70 53.06 51.33 50.83 51.66 50.50 50.21 46.77 49.01 51.37 53.01 54.36 54.66 54.16 54.15 52.91 52.48 52.11 51.23 51.49
59.03 58.78 57.60 56.88 56.31 56.43 57.41 56.12 55.47 55.37 54.45 53.84 53.88 54.09 54.70 54.98 54.71 54.02 53.45 53.52 52.73 51.41 49.84 50.04 50.45 49.42 48.07 48.76 49.26 47.33 43.98 42.98 46.79 49.70 50.64 52.68 52.63 53.98 54.16 54.11 52.94 53.07 51.75
57.10 57.77 56.90 56.80 55.98 55.80 55.80 54.97 53.64 52.39 52.15 54.13 54.62 53.90 53.92 53.50 53.12 52.38 51.93 51.76 51.20 50.67 49.23 49.61 50.00 49.06 47.82 45.69 47.10 49.19 46.09 44.18 41.77 41.93 46.65 48.62 50.23 51.25 50.78 52.90 52.36 52.34 51.17
57.31 57.46 57.47 56.48 55.96 55.64 54.58 53.92 53.12 53.66 53.00 52.99 52.24 51.94 51.49 51.80 51.26 51.03 50.18 48.92 49.45 48.77 48.78 49.00 47.83 47.33 47.24 45.22 44.16 42.99 42.03 41.94 41.94 38.87 38.54 39.91 43.13 45.29 48.25 50.15 50.20 50.34 50.19
57.05 56.90 56.37 55.32 54.91 55.20 54.67 54.46 52.79 51.24 50.75 49.99 50.01 49.10 47.87 47.97 48.07 48.92 49.25 48.44 48.61 48.08 47.28 47.35 47.23 45.77 43.52 43.29 43.58 42.64 40.57 40.24 39.11 38.00 36.90 37.19 37.35 40.70 43.09 45.59 48.65 48.36 48.74

GFSSE_sfc_wetblb_003.txt.gz
Wetbulb
68.04 71.05 72.02 72.55 72.58 72.53 72.48 72.28 71.95 72.05 72.48 72.42 71.93 71.64 71.60 71.56 71.28 71.04 71.07 71.12 71.29 71.14 70.96 70.95 71.22 71.34 71.57 71.83 71.39 71.62 71.74 71.16 70.92 70.59 70.14 71.53 70.95 70.81 70.97 71.32 70.61 68.36 70.26
69.40 71.37 71.43 72.16 72.48 72.66 72.83 72.74 72.36 72.25 72.25 72.36 72.05 71.97 71.69 71.49 71.03 70.58 70.39 70.62 70.73 70.09 70.19 70.37 70.60 70.56 70.48 70.50 70.26 71.11 71.09 70.75 70.32 70.22 70.39 69.89 69.26 69.43 69.71 70.47 69.26 67.70 69.77
69.75 71.21 71.56 71.62 72.22 72.76 73.06 73.04 72.92 72.72 72.78 72.31 72.08 71.87 71.59 70.89 70.14 69.46 69.60 70.28 69.80 69.43 69.62 69.25 69.63 70.16 69.53 69.11 69.23 69.82 70.09 69.89 69.74 69.11 69.61 66.95 64.93 69.45 68.82 69.09 69.18 70.37 70.43
70.41 71.20 71.51 71.45 71.89 72.47 72.56 72.45 72.54 72.72 72.72 72.39 72.16 71.64 70.87 70.02 69.18 68.76 68.94 69.46 68.77 68.51 68.60 68.36 67.97 67.56 67.46 67.66 68.11 68.96 69.48 69.26 68.97 68.81 66.47 65.85 66.68 67.07 66.26 69.02 69.21 69.53 69.87
71.47 72.16 72.02 71.21 71.64 72.40 72.39 72.28 72.20 72.16 71.98 71.76 71.73 70.26 69.42 69.03 68.57 68.53 68.03 68.12 67.15 67.22 67.39 67.63 67.50 67.48 67.34 67.45 67.88 67.89 67.95 68.29 67.93 67.43 64.74 64.87 64.49 63.86 65.53 67.65 69.04 68.91 69.47
70.70 71.55 70.97 70.87 71.72 71.99 72.26 71.96 71.69 71.21 70.82 70.77 70.21 69.37 69.18 68.39 68.09 67.35 66.61 66.06 65.63 65.75 65.75 65.66 65.34 65.18 65.96 66.54 66.67 66.63 67.00 66.99 66.75 63.61 62.98 64.97 64.76 65.17 65.86 66.38 68.26 68.54 68.63
69.98 71.02 71.21 70.04 71.12 71.81 72.14 71.82 70.95 70.34 69.89 69.82 69.76 69.46 68.38 67.48 67.02 66.40 65.87 65.12 64.70 64.66 64.52 64.23 63.72 63.61 64.14 64.91 64.90 65.38 65.30 65.04 64.06 61.95 62.67 63.88 63.36 64.88 66.21 65.38 66.36 67.95 67.77
69.57 70.16 70.75 70.87 70.17 70.17 70.48 70.08 69.40 69.47 69.45 69.15 68.98 68.58 67.82 67.05 66.77 65.91 65.24 64.41 63.97 63.50 63.34 62.91 62.64 62.40 62.61 63.43 64.24 64.33 63.83 63.85 62.89 61.20 63.72 63.47 63.85 64.70 64.34 66.37 67.25 67.55 66.85
68.34 67.92 67.56 68.78 68.85 68.17 67.74 67.95 67.99 68.42 68.17 68.07 67.85 67.82 67.48 66.74 66.19 66.01 65.27 64.19 63.48 62.88 62.55 62.10 62.07 62.05 62.15 62.48 63.73 63.68 62.95 63.24 61.30 60.79 64.35 63.43 66.05 66.18 66.43 67.07 68.69 67.87 67.59
64.81 65.80 65.47 65.71 66.02 65.32 66.47 67.03 67.21 67.38 67.07 66.88 67.00 66.86 66.43 66.00 65.30 65.57 64.90 64.60 64.00 63.21 62.37 62.04 62.01 61.86 61.65 62.60 62.66 62.84 62.87 63.20 58.10 59.44 61.63 63.15 67.57 66.93 66.44 67.20 68.11 68.29 68.18
63.06 64.12 64.19 64.29 64.35 64.21 64.92 66.70 67.05 67.46 66.77 66.37 66.39 66.16 65.22 64.73 64.03 63.63 63.78 64.00 64.37 63.96 63.71 63.43 63.13 62.65 62.03 61.70 61.86 62.43 62.54 59.92 58.09 59.15 60.94 64.82 65.20 64.94 65.70 65.93 66.56 67.01 66.84
59.93 62.05 62.89 62.89 64.61 63.88 65.47 64.71 64.61 65.82 65.78 65.44 65.24 64.60 64.07 63.86 63.27 63.18 63.38 63.95 64.09 63.99 64.22 64.00 63.68 62.84 61.95 58.37 56.43 59.68 58.44 58.47 56.98 57.00 59.76 63.16 63.77 63.31 64.48 66.10 66.25 66.44 66.47
60.05 62.70 63.45 62.88 62.40 61.58 62.87 63.13 63.99 63.83 64.06 64.40 63.96 62.86 63.20 62.14 62.32 61.73 61.87 62.60 61.34 63.51 62.00 62.56 61.44 59.99 58.63 57.65 55.93 52.75 53.21 53.12 53.23 53.35 59.02 62.16 62.73 62.59 62.51 63.88 65.28 65.82 66.23
59.38 63.40 63.70 63.53 62.51 61.64 59.83 59.69 59.93 61.75 61.63 62.93 63.61 62.91 61.82 60.59 58.65 58.36 57.17 57.54 58.53 60.15 59.84 59.29 58.19 57.79 57.50 57.59 55.40 51.87 51.26 51.24 52.24 51.40 55.10 60.97 62.05 61.47 61.68 62.99 63.79 64.08 64.42
58.77 63.43 63.61 63.37 62.57 62.09 60.98 60.91 61.02 61.21 61.01 60.58 61.73 61.84 60.71 59.23 57.99 57.87 57.49 56.39 55.88 55.59 55.12 55.49 55.51 55.65 55.84 55.20 53.52 51.57 50.51 50.74 51.35 51.41 51.93 59.57 59.61 60.59 60.32 60.77 61.59 62.31 63.12
59.85 64.15 63.56 62.94 63.75 63.28 60.52 61.33 61.20 60.11 60.03 60.91 59.22 59.32 60.21 58.50 58.21 57.68 56.41 57.02 56.05 56.12 55.91 55.08 54.50 54.41 54.78 55.05 54.00 52.43 50.54 50.12 51.13 51.49 52.25 53.56 58.35 59.04 59.92 59.45 60.33 61.37 62.12
60.21 64.13 63.31 65.04 64.64 60.88 60.27 60.75 61.32 56.46 57.74 57.06 57.64 57.65 58.18 57.95 57.07 57.04 56.47 56.84 57.15 57.23 56.81 55.64 55.45 55.41 54.75 55.93 54.30 53.15 52.08 51.20 51.22 51.55 51.34 52.13 53.33 57.31 58.16 59.99 60.48 60.50 61.15
61.26 63.83 63.52 63.53 63.53 61.01 59.31 58.31 58.41 57.81 57.01 57.25 56.98 57.17 57.22 57.56 57.02 55.81 55.03 55.05 56.58 56.90 56.21 55.07 54.70 54.48 53.91 53.21 53.76 54.23 52.32 51.38 51.15 51.56 51.85 51.42 51.28 52.21 55.80 58.51 60.09 60.99 61.71
56.88 61.12 61.11 59.38 60.67 59.89 57.95 57.35 57.51 57.02 56.47 55.42 54.67 54.69 54.70 56.32 56.37 54.78 55.03 54.63 55.27 55.72 54.81 54.61 54.50 53.93 53.31 52.91 53.38 53.32 52.30 51.69 50.86 52.90 51.98 51.96 50.70 50.90 50.54 55.34 58.01 59.05 60.78
56.71 61.89 60.34 59.83 59.19 56.80 56.92 55.85 54.66 53.44 53.33 53.15 52.32 52.16 52.82 54.30 54.15 53.01 52.67 53.01 52.51 52.21 51.43 51.66 50.80 51.33 50.84 51.41 53.94 54.32 52.99 53.86 53.19 51.43 50.60 52.46 52.69 52.78 50.59 50.26 53.92 55.37 58.12
58.20 57.36 56.47 55.90 53.77 54.49 52.79 52.30 51.60 50.28 50.86 50.91 51.59 53.05 52.85 52.44 52.95 51.56 50.94 51.62 50.77 49.91 49.20 49.54 49.95 49.52 49.52 50.01 48.00 49.39 49.39 50.98 50.62 51.43 52.86 52.07 51.36 52.01 52.03 50.65 50.28 52.62 54.34
53.94 53.29 53.09 52.98 52.56 52.60 52.20 51.55 51.30 50.69 50.88 50.65 51.06 51.57 52.73 52.23 51.51 51.48 50.06 50.09 49.40 48.77 47.71 47.28 47.23 47.18 46.64 47.64 45.63 45.55 43.12 46.17 47.50 49.54 49.72 51.30 49.98 52.41 53.09 52.67 51.25 51.99 50.57
51.23 51.02 51.40 51.06 51.09 51.41 51.63 50.48 49.85 49.09 49.11 49.65 50.84 50.96 51.49 51.84 50.56 49.57 48.90 48.29 47.69 47.93 46.43 45.97 46.69 45.57 44.50 45.55 45.80 44.54 41.00 39.34 42.16 45.65 46.82 46.12 45.24 47.16 48.52 50.11 51.33 51.75 51.07
50.26 50.40 50.74 51.11 50.89 51.33 50.23 48.95 47.82 47.71 48.16 49.63 49.04 48.83 49.72 48.98 48.46 48.97 47.80 46.68 46.87 46.38 45.67 45.93 47.78 45.05 44.87 43.24 44.51 45.76 43.20 41.15 38.02 36.83 41.34 43.29 43.01 43.29 45.37 47.07 49.53 50.78 50.94
50.59 49.68 49.53 50.26 50.63 50.70 49.12 48.55 48.47 47.21 47.28 47.67 47.61 45.72 45.05 45.69 46.42 46.93 46.65 45.27 45.58 45.53 44.40 44.33 44.30 43.42 43.40 42.36 42.05 41.33 40.19 39.51 41.97 39.18 35.15 36.81 40.04 40.99 42.70 43.56 45.30 49.22 49.74
49.70 49.40 49.31 49.10 49.62 49.74 49.10 48.57 48.28 46.11 45.67 45.27 43.57 42.65 42.99 43.38 44.56 44.91 45.74 44.57 44.93 43.94 43.41 42.99 43.57 42.21 41.35 42.84 43.40 42.60 41.69 39.33 36.75 35.43 34.33 35.54 35.64 37.56 40.00 40.97 43.12 47.37 49.31

GFSSE_sfc_wetblb_006.txt.gz
Wetbulb
68.70 70.77 71.56 72.36 72.36 72.16 71.78 71.77 71.88 71.88 71.69 71.61 71.72 71.49 71.27 70.69 70.57 70.73 70.96 70.99 70.92 70.83 70.49 70.52 70.35 70.50 71.33 71.35 70.71 70.44 70.57 70.68 70.36 70.18 70.23 70.97 69.56 68.97 70.15 70.67 69.40 68.48 70.26
69.80 70.72 70.95 71.87 72.36 72.56 72.26 71.85 71.95 71.79 72.01 71.80 71.78 71.45 71.37 70.51 69.90 69.34 69.66 69.86 69.94 69.66 69.75 69.57 69.82 69.72 69.47 68.95 68.84 69.22 69.60 69.70 69.28 69.24 69.35 68.45 68.46 68.56 68.58 69.72 69.44 68.11 69.88
69.74 70.41 70.89 71.28 72.48 72.79 72.65 72.50 72.22 72.33 72.17 71.68 71.23 70.90 70.40 69.60 68.81 68.80 69.09 69.16 68.91 68.66 68.28 68.29 68.08 67.89 67.91 67.78 67.98 68.56 68.63 69.06 68.85 68.59 69.05 64.71 63.79 68.28 67.29 69.03 69.30 69.84 69.60
70.06 70.14 70.48 71.32 71.99 72.41 72.36 72.30 72.09 72.27 71.99 71.78 70.90 70.39 69.72 68.78 68.51 68.26 67.99 68.44 67.58 67.40 67.49 67.81 67.79 67.66 67.44 67.37 67.40 67.39 67.42 67.78 67.79 67.84 64.76 65.51 66.56 66.25 65.40 67.96 68.67 68.74 69.13
69.83 70.32 70.78 70.75 71.31 71.79 71.86 71.95 71.92 71.83 71.63 71.18 70.54 69.70 68.95 68.49 68.00 67.30 66.90 66.79 66.20 66.17 66.07 66.07 66.08 66.05 66.14 66.34 66.50 66.61 66.58 66.73 66.74 65.45 62.63 64.04 62.52 64.64 66.20 67.53 67.62 68.76 69.15
70.44 69.78 69.59 70.04 70.98 71.74 71.83 71.69 71.39 71.08 70.63 69.94 69.66 68.95 68.31 67.78 67.06 66.42 65.72 65.28 64.98 64.74 64.64 64.50 63.95 63.91 64.31 64.76 65.04 64.98 64.93 65.29 65.55 61.69 62.59 64.56 63.79 66.03 66.52 67.03 67.80 68.18 68.72
69.63 70.84 70.81 69.51 70.59 71.34 71.57 71.08 70.63 70.21 69.76 69.73 69.60 68.75 67.64 67.16 66.41 65.80 65.13 64.29 63.80 63.57 63.43 63.31 62.78 62.80 62.72 63.25 63.67 64.10 64.29 63.96 61.80 59.51 60.96 63.02 62.39 65.13 65.90 66.48 65.65 67.31 68.06
68.99 70.42 71.13 70.75 70.54 70.41 70.54 69.93 69.12 68.85 68.96 69.09 68.78 68.28 67.07 66.55 66.17 65.31 64.58 63.90 62.98 62.63 62.38 62.21 62.05 61.96 62.09 62.37 62.69 63.63 63.27 63.36 61.48 58.83 61.52 62.83 64.10 66.01 65.38 66.47 67.21 67.23 67.49
69.22 69.34 69.04 69.13 69.17 68.36 67.80 67.59 67.68 68.27 68.15 68.01 67.97 67.57 66.89 66.23 66.13 65.68 64.93 63.95 63.20 62.45 61.96 61.89 62.04 61.99 61.91 61.92 62.51 62.25 62.17 62.92 59.93 57.78 61.11 62.35 64.57 66.80 66.49 66.02 67.12 67.74 67.91
66.69 66.90 65.56 65.81 66.13 65.70 66.09 66.79 66.74 66.70 66.51 66.71 66.87 66.24 65.57 65.14 65.41 65.50 64.92 64.64 64.31 63.55 62.99 62.95 63.11 62.66 61.83 62.12 62.07 62.24 62.00 62.04 57.98 57.23 59.37 61.39 66.53 67.39 67.41 67.19 68.35 68.10 68.40
63.94 64.10 63.67 63.74 63.78 64.09 64.32 66.01 66.76 66.78 66.17 65.75 65.79 65.68 64.34 63.25 62.28 62.76 63.71 63.46 64.56 63.83 63.59 63.82 63.86 63.20 62.00 61.77 61.80 61.85 62.04 58.40 57.52 57.27 59.64 62.78 65.80 66.01 66.05 66.08 66.34 67.19 67.15
60.67 62.19 62.47 62.33 62.42 63.13 65.34 64.75 63.96 65.01 64.30 64.07 64.10 63.65 63.30 62.80 62.44 62.60 62.96 64.08 64.07 63.74 63.85 64.21 63.97 63.82 62.57 57.75 57.44 58.02 53.66 55.18 55.04 54.21 58.74 62.41 64.52 65.31 64.63 64.41 66.01 66.23 66.43
61.04 62.60 62.50 63.28 62.90 61.65 62.25 62.35 62.38 63.09 62.94 63.24 63.55 63.15 62.47 63.03 60.83 61.97 60.31 60.77 60.64 61.95 60.74 61.55 60.95 59.74 58.69 57.31 56.90 54.31 51.53 50.87 50.40 51.94 54.10 61.61 63.31 63.69 64.23 63.42 63.33 64.85 65.93
61.04 61.65 61.89 62.19 62.37 59.77 61.11 62.05 62.07 62.25 62.71 62.71 62.73 61.87 60.38 59.67 57.40 57.09 57.34 58.42 57.77 57.30 58.45 58.64 58.67 58.17 56.72 57.49 56.77 54.70 51.11 49.46 49.71 50.76 51.48 59.84 62.06 62.96 63.55 62.86 62.59 63.80 64.35
61.15 62.18 61.71 61.25 60.70 60.30 59.69 60.50 60.59 61.00 61.87 62.03 61.93 61.57 59.23 58.49 56.27 56.39 56.01 55.26 54.76 54.15 54.34 54.05 55.36 54.60 53.65 54.80 54.42 52.73 51.12 49.88 49.72 50.11 49.95 57.11 61.11 62.09 62.48 62.20 61.71 61.97 62.48
62.29 61.32 62.04 62.30 62.18 61.18 60.63 60.20 60.26 60.08 59.34 60.12 60.60 59.52 59.05 57.47 57.02 56.48 55.12 55.30 55.07 55.14 55.39 54.06 53.37 53.31 53.67 53.87 54.11 53.76 52.33 49.91 49.04 49.25 50.05 50.63 59.19 60.74 61.72 61.48 61.62 61.65 61.52
62.64 62.49 62.66 62.54 61.43 60.18 59.81 60.67 60.41 56.52 56.90 57.14 56.29 56.08 56.64 56.69 55.60 55.27 54.10 53.38 54.24 55.39 54.61 54.10 53.51 53.26 53.08 53.68 53.04 54.03 53.57 52.61 49.87 49.46 49.63 50.60 52.24 58.36 59.11 60.62 61.73 62.08 61.45
62.28 62.31 62.65 61.81 62.11 58.83 58.55 57.72 56.82 56.49 55.37 54.79 55.34 55.00 55.72 55.89 54.67 53.46 52.46 52.15 53.06 53.27 52.70 52.07 52.57 52.19 51.18 50.93 50.81 51.58 52.28 52.33 51.59 50.49 50.07 49.77 50.97 52.14 55.67 58.49 59.63 60.77 61.48
62.28 61.89 60.38 61.01 60.12 58.70 57.58 56.69 55.35 54.68 54.54 53.55 53.02 51.89 54.10 54.58 54.41 51.88 51.04 51.02 52.14 50.92 50.14 50.35 49.93 50.27 49.08 48.25 49.28 48.45 49.37 50.56 51.16 53.06 51.00 50.49 49.38 51.15 50.67 54.21 57.34 58.24 59.73
59.70 59.08 58.47 59.34 59.09 55.53 52.69 52.84 52.49 52.92 52.20 51.05 50.55 51.63 52.35 52.01 51.81 50.27 50.18 50.30 50.17 49.22 48.24 47.72 46.98 47.20 47.28 47.19 49.14 48.05 47.30 48.63 49.13 49.34 50.16 51.48 51.15 51.14 50.68 50.20 49.61 54.19 57.01
53.21 53.29 52.76 53.08 54.80 52.59 51.43 51.49 51.22 49.03 49.23 49.33 49.87 51.25 51.47 51.76 51.41 49.75 48.89 49.05 48.56 47.51 46.57 46.44 46.08 46.02 45.97 46.10 44.48 45.73 44.95 45.99 46.67 46.81 48.24 47.51 48.32 47.92 47.91 48.56 50.19 49.39 51.95
50.53 51.99 52.19 51.16 50.97 51.57 52.34 51.33 50.29 48.65 48.48 49.51 52.61 51.88 50.89 49.91 49.35 48.96 46.91 46.17 46.85 46.08 45.12 44.82 45.29 44.33 44.79 45.12 43.00 42.73 39.83 43.51 42.75 45.24 45.41 45.06 44.41 45.64 46.77 47.74 48.87 50.02 49.57
48.27 49.12 49.37 49.16 49.45 50.38 50.09 49.11 48.63 48.68 49.25 49.59 48.54 47.85 48.04 47.47 47.33 46.45 45.61 45.43 45.38 45.15 43.91 43.60 43.89 43.37 42.39 43.40 43.75 42.34 38.67 36.78 39.30 42.49 42.29 40.92 40.74 41.48 43.32 46.21 46.78 47.41 49.98
47.34 47.44 48.19 49.07 48.83 49.03 49.13 47.90 48.39 47.44 46.29 47.27 46.50 44.92 44.09 45.15 45.53 45.76 45.14 44.65 44.64 44.55 42.99 43.22 45.01 42.70 42.34 40.76 42.41 44.00 41.40 40.04 38.07 36.61 38.50 40.76 40.07 40.59 40.17 42.37 42.08 44.90 50.34
47.92 47.57 47.80 48.72 48.82 48.39 48.00 47.56 47.14 45.87 45.01 45.30 43.85 42.22 42.28 43.46 44.46 44.24 44.66 45.15 44.42 43.37 42.75 41.86 42.35 41.26 41.41 40.48 40.18 40.18 39.54 39.14 40.98 36.12 33.24 35.07 37.92 38.54 39.32 39.41 40.09 43.84 45.65
47.80 47.47 46.77 47.53 48.43 48.43 47.49 46.89 47.21 44.59 43.77 42.20 40.93 40.41 41.05 42.10 42.68 43.18 43.75 41.68 40.92 41.16 40.46 40.30 39.40 39.64 38.77 38.65 38.30 38.36 38.01 36.62 35.52 34.97 34.76 34.72 34.35 35.89 37.16 38.25 38.73 40.27 41.94

GFSSE_sfc_wetblb_009.txt.gz
Wetbulb
68.84 70.11 71.33 72.37 72.06 71.87 71.85 71.65 71.34 71.10 71.22 71.05 70.52 70.46 70.27 69.91 69.73 70.07 70.39 70.61 70.65 69.69 69.74 69.65 69.67 69.72 69.55 69.72 69.65 69.56 69.52 69.63 69.56 69.67 69.77 69.65 68.47 67.64 69.30 69.96 68.55 68.48 69.67
69.51 70.14 70.97 71.66 71.88 72.04 72.01 71.80 71.52 71.33 71.66 70.90 70.65 70.42 69.89 69.30 69.01 69.20 69.20 68.96 68.62 68.30 68.19 68.35 68.48 68.84 68.55 68.31 68.29 68.39 68.53 68.91 68.67 68.52 68.40 67.74 68.03 68.54 68.29 69.14 69.22 68.28 69.48
69.25 70.10 70.61 71.30 71.94 71.86 72.11 71.98 71.74 71.91 71.17 70.99 70.64 70.08 69.39 68.72 68.64 68.49 68.25 67.94 67.28 67.28 67.33 67.47 67.60 67.31 67.26 67.15 67.22 67.73 67.75 67.85 68.15 68.35 68.26 63.95 63.41 67.73 67.85 69.08 68.26 69.11 68.97
69.36 69.55 70.58 71.34 71.89 71.94 71.86 71.87 71.94 71.54 71.19 70.88 70.29 69.71 68.73 68.49 67.96 67.40 67.01 67.45 66.73 66.42 66.53 66.27 66.22 66.32 66.16 66.25 66.51 66.90 66.89 66.67 66.83 67.33 63.25 64.24 65.84 66.76 65.46 67.05 68.36 68.03 68.53
68.81 69.60 70.89 70.77 71.39 71.83 71.89 71.81 71.53 71.65 71.29 70.70 70.10 69.31 68.52 67.91 66.88 66.20 65.98 66.18 65.69 65.46 65.19 65.13 64.84 64.35 64.40 64.46 64.61 64.62 64.65 64.68 65.71 63.30 61.73 62.93 63.05 65.14 66.78 66.69 67.15 67.94 68.83
68.46 69.31 69.49 69.76 70.61 71.60 71.66 71.61 71.43 71.07 70.09 69.75 69.50 68.48 67.86 67.12 66.28 65.39 65.24 64.70 64.50 64.30 64.16 63.58 63.08 62.86 62.89 63.10 63.33 63.10 62.97 63.14 63.07 59.04 60.17 63.04 63.98 65.90 67.20 66.63 67.18 67.52 68.17
68.71 69.67 69.83 69.11 70.28 70.92 71.26 70.99 70.76 70.04 69.33 69.37 68.76 67.97 67.29 66.48 65.69 64.88 64.32 63.78 63.62 63.34 63.01 62.91 62.56 62.38 62.18 62.24 62.22 62.71 63.08 63.27 59.90 57.03 58.08 60.73 62.12 65.93 66.90 66.64 66.67 66.64 67.78
69.38 70.56 70.00 70.33 70.01 70.21 70.23 69.89 69.24 68.99 69.10 68.94 68.63 67.72 66.81 66.28 65.72 64.56 63.73 63.23 62.98 62.58 62.49 62.70 62.56 62.47 62.41 62.08 62.36 62.69 62.35 62.82 60.49 56.29 57.80 61.94 63.95 66.34 67.22 65.91 66.85 67.22 67.50
68.84 69.01 70.02 70.42 69.79 68.93 67.92 67.74 67.38 67.64 67.87 67.84 67.75 67.33 66.83 66.01 65.55 65.13 64.36 63.30 62.67 62.25 62.62 62.88 62.93 62.71 62.43 62.31 62.65 62.42 62.16 62.53 57.63 56.33 58.31 60.52 64.88 66.60 67.55 67.05 67.46 67.21 67.37
67.84 67.81 67.22 66.06 65.93 65.25 65.62 66.60 66.77 66.79 66.59 67.00 67.01 66.23 65.07 64.80 65.13 65.35 64.77 64.35 64.12 63.32 63.30 63.45 63.42 63.24 62.80 62.64 62.52 62.23 61.42 60.27 56.22 55.42 56.95 59.21 64.92 66.84 66.76 66.69 66.95 67.27 68.06
65.37 64.20 63.64 63.78 63.63 63.34 63.62 65.57 66.42 66.45 66.01 65.85 65.76 65.34 63.58 61.87 61.01 61.37 63.45 63.68 64.11 63.93 63.54 63.69 63.97 63.62 63.03 62.09 61.86 61.90 59.82 53.64 53.85 53.75 54.23 60.92 64.27 65.80 66.16 66.20 66.54 66.35 66.44
61.43 62.33 62.57 62.27 62.09 62.76 65.23 63.90 63.18 64.28 63.33 63.15 63.06 62.90 62.44 61.62 61.27 62.01 62.33 63.58 64.02 64.02 64.04 64.04 64.07 63.85 63.18 58.19 56.63 59.03 53.08 51.05 51.37 50.81 52.00 60.23 62.26 63.88 65.37 65.38 65.51 65.40 65.74
61.03 61.97 61.67 61.35 61.72 61.94 62.33 62.46 62.11 62.50 62.15 62.28 62.74 62.06 61.76 62.49 61.26 60.84 59.77 59.30 58.94 61.23 59.38 60.31 59.90 59.24 58.31 57.20 56.46 55.88 54.44 50.96 48.91 49.88 52.05 57.89 60.47 63.36 64.28 64.22 65.15 63.78 64.78
60.17 61.15 61.79 61.46 61.17 60.57 60.87 60.86 61.19 61.80 62.03 62.13 62.44 62.42 60.53 59.50 57.62 56.96 56.97 55.91 54.47 54.28 54.06 56.44 56.44 57.00 56.23 55.55 56.05 55.90 54.78 50.70 48.89 48.92 50.40 57.29 59.33 61.61 62.54 63.17 63.31 64.16 64.34
60.43 61.20 61.52 62.09 60.94 59.97 60.42 60.69 60.93 61.22 62.52 62.64 62.01 61.54 60.36 57.86 55.42 55.16 54.77 54.26 54.01 53.92 53.77 53.20 52.89 52.92 52.60 53.29 53.57 53.26 52.42 51.41 49.95 48.93 48.84 55.32 57.59 59.83 61.65 62.51 63.13 63.07 63.49
60.92 60.83 60.61 61.53 60.38 59.52 58.55 59.81 60.10 60.53 61.38 61.55 60.99 60.03 58.48 56.63 55.57 55.42 54.18 53.59 53.14 53.77 53.72 53.07 52.53 52.11 52.13 52.36 52.20 52.49 52.84 51.79 50.26 49.26 48.71 48.78 55.26 57.88 60.30 61.66 62.35 63.00 62.82
60.82 61.26 60.60 60.46 60.36 58.77 59.01 58.87 58.68 59.26 58.58 58.84 56.92 56.49 56.43 55.90 54.95 53.97 52.28 51.50 51.79 52.36 51.33 50.62 50.68 50.37 49.44 50.11 49.36 50.64 51.29 51.36 51.18 50.34 49.48 49.07 49.48 53.92 56.76 59.31 60.80 62.67 63.17
59.99 60.51 60.86 62.14 59.83 59.47 58.28 58.24 56.84 55.37 54.15 54.76 54.94 54.19 54.73 54.80 53.39 51.50 49.97 49.63 50.11 50.79 50.30 49.23 49.04 47.92 47.07 47.00 46.94 47.22 47.71 49.38 49.76 50.45 50.17 48.88 48.26 49.74 51.56 54.36 56.07 58.24 60.17
60.00 59.90 59.91 61.60 60.75 58.92 56.98 56.47 55.11 53.43 51.89 51.48 51.32 52.12 52.28 52.13 51.71 49.49 48.90 49.12 49.83 49.14 47.73 47.48 46.75 46.81 45.80 45.85 46.37 45.52 45.36 46.18 46.60 50.47 49.44 49.00 48.36 47.95 47.67 50.43 52.60 53.45 55.55
56.66 58.12 58.51 57.99 56.94 55.55 54.17 52.05 52.24 52.72 52.34 51.10 49.75 49.72 50.52 50.70 50.34 49.36 48.53 48.02 48.26 46.72 45.75 45.34 44.61 45.55 45.09 45.22 46.76 45.63 44.05 44.58 44.46 46.37 46.42 47.50 45.94 45.55 45.57 46.11 47.48 48.75 52.40
52.57 53.65 54.01 55.03 55.78 53.61 51.23 51.57 51.51 48.17 48.79 48.95 49.72 50.92 49.62 49.81 49.07 46.33 45.86 45.90 46.11 44.88 43.83 44.41 44.32 43.75 43.54 44.28 42.37 43.70 42.52 42.05 43.68 44.53 45.03 44.50 44.36 44.63 44.52 45.33 45.68 45.71 47.15
51.27 52.28 52.13 51.62 51.19 51.61 51.80 50.46 50.26 49.30 48.62 51.65 50.95 48.87 48.16 46.97 45.91 45.59 44.41 44.42 44.43 43.88 42.94 42.55 42.53 42.28 42.36 43.41 41.93 41.17 38.06 40.44 41.66 43.61 42.26 42.07 40.53 42.89 43.42 43.91 44.03 42.34 42.42
48.00 48.50 48.55 48.64 49.27 50.16 51.54 49.83 47.84 47.90 48.20 47.15 45.90 44.54 44.40 45.66 44.97 44.51 43.94 44.13 43.66 42.93 41.84 41.88 42.18 41.43 40.56 41.74 42.06 40.46 36.76 34.87 37.22 40.25 40.45 39.32 38.67 38.91 40.05 42.04 42.74 41.69 42.61
45.33 46.26 46.93 47.59 47.88 48.31 47.90 47.18 46.86 46.00 45.61 45.40 43.86 41.85 42.10 43.96 43.48 44.02 43.61 43.45 42.73 42.23 41.11 41.96 41.77 39.86 39.68 38.26 40.04 41.98 39.44 37.80 34.35 33.57 36.81 38.48 37.75 38.78 38.09 38.97 39.51 40.44 42.77
46.28 45.92 46.12 47.36 47.86 47.46 46.87 46.68 46.41 44.96 43.47 43.38 41.15 40.50 40.96 42.13 42.57 43.46 42.51 42.82 42.82 41.65 39.69 39.16 38.85 37.99 38.10 36.97 36.83 36.97 37.56 37.93 36.94 34.75 32.62 33.47 35.91 36.79 38.11 37.95 38.03 38.76 40.93
45.82 45.32 45.13 46.32 46.55 46.99 46.13 45.13 44.62 42.52 41.81 39.80 39.56 40.29 40.14 41.03 41.98 42.31 43.49 41.79 40.71 39.97 38.73 38.13 37.41 36.91 36.22 36.24 36.58 36.33 36.05 36.59 36.32 35.81 34.15 33.25 33.69 35.29 35.90 37.45 36.96 37.75 38.70

GFSSE_sfc_wetblb_012.txt.gz
Wetbulb
68.54 70.08 71.56 72.21 72.23 71.88 71.41 70.95 70.83 71.02 71.15 71.07 70.53 70.29 70.14 69.66 69.61 69.87 70.07 70.17 69.81 68.89 68.97 69.05 69.08 69.11 69.08 69.08 68.87 68.88 69.09 68.89 69.18 69.48 69.66 68.71 69.01 68.90 69.18 69.11 68.76 68.18 69.91
69.30 70.33 71.00 71.58 71.91 71.89 71.54 71.08 71.08 71.44 71.30 70.66 70.25 69.82 69.60 69.02 68.92 68.90 68.33 68.69 68.37 67.60 68.00 67.83 67.81 68.01 68.03 67.92 67.80 67.96 68.08 67.88 68.38 68.40 68.48 67.33 67.72 68.26 67.93 68.55 68.78 68.42 69.32
69.03 70.24 70.48 70.99 71.71 71.96 71.73 71.42 71.68 71.39 70.94 70.57 70.13 69.48 68.64 68.39 68.08 67.71 67.38 68.18 67.44 67.09 66.97 66.89 66.79 66.66 66.74 66.64 66.64 66.70 66.68 66.57 66.87 66.92 66.68 63.48 63.64 68.34 68.04 68.37 68.33 68.86 68.69
69.24 69.55 70.37 70.91 71.46 71.67 71.39 71.52 71.64 71.38 70.89 70.39 69.86 68.73 68.42 67.72 67.14 66.54 66.63 67.52 66.38 66.03 65.67 65.32 64.92 64.71 64.47 64.42 64.13 63.93 63.86 64.25 64.72 64.74 62.19 63.07 63.99 67.88 67.76 67.53 68.08 67.99 68.23
68.51 69.84 70.22 70.50 71.00 71.44 71.53 71.57 71.37 71.34 70.88 70.39 69.55 68.48 68.01 67.02 66.15 65.84 65.74 66.24 65.31 64.74 64.23 63.91 63.47 63.09 62.92 63.05 62.91 62.86 63.12 63.28 62.77 60.05 59.48 62.02 64.14 64.63 67.72 67.59 67.32 67.37 67.95
67.66 68.54 69.30 69.77 70.82 71.55 71.72 71.56 71.24 70.93 70.34 70.03 69.39 68.12 67.40 66.58 65.62 65.21 64.69 64.40 64.19 63.77 63.55 63.22 62.71 62.62 62.49 62.54 62.95 62.76 62.85 63.09 61.28 56.53 58.17 60.53 62.73 66.24 67.93 68.23 67.55 67.08 67.80
68.18 68.45 69.21 69.08 70.27 71.04 71.55 71.21 70.91 69.91 69.39 69.32 68.90 68.19 67.03 66.10 65.14 64.40 64.14 63.88 63.40 63.49 63.49 63.38 63.24 63.06 62.55 62.58 62.63 62.68 62.76 62.77 58.91 56.05 56.84 61.38 62.05 66.84 67.69 67.72 67.25 66.67 66.83
68.78 69.22 68.76 69.79 69.95 70.06 70.28 70.38 69.54 68.88 68.83 68.72 68.25 67.59 66.45 66.09 65.31 64.18 63.82 63.52 62.98 63.26 63.28 63.68 63.17 63.06 63.15 63.16 63.43 63.26 62.39 62.98 58.04 56.14 57.70 59.48 64.22 66.90 67.74 67.40 67.87 67.09 66.61
69.31 69.31 68.79 68.40 69.03 68.87 68.16 68.04 67.84 68.13 68.10 67.83 67.48 67.11 66.70 65.75 65.15 64.70 64.27 64.12 63.42 63.44 63.93 63.90 63.99 63.75 63.36 63.37 63.27 62.83 61.74 61.59 55.20 55.79 57.42 58.29 64.08 66.08 66.85 66.45 67.26 67.68 67.20
67.63 67.72 67.66 68.14 68.82 66.41 65.81 66.74 66.59 66.74 66.76 66.72 66.86 66.06 64.96 64.74 64.57 64.65 63.95 63.82 64.33 63.73 63.80 64.14 64.08 64.15 63.81 63.43 63.04 62.54 61.63 57.09 52.58 53.21 53.96 55.85 63.43 65.00 66.37 66.39 66.44 66.61 66.57
66.76 66.94 66.85 66.92 66.10 64.02 63.72 65.40 66.47 66.64 66.25 65.84 65.64 65.24 63.24 60.65 60.24 60.75 63.40 64.03 64.34 64.23 64.32 64.21 64.37 64.05 63.68 62.45 61.41 61.76 60.72 52.45 51.15 51.54 51.30 56.65 61.37 62.51 63.87 65.57 66.60 66.08 66.06
64.01 64.47 64.84 63.06 62.41 62.38 64.92 63.50 62.52 63.23 63.00 62.78 62.94 62.64 61.46 60.92 60.50 61.77 62.27 63.26 63.38 63.71 64.10 63.90 63.99 63.84 62.17 58.28 57.06 58.50 55.73 54.21 50.97 49.94 50.27 57.26 59.83 61.66 62.92 64.41 65.90 65.90 65.21
63.32 63.16 61.99 61.46 61.51 61.47 62.21 61.77 61.29 61.61 61.26 61.57 61.67 61.16 60.91 61.47 60.50 59.78 59.45 58.41 57.71 59.98 57.17 57.77 58.26 57.80 57.59 56.88 56.11 55.71 55.88 55.08 51.78 50.37 51.20 57.38 58.65 61.10 62.14 62.66 64.72 65.14 65.04
59.76 61.16 61.46 61.01 60.54 60.48 60.66 60.78 60.41 60.98 60.83 60.92 61.75 61.69 60.36 59.41 57.54 56.43 55.57 53.70 53.37 53.41 53.50 53.96 54.45 54.79 54.14 53.43 53.44 54.15 54.39 53.66 51.96 50.73 50.44 56.06 57.31 59.21 61.06 61.95 63.24 64.85 64.90
58.79 59.84 60.10 60.23 59.81 59.97 59.90 60.09 59.82 60.35 61.33 61.18 61.22 60.82 59.20 57.50 54.70 54.58 53.78 53.78 53.48 53.63 53.10 52.37 52.19 52.27 52.08 52.07 51.80 52.19 52.28 52.02 51.55 50.64 49.58 54.19 56.02 57.52 59.41 61.05 61.62 61.91 63.06
59.22 59.38 60.34 60.48 60.17 59.19 58.97 59.33 59.61 59.96 60.69 60.93 60.22 59.31 58.23 56.19 54.74 54.44 53.30 52.38 51.56 52.15 51.31 51.00 51.18 50.85 50.11 50.01 49.32 50.36 50.29 50.27 50.34 50.33 50.06 49.88 53.85 54.95 56.36 58.11 59.20 60.02 61.07
58.62 59.44 59.59 59.87 58.98 58.76 58.65 59.10 59.83 59.82 59.63 58.57 57.43 56.76 56.77 55.50 54.34 51.71 50.05 49.18 49.40 50.46 49.79 48.98 49.08 47.97 47.04 47.74 47.13 47.85 47.83 48.72 48.83 50.22 49.90 49.53 49.23 51.70 52.87 53.96 55.45 57.09 58.27
59.00 59.54 60.21 60.96 60.17 60.06 58.12 58.68 59.07 56.53 56.33 54.53 54.23 54.80 53.66 52.53 50.79 48.94 48.48 48.72 49.87 49.08 47.55 47.33 47.36 45.62 45.56 45.47 44.78 45.38 45.42 46.56 46.87 49.52 48.90 48.29 47.70 46.88 47.77 51.00 52.08 52.90 54.01
59.58 59.91 59.61 60.13 60.20 59.44 57.70 57.36 55.87 53.33 52.97 50.27 50.79 50.17 50.08 50.42 50.12 48.61 49.42 49.36 47.75 46.20 45.37 45.58 45.09 44.87 44.51 44.48 45.21 44.97 43.82 44.32 45.07 49.08 47.55 46.47 45.59 45.44 44.91 47.47 49.02 49.36 50.60
57.83 58.32 57.80 57.54 57.67 56.63 54.94 52.68 52.69 52.08 51.20 51.37 50.00 49.23 49.74 50.32 49.42 49.17 47.48 46.09 45.34 44.21 43.67 43.59 43.24 43.70 43.69 43.75 45.59 44.28 43.26 44.00 44.86 45.80 44.78 45.30 44.56 44.39 44.33 44.44 44.04 44.33 46.70
53.90 55.73 54.86 54.82 54.39 53.12 50.97 51.56 49.75 48.98 49.72 49.37 48.09 47.83 48.64 48.62 47.07 44.82 44.38 44.34 44.05 42.94 42.29 43.02 42.67 42.32 42.18 43.21 41.82 41.16 42.20 41.85 43.26 44.65 43.93 42.70 42.89 43.76 43.75 43.33 43.36 42.90 42.38
51.57 53.71 53.82 52.41 51.27 51.51 51.07 50.23 50.64 48.56 48.29 47.66 45.93 44.68 45.03 44.70 44.31 44.42 43.64 43.23 42.72 42.18 41.89 41.80 41.52 40.99 41.29 42.22 40.61 39.72 36.77 38.89 41.17 42.13 42.10 41.79 40.20 41.69 41.71 42.13 42.34 42.70 41.91
49.50 48.24 48.47 48.62 48.65 49.41 50.23 47.72 46.57 46.89 47.26 45.44 44.19 41.71 42.65 43.49 43.63 43.30 43.50 42.79 42.12 41.58 41.38 40.69 40.49 39.77 38.81 39.86 40.17 39.02 35.52 32.98 36.45 39.26 39.82 39.62 38.66 38.76 39.45 40.37 41.34 42.02 41.61
44.24 45.10 46.02 46.81 46.56 47.13 46.62 46.19 45.48 44.32 43.87 43.47 41.27 40.13 41.04 42.49 42.94 43.20 42.91 42.39 41.33 41.18 42.11 40.57 40.26 38.94 39.38 36.34 38.43 39.92 38.22 37.55 34.62 32.81 36.51 37.91 37.72 38.71 38.34 38.88 39.73 40.39 41.11
45.05 44.65 44.80 46.10 46.35 45.96 45.26 45.57 44.70 42.49 42.64 40.64 39.75 40.36 40.22 41.30 42.33 42.33 41.78 41.35 41.41 40.13 38.90 38.26 37.33 36.45 36.76 35.40 35.35 35.49 35.68 36.32 36.49 35.98 31.72 33.76 37.46 37.96 38.24 38.60 38.51 39.27 40.03
45.41 44.32 44.36 44.51 43.70 44.10 43.70 43.53 42.74 41.88 39.53 39.57 40.33 40.62 40.20 40.35 40.79 41.04 41.79 39.81 39.30 38.65 37.93 37.12 36.62 35.59 35.06 34.72 35.14 34.83 34.64 33.65 32.37 32.80 31.44 31.62 31.96 34.74 35.90 37.82 37.75 38.55 39.30

GFSSE_sfc_wetblb_015.txt.gz
Wetbulb
69.39 71.07 71.47 71.51 71.80 71.51 71.11 70.88 70.86 71.07 71.43 71.40 70.82 70.26 70.45 69.70 69.85 70.03 69.85 69.56 69.17 68.22 68.42 68.59 68.63 68.68 68.81 68.65 68.64 68.46 68.23 68.04 68.07 68.67 68.94 68.50 68.61 69.20 68.78 69.37 69.42 68.07 69.83
70.68 71.46 70.53 71.06 71.77 71.27 71.00 70.96 71.11 71.36 71.41 70.58 69.97 69.43 69.64 69.11 68.63 68.66 68.98 68.83 68.57 67.59 67.72 67.72 67.46 67.25 67.23 67.09 66.71 66.54 66.49 66.48 66.67 67.08 67.22 67.52 67.57 68.92 68.87 69.19 69.23 68.60 69.32
70.79 71.46 70.93 70.20 71.46 71.17 71.14 71.56 71.71 71.51 70.72 70.45 69.72 68.97 68.58 68.15 67.69 67.50 67.83 68.27 67.72 66.51 66.17 65.77 65.22 64.85 64.74 64.35 63.82 63.87 64.09 64.48 64.49 65.07 65.74 67.25 67.23 69.00 68.81 69.10 69.24 69.15 68.63
70.92 71.44 70.67 70.23 71.25 71.26 71.16 71.59 71.66 71.31 70.72 70.25 69.26 68.68 68.12 67.45 66.89 66.87 66.75 67.30 66.70 65.14 64.60 64.09 63.69 63.46 63.36 63.28 63.49 63.46 63.70 63.59 62.81 62.69 65.28 66.21 67.45 67.13 68.29 68.07 67.59 67.66 67.88
70.64 71.23 70.70 70.21 70.64 71.11 71.30 71.50 71.54 71.30 70.94 70.47 69.41 68.37 67.57 66.64 66.24 66.07 66.22 66.48 65.04 64.33 64.09 63.59 63.19 62.71 62.76 63.32 63.52 63.38 63.54 63.40 61.87 63.39 64.64 66.80 67.21 67.14 67.92 68.08 67.54 67.32 67.63
70.27 70.76 69.52 69.35 70.53 71.20 71.35 71.51 71.41 70.90 70.34 69.82 69.18 68.29 67.20 66.13 65.39 65.04 65.42 65.42 64.43 64.72 64.45 64.21 63.65 63.07 62.91 63.77 63.68 63.01 63.04 63.13 62.35 64.07 64.71 66.24 67.02 67.45 68.20 67.87 67.85 67.04 67.32
69.64 70.74 70.66 69.04 69.86 71.08 71.64 71.42 70.80 70.19 69.63 69.34 68.98 68.49 67.13 65.95 64.82 64.30 64.56 64.30 64.46 64.48 64.19 64.04 63.89 63.60 63.56 64.06 63.63 62.79 62.70 62.88 62.10 63.44 63.95 64.59 66.60 67.27 67.63 67.24 67.85 67.32 66.80
69.08 70.48 70.98 70.12 70.12 70.45 70.80 70.34 69.34 68.91 68.95 68.60 68.32 67.90 66.60 65.76 65.19 64.58 64.15 63.89 64.04 64.13 64.34 64.01 63.85 63.79 63.85 63.81 63.73 63.57 62.18 61.98 59.69 60.11 61.75 62.64 64.78 66.26 67.17 66.76 67.81 67.81 67.44
69.88 69.75 70.61 71.03 70.50 68.93 68.52 68.52 67.91 68.04 68.10 67.72 67.31 67.16 66.51 65.60 64.91 64.99 64.91 64.45 63.87 64.56 64.91 64.69 64.46 64.47 63.99 63.85 63.52 62.92 62.07 59.32 59.48 59.10 58.50 59.92 63.28 64.85 66.09 66.67 67.01 66.75 66.47
69.14 69.40 69.46 69.93 69.93 70.10 70.12 67.29 67.11 66.99 66.92 66.94 66.57 65.82 64.95 64.58 64.40 64.33 63.38 64.39 64.86 64.81 64.65 64.71 64.82 64.77 64.36 63.80 62.90 62.38 62.01 59.29 60.41 59.67 58.99 58.54 61.62 63.06 63.80 64.62 65.95 65.88 65.75
67.30 68.00 68.34 67.89 68.13 69.51 69.16 67.92 66.75 66.74 66.41 66.07 66.07 65.06 63.94 64.77 64.92 64.43 63.93 64.04 64.48 64.57 64.76 64.85 64.78 64.57 64.09 63.07 62.22 62.09 61.29 62.49 62.00 60.99 60.10 57.52 59.85 62.22 62.94 64.23 66.14 66.48 66.07
65.65 66.42 67.22 67.45 67.02 68.52 67.16 67.42 66.82 66.29 66.04 65.93 65.83 66.19 65.90 65.59 65.82 65.15 64.48 62.86 62.51 63.25 62.94 62.42 62.57 62.60 62.72 63.56 62.35 61.68 62.08 62.39 61.91 61.36 60.66 57.63 59.45 61.17 62.20 63.87 64.77 65.28 65.52
65.92 65.23 65.94 66.09 67.00 66.79 66.12 66.31 65.83 65.61 65.46 65.83 65.89 65.92 66.19 66.24 66.21 66.31 65.92 64.67 63.75 60.65 61.76 61.80 62.52 62.46 61.86 61.24 60.60 60.83 60.46 60.31 60.04 59.42 58.96 57.45 59.04 61.02 62.08 62.26 62.98 64.14 64.92
64.59 65.67 66.45 66.80 65.83 65.37 65.57 65.33 64.78 64.62 65.13 65.40 66.02 65.94 66.21 65.78 65.09 64.03 62.70 61.75 61.46 60.91 60.81 60.34 60.47 60.56 60.11 59.12 58.52 58.79 58.15 57.19 56.49 56.93 57.57 56.47 57.83 59.89 61.31 62.11 62.30 62.71 62.88
63.27 64.63 65.30 64.69 64.10 64.03 63.89 64.77 64.43 64.76 64.86 65.10 65.65 65.84 66.17 65.05 63.39 62.70 61.24 60.33 59.87 59.72 58.92 58.76 58.94 58.38 57.90 56.99 57.22 56.63 55.53 55.54 55.68 55.86 57.10 55.43 56.65 58.00 59.24 60.24 60.65 61.02 61.27
62.58 63.39 63.65 63.58 63.38 63.27 63.25 63.74 64.08 64.31 64.13 64.10 63.63 63.29 63.47 63.11 62.37 61.10 58.61 57.56 57.62 58.19 57.61 57.60 57.31 56.11 55.40 54.95 54.62 55.03 54.01 54.16 55.03 55.60 55.70 56.03 52.65 53.02 54.69 55.84 56.46 56.91 58.00
62.53 63.14 63.17 62.46 62.47 62.94 63.02 61.78 61.31 59.59 60.73 60.87 61.55 60.00 59.61 59.95 58.04 57.59 57.09 57.16 56.78 56.63 56.28 56.41 55.71 55.08 54.58 53.33 52.67 52.76 53.00 52.84 53.12 54.60 54.52 54.01 53.39 50.94 51.11 52.21 52.96 53.36 53.98
62.88 63.25 63.34 62.83 62.36 61.67 59.88 59.10 57.25 56.76 58.10 58.43 58.50 57.81 57.26 56.52 56.80 56.98 56.17 55.34 55.09 54.69 53.54 54.11 53.23 52.70 52.46 51.57 51.02 51.61 51.86 51.26 51.96 54.88 52.83 52.25 52.03 51.45 51.27 49.80 50.31 50.56 51.09
62.92 62.38 62.53 62.97 61.68 60.20 58.38 56.78 56.08 55.45 55.69 55.85 56.45 56.01 55.81 55.49 55.14 55.29 54.46 53.55 52.96 52.72 52.30 51.66 51.11 51.01 50.09 49.22 48.13 49.93 49.33 49.37 51.69 53.08 51.68 50.83 50.52 50.44 50.06 48.92 48.29 48.20 48.88
61.65 62.16 61.86 60.83 58.93 57.58 57.15 55.88 55.91 56.09 55.40 55.46 54.80 53.98 53.61 53.72 53.54 52.70 52.15 52.10 52.06 51.12 50.70 50.81 50.04 49.83 49.40 48.12 46.29 47.40 47.57 49.53 52.79 52.63 49.94 49.79 49.47 49.20 48.89 48.35 48.50 48.09 47.24
60.15 60.25 60.14 59.31 57.52 56.85 55.49 56.17 55.86 56.34 55.07 53.12 52.60 52.43 52.21 51.57 51.42 51.78 51.36 51.15 51.08 50.22 50.51 50.36 50.03 47.78 47.31 48.11 46.10 45.30 46.20 49.49 49.84 49.96 48.78 48.63 47.62 47.31 47.53 47.28 46.77 46.64 46.80
59.56 59.02 58.96 58.01 56.67 57.33 57.86 57.29 57.54 55.83 54.35 51.68 50.77 50.71 50.40 50.61 50.45 50.37 50.82 50.60 50.75 50.28 49.90 49.16 47.96 46.48 46.85 47.57 43.21 42.80 40.27 42.96 46.54 47.52 46.79 46.74 46.26 46.22 45.95 46.06 45.85 45.84 46.10
58.16 56.87 55.59 55.59 56.01 55.83 55.55 54.57 54.06 54.13 53.23 51.80 50.04 49.23 48.98 49.86 50.01 50.69 50.68 51.35 50.55 49.42 48.63 47.39 46.81 45.78 43.79 45.33 46.01 41.93 38.00 37.02 40.14 44.28 44.12 44.74 45.45 44.88 44.60 44.30 44.24 44.39 45.18
51.85 53.25 53.58 53.23 52.69 52.21 52.59 52.94 52.62 52.30 51.62 49.75 48.56 49.08 50.26 49.72 50.33 50.03 49.73 49.44 48.72 48.31 47.01 46.32 45.53 44.39 42.96 39.95 41.78 43.91 42.26 40.74 35.61 34.38 40.68 42.14 42.84 41.61 42.29 42.58 42.99 43.41 44.33
50.90 51.70 51.60 51.34 51.07 50.98 51.90 52.31 51.46 50.02 49.16 48.79 49.49 49.04 48.77 49.28 48.69 48.00 47.82 48.06 47.63 46.69 45.75 44.96 43.91 42.13 42.02 39.99 39.21 38.73 38.58 38.58 38.66 35.91 31.50 35.27 38.62 40.09 41.05 40.04 41.48 42.26 42.32
50.41 50.57 50.43 49.89 49.52 50.67 51.04 51.22 50.89 49.52 48.15 48.77 49.08 48.84 49.12 49.10 49.28 48.57 47.08 47.01 46.41 45.49 44.44 43.76 42.77 41.36 41.10 40.82 40.20 38.74 36.56 34.76 34.10 34.24 32.90 33.46 33.49 36.08 38.02 38.93 39.21 39.93 40.36

GFSSE_sfc_wetblb_021.txt.gz
Wetbulb
69.49 70.17 71.65 71.93 71.74 71.42 71.37 71.25 71.33 71.43 71.55 71.06 70.21 70.04 69.72 69.47 69.69 69.86 69.87 69.72 69.52 68.38 68.14 67.53 66.89 66.30 65.98 65.62 65.57 65.59 65.84 66.29 66.69 67.00 67.16 68.61 69.85 69.74 69.35 68.84 69.23 68.02 69.27
70.28 70.32 70.77 71.47 71.60 71.34 71.41 71.35 71.45 71.49 71.17 70.09 69.79 69.18 69.13 69.18 69.45 69.21 68.94 68.81 67.74 66.27 65.96 65.30 64.69 64.05 64.03 64.26 64.40 64.31 63.98 63.76 64.38 65.84 67.15 68.54 69.34 69.58 69.08 68.23 68.28 67.97 68.17
70.41 70.33 70.70 70.90 71.17 71.43 71.57 71.76 71.78 71.25 69.99 69.45 69.18 68.33 68.06 68.11 67.74 67.62 67.89 67.78 66.28 65.14 64.77 63.97 63.90 64.69 64.81 64.56 64.62 64.62 64.50 64.10 63.86 64.88 67.03 68.12 68.38 68.52 67.92 68.89 68.18 67.92 67.93
70.61 69.07 69.34 70.58 70.99 71.39 71.64 71.89 71.52 70.82 69.69 69.06 68.50 67.69 67.69 67.40 66.98 66.61 66.39 67.03 65.74 64.82 64.45 63.74 64.51 64.22 63.78 63.81 63.81 63.98 64.19 64.48 65.07 66.57 65.80 65.71 67.47 67.80 67.36 67.94 67.52 67.07 67.40
70.43 69.84 69.60 70.17 70.66 71.20 71.03 71.29 71.06 70.94 70.25 69.55 68.77 67.29 67.08 66.53 66.04 65.46 65.47 66.55 65.64 65.33 64.58 64.49 64.42 64.08 63.90 63.45 63.12 63.12 63.45 64.24 65.20 64.76 65.44 65.38 66.57 67.89 67.95 67.18 67.71 67.58 66.88
69.52 69.56 68.91 69.63 70.28 70.75 70.49 71.21 71.18 70.40 69.80 69.52 68.81 67.13 66.26 65.52 65.09 65.14 65.47 65.94 65.52 65.15 64.76 64.60 64.36 64.41 64.47 64.45 63.66 62.77 63.21 64.21 63.33 61.29 63.52 65.70 65.80 67.44 67.63 66.73 66.23 65.62 66.42
68.52 68.97 69.20 68.49 69.34 70.06 70.70 70.74 70.67 69.96 69.75 69.31 68.58 67.48 66.07 64.66 64.53 64.95 65.36 65.53 65.23 64.74 64.64 64.51 64.55 64.43 64.49 64.33 64.11 63.82 63.17 63.28 62.88 60.59 60.52 62.67 64.64 66.15 67.21 66.99 66.51 66.01 65.29
67.59 69.00 69.01 68.99 68.68 69.10 69.72 70.23 69.55 69.35 69.23 68.78 68.15 67.04 65.01 64.81 64.62 64.81 64.91 64.86 64.67 64.57 64.52 64.33 64.66 64.65 64.73 64.38 64.12 63.39 63.32 63.19 63.46 61.78 60.98 61.33 64.14 64.61 64.48 65.18 66.42 65.96 65.22
64.98 68.95 69.07 68.74 68.79 68.38 68.62 68.52 68.12 68.15 68.38 68.10 67.74 67.03 65.58 65.48 65.41 64.79 64.57 64.48 64.36 64.69 64.76 65.02 64.83 64.87 65.05 64.41 63.58 63.49 63.33 63.74 63.31 61.85 61.62 61.75 62.74 63.69 63.79 64.00 64.35 64.87 64.88
64.72 68.69 69.64 70.03 69.93 70.11 69.81 67.52 67.49 67.28 67.27 67.34 66.38 65.86 65.20 65.35 64.56 64.57 65.16 65.08 65.03 64.91 65.28 65.38 65.04 64.90 64.92 64.90 63.80 62.70 62.96 63.48 61.82 61.64 62.84 61.93 62.53 63.50 63.61 63.32 63.33 63.86 64.48
68.33 69.19 69.72 69.31 69.32 69.63 69.48 68.00 67.11 67.24 66.85 66.57 65.34 64.91 63.63 65.92 66.04 65.12 64.22 64.02 64.05 63.89 63.91 63.12 63.51 64.17 64.30 64.77 63.74 62.20 62.24 61.18 61.43 60.59 61.80 61.55 62.64 63.44 63.73 63.21 63.24 63.55 64.10
67.01 67.53 68.58 69.10 68.81 68.84 67.06 67.80 66.51 65.17 65.06 66.55 66.32 65.83 66.87 66.95 67.13 65.71 64.42 63.48 63.04 61.99 62.79 62.20 62.84 63.90 63.74 62.54 62.15 64.06 60.86 60.78 60.06 59.77 59.54 61.04 61.84 63.35 63.81 63.52 63.54 63.58 63.69
66.31 67.17 67.71 68.42 69.34 67.47 66.68 65.99 64.76 65.24 66.69 67.56 67.96 67.53 67.93 67.12 67.33 66.31 65.96 65.17 66.06 62.50 64.65 63.95 64.03 63.04 62.92 62.17 61.07 61.16 60.68 60.14 58.96 58.83 59.46 60.75 60.93 61.72 62.36 62.12 62.14 62.24 62.07
66.40 67.56 67.26 67.65 68.86 67.59 66.00 65.04 65.35 65.96 67.10 66.85 67.30 67.98 67.72 67.02 66.79 65.62 64.56 64.84 65.07 64.71 63.88 63.61 62.95 63.04 62.11 61.17 60.55 60.29 59.68 58.88 58.37 58.33 58.52 58.78 58.39 58.96 59.81 59.91 59.72 59.37 58.80
64.77 66.34 66.92 67.57 67.18 66.57 65.88 66.43 67.01 66.89 67.91 68.29 67.71 68.17 67.97 67.06 66.34 65.79 65.54 65.00 64.45 63.81 63.26 62.66 62.00 60.74 60.69 59.82 59.48 58.79 58.42 58.29 58.17 57.50 58.55 56.46 57.02 56.53 56.61 57.19 57.23 57.25 57.05
64.54 65.87 66.43 66.15 66.25 65.83 66.66 67.55 67.22 66.61 66.22 66.37 66.59 66.04 65.44 65.55 63.95 62.27 63.19 63.82 62.54 62.60 62.02 60.95 59.83 58.89 58.95 59.03 58.18 58.01 57.58 57.32 57.66 57.48 56.88 57.49 55.95 55.40 54.62 54.22 54.76 55.06 55.33
64.55 66.06 65.91 66.37 66.50 67.33 66.85 64.42 62.53 61.81 62.21 64.02 65.05 64.82 63.79 63.39 63.64 64.15 62.76 61.54 61.37 60.92 60.51 59.89 59.35 58.43 57.39 57.02 56.53 56.35 55.88 56.04 56.03 55.71 55.58 56.46 55.99 54.29 53.52 52.73 51.97 52.36 52.41
65.07 66.16 66.68 66.06 66.96 66.11 63.97 62.46 61.31 61.19 62.11 63.14 63.17 63.21 62.35 62.21 61.35 61.43 60.81 60.40 59.98 59.64 58.28 57.83 56.97 55.88 55.38 55.23 54.72 54.65 54.37 54.27 54.64 54.91 54.80 55.70 55.81 55.37 52.91 51.46 50.62 50.49 50.21
65.71 67.01 66.75 66.70 65.81 64.63 64.10 61.37 60.38 62.26 61.67 61.77 61.86 61.37 60.94 60.52 60.43 60.69 59.61 58.96 58.68 57.57 57.11 56.31 55.82 55.42 54.39 54.22 53.54 53.24 53.62 52.85 53.49 52.18 52.66 54.16 55.28 54.08 53.14 53.65 52.81 52.30 48.82
65.92 67.46 67.06 66.16 65.09 64.50 63.45 62.91 63.21 63.12 62.90 62.21 61.43 60.46 59.85 59.08 58.81 59.26 58.50 57.75 57.16 56.37 56.09 55.93 55.06 55.06 54.06 52.97 50.89 50.84 52.45 51.41 51.29 51.32 52.27 53.38 52.95 52.32 52.33 51.19 50.53 50.20 51.11
66.65 67.02 65.01 64.13 64.31 62.99 63.84 63.24 62.68 60.25 60.63 60.50 59.55 58.87 58.41 57.77 57.05 57.04 56.98 56.80 56.71 55.57 55.14 54.93 53.98 52.75 50.32 51.46 49.33 48.95 49.07 51.27 51.94 50.97 51.00 51.23 50.76 50.32 50.64 49.80 49.65 48.87 48.12
65.53 66.06 64.61 64.44 64.18 64.68 64.50 63.39 62.23 62.08 60.52 59.13 58.66 57.74 57.22 56.77 56.45 56.09 55.93 55.49 55.30 53.89 53.42 52.55 51.96 49.82 49.35 50.35 46.97 46.22 42.05 44.36 48.12 49.01 48.74 48.26 50.12 48.71 48.37 48.42 47.93 47.16 46.83
64.15 63.95 63.84 64.08 64.52 63.96 63.53 62.32 61.41 60.31 58.70 57.55 57.48 57.03 56.14 56.26 56.08 55.63 55.11 54.46 53.57 52.25 50.40 50.98 50.69 49.62 46.65 47.66 48.73 44.74 40.03 38.65 42.16 45.52 46.05 46.69 48.62 46.69 46.69 46.06 45.88 45.46 45.46
64.35 65.31 64.65 63.71 62.74 62.16 61.22 59.58 58.84 58.72 57.21 56.71 56.59 56.22 56.42 56.08 55.14 54.65 53.60 53.05 52.34 51.52 50.81 50.32 49.95 48.77 47.25 44.44 46.34 46.28 46.36 44.43 38.72 37.05 42.15 43.25 44.33 43.88 45.43 44.14 43.77 43.74 43.79
62.41 62.11 62.11 61.14 59.01 59.04 59.48 59.45 58.19 56.90 56.31 56.13 55.65 53.46 53.48 52.86 51.77 51.10 50.85 51.22 51.82 51.23 50.95 50.32 49.37 48.21 47.01 45.73 44.33 43.67 42.93 42.22 41.84 38.28 35.17 37.97 40.89 42.13 42.76 42.94 42.96 42.86 43.12
60.19 59.60 58.82 57.89 57.53 58.22 57.89 57.49 56.45 54.43 53.06 52.08 50.67 49.16 48.66 48.39 48.58 48.90 48.61 48.95 49.45 50.14 49.95 49.65 49.11 47.53 46.67 45.72 44.05 43.17 41.17 38.96 37.82 37.45 35.70 36.65 37.49 39.60 41.25 42.04 43.28 42.67 43.16

GFSSE_sfc_wetblb_024.txt.gz
Wetbulb
66.79 69.71 71.35 72.00 71.89 71.59 71.24 71.09 71.31 71.15 71.23 71.16 70.87 70.33 70.21 70.19 70.17 69.88 69.57 69.18 68.85 67.34 66.41 65.81 65.01 64.67 64.77 64.81 64.75 64.56 64.37 65.02 66.29 66.92 68.40 69.62 69.88 69.65 68.85 68.52 68.96 66.69 69.64
67.92 69.65 70.92 71.18 71.22 71.26 71.31 71.31 71.20 70.97 70.77 70.22 70.19 69.89 69.75 69.55 69.44 69.15 68.62 68.19 67.63 65.89 64.95 64.90 65.22 65.51 65.45 65.36 65.21 65.11 64.92 65.09 65.66 66.53 68.03 68.94 69.05 68.59 68.50 68.11 69.03 67.95 68.86
67.52 69.03 69.61 70.63 70.95 71.11 71.58 71.53 71.35 70.80 70.10 68.96 69.20 69.36 69.07 68.76 68.35 68.15 67.79 67.29 66.82 64.85 64.80 65.32 64.85 64.44 64.42 64.25 64.37 64.50 65.07 66.30 66.73 67.12 67.16 66.60 66.33 68.15 68.47 68.47 68.58 68.33 68.96
68.13 68.45 68.98 70.59 70.93 71.49 71.51 71.28 70.77 70.40 69.54 69.32 68.93 68.52 68.52 67.84 67.06 67.14 67.50 67.21 67.11 65.19 65.22 64.85 64.50 63.82 63.40 63.32 63.42 63.76 64.97 65.73 65.65 66.01 62.98 66.13 66.01 68.36 67.57 68.02 67.88 67.14 67.81
67.63 68.69 69.54 70.19 70.34 70.99 71.02 70.99 70.49 70.16 69.51 68.78 68.37 67.66 66.77 65.93 65.89 66.21 67.40 67.16 66.84 65.55 65.34 65.29 65.07 65.04 64.64 65.32 65.11 65.03 65.14 65.19 65.08 64.06 62.52 63.44 63.86 67.41 67.61 66.67 65.68 65.97 66.87
68.79 69.19 68.59 68.68 69.58 70.32 70.54 70.61 70.04 69.60 68.99 68.37 67.81 67.50 66.43 65.62 66.16 66.24 67.18 66.99 66.04 65.68 65.38 65.32 65.23 64.99 65.76 65.42 65.31 65.23 64.98 64.91 64.54 57.65 60.31 63.70 63.60 67.71 67.32 67.02 67.23 66.66 66.42
67.22 67.31 68.14 68.00 68.51 69.81 70.65 70.14 69.87 69.38 68.84 68.30 67.73 66.96 66.44 65.22 65.69 66.33 66.82 66.71 66.05 65.32 65.13 64.95 65.07 65.38 65.45 65.29 65.02 64.66 64.44 64.29 61.48 57.75 58.65 60.93 62.20 65.54 65.57 66.13 66.53 66.28 65.90
67.11 67.31 68.20 68.19 68.61 69.19 69.82 69.37 68.90 68.62 68.47 67.79 67.00 66.43 66.05 66.00 66.30 66.27 66.22 66.20 66.05 65.89 65.73 65.23 65.46 65.64 65.68 65.06 64.44 63.79 63.54 63.88 61.15 59.16 58.78 59.92 64.90 64.95 64.42 64.69 66.34 66.23 66.13
66.92 67.24 67.62 67.15 68.55 68.14 68.09 67.73 67.55 67.74 67.73 67.65 66.82 66.33 66.31 66.29 66.02 66.19 66.28 66.16 66.02 65.92 65.92 65.89 65.92 65.78 65.61 65.38 63.99 62.96 62.95 63.02 59.84 59.66 60.57 60.11 64.40 64.66 64.25 64.17 64.98 65.76 65.87
66.13 65.44 66.28 67.44 68.59 67.94 67.04 66.72 66.74 66.67 66.76 66.74 65.93 65.23 65.10 65.18 65.51 65.66 65.83 65.71 65.44 65.28 65.20 65.25 65.23 64.95 65.24 64.90 64.09 63.11 62.59 62.47 57.82 58.31 58.92 60.68 64.85 64.66 64.53 64.01 63.79 65.02 65.71
62.98 65.81 66.64 67.14 67.81 67.64 66.92 66.60 66.70 66.90 66.46 65.86 65.02 64.78 63.60 63.32 63.66 64.21 64.53 64.80 65.02 64.85 64.56 63.75 63.92 63.96 64.20 64.28 64.62 64.08 62.81 57.09 57.06 57.56 57.19 63.02 64.43 64.70 64.52 64.40 64.24 64.50 64.47
61.05 63.83 66.14 66.93 67.17 67.26 66.45 65.29 64.47 64.26 63.73 63.71 63.07 62.63 63.50 65.56 62.89 63.98 64.33 63.94 64.22 63.71 63.73 63.80 63.97 63.72 63.68 59.42 58.84 61.88 57.53 57.58 56.19 56.40 57.17 62.68 63.12 63.42 63.24 62.85 63.11 62.90 62.72
63.58 65.61 66.98 66.84 67.43 65.17 64.75 65.20 63.50 63.09 65.35 66.22 66.26 66.40 66.15 65.54 64.64 63.85 63.97 61.61 62.92 62.81 63.14 61.65 62.38 61.46 60.12 58.78 57.76 57.66 57.42 55.92 54.70 55.20 58.88 61.07 60.95 60.91 61.06 60.74 60.48 60.17 59.76
64.81 65.88 66.52 66.91 67.26 65.21 64.37 63.47 63.87 64.59 65.83 65.57 66.34 66.45 66.06 65.36 64.17 64.16 63.87 63.37 62.36 61.90 61.46 60.87 60.30 60.99 58.60 58.27 57.80 57.05 56.71 55.28 54.22 54.02 56.59 59.26 59.83 58.61 58.47 58.42 58.23 57.89 57.80
64.34 65.48 66.03 66.80 65.87 65.15 65.03 65.62 66.36 66.17 66.85 67.01 67.24 67.04 66.47 65.43 64.19 63.40 63.15 61.67 62.53 61.51 59.90 59.26 58.03 57.22 56.74 56.84 57.05 56.44 55.14 54.52 54.32 54.20 54.11 57.97 58.27 57.00 56.59 56.68 56.63 56.48 56.24
64.53 64.54 65.38 65.40 65.29 65.62 65.64 65.92 64.49 64.08 64.20 65.23 65.45 65.01 64.22 63.77 61.71 61.24 61.55 60.79 60.79 59.37 58.52 57.99 57.08 56.29 55.14 55.16 54.39 54.81 54.22 53.20 53.50 54.11 52.70 53.72 56.76 56.78 55.13 55.07 54.87 54.35 54.00
64.20 64.34 64.47 64.42 64.53 66.03 64.56 62.70 61.82 61.38 61.93 63.91 63.98 64.44 63.60 62.56 62.16 60.77 60.40 59.69 58.94 58.30 57.20 56.33 55.37 54.59 53.22 53.52 52.48 52.63 52.47 51.88 51.47 52.08 52.35 51.43 53.50 55.83 54.57 53.11 52.17 52.47 52.08
63.98 63.66 64.40 64.42 66.02 65.16 62.94 61.66 61.13 61.15 61.94 62.35 62.21 62.28 61.90 61.98 60.41 59.41 58.99 58.26 57.27 56.99 55.43 54.28 53.78 52.37 51.95 51.62 50.76 50.88 50.67 50.34 49.36 50.50 50.68 49.93 52.45 51.60 53.39 53.17 52.17 51.73 50.59
64.69 64.32 64.34 65.61 64.85 62.89 62.79 62.40 61.45 61.88 61.43 61.26 60.33 60.12 60.17 59.58 59.60 58.56 57.03 56.57 55.52 55.23 54.36 54.03 52.71 52.06 50.71 50.20 50.09 48.05 47.93 47.36 48.29 49.68 48.36 48.88 50.01 51.39 50.97 53.80 53.74 52.79 49.90
65.45 65.46 65.05 65.26 63.56 63.44 62.44 61.47 62.07 62.20 62.02 60.86 60.44 59.00 59.04 57.54 57.48 56.64 56.29 54.79 54.33 53.99 53.24 52.73 51.69 51.44 50.22 47.40 48.33 47.23 46.52 47.03 46.86 47.03 47.98 49.80 48.74 49.54 49.01 48.35 46.89 47.11 51.33
65.26 65.28 64.93 63.27 63.18 63.12 61.82 60.79 61.15 60.29 59.68 59.51 57.62 57.93 57.23 56.51 55.74 54.41 54.61 54.46 53.93 52.38 51.87 50.98 48.98 47.81 46.87 46.93 44.39 44.32 44.44 44.57 44.17 44.00 44.60 44.56 45.80 46.67 47.62 47.93 45.09 44.06 44.11
65.32 65.02 64.04 63.41 63.10 63.00 62.78 62.27 61.52 59.63 59.23 57.28 56.68 56.23 55.72 55.59 54.60 54.62 53.43 52.66 52.12 50.36 49.31 48.71 47.46 45.88 45.59 45.94 41.62 41.08 37.97 39.76 42.15 43.35 42.72 43.28 41.79 45.08 45.10 44.16 43.85 43.83 42.20
63.97 63.98 63.56 63.40 63.37 63.66 62.95 61.77 59.39 57.79 56.59 55.23 55.07 54.16 54.30 54.80 54.35 53.55 52.77 51.36 49.98 48.95 47.21 47.38 46.29 45.82 42.69 43.00 43.53 40.37 35.99 34.34 38.14 40.86 40.31 40.74 40.32 40.65 41.30 41.91 42.34 42.21 41.03
62.85 62.87 63.75 63.27 63.40 62.46 61.93 59.70 57.48 55.53 53.99 54.78 54.52 54.28 54.08 54.44 53.17 51.81 50.86 50.09 49.76 49.08 47.83 47.26 47.04 44.89 43.12 40.15 41.61 44.24 40.88 39.02 33.79 32.69 36.95 37.68 38.24 38.92 38.34 39.29 39.24 40.37 40.15
63.25 63.56 63.28 62.40 60.63 59.83 59.07 58.72 57.07 54.88 54.73 54.28 52.80 51.17 50.58 50.03 49.02 48.30 47.72 47.27 46.60 46.43 47.37 46.93 46.34 44.57 43.05 41.10 40.41 38.90 38.00 37.42 36.75 33.11 30.53 32.14 35.69 37.36 38.13 37.89 39.25 38.55 39.77
62.06 61.06 60.29 57.89 57.20 58.07 57.60 56.63 54.86 52.49 50.67 49.20 47.80 46.47 46.95 46.57 46.43 46.75 46.97 45.77 45.97 45.86 45.69 46.52 45.50 44.93 43.72 42.52 41.83 39.72 37.50 34.84 33.39 32.22 30.59 31.33 31.95 34.31 36.14 37.44 37.41 37.29 38.48

GFSSE_sfc_wetblb_027.txt.gz
Wetbulb
68.50 71.17 71.67 72.08 71.85 71.65 71.46 71.21 71.10 70.99 71.05 70.72 70.54 70.42 70.27 69.89 69.53 69.01 68.42 68.04 67.49 66.01 65.66 65.82 66.01 65.92 65.78 65.69 65.59 65.87 65.81 65.91 66.57 67.83 69.76 69.37 69.30 68.99 68.34 68.74 68.91 67.52 68.98
69.32 70.95 70.92 71.36 71.51 71.61 71.55 71.18 70.88 70.58 70.23 70.17 70.10 69.85 69.57 69.26 68.83 68.30 67.90 67.37 67.13 66.30 66.24 65.81 65.25 64.86 64.67 64.67 64.82 65.33 65.88 66.80 67.10 67.19 69.05 68.43 68.66 68.94 68.46 68.25 68.98 68.69 69.32
69.09 70.30 70.46 70.52 71.02 71.51 71.57 71.24 70.88 70.29 69.76 69.51 69.33 69.23 68.83 68.35 68.11 67.77 67.52 67.05 67.19 66.03 65.26 64.81 64.23 64.05 63.97 64.09 64.35 64.90 65.76 66.45 66.39 66.27 67.40 66.08 65.09 67.81 68.23 68.63 68.22 68.11 67.86
68.53 69.34 69.65 70.49 70.84 71.23 71.00 70.63 70.14 69.66 69.18 69.43 69.24 68.66 68.08 67.55 67.18 67.77 67.89 67.06 67.16 66.09 65.86 65.71 65.58 65.05 64.95 65.07 65.20 65.70 66.27 66.16 66.47 66.00 64.73 64.41 65.56 67.90 67.02 65.94 65.99 65.97 66.51
67.16 68.68 69.79 70.06 70.04 70.45 70.42 70.15 69.77 69.22 69.10 68.53 68.27 67.83 67.37 66.95 66.81 66.92 67.43 67.23 67.19 66.06 65.94 65.90 65.51 64.97 64.99 65.68 65.72 65.60 65.87 65.63 65.33 62.97 60.42 62.28 63.79 66.89 67.47 66.87 65.88 65.38 65.04
67.39 68.50 68.38 68.53 68.75 69.71 70.54 70.02 69.37 68.68 67.99 67.65 67.45 67.45 67.06 66.77 66.72 66.80 67.24 67.21 66.24 65.82 65.72 65.45 65.23 65.00 65.70 65.42 65.43 65.46 64.85 65.16 62.21 57.13 60.19 63.75 63.08 66.51 66.34 66.63 66.21 65.45 65.77
67.30 67.33 67.37 67.45 68.40 70.13 70.24 69.77 69.15 68.33 67.75 67.42 67.07 67.20 67.45 66.53 66.37 66.59 67.04 66.68 65.96 65.40 65.43 65.36 65.26 65.75 65.56 65.38 65.46 64.61 63.89 64.07 57.34 55.99 58.14 60.10 62.06 65.44 64.95 65.01 65.24 65.42 65.02
65.80 66.56 66.93 68.62 68.42 69.01 69.21 68.88 68.25 67.78 67.30 66.53 66.71 66.86 67.04 66.83 66.82 66.80 66.91 66.79 66.44 66.09 66.02 65.68 65.81 65.52 65.61 65.46 65.04 63.74 63.04 63.18 58.60 56.72 58.84 59.74 65.68 65.28 64.85 64.64 66.02 66.24 66.19
66.22 65.77 66.20 67.43 68.70 67.81 67.25 67.04 66.95 67.12 66.77 66.29 66.31 66.02 66.14 65.89 65.89 66.27 66.51 66.64 66.35 66.20 65.92 65.67 65.43 64.91 64.90 64.44 64.68 64.01 62.73 63.24 56.53 57.51 60.10 59.82 65.62 65.04 65.09 64.75 64.45 65.30 65.85
63.68 65.20 65.33 66.07 67.09 66.22 65.56 66.15 66.22 66.37 65.78 65.35 65.52 65.37 65.05 65.07 65.49 65.73 65.57 65.59 65.25 65.07 64.98 65.02 64.08 64.20 64.34 64.00 63.74 63.77 62.55 59.94 54.96 56.14 58.57 61.42 66.00 65.37 65.31 64.91 64.80 64.90 64.55
61.92 64.20 64.62 65.27 65.46 65.37 64.82 65.68 65.91 66.39 65.36 64.61 64.64 64.59 63.32 61.95 62.43 63.99 64.09 64.34 64.18 63.77 63.82 63.89 63.49 63.25 63.47 62.93 63.68 63.19 61.58 54.65 54.51 55.00 57.48 63.87 64.88 64.44 64.18 63.83 63.23 62.88 62.52
59.81 63.54 64.84 64.98 65.53 64.86 64.56 63.38 63.17 64.36 62.55 60.88 60.90 61.66 60.94 61.44 61.38 63.16 63.12 63.78 63.60 63.33 63.53 63.19 63.35 63.38 63.03 56.49 56.07 59.04 54.91 53.82 53.00 54.91 57.87 62.52 63.07 62.33 62.05 61.77 60.96 60.41 60.06
60.27 62.86 64.23 64.69 65.98 63.90 62.65 62.08 61.53 61.27 61.17 60.63 59.78 59.95 61.59 62.71 60.06 60.14 59.98 59.50 59.36 62.09 60.71 61.87 59.89 58.70 56.74 55.26 55.36 54.42 54.04 52.93 51.95 54.64 57.83 60.65 61.28 60.27 60.33 60.08 59.28 58.81 58.45
60.05 62.87 64.03 65.33 64.83 62.88 63.50 62.01 60.33 61.00 62.93 62.73 63.17 64.63 63.13 62.58 61.75 60.78 60.16 59.46 59.44 59.24 57.54 56.96 55.38 55.47 54.82 55.63 55.04 53.83 53.50 52.25 52.28 52.64 55.21 58.81 60.04 58.37 58.34 58.09 58.07 57.50 56.90
63.06 63.98 63.52 64.41 61.91 61.51 61.97 64.22 63.92 64.04 64.66 64.97 64.67 63.71 63.21 61.67 59.24 58.84 59.08 58.65 58.25 57.11 56.35 55.64 54.77 54.10 53.12 52.97 52.52 52.44 52.00 51.06 50.99 51.25 52.20 57.90 58.44 57.96 57.39 57.15 56.31 55.66 55.00
63.61 63.27 63.83 63.06 61.27 63.91 63.81 62.73 61.29 61.82 62.95 63.59 62.96 62.68 62.15 60.87 59.04 59.20 58.81 58.21 56.11 55.28 54.37 53.77 52.07 51.56 50.34 50.75 50.97 51.08 50.75 50.21 48.93 48.86 49.89 52.16 57.21 58.01 56.49 55.66 54.54 53.56 53.15
63.05 63.37 62.63 61.14 62.58 62.47 60.75 59.79 59.29 59.61 62.63 61.64 62.09 61.65 61.12 60.24 59.33 57.67 57.10 55.18 54.21 54.14 52.84 51.83 51.59 50.95 50.34 51.41 50.12 50.26 49.62 48.41 47.28 47.33 47.93 47.65 53.12 56.17 55.82 53.77 52.24 52.51 51.88
62.53 61.97 62.02 62.94 62.76 60.01 58.98 59.32 58.96 59.52 59.94 60.09 59.88 59.73 60.04 59.86 58.29 56.75 55.22 53.01 52.78 52.86 51.78 50.71 50.45 49.64 49.25 48.73 47.43 46.64 46.42 46.26 46.63 46.53 46.36 46.03 50.01 51.31 54.36 54.31 52.67 51.68 51.09
62.02 61.83 60.43 62.67 60.26 59.93 59.66 59.06 58.32 59.06 59.06 58.70 57.93 57.64 58.12 57.80 57.17 54.38 53.14 51.76 51.70 51.56 51.19 50.66 49.44 49.02 47.64 46.93 45.48 43.86 43.70 44.22 43.96 46.63 45.79 46.16 46.64 47.68 49.78 53.68 53.36 52.84 50.64
61.70 61.62 62.81 61.60 60.36 59.90 59.14 58.76 58.60 58.50 58.12 57.72 56.47 55.93 54.67 54.04 53.44 53.11 51.77 50.92 51.13 50.34 49.17 48.28 47.36 46.76 46.96 44.24 46.86 44.73 43.22 43.21 42.87 41.91 42.13 44.47 43.83 43.93 45.54 46.31 44.53 45.84 50.16
61.50 62.00 61.95 60.60 60.55 59.97 58.46 57.62 57.40 57.20 56.51 54.15 53.46 53.63 53.12 52.58 52.49 51.06 50.37 50.45 49.42 48.33 46.92 46.71 45.48 44.19 43.44 43.65 41.20 40.10 40.73 41.41 41.21 40.30 41.07 40.97 41.23 42.72 43.04 42.85 43.64 43.44 43.86
61.51 61.57 61.54 61.36 61.11 60.28 59.25 59.69 58.70 56.50 54.50 52.40 52.45 51.65 51.97 51.45 51.39 51.57 49.92 48.95 47.71 46.51 45.46 44.83 43.71 42.57 43.05 41.69 38.77 37.45 35.26 37.62 39.38 40.70 39.00 39.26 37.90 39.80 41.45 43.48 42.32 42.27 40.66
61.37 60.91 61.44 60.92 61.19 61.06 60.31 60.86 55.74 53.61 51.36 50.55 50.04 49.76 50.71 51.77 51.38 50.42 49.37 47.76 46.45 45.76 44.39 43.77 43.26 42.24 39.78 40.16 40.44 38.01 33.94 31.79 34.10 37.13 37.33 37.41 35.93 35.82 36.34 37.87 39.30 39.57 38.88
61.15 61.45 61.21 61.79 60.90 61.32 61.13 54.93 53.45 51.70 50.18 49.83 50.06 50.01 50.05 51.02 48.15 46.29 45.69 44.33 43.43 44.28 43.94 44.13 45.25 42.44 40.63 38.16 38.89 41.83 37.44 36.16 30.88 29.71 33.57 34.59 35.18 36.20 35.15 35.85 36.86 37.71 37.91
62.02 61.36 61.26 60.33 60.82 60.17 58.48 56.19 52.02 50.13 49.56 49.14 48.08 45.54 43.48 44.17 45.53 45.19 44.33 42.41 41.85 42.43 41.84 42.37 42.87 42.63 40.56 38.84 38.45 37.22 35.53 34.84 33.78 30.44 27.03 29.87 32.80 34.09 34.91 34.67 35.25 35.54 37.31
60.84 59.58 58.44 55.64 54.35 53.22 52.30 51.73 50.54 49.21 45.08 43.34 41.93 41.48 43.43 44.79 42.61 44.55 43.38 42.40 42.48 42.04 41.99 42.26 42.19 40.83 40.37 39.83 39.44 39.23 36.29 33.83 31.83 30.54 28.46 28.95 29.27 31.46 33.73 34.87 33.99 34.48 35.39

GFSSE_sfc_wetblb_030.txt.gz
Wetbulb
69.31 71.08 71.64 72.03 71.83 71.62 71.55 71.32 70.59 70.16 70.29 70.16 69.99 69.96 69.53 68.98 68.52 68.15 67.80 67.38 67.71 66.77 66.36 65.94 65.38 65.09 65.19 65.68 66.17 65.98 66.09 66.27 67.91 69.12 69.32 69.12 69.29 68.65 68.18 68.85 68.91 67.16 68.67
70.45 71.25 70.91 71.20 71.49 71.69 71.41 71.01 70.30 70.10 70.04 69.30 69.04 69.25 68.92 68.52 68.03 67.76 67.66 67.85 67.23 65.86 65.33 65.04 64.88 65.03 65.25 65.50 65.73 65.90 65.79 66.07 66.75 68.47 68.62 68.14 68.50 68.26 68.06 67.57 68.81 66.92 68.23
69.65 70.28 70.20 70.46 71.10 71.45 71.25 70.66 70.25 69.80 68.88 68.52 68.37 68.71 68.35 67.96 67.89 67.64 67.74 67.29 67.21 65.96 65.80 65.75 65.56 65.55 65.47 65.28 66.32 66.58 66.62 66.56 66.69 67.22 68.10 63.89 64.18 67.07 66.51 66.29 66.70 66.51 67.48
69.66 69.55 69.44 70.41 70.81 71.11 70.46 69.90 69.48 68.98 68.32 68.49 68.03 67.84 67.72 67.74 67.67 67.86 67.52 67.31 67.56 66.41 66.01 65.75 65.40 65.07 65.04 65.79 66.05 66.19 67.58 67.47 67.59 67.26 62.83 63.96 65.04 67.30 66.99 66.20 65.37 64.74 64.91
68.77 68.92 69.64 69.97 70.16 70.39 70.05 69.48 69.24 69.14 68.74 68.12 68.03 67.96 67.33 67.44 67.28 67.33 67.47 67.21 67.25 66.25 65.90 65.51 65.20 65.11 65.21 65.90 65.98 65.32 65.90 64.72 64.01 62.32 61.18 62.77 63.11 65.38 66.26 65.79 64.83 64.74 64.57
67.56 68.35 68.83 69.03 69.67 70.08 69.88 69.53 69.14 68.50 67.69 67.46 67.88 68.23 67.72 66.96 66.86 67.19 67.32 67.16 66.17 66.02 65.67 65.38 65.24 65.45 65.76 65.62 65.45 64.93 64.54 63.64 61.33 58.01 58.92 62.17 61.48 65.65 65.19 64.97 64.97 64.85 64.61
66.99 67.66 67.80 68.10 69.10 69.54 69.38 69.04 68.37 67.84 67.21 67.32 67.66 67.68 67.66 66.99 66.56 66.90 66.97 66.90 66.39 65.52 65.47 65.16 65.29 65.91 65.74 65.55 65.15 64.19 64.17 62.34 56.84 57.20 58.34 60.40 61.80 65.39 65.05 65.01 64.92 64.92 65.06
65.92 66.43 67.28 68.45 68.53 68.69 68.71 68.00 67.53 67.06 66.75 67.08 67.32 67.31 67.40 67.10 66.90 66.84 66.81 66.71 66.54 66.12 65.84 65.65 65.31 65.13 65.24 65.36 65.08 63.67 62.93 61.44 57.73 56.96 58.81 59.44 65.81 65.52 65.33 65.05 65.01 65.24 65.35
64.98 65.36 66.41 66.49 67.36 67.32 67.10 66.67 66.37 66.20 66.22 66.40 66.63 66.39 66.22 65.97 66.01 66.49 66.59 66.56 66.28 65.84 65.24 64.59 64.54 64.42 64.26 64.46 64.54 63.38 61.28 61.37 56.35 57.91 60.61 60.00 66.43 65.13 65.29 65.34 65.05 64.62 64.36
62.89 63.63 63.60 65.18 65.87 65.90 65.49 66.05 65.91 65.43 65.54 65.68 65.87 65.53 64.89 65.17 65.59 65.87 65.54 65.73 65.61 65.01 64.45 63.69 63.47 63.64 64.10 63.94 63.51 62.42 59.78 59.96 54.41 56.57 58.45 61.49 65.28 64.22 64.23 64.26 63.70 63.12 63.03
62.59 62.93 62.23 64.00 64.94 64.54 64.53 65.24 65.63 65.48 64.98 64.97 65.03 64.74 63.14 61.79 62.08 63.29 63.21 64.34 64.42 63.99 63.88 62.64 63.02 62.99 62.20 62.93 63.03 61.38 57.85 53.31 53.74 55.46 57.62 63.79 63.28 62.66 62.86 62.04 61.45 60.80 60.51
61.29 61.84 62.65 64.39 64.09 63.62 64.23 63.29 62.65 62.73 61.52 61.20 60.98 61.22 60.24 60.25 60.85 62.75 62.94 63.47 63.35 62.81 62.59 63.16 63.03 62.28 59.29 54.79 55.16 57.05 52.57 52.08 53.44 55.08 56.73 62.35 61.64 61.04 61.13 60.74 59.83 59.33 58.85
61.05 60.59 61.81 63.70 64.28 62.76 61.86 61.15 61.24 60.41 58.98 59.22 59.79 59.84 60.12 60.89 60.19 59.73 58.65 58.39 58.32 60.87 58.83 58.25 56.45 54.91 54.27 53.82 53.18 52.57 52.06 51.26 50.72 53.42 56.30 60.79 61.37 59.45 59.91 59.45 58.79 58.41 57.47
60.59 61.60 63.45 64.29 63.95 61.61 60.82 60.16 59.67 59.01 59.97 59.94 63.07 62.37 61.47 60.93 59.01 58.78 57.90 58.05 57.77 56.47 55.28 54.64 53.42 53.11 52.02 52.77 51.96 51.27 50.64 49.69 49.36 50.84 52.78 58.54 60.48 58.17 58.24 58.16 58.24 57.25 56.07
59.85 61.99 63.07 64.06 63.89 61.64 61.02 59.88 60.99 63.03 64.08 63.60 62.57 62.73 61.47 58.47 57.78 58.28 57.29 56.50 55.34 54.53 54.02 52.74 52.34 50.89 50.61 50.58 50.57 50.12 49.37 48.72 47.31 48.20 50.03 56.54 58.11 58.54 56.87 57.48 56.63 55.53 54.82
60.30 62.33 63.36 63.55 60.54 61.71 62.19 62.37 62.60 63.47 63.14 62.30 61.63 61.53 60.33 58.63 58.44 57.87 56.45 54.82 53.71 53.08 52.34 51.03 50.18 49.63 49.10 49.48 49.52 49.11 48.55 46.95 46.22 45.83 47.02 48.47 56.10 57.93 57.46 56.31 54.75 54.27 53.40
63.00 63.08 62.52 60.29 62.81 62.41 60.85 60.38 59.78 61.02 61.43 60.70 60.79 60.47 59.82 59.31 57.41 56.18 54.55 52.86 52.59 52.40 50.54 50.34 49.85 49.51 48.83 49.48 47.74 46.94 46.71 45.69 45.96 45.20 44.82 44.76 50.15 56.66 57.07 54.64 52.49 52.86 52.10
62.35 61.72 61.20 63.59 61.30 59.80 58.17 58.02 58.70 59.68 59.64 59.43 59.23 58.78 59.44 58.22 57.18 55.28 52.62 51.66 51.38 50.98 50.01 49.39 48.63 48.18 47.65 47.08 44.21 43.03 43.39 44.38 43.73 43.69 43.94 44.45 46.54 49.65 54.04 54.41 52.75 51.68 50.82
61.76 61.47 60.12 61.03 59.25 58.57 58.11 57.38 58.01 58.49 58.52 57.96 57.38 57.61 57.75 57.00 56.18 53.15 51.45 49.94 50.59 50.01 48.94 48.71 47.49 46.85 46.11 43.88 44.35 42.81 42.42 42.20 41.56 44.12 42.13 42.30 42.35 43.93 47.44 51.11 50.83 51.14 49.88
61.39 61.49 61.35 60.27 58.91 58.41 57.57 57.54 57.72 57.30 57.38 56.72 55.90 55.55 53.54 52.62 53.54 51.38 49.99 49.65 49.36 47.81 46.07 45.85 44.70 44.50 44.24 42.45 45.19 42.18 40.64 40.70 39.70 39.91 39.96 41.56 40.90 42.26 42.37 42.23 40.99 44.99 49.66
60.43 60.17 60.53 59.24 58.58 57.94 57.02 56.28 56.12 55.94 55.54 55.05 53.76 52.78 51.77 51.03 51.05 49.83 48.99 48.04 47.55 46.22 44.61 45.19 43.56 42.80 42.08 41.47 39.31 38.81 38.86 39.28 38.94 38.67 38.55 38.17 38.47 39.59 39.70 40.21 40.66 39.94 41.21
59.43 60.74 60.14 59.74 58.78 58.00 58.05 57.04 57.58 56.34 53.54 51.84 50.98 50.40 50.41 50.28 49.91 49.67 48.16 47.11 46.72 45.35 44.07 43.26 42.44 41.17 41.54 39.93 37.55 36.30 33.76 36.21 37.81 38.67 36.59 37.71 34.91 36.61 37.80 38.81 38.35 39.67 38.60
59.01 60.12 60.03 59.74 59.42 58.44 58.23 58.10 55.01 52.10 50.47 49.15 48.19 48.50 49.28 50.11 49.93 49.02 48.08 46.34 45.24 45.14 44.19 43.17 42.87 41.62 39.09 39.21 38.86 37.05 32.88 31.02 32.47 35.12 35.45 34.52 33.77 33.95 34.29 35.80 37.39 37.37 36.81
59.71 60.36 60.43 60.57 59.92 59.33 58.43 57.17 54.31 52.88 50.34 48.33 48.01 48.12 48.76 49.44 45.92 45.25 43.88 42.75 42.33 42.02 40.92 41.38 44.25 40.88 39.23 37.72 37.68 40.24 36.41 35.27 30.42 28.67 32.59 32.87 33.59 34.91 33.27 33.91 34.48 35.78 36.33
60.27 59.96 60.16 60.27 59.89 59.69 59.17 55.37 52.98 50.17 48.97 48.94 47.85 46.20 43.25 42.78 43.78 43.96 42.96 41.45 41.25 41.05 40.47 40.42 40.61 40.69 39.56 37.56 37.42 36.98 35.41 34.19 32.50 30.18 26.46 29.38 32.05 33.29 33.40 33.69 33.37 33.46 35.20
60.31 60.22 60.16 59.29 58.67 57.80 58.95 53.20 51.72 48.69 47.36 45.37 42.05 40.60 41.01 41.85 42.78 42.12 42.25 40.83 40.31 40.33 40.73 41.02 40.34 39.65 39.61 39.09 38.55 40.42 38.61 36.13 31.53 29.96 27.55 28.03 28.44 31.05 32.83 33.66 32.99 32.96 33.86

GFSSE_sfc_wetblb_033.txt.gz
Wetbulb
69.06 70.65 71.22 71.41 71.45 71.43 70.77 70.07 69.87 69.74 69.81 69.60 69.26 69.26 68.76 68.32 68.03 67.79 68.01 68.05 67.69 66.13 65.77 65.76 66.07 66.04 65.78 65.92 65.99 65.81 66.65 68.31 68.85 69.22 69.35 68.57 68.11 67.98 68.01 68.09 67.78 66.29 68.42
69.42 70.80 70.59 70.97 71.25 71.15 70.66 70.19 69.90 69.68 69.29 68.52 68.47 68.61 68.13 67.77 67.91 68.35 67.74 67.26 67.24 66.22 66.16 66.24 65.87 65.97 65.99 66.30 66.37 66.39 65.69 67.40 68.61 68.41 67.55 67.39 66.98 66.65 66.13 65.47 66.77 65.78 67.69
69.61 70.25 69.96 70.40 70.76 70.92 70.37 70.31 69.95 69.24 68.06 67.47 67.62 67.91 68.06 67.86 68.23 67.69 67.33 67.44 67.64 66.87 66.19 65.82 65.77 65.66 65.95 66.94 68.95 67.84 66.57 67.20 68.59 67.97 66.80 62.96 63.43 66.66 66.11 65.35 65.26 64.54 66.13
69.42 69.33 68.98 70.23 70.53 70.29 69.81 69.63 69.12 68.42 67.47 67.82 67.38 67.01 67.57 67.03 67.55 67.86 67.89 67.57 67.55 67.40 66.08 65.95 65.68 65.42 65.26 66.53 67.03 68.24 68.23 67.63 66.44 65.64 62.94 63.42 63.47 65.70 65.10 64.77 64.44 64.48 64.57
69.16 68.88 69.56 69.72 69.79 69.80 69.49 68.98 68.67 68.45 68.02 67.86 67.91 67.42 67.32 66.98 66.86 67.06 67.67 67.45 67.48 66.41 66.00 65.79 65.46 64.81 65.57 65.72 65.54 66.05 66.14 65.47 65.06 63.10 61.10 60.87 60.96 64.30 65.12 64.95 64.42 64.57 64.21
68.27 68.84 68.86 68.98 69.12 69.46 69.40 69.27 68.71 67.97 67.69 67.79 68.07 68.13 67.79 67.15 66.66 67.19 67.42 67.40 67.22 65.92 65.81 65.65 65.41 66.05 65.18 64.90 65.39 65.06 64.50 62.72 60.79 57.88 58.94 61.85 61.21 65.22 65.37 65.02 65.01 65.20 64.82
66.90 68.05 68.38 68.23 68.86 69.10 69.43 68.82 68.31 67.73 67.80 67.82 67.94 67.76 67.79 67.60 66.95 67.62 67.15 67.07 66.89 65.71 65.45 65.26 66.00 66.13 65.14 64.23 64.80 64.07 63.32 62.10 57.61 57.52 58.58 60.46 62.34 65.26 65.43 65.49 65.39 65.07 65.20
66.00 66.79 67.49 68.15 67.79 68.20 68.29 68.01 67.24 67.15 67.59 67.52 67.52 67.58 67.79 67.29 67.17 66.93 66.83 66.69 66.42 66.17 65.94 65.57 65.20 65.41 65.26 64.31 63.57 63.18 62.13 61.01 57.79 57.42 59.07 59.58 65.66 65.16 65.48 65.21 64.56 64.27 64.26
63.70 65.42 66.07 65.95 66.74 67.09 66.60 66.47 66.35 66.64 67.08 67.05 67.04 66.90 66.77 66.32 66.20 66.46 66.34 66.19 66.04 65.79 65.25 64.82 64.33 64.44 65.04 63.94 62.65 62.38 61.65 61.30 56.83 58.60 60.76 60.47 64.95 64.15 64.40 64.09 63.78 63.47 63.05
61.30 62.68 63.80 64.09 65.47 64.92 64.54 65.35 65.41 65.57 66.22 66.28 66.24 65.80 65.25 65.40 65.69 65.72 65.44 65.52 65.36 64.70 64.42 64.08 63.84 64.27 64.69 63.50 61.67 61.54 60.63 58.72 55.18 57.11 58.88 60.93 63.90 63.20 62.91 62.40 61.97 61.62 61.67
59.37 60.15 61.33 63.57 63.94 64.09 64.10 64.70 64.91 65.46 65.56 65.39 65.16 64.67 62.94 61.26 61.23 61.93 63.48 64.09 63.55 63.13 63.23 63.60 63.75 62.58 60.33 62.88 61.21 59.98 57.24 52.88 53.57 55.62 57.71 62.94 62.30 62.22 61.66 61.25 60.49 60.23 59.88
56.76 58.25 59.49 60.94 64.09 63.60 64.11 63.43 61.88 62.09 61.16 61.44 61.15 60.76 59.50 59.86 60.93 61.60 62.87 62.92 62.65 62.23 62.87 62.88 61.97 60.27 57.32 53.39 53.26 55.15 50.39 51.75 53.14 54.13 55.67 62.20 61.37 60.71 60.69 60.16 59.61 59.28 58.67
58.57 59.72 58.38 59.87 63.41 62.28 61.82 61.29 60.62 59.31 59.21 59.61 59.90 59.21 59.79 60.07 60.30 58.96 57.84 57.73 58.13 59.34 55.65 55.51 54.20 53.45 52.79 51.27 50.91 49.87 49.32 49.42 48.61 51.48 53.79 59.43 60.03 59.00 59.26 58.74 58.90 58.23 57.34
59.97 60.47 60.44 62.81 63.33 61.62 60.62 60.11 59.34 57.82 58.09 58.21 58.66 59.62 59.95 58.72 58.88 57.96 57.49 57.89 55.56 54.61 53.45 52.51 51.48 50.78 50.34 50.67 49.79 48.97 48.38 46.93 46.19 48.46 50.99 57.53 58.63 58.43 57.60 58.01 57.76 56.57 56.05
59.74 60.04 61.26 63.34 63.26 61.50 59.49 58.60 58.54 59.75 60.32 62.41 62.39 61.50 59.92 57.53 57.10 56.64 55.74 55.09 54.00 53.36 52.04 50.82 49.76 49.58 49.32 49.43 48.73 48.38 46.91 45.59 45.22 45.46 45.96 53.32 57.28 57.69 56.93 57.44 56.88 55.54 54.87
59.81 61.12 62.03 62.79 63.46 60.77 59.74 59.91 61.33 62.42 62.42 61.58 61.06 59.97 58.02 57.47 57.16 55.91 54.30 53.07 52.09 51.45 50.43 49.67 48.86 48.64 48.09 48.18 46.73 46.89 45.33 44.78 43.83 43.62 43.70 44.06 52.98 56.94 57.49 56.40 55.05 54.26 53.69
59.56 61.02 61.89 61.69 60.06 60.32 60.22 60.50 60.90 61.27 61.14 60.20 60.02 59.47 58.28 58.15 56.87 54.64 53.00 51.96 51.62 50.10 49.87 49.29 48.75 48.24 47.68 47.34 44.50 44.60 44.17 43.93 42.93 42.42 42.59 44.13 49.45 54.52 56.50 54.44 52.64 52.67 51.90
60.07 61.64 62.16 62.31 60.84 59.76 58.96 58.89 59.44 59.70 59.45 59.56 59.15 58.85 58.45 57.15 55.92 53.22 51.27 50.58 50.76 50.00 48.84 48.09 47.61 46.33 45.68 43.64 42.14 41.74 42.48 41.84 41.92 41.29 41.16 41.23 43.29 48.97 50.84 53.20 52.29 51.75 50.96
61.14 61.58 59.63 60.88 59.61 58.26 57.37 57.87 58.13 58.30 58.13 58.11 57.43 57.61 57.64 56.58 55.03 51.77 50.18 50.14 49.37 47.90 47.23 47.39 44.84 45.18 43.19 42.17 43.07 40.85 41.03 39.76 39.92 41.71 39.92 40.34 42.01 43.93 43.44 47.53 49.90 50.35 49.06
61.28 60.85 60.41 59.60 58.28 57.45 56.73 56.99 57.13 56.71 56.29 56.33 55.95 55.77 53.87 53.97 52.57 50.23 49.61 48.81 47.48 45.59 44.71 44.04 42.85 42.87 42.09 41.27 43.65 40.66 38.57 38.66 38.72 38.00 37.55 39.75 39.26 39.15 39.55 39.68 39.76 41.06 49.01
59.93 59.38 59.90 58.30 57.51 56.91 56.43 55.91 54.90 54.91 54.83 54.47 54.13 51.90 51.36 51.98 50.61 48.90 47.71 47.04 46.11 44.60 43.88 43.76 42.32 41.24 41.18 39.84 38.49 38.25 37.79 37.77 37.34 37.38 36.73 35.79 36.90 37.35 37.36 37.69 38.02 37.66 38.71
59.84 59.63 59.56 58.81 57.56 56.96 57.12 56.05 56.51 55.37 53.78 52.79 51.69 49.91 50.12 49.69 49.21 48.54 46.95 45.82 44.74 43.80 42.75 42.19 41.58 40.51 40.59 38.89 37.00 35.49 33.04 35.74 36.81 37.17 34.99 35.89 33.40 35.10 36.27 37.33 36.73 37.04 36.23
58.52 59.04 59.48 58.97 58.06 57.28 56.96 56.91 53.58 51.06 50.03 48.52 47.59 47.34 48.27 49.18 48.85 47.68 46.16 44.89 44.02 43.98 41.99 41.54 41.53 40.54 38.82 39.43 38.44 37.17 32.44 30.45 31.82 34.59 34.27 33.28 32.74 32.91 33.43 34.66 35.74 35.98 35.26
57.94 59.37 59.93 59.46 58.41 57.53 57.34 56.62 54.31 52.49 50.67 47.80 47.18 47.20 47.63 47.74 45.27 43.77 42.69 41.83 41.38 41.17 40.26 40.55 41.93 40.10 38.79 37.34 36.93 39.44 35.67 34.53 30.82 30.17 32.26 32.40 32.65 33.75 32.74 33.21 33.54 34.57 35.11
58.27 58.86 59.28 59.02 59.45 58.57 57.40 56.99 54.42 51.25 48.68 47.60 46.97 46.29 41.45 42.28 42.87 43.10 42.62 42.25 41.68 40.38 39.73 39.51 39.92 39.80 38.96 37.01 36.38 36.28 35.23 33.85 32.96 31.12 27.02 29.16 31.47 32.65 32.90 33.32 33.19 32.80 34.02
58.44 58.86 58.73 59.17 58.93 58.75 57.77 55.69 54.04 50.38 47.67 46.88 44.22 40.87 40.42 40.84 41.36 41.17 41.85 41.13 42.30 41.68 40.27 40.92 39.38 39.29 39.27 38.48 37.68 37.29 36.27 34.14 32.01 30.45 28.69 27.67 27.62 30.82 31.95 33.63 32.90 32.80 33.17

GFSSE_sfc_wetblb_036.txt.gz
Wetbulb
68.65 70.16 70.84 71.29 70.99 70.38 70.18 69.98 69.91 70.05 69.88 69.68 69.30 68.81 68.70 68.21 68.21 68.48 68.16 67.78 67.63 67.21 66.99 66.70 66.59 66.63 66.83 66.63 67.33 68.65 68.89 69.29 68.86 68.74 68.31 67.07 66.88 66.50 66.38 66.76 67.15 66.25 67.97
69.36 70.14 70.41 70.72 70.66 70.20 70.10 69.80 69.54 69.44 69.39 68.82 68.77 68.40 68.18 68.33 68.57 68.11 67.69 67.57 68.24 67.31 66.87 66.89 67.10 67.62 67.57 67.29 66.49 67.89 68.83 68.72 68.12 67.66 66.97 67.02 66.75 66.22 65.52 64.90 65.92 65.31 67.48
69.38 69.74 69.94 70.19 70.10 69.94 70.04 69.88 69.48 69.27 68.82 68.04 67.80 68.23 68.47 68.36 67.99 67.89 67.84 67.78 68.07 68.08 66.84 66.85 67.88 68.94 69.06 67.89 67.63 68.16 68.50 67.99 67.72 67.35 66.42 62.74 62.11 65.05 64.91 64.46 64.93 64.78 65.53
69.31 69.03 69.18 70.01 69.65 69.89 69.75 69.35 68.96 68.70 68.50 68.24 68.11 67.85 68.31 67.97 68.07 68.36 67.97 67.57 67.90 67.95 66.28 66.17 66.93 67.32 67.89 68.92 68.60 68.48 67.35 66.73 66.25 64.99 62.00 61.67 62.16 65.25 65.20 65.02 64.74 64.69 64.33
68.65 68.53 69.18 69.53 69.22 69.68 69.27 68.70 68.33 68.25 67.86 67.94 67.90 67.77 67.87 67.70 67.62 68.02 67.63 67.50 67.86 67.60 65.93 65.83 65.96 65.70 66.14 66.62 66.90 66.85 65.82 64.79 63.61 61.49 60.47 60.55 61.63 64.55 65.55 65.41 65.09 65.05 64.79
68.13 68.08 68.22 68.62 68.80 69.16 69.05 68.60 68.30 67.94 67.62 67.61 67.82 68.14 68.09 68.01 67.16 67.97 67.60 67.58 67.95 67.58 65.76 65.31 64.75 65.39 65.87 65.38 65.64 64.83 63.82 63.06 61.37 59.15 60.39 62.58 62.07 65.45 65.60 65.35 65.11 65.34 65.07
67.51 67.46 68.36 67.67 68.45 69.12 69.26 68.65 67.99 67.90 67.93 67.88 67.88 67.84 67.97 68.04 67.75 67.94 67.48 67.33 67.31 67.43 66.87 66.02 65.75 65.09 65.30 64.85 64.74 64.11 63.29 62.00 58.05 58.67 59.75 61.91 62.65 64.97 64.89 64.76 64.67 64.62 64.75
66.40 66.85 67.26 68.36 68.18 68.29 68.11 67.76 67.50 67.77 67.97 67.78 67.75 67.70 68.13 67.79 67.47 67.28 66.92 66.77 66.35 66.19 66.52 66.28 65.71 64.69 64.89 64.47 64.03 63.09 61.98 61.39 58.94 59.09 60.27 60.47 64.68 64.31 64.22 64.11 63.71 63.41 63.12
65.59 65.46 65.30 64.25 64.32 66.67 66.59 66.63 66.87 67.37 67.45 67.50 67.29 67.27 67.22 66.71 66.54 66.32 66.27 66.31 66.05 65.61 65.56 65.90 65.70 64.62 64.37 64.56 63.59 62.59 61.74 61.52 58.21 59.72 61.48 60.53 64.03 63.38 63.14 62.70 62.64 62.33 61.97
62.81 64.33 62.74 62.10 62.86 64.15 64.24 65.63 66.23 66.52 66.49 66.66 66.79 66.06 65.26 65.24 65.55 65.54 65.34 65.69 65.21 64.89 64.96 65.18 65.08 64.81 63.58 63.33 62.98 61.18 60.05 58.81 56.82 58.58 59.53 60.70 63.08 62.30 61.96 61.40 61.22 61.32 60.97
60.92 61.04 60.70 61.94 63.30 63.28 62.77 64.40 65.44 66.44 65.95 65.56 65.02 64.66 62.43 61.42 61.23 60.29 63.50 63.77 63.85 63.57 64.08 64.57 63.07 62.57 61.86 61.51 60.41 58.65 56.50 53.04 54.53 56.55 57.89 62.39 61.92 61.45 61.08 60.42 60.16 59.72 59.56
57.96 59.69 61.40 61.49 62.88 63.12 63.73 61.49 60.94 62.83 61.74 61.66 61.04 59.48 59.50 59.06 58.96 60.77 62.09 62.77 62.81 63.08 63.49 62.02 60.98 59.52 55.66 52.07 51.88 53.45 50.56 51.10 52.80 53.73 54.75 61.10 60.98 60.27 60.33 59.56 59.44 58.88 58.17
57.08 58.48 59.53 60.47 63.02 62.65 61.93 60.56 59.12 58.91 59.30 59.23 59.16 58.68 58.78 59.63 58.97 58.36 57.38 57.92 56.76 57.49 54.03 53.73 52.63 51.68 50.48 49.76 49.14 48.20 47.98 47.66 48.16 50.84 53.50 58.96 59.58 58.32 59.39 59.05 58.54 57.83 57.23
57.47 57.27 58.90 60.11 62.21 61.57 61.06 59.81 58.89 58.04 58.12 58.03 58.29 59.34 59.53 58.85 57.89 57.26 57.79 56.31 54.31 52.98 51.28 50.56 50.02 49.79 49.41 49.37 48.86 47.48 46.14 45.49 45.30 46.47 48.12 56.21 58.04 58.80 57.38 58.46 57.81 56.82 56.41
58.25 58.30 57.64 59.55 62.31 61.24 59.65 58.67 57.89 57.56 58.22 59.04 59.30 60.00 59.50 58.30 57.00 55.92 55.11 54.33 52.71 51.79 50.33 49.26 49.20 49.16 48.55 47.71 47.35 46.15 45.53 44.75 44.53 44.53 44.73 51.92 55.04 57.36 57.60 58.23 57.60 56.14 55.33
58.84 58.90 58.66 60.69 62.90 60.71 58.46 57.71 58.01 59.24 60.00 61.20 60.97 60.02 57.52 56.72 55.73 54.43 53.10 51.66 50.59 50.12 49.46 49.20 48.54 47.89 46.86 46.03 45.60 44.99 44.72 43.39 42.90 43.07 43.94 46.55 55.73 57.15 57.12 56.71 56.34 55.13 54.26
59.25 59.84 59.82 61.07 61.93 59.96 58.33 58.04 58.71 59.35 60.44 59.56 59.09 57.62 57.01 56.98 55.79 53.26 51.68 50.88 49.52 49.44 49.26 48.85 47.91 47.36 45.80 45.44 43.54 43.77 43.39 42.54 41.91 41.64 41.93 44.01 49.05 54.02 55.73 54.45 53.88 52.74 52.51
58.87 59.71 61.07 62.36 60.09 59.04 57.76 58.11 58.64 59.10 59.00 58.78 58.43 58.03 57.70 56.80 55.02 52.04 50.78 50.12 49.68 49.25 48.56 47.52 46.36 45.52 43.85 43.33 41.77 41.65 41.11 41.74 41.35 40.91 41.52 43.13 46.96 47.31 49.00 53.12 52.89 52.01 51.48
58.80 60.28 60.24 60.11 59.06 58.33 57.45 57.81 58.23 58.73 58.43 58.38 58.08 58.18 57.26 56.20 54.05 51.27 50.16 49.54 49.07 48.03 46.84 46.07 44.43 44.39 42.02 42.17 42.23 40.73 39.97 39.76 39.88 40.54 40.33 40.97 42.00 41.90 41.70 47.64 49.69 50.29 49.18
58.85 60.41 59.84 59.39 57.97 57.35 56.79 56.89 56.71 56.49 56.47 57.11 56.63 56.93 56.09 54.63 51.79 50.12 49.53 47.96 46.48 45.14 44.26 43.26 42.35 42.27 41.90 41.50 42.92 40.63 38.74 38.80 38.93 37.75 37.90 39.63 39.09 39.18 39.39 40.11 40.69 42.01 47.35
59.26 59.24 58.86 57.71 56.91 56.97 55.93 55.50 54.24 54.34 54.64 54.03 54.53 52.97 53.37 51.71 50.34 49.15 47.72 46.15 45.27 44.04 43.12 42.87 42.00 40.92 40.72 39.54 38.87 38.53 37.88 38.27 38.22 37.47 37.19 36.77 37.76 37.60 38.47 38.63 39.46 38.54 39.06
59.31 59.26 58.61 58.11 56.81 57.14 57.63 55.03 55.51 54.25 53.51 52.74 51.21 49.68 51.01 49.80 48.76 47.92 46.08 44.75 43.80 42.99 42.36 41.98 41.31 40.36 40.38 38.72 37.41 35.66 33.70 36.23 37.26 37.51 36.02 36.53 35.22 36.05 37.46 38.47 38.18 38.41 37.94
59.26 58.99 59.20 58.24 57.09 57.00 56.40 55.71 52.33 51.23 50.21 49.41 47.69 47.15 48.14 48.66 48.01 46.53 45.32 44.02 42.95 42.36 40.86 40.90 40.76 40.12 38.37 38.51 38.02 37.29 33.54 31.72 32.99 35.82 35.75 34.70 34.84 34.79 35.20 36.28 37.69 37.88 37.51
58.98 59.02 59.22 58.30 57.23 56.85 56.64 55.79 53.45 53.28 50.34 48.94 47.33 46.59 46.93 47.23 45.11 44.02 42.43 41.34 40.60 40.48 39.86 40.44 40.88 40.36 39.48 37.55 38.54 38.78 36.13 35.39 32.40 31.63 34.14 33.97 33.76 34.49 34.48 35.03 35.73 36.30 36.93
58.09 57.03 58.52 58.40 58.02 57.98 57.11 56.76 54.72 52.98 51.84 50.17 46.61 45.20 42.23 41.89 41.94 41.85 41.54 40.38 40.05 40.32 40.64 42.48 42.39 41.42 39.36 37.67 36.59 36.47 35.91 34.99 34.06 31.87 29.46 30.68 32.90 34.31 34.43 34.45 35.13 34.71 35.08
56.25 56.83 57.77 57.88 58.29 57.94 57.13 55.89 54.62 51.36 48.87 48.15 45.66 41.88 40.64 40.25 40.43 40.42 40.26 39.98 39.89 40.06 41.54 41.87 39.59 39.27 38.53 38.22 38.04 37.22 37.12 35.16 33.69 30.83 28.53 28.91 28.93 31.84 33.48 34.37 34.48 35.06 35.09

GFSSE_sfc_wetblb_039.txt.gz
Wetbulb
68.45 70.09 70.92 71.29 71.30 71.24 71.07 70.89 70.83 70.53 70.36 70.40 69.92 69.49 68.81 68.81 68.76 68.57 68.27 68.38 68.41 68.73 67.82 67.68 67.67 67.84 69.15 69.66 68.86 68.11 68.27 68.64 68.51 68.40 68.01 66.76 66.52 66.03 66.04 66.73 67.94 67.83 68.11
69.71 70.19 70.14 70.75 70.98 70.82 70.69 70.40 70.02 69.94 69.87 69.80 69.22 68.49 68.69 68.76 68.37 68.13 68.39 68.74 68.62 67.94 67.92 68.38 68.38 68.22 68.04 69.20 68.71 68.14 67.54 68.19 67.83 67.39 66.88 65.73 65.66 65.49 65.41 65.37 66.87 66.69 67.45
69.32 69.81 70.32 69.85 70.47 70.50 70.25 70.23 69.97 69.92 69.32 68.74 68.88 68.98 68.83 68.42 68.40 68.54 68.56 68.35 68.65 68.82 69.11 69.54 69.12 68.56 67.99 68.61 69.20 68.18 67.47 67.30 67.25 66.67 65.95 63.80 64.83 65.61 65.40 64.94 65.00 65.27 65.93
69.57 69.63 69.42 69.54 69.71 69.92 69.73 69.78 69.47 69.06 68.45 68.52 69.00 68.83 68.47 68.57 68.84 68.47 68.13 68.05 68.29 69.06 69.24 69.74 69.90 68.88 68.11 69.03 68.63 67.73 66.64 65.81 65.03 65.50 64.26 64.13 64.17 65.92 65.88 65.50 65.31 64.80 64.51
69.13 69.57 69.39 69.13 69.15 69.42 69.17 68.97 68.44 68.37 68.03 68.39 68.47 68.55 68.84 68.91 68.86 68.49 67.89 67.66 68.17 68.52 68.06 68.53 69.03 68.77 68.39 67.77 67.38 66.45 65.23 64.69 64.82 64.63 64.43 64.58 64.77 65.29 65.69 65.65 65.40 65.50 65.19
68.98 69.43 68.82 68.57 68.72 69.02 68.84 68.70 68.26 67.97 67.57 67.90 67.72 68.42 68.86 68.84 68.74 68.33 67.72 67.78 68.18 67.75 66.76 66.66 66.68 66.97 66.56 66.10 65.78 65.27 64.46 63.98 64.44 64.12 64.26 64.95 64.43 64.88 65.19 65.02 65.35 65.31 65.07
68.12 68.87 68.54 67.86 68.45 68.87 69.09 68.58 68.23 67.89 67.61 67.77 67.95 68.15 68.32 68.54 68.39 68.12 67.71 67.67 67.60 67.30 66.49 66.12 66.05 66.07 65.81 65.39 65.05 64.04 63.35 63.65 63.42 63.05 63.27 63.59 64.40 64.32 64.39 64.19 64.30 63.96 63.70
67.14 67.74 67.84 67.82 68.06 68.11 67.91 67.94 67.67 67.90 67.80 67.70 67.76 68.01 68.46 68.16 67.57 67.72 67.36 67.14 67.04 66.95 66.27 65.93 66.00 65.49 65.15 64.92 64.01 63.26 62.68 62.96 62.37 62.05 62.14 62.65 64.66 63.65 63.53 63.07 62.93 62.57 62.58
66.16 65.51 64.57 65.06 65.59 66.97 66.75 67.06 67.02 67.55 67.70 67.57 67.75 67.55 67.36 66.77 66.63 66.67 66.43 66.35 66.41 66.37 66.31 65.39 65.17 65.45 65.33 64.50 63.26 62.82 62.49 62.78 62.13 61.70 60.90 61.75 63.25 62.54 62.10 61.56 61.70 61.80 61.67
63.77 62.59 60.54 60.57 62.25 64.23 66.00 66.46 66.62 66.77 66.93 67.17 66.94 66.11 65.37 65.64 65.78 65.76 65.51 65.63 65.64 65.78 66.18 65.34 64.41 64.55 64.27 62.50 60.85 59.96 60.07 61.23 62.39 62.18 61.96 62.33 62.64 61.80 61.21 60.51 60.78 60.63 60.53
58.88 58.66 58.27 57.84 62.05 63.53 64.78 66.66 66.66 66.93 66.46 65.65 65.50 64.87 63.70 63.99 64.34 63.84 63.99 64.08 64.42 64.81 64.66 64.62 63.44 62.29 61.59 60.63 59.40 58.66 59.49 60.02 60.86 61.80 61.84 62.60 62.16 61.54 60.54 60.18 59.95 59.53 59.25
56.44 56.60 57.44 61.30 61.82 63.72 63.19 65.22 65.20 65.11 64.47 64.18 63.75 64.00 63.71 64.17 63.94 63.37 63.05 63.00 63.51 63.32 62.59 61.79 60.33 59.24 58.89 57.91 57.31 57.22 56.79 57.82 58.70 59.67 61.20 60.70 60.78 60.85 60.20 59.74 59.23 58.52 58.35
57.33 58.16 59.26 60.60 62.42 62.86 62.10 62.30 63.12 63.13 62.95 63.37 63.64 63.23 63.57 63.63 63.60 63.01 62.97 62.93 63.17 60.21 58.83 57.99 57.57 57.08 56.97 56.52 55.52 55.17 54.83 54.97 55.79 57.37 57.73 58.50 59.50 58.85 60.04 59.39 58.58 57.96 57.69
57.65 57.86 59.56 59.16 59.76 60.98 62.68 61.00 61.64 61.65 62.16 62.19 62.65 63.56 63.63 63.05 62.43 62.07 62.39 60.33 58.84 57.79 57.45 57.45 56.62 56.61 56.03 55.03 54.74 54.11 53.65 53.64 54.42 54.60 53.91 55.07 57.62 58.68 57.60 59.48 57.96 57.18 56.91
57.54 58.72 57.86 59.29 59.89 62.86 62.52 60.97 61.19 61.59 61.94 63.08 62.46 63.41 63.11 63.04 61.84 62.10 60.29 59.27 58.10 57.68 57.09 56.49 56.30 55.64 54.94 53.84 53.50 53.03 52.27 52.17 52.29 53.29 54.38 54.59 57.17 57.09 57.96 58.74 58.35 56.79 55.95
57.94 58.73 60.16 60.20 62.15 64.37 62.27 61.54 61.10 61.86 62.02 62.07 62.29 63.68 63.78 63.61 61.97 60.65 58.88 57.79 57.20 57.17 57.01 56.61 55.87 55.01 53.74 53.62 52.39 51.75 50.76 50.62 50.78 51.68 53.08 55.16 56.15 57.27 56.92 56.49 57.92 56.36 55.34
59.67 59.61 59.49 61.04 63.73 64.11 62.60 61.97 61.59 61.92 62.69 63.07 63.88 64.01 62.71 62.51 61.08 59.77 58.14 56.75 56.27 56.45 56.15 55.89 54.94 54.39 53.05 51.83 51.21 50.79 50.40 49.71 49.48 50.33 51.66 54.06 55.35 55.17 56.18 55.75 55.29 53.53 53.73
60.67 59.91 59.80 61.38 63.41 64.00 62.24 61.44 61.82 62.93 63.81 64.08 63.93 62.84 62.02 61.22 59.96 58.60 57.18 56.26 56.24 56.22 55.73 54.78 53.79 52.37 51.79 51.66 51.01 50.35 50.11 49.73 48.49 49.44 51.21 53.84 54.13 53.26 54.11 54.47 53.72 52.49 51.91
61.77 61.45 60.80 62.22 63.15 64.03 62.74 62.03 62.64 63.20 63.94 63.77 63.22 62.38 61.51 60.66 59.52 58.53 57.21 56.09 56.12 54.91 54.00 53.28 52.57 52.71 51.04 51.00 50.11 50.66 49.92 49.11 48.07 48.11 48.17 49.84 49.97 50.76 51.56 49.01 49.73 50.69 49.05
61.49 62.04 62.20 62.76 63.71 63.24 62.51 62.01 62.42 62.97 63.50 63.36 63.35 62.95 61.18 60.60 57.96 57.19 56.02 55.11 54.73 53.28 52.33 52.02 51.30 51.05 50.71 50.40 48.42 48.68 49.17 47.87 48.31 47.78 47.58 47.43 47.74 47.85 48.70 48.73 49.80 49.11 47.50
61.07 61.75 62.37 62.78 63.19 62.14 61.22 60.54 60.78 61.40 61.81 61.78 61.64 61.67 60.79 59.00 56.61 56.16 54.88 53.66 53.49 52.81 51.53 51.49 50.50 50.13 49.87 49.92 48.18 47.49 47.58 46.51 46.56 47.28 47.44 47.33 45.97 46.48 47.02 47.67 47.99 47.81 47.27
60.11 61.44 63.01 62.92 62.48 62.32 62.22 61.46 61.53 61.32 60.56 60.21 59.38 58.73 59.42 57.23 56.13 55.30 53.97 52.84 52.26 51.00 50.98 50.96 50.79 49.38 49.82 48.91 46.59 45.71 43.71 44.25 45.92 46.24 46.86 45.50 45.43 45.90 45.35 45.59 45.63 46.06 46.18
59.92 60.81 62.09 62.74 62.08 62.18 62.42 61.04 58.48 57.99 57.19 56.66 55.59 55.84 56.70 55.59 54.94 54.05 53.15 51.92 51.49 51.54 49.91 49.94 49.58 48.51 46.09 47.04 46.77 45.77 42.33 41.24 43.71 45.56 44.99 45.77 45.16 44.97 44.81 44.30 43.92 44.13 44.34
60.02 61.55 62.11 62.58 61.93 61.71 61.23 60.64 59.50 59.56 57.46 57.32 55.92 55.16 54.46 54.17 53.15 52.63 51.74 51.08 49.74 49.15 48.66 48.24 48.38 48.22 47.25 45.22 46.10 46.26 46.63 45.60 41.64 39.87 44.80 45.04 45.02 43.73 44.24 44.28 43.80 43.48 43.04
61.39 61.92 62.45 62.65 62.39 61.87 60.84 61.27 60.23 59.31 58.76 56.24 53.79 52.70 52.32 52.07 51.71 50.12 49.48 48.71 48.36 47.98 48.21 48.20 47.64 46.28 45.47 44.16 45.88 45.83 45.29 45.35 44.70 40.56 37.51 40.26 42.49 43.57 44.30 43.90 43.64 43.31 42.32
61.98 62.03 62.43 61.98 61.64 61.21 59.74 59.82 59.28 58.90 55.61 54.04 52.16 50.28 49.70 49.34 48.52 48.30 47.69 48.16 48.01 47.21 47.31 46.07 44.73 44.61 43.33 46.81 46.51 45.78 44.36 42.67 41.57 40.61 38.76 39.38 39.19 40.99 42.68 42.99 43.35 42.92 42.37

GFSSE_sfc_wetblb_045.txt.gz
Wetbulb
69.83 70.94 72.00 72.78 72.62 72.38 72.15 71.98 71.81 71.48 71.57 71.36 70.91 70.33 70.17 70.17 69.97 69.66 70.05 70.41 70.95 71.46 70.97 70.15 69.25 68.33 68.24 68.57 68.34 67.85 67.95 68.15 67.66 67.58 67.62 66.78 66.51 66.56 66.85 67.71 68.12 67.25 68.56
71.24 71.22 71.22 72.11 72.36 72.38 72.20 71.78 71.54 71.29 71.16 70.67 70.14 69.97 69.75 69.56 69.29 69.71 70.34 70.54 70.65 70.96 70.89 69.21 67.80 67.53 67.49 67.40 67.15 66.96 66.52 66.93 67.44 67.73 67.74 67.02 66.73 66.41 66.23 66.07 66.74 66.18 67.42
70.10 71.05 71.96 71.28 71.95 71.93 71.99 71.67 71.26 71.04 70.50 70.11 69.79 69.65 69.43 69.49 69.63 69.66 69.88 69.92 70.28 70.61 70.17 68.51 67.83 67.71 67.43 67.10 66.96 66.45 66.09 66.28 66.17 66.82 68.30 63.96 65.17 66.59 66.69 66.43 66.79 65.51 65.75
69.63 70.83 72.38 71.09 71.23 71.44 71.10 71.02 70.67 70.26 69.73 69.72 69.50 69.26 69.41 69.85 69.85 69.90 70.24 70.19 70.34 70.52 70.00 68.75 67.86 67.64 67.06 66.73 66.78 66.33 65.90 65.85 65.63 67.73 64.63 63.93 64.03 66.88 66.76 65.92 65.73 65.90 65.33
67.92 69.89 71.75 70.29 70.55 70.57 70.37 70.07 69.56 69.35 69.18 69.18 69.04 69.71 69.95 69.80 69.85 69.99 70.44 70.58 70.78 70.89 70.01 68.83 67.76 67.20 66.67 67.14 66.89 66.16 65.73 65.73 66.35 64.57 63.69 63.89 63.53 64.91 65.08 64.85 65.25 65.34 65.19
67.12 68.41 69.14 69.19 69.61 69.87 69.67 69.26 68.89 68.85 68.36 68.47 68.96 69.53 69.75 69.71 69.49 69.58 70.01 70.68 70.93 70.73 69.89 68.13 67.08 66.18 66.74 66.60 66.06 65.30 65.28 65.63 65.84 63.78 63.59 63.89 63.05 63.79 63.67 63.68 63.72 63.53 63.39
67.11 68.47 69.53 68.34 69.09 69.40 69.49 69.04 68.74 68.47 68.15 68.82 68.96 69.04 68.99 69.14 69.40 68.67 68.72 69.38 70.18 70.24 68.68 67.15 65.92 66.06 66.33 65.82 64.84 64.50 64.55 64.81 62.90 63.24 62.85 62.70 62.78 62.91 62.88 62.58 62.71 62.85 62.89
69.12 68.31 67.96 68.76 68.52 68.52 68.25 68.39 68.10 67.95 68.25 68.48 68.55 68.69 68.89 68.86 68.34 68.11 67.96 68.36 68.71 68.46 67.43 66.90 66.39 65.96 65.28 64.36 63.75 63.68 64.04 64.60 62.89 63.06 62.74 61.76 62.83 62.35 62.27 61.89 61.79 62.05 62.07
67.28 66.83 66.86 66.72 68.07 67.22 66.93 67.09 67.07 67.70 68.04 68.03 68.17 68.26 68.13 67.58 67.30 67.40 66.98 67.16 67.60 66.91 66.52 66.18 65.82 65.35 64.08 63.78 63.49 62.87 62.58 64.11 63.23 62.80 61.97 61.13 61.79 61.49 61.56 61.37 61.03 61.11 60.99
65.13 64.23 62.12 62.17 66.03 66.89 66.55 66.79 66.90 67.38 67.47 67.57 67.22 66.48 65.96 65.97 66.25 66.71 66.23 66.27 66.36 66.44 66.42 65.88 65.10 64.28 63.32 62.73 62.47 62.52 62.12 63.49 62.27 62.28 62.15 61.57 61.83 61.09 60.92 60.59 60.34 60.52 60.22
62.29 62.51 61.63 58.92 58.94 62.04 65.90 67.19 67.19 67.45 66.89 66.10 65.92 65.22 63.99 63.15 63.46 63.49 65.04 66.14 65.69 65.69 65.74 64.85 63.90 63.05 62.25 61.38 60.65 60.29 60.75 60.98 60.77 60.85 61.26 62.83 61.76 61.10 60.32 60.10 59.51 59.68 59.89
59.03 59.28 58.61 57.68 57.86 58.66 60.66 63.86 65.49 66.12 65.29 64.85 64.31 64.04 63.84 64.19 64.82 64.22 64.58 64.81 64.67 64.19 64.43 63.96 62.86 62.31 62.40 61.37 60.31 60.51 60.15 60.04 59.35 59.32 59.64 60.59 61.39 61.16 60.40 59.65 59.12 59.15 59.24
57.68 57.74 58.67 58.03 58.42 60.34 61.12 62.82 64.45 65.05 64.50 63.52 64.40 64.46 66.16 65.42 64.81 64.11 63.83 63.38 63.65 62.89 61.75 61.10 60.55 62.09 63.10 62.11 61.24 60.61 59.64 59.38 58.50 57.66 57.48 58.33 59.40 60.58 60.87 59.70 58.85 58.85 58.53
55.07 55.62 56.81 58.40 58.95 59.79 59.26 61.25 63.98 63.62 63.65 63.17 64.42 67.24 65.17 64.50 65.78 64.95 63.84 64.54 64.14 63.84 63.00 63.13 62.73 62.85 61.90 61.33 60.35 59.01 59.02 58.18 56.28 55.74 56.36 57.82 57.16 57.95 59.26 60.20 58.94 58.62 57.88
53.56 54.30 54.85 56.61 57.85 58.60 59.37 60.50 62.31 62.81 61.13 62.39 64.19 65.32 65.45 64.65 65.78 65.00 65.14 65.26 64.92 64.79 63.90 62.83 62.08 61.26 60.72 60.19 59.41 58.65 56.92 55.54 55.08 54.59 56.49 57.32 56.94 56.78 56.67 58.52 59.68 58.53 57.36
53.66 53.46 54.81 57.13 58.08 57.72 58.09 59.83 61.91 63.33 62.63 64.67 64.32 65.32 66.61 65.16 65.84 64.66 64.70 64.76 64.45 64.24 63.66 62.74 62.02 61.16 60.40 59.33 58.26 56.93 54.98 54.57 54.95 54.91 54.63 55.89 56.63 56.89 57.35 56.57 60.20 58.46 57.38
55.65 56.54 56.72 56.46 56.63 57.15 58.55 59.17 60.77 63.44 62.93 63.66 63.81 66.66 65.67 66.40 66.62 66.15 65.24 64.34 63.96 64.15 63.66 62.96 62.11 61.42 59.59 58.55 56.90 55.61 54.81 54.48 54.51 54.11 54.03 55.23 55.39 56.33 56.88 56.71 58.11 57.90 56.90
55.88 55.11 55.82 56.17 57.24 61.22 61.64 61.72 61.66 63.30 63.44 62.79 63.46 65.04 66.83 65.72 66.05 65.86 64.71 64.28 64.01 63.47 62.91 62.19 61.43 59.99 58.47 57.86 56.41 55.64 55.27 54.80 53.98 53.61 54.41 54.37 54.28 54.97 55.31 55.12 54.58 53.74 53.20
58.54 56.98 57.74 59.92 60.10 61.49 62.09 63.62 62.97 64.09 62.94 62.24 64.09 64.49 66.64 66.85 66.69 65.81 64.68 64.37 64.06 63.04 62.43 61.95 60.65 59.66 57.24 55.80 55.03 54.68 55.22 54.24 53.74 52.51 53.04 53.55 53.58 52.93 53.49 53.53 53.10 51.63 50.67
60.50 59.95 59.46 61.53 61.95 63.80 64.89 63.76 62.73 61.92 63.20 63.22 63.70 64.92 66.12 66.33 65.79 65.07 64.71 64.22 63.47 62.50 61.67 60.92 59.77 58.35 56.74 55.89 52.68 52.20 54.56 54.48 53.78 52.96 52.41 52.01 51.85 51.67 51.20 51.24 51.50 51.41 50.60
60.93 61.95 62.21 61.83 62.54 63.90 63.47 62.14 61.04 59.84 61.12 62.41 64.37 65.37 66.22 66.19 65.37 64.76 64.39 63.73 63.10 62.00 61.16 60.42 58.56 56.28 54.87 54.67 53.08 54.81 55.28 54.56 53.10 52.66 52.45 51.77 51.16 50.78 50.78 50.13 50.06 49.88 49.51
62.32 62.61 62.46 62.13 62.80 64.35 64.59 64.41 62.83 62.06 61.17 62.72 64.45 65.78 65.87 66.19 65.60 64.68 64.51 63.15 62.65 61.19 60.51 59.03 57.41 55.44 55.10 54.28 53.32 53.28 51.02 51.40 52.19 52.21 51.94 51.33 51.28 51.11 49.79 50.18 49.50 49.28 49.20
62.31 62.68 62.91 63.48 64.09 64.62 65.07 65.13 64.33 62.84 62.67 61.50 63.14 64.30 65.13 65.62 65.68 64.86 64.39 63.07 62.00 61.42 58.82 57.92 57.00 55.83 52.72 54.16 54.52 50.34 46.22 47.12 49.27 52.27 51.08 51.45 51.39 49.98 50.16 49.60 49.18 48.80 48.64
63.44 64.41 64.66 64.65 64.78 64.14 65.64 64.73 63.58 60.94 60.69 63.03 63.87 64.17 64.42 65.43 64.93 64.18 63.01 62.44 61.20 60.18 59.16 57.90 56.85 55.75 54.51 52.87 51.82 51.33 51.10 50.39 45.97 45.48 50.52 50.46 50.34 49.19 49.82 48.86 48.76 48.60 48.57
64.33 64.18 64.80 64.84 64.84 65.67 65.92 65.37 64.88 62.96 62.91 64.04 64.38 64.15 64.29 64.46 63.98 62.91 62.21 61.39 60.33 59.39 58.96 57.72 55.62 54.52 53.91 51.12 51.54 51.13 50.77 50.46 49.94 46.70 44.43 47.06 49.25 49.01 49.12 48.51 48.18 47.78 47.83
62.93 64.63 65.79 64.32 64.32 65.19 65.82 65.50 65.31 64.12 63.93 64.31 64.39 62.83 62.76 62.67 62.38 61.89 60.92 60.33 59.94 58.32 57.32 55.85 54.60 53.31 51.15 50.65 48.17 49.88 49.27 47.24 47.55 46.96 45.06 45.48 45.49 47.26 48.29 48.11 47.60 47.26 47.24

GFSSE_sfc_wetblb_048.txt.gz
Wetbulb
68.31 71.15 72.28 72.50 72.53 72.22 72.12 71.74 71.60 71.56 71.66 71.59 71.11 70.85 70.50 70.36 70.42 70.42 70.96 71.52 71.80 71.14 69.14 68.95 68.56 68.39 67.94 67.40 67.36 67.56 68.22 68.15 67.79 68.10 67.93 66.64 66.71 66.82 66.80 67.93 67.93 67.15 68.63
67.04 71.74 71.70 72.01 72.33 72.35 72.20 71.75 71.61 71.48 71.29 71.09 70.55 70.28 69.99 69.95 70.61 70.86 71.25 71.35 71.55 70.18 68.59 68.16 67.70 67.38 66.54 66.67 66.96 67.50 67.66 68.04 67.73 67.69 67.63 66.90 66.82 66.96 66.91 66.02 67.20 65.56 67.62
63.88 71.69 72.09 71.57 72.06 72.16 72.07 71.82 71.56 71.34 71.04 70.77 70.30 69.82 69.73 70.31 70.53 70.66 70.57 70.91 71.13 69.54 68.26 68.03 67.65 66.78 66.04 66.19 67.23 67.06 66.82 66.72 67.61 68.00 66.69 63.57 64.09 66.32 66.69 66.58 66.55 65.92 66.09
68.14 70.83 71.77 71.26 71.50 71.64 71.44 71.13 71.04 70.68 70.43 70.23 69.92 69.71 69.92 70.24 70.44 70.37 70.24 70.29 70.47 69.68 68.11 67.89 67.21 66.45 65.98 66.57 66.68 66.64 66.91 67.03 67.39 66.31 61.77 61.84 63.06 65.80 65.75 65.81 65.88 65.59 64.84
68.85 70.65 70.91 70.55 70.68 71.14 70.92 70.48 70.09 69.92 69.51 69.28 69.17 70.00 70.12 70.44 70.73 70.85 70.19 70.10 70.35 69.93 68.05 67.55 66.81 66.14 66.22 66.51 66.17 66.17 65.83 65.93 65.96 62.60 60.20 60.48 60.55 63.32 64.29 64.37 64.06 64.32 63.94
68.29 69.61 69.00 69.00 69.69 70.24 70.36 69.98 69.54 69.23 68.74 68.59 69.21 69.87 70.19 70.61 71.11 70.96 70.37 70.10 70.54 69.77 67.71 66.88 66.19 65.82 66.31 65.51 65.16 65.54 65.57 65.75 65.12 60.27 59.93 61.85 60.50 63.28 63.52 63.49 63.28 63.09 63.16
68.41 69.22 69.33 68.49 68.97 69.38 69.85 69.51 68.99 68.80 68.58 69.04 69.12 69.33 69.60 70.05 70.72 70.65 70.12 70.09 70.07 69.03 67.57 66.05 65.83 65.83 65.70 64.95 64.71 64.80 64.82 64.25 60.48 59.19 58.85 59.55 59.69 62.79 62.90 62.83 62.69 62.78 62.52
68.46 68.99 68.63 69.17 68.80 68.75 68.80 68.61 68.09 68.34 68.62 68.69 68.63 68.77 69.20 68.77 68.88 69.51 69.78 69.64 68.88 67.80 67.13 66.73 66.30 65.82 65.24 64.43 63.77 63.24 63.69 64.27 61.77 59.19 58.78 58.69 62.64 62.17 62.25 61.83 61.81 61.58 61.69
67.59 67.70 67.89 67.23 67.63 67.05 67.16 67.15 67.47 67.95 68.13 68.27 68.22 68.13 67.81 67.24 67.28 68.03 68.61 68.55 67.68 66.98 66.57 66.08 65.72 65.16 64.68 63.64 62.51 62.38 62.98 63.55 60.19 59.22 59.24 58.14 62.42 61.78 61.60 61.18 61.06 60.81 60.85
65.07 64.94 64.32 65.08 65.02 64.81 65.53 66.62 66.91 67.38 67.49 67.60 67.23 66.48 66.13 66.11 66.41 66.82 66.98 66.75 66.67 66.54 66.00 65.77 65.22 64.62 63.64 62.75 61.78 60.88 61.88 61.80 58.01 58.75 58.63 59.44 61.96 61.39 60.94 60.37 60.45 60.43 60.29
62.60 62.51 62.42 62.37 62.95 63.53 64.49 66.26 67.17 67.49 66.71 66.18 65.80 65.10 63.32 61.98 61.61 63.59 65.43 66.08 66.23 65.64 65.13 64.73 64.07 63.13 62.06 61.07 61.22 61.41 61.17 56.98 56.69 58.47 59.60 63.18 62.25 61.36 60.80 59.90 59.85 59.87 59.62
58.47 59.86 61.70 60.97 59.92 60.41 63.09 64.23 65.39 65.61 64.62 64.41 62.99 62.56 61.26 61.13 62.16 62.92 64.36 64.78 65.02 64.78 64.22 63.61 62.82 62.27 61.24 56.47 56.20 60.21 56.07 56.53 56.32 57.43 58.03 62.17 62.19 61.49 60.65 59.59 59.34 59.46 59.13
57.58 57.18 57.93 59.17 59.31 59.71 60.54 61.59 62.58 62.64 62.61 63.13 62.87 63.16 63.48 61.96 62.04 62.69 62.27 61.17 61.54 62.77 59.61 59.84 59.76 58.88 59.34 58.66 57.63 56.24 56.25 55.64 53.66 53.81 57.78 60.09 60.20 61.71 60.80 59.78 59.34 59.16 58.67
56.85 56.16 56.68 58.00 58.37 58.45 58.92 60.17 60.88 62.02 62.00 61.59 62.17 63.99 63.43 61.90 61.69 61.60 61.23 61.43 60.37 59.40 57.94 58.84 58.39 60.01 58.71 58.51 57.14 56.39 55.33 52.66 51.06 52.16 55.06 58.15 58.26 58.27 60.53 60.22 59.45 59.04 58.12
53.83 55.83 57.46 57.89 58.11 57.89 57.58 59.08 60.14 61.08 61.52 61.30 61.09 63.75 63.30 62.27 62.00 61.50 61.64 61.76 61.38 61.89 59.97 60.47 59.39 58.58 57.86 57.26 56.36 55.38 53.08 51.64 51.38 51.52 51.43 56.86 57.54 56.26 56.11 60.11 60.08 59.29 58.03
53.58 54.68 56.76 57.22 57.84 57.71 56.76 56.31 58.34 60.39 61.12 59.61 59.87 63.37 63.35 63.25 62.30 62.70 63.66 63.30 63.20 61.96 61.32 59.99 58.91 58.15 57.60 56.11 54.93 52.94 51.81 51.16 50.91 50.51 51.37 52.17 56.76 57.89 56.88 56.35 59.95 59.76 58.44
53.66 55.05 56.23 56.71 57.42 57.21 56.91 58.53 58.68 59.87 61.85 62.51 62.38 63.14 63.69 64.49 62.96 63.66 62.38 62.95 61.59 61.96 61.35 60.34 58.88 58.52 56.56 56.35 53.95 51.85 51.73 50.78 50.84 50.26 50.08 51.05 53.29 56.98 57.76 58.73 59.18 59.01 58.00
53.96 55.58 55.77 56.86 55.98 56.18 57.24 58.08 58.45 59.50 61.48 62.02 61.85 63.27 63.65 64.22 63.51 63.13 63.28 62.07 62.13 61.36 60.30 59.44 58.14 56.94 56.17 54.27 51.81 50.94 50.48 50.47 49.93 49.74 50.47 49.95 50.97 52.98 55.76 57.02 56.26 55.27 54.39
55.29 55.52 54.70 55.21 55.27 55.16 56.88 55.12 56.38 58.28 60.67 61.16 61.46 62.59 63.92 64.13 64.51 63.79 62.93 62.58 61.88 60.64 60.01 59.54 58.43 57.24 54.24 52.33 52.13 50.57 50.05 49.93 49.71 51.08 49.50 49.83 49.02 48.88 51.46 55.53 55.13 54.25 52.96
56.38 56.27 55.31 54.94 54.99 57.42 58.63 55.44 57.92 59.85 60.88 61.19 61.00 61.67 64.00 64.34 64.66 63.77 62.92 61.97 60.93 60.21 59.40 58.65 57.00 55.91 54.13 52.35 52.87 50.10 50.21 50.55 50.00 48.69 48.81 49.79 48.39 47.90 47.26 48.40 49.46 49.74 53.73
55.76 56.32 55.73 54.57 56.04 58.89 58.85 57.70 58.91 58.05 59.87 60.55 60.79 61.61 64.15 63.98 64.38 63.47 62.51 61.94 60.54 59.89 58.91 58.72 56.48 53.83 50.97 50.60 47.82 49.19 50.43 51.00 49.76 48.83 48.66 47.81 47.84 47.49 46.62 45.82 45.39 45.03 48.46
56.99 57.15 57.94 58.54 58.59 59.78 60.12 60.50 60.70 59.71 59.17 60.29 61.19 62.62 64.40 63.76 63.87 63.07 62.11 61.21 60.31 59.68 58.87 57.27 55.48 52.31 52.16 51.16 48.05 48.71 46.43 47.06 48.31 49.30 48.00 47.76 46.41 47.23 47.39 47.14 45.96 45.32 44.42
58.53 58.40 58.97 59.84 59.70 60.69 62.01 62.46 62.09 60.75 59.47 58.39 59.90 62.50 63.66 64.16 63.54 63.09 62.36 61.75 60.61 59.90 57.80 56.48 55.42 53.24 49.85 49.52 49.86 47.64 43.75 43.25 43.50 47.35 47.17 47.08 47.12 46.10 45.53 46.20 46.10 45.90 44.99
59.81 60.79 61.38 61.20 61.15 61.11 63.03 62.10 61.62 59.41 57.77 58.02 58.81 61.96 63.30 63.73 63.14 63.39 63.05 61.86 60.43 59.02 57.25 56.11 55.60 53.35 51.45 48.66 49.05 49.85 48.94 47.39 41.12 39.87 45.27 45.96 46.90 46.08 45.14 45.31 44.45 45.16 44.82
61.56 61.70 61.80 61.68 61.80 62.48 62.80 62.92 61.37 60.60 59.38 60.74 59.92 61.68 61.95 62.83 63.38 62.85 62.24 61.06 59.75 59.01 58.00 56.30 55.01 53.98 50.93 48.96 49.24 47.86 48.57 48.40 45.95 42.60 39.26 42.33 44.91 45.11 45.24 44.93 43.84 43.49 44.28
62.40 62.60 62.20 62.14 62.20 63.28 62.73 62.08 61.89 60.75 60.76 60.26 61.03 61.19 61.47 61.58 61.84 61.32 61.42 59.80 59.29 58.03 57.42 56.39 54.31 52.37 48.65 48.68 47.89 46.67 45.92 45.35 44.49 43.95 41.99 41.08 40.57 43.02 45.39 45.05 43.08 42.77 43.15

GFSSE_sfc_wetblb_051.txt.gz
Wetbulb
63.52 71.02 71.67 72.59 72.41 72.12 71.96 71.68 71.46 71.43 71.51 71.43 71.04 70.83 70.88 70.79 71.15 71.69 71.18 70.30 70.15 70.15 68.96 68.08 68.34 68.52 67.94 67.76 67.41 68.49 68.66 68.10 67.76 68.01 68.05 67.14 66.97 66.97 67.52 67.37 68.16 66.96 68.63
64.80 67.42 70.69 71.92 72.21 72.28 71.99 71.74 71.32 71.08 71.17 70.99 70.68 70.48 70.56 70.95 71.45 71.56 70.74 69.95 69.94 69.34 68.14 67.31 67.10 67.50 67.76 67.65 67.91 68.55 68.46 67.81 67.32 67.30 67.18 66.60 67.21 67.24 66.35 66.70 67.56 66.65 67.97
65.23 68.67 69.58 70.94 71.96 71.93 72.06 71.70 71.50 71.15 71.09 70.50 70.21 70.50 70.99 71.21 71.48 71.27 69.88 69.39 69.48 69.30 67.52 66.47 66.84 66.90 66.80 66.76 67.77 67.75 67.42 66.99 66.75 67.06 65.86 62.26 62.79 66.33 66.75 65.76 66.00 66.12 66.63
64.25 64.49 67.93 70.12 71.34 71.69 71.57 71.29 71.02 70.89 70.65 70.09 70.00 70.74 70.86 70.95 71.09 71.12 69.37 68.93 69.32 69.17 67.15 66.04 66.36 66.66 66.55 66.79 66.96 67.10 66.80 65.45 65.31 64.21 60.59 60.66 62.57 65.16 65.34 65.11 64.87 64.95 65.11
66.71 68.07 69.41 69.78 70.59 71.38 71.09 70.74 70.28 70.11 69.59 69.48 69.89 70.43 70.58 70.78 70.90 70.84 69.20 68.93 69.20 68.83 66.83 66.02 66.23 66.19 66.06 66.11 65.86 65.64 66.32 64.99 63.70 61.56 58.53 58.57 60.19 63.21 64.06 63.78 63.49 63.95 64.11
67.76 69.14 69.30 69.17 69.84 70.83 70.74 70.46 69.87 69.24 68.82 69.02 69.42 70.23 70.65 70.80 70.80 70.67 69.58 68.95 69.15 68.47 66.46 65.69 65.57 65.26 65.54 65.15 64.78 65.12 65.25 63.92 62.07 58.00 58.10 60.39 59.32 63.43 63.63 63.35 63.18 62.64 63.26
67.96 68.36 68.98 68.28 69.12 69.68 69.75 70.03 69.18 68.57 68.72 69.17 69.30 69.84 70.46 70.71 70.62 70.21 69.61 68.83 68.51 67.71 66.30 65.44 64.92 65.31 64.76 64.38 64.59 64.75 64.78 62.95 58.78 57.72 57.05 57.47 58.85 62.86 63.08 62.43 62.08 61.93 61.44
67.15 67.60 67.73 69.01 66.76 68.27 68.70 68.66 68.41 68.70 68.89 68.75 69.21 69.89 70.66 70.42 69.96 70.01 69.45 68.17 67.80 67.34 66.99 66.18 65.71 64.81 64.25 63.75 64.13 63.60 63.82 62.29 59.09 57.70 57.41 57.28 62.19 62.29 62.28 61.82 61.65 61.32 60.94
67.62 67.01 67.28 67.84 68.00 67.28 67.26 67.37 67.71 68.10 68.27 68.30 68.19 68.28 68.58 68.78 69.04 69.35 68.67 68.05 67.48 67.06 66.52 65.93 65.20 64.32 63.45 62.73 62.88 62.33 62.35 62.09 56.68 57.57 58.42 56.94 62.27 61.66 61.70 61.23 60.97 60.78 60.64
65.68 66.04 65.73 66.00 66.01 66.05 65.69 66.57 67.22 67.39 67.48 67.31 67.04 66.73 66.65 67.36 68.06 67.91 67.31 67.00 66.79 66.32 65.77 65.33 64.67 63.47 62.47 61.44 61.04 61.04 61.43 60.85 56.60 57.02 57.52 59.12 61.99 61.18 61.03 60.85 60.44 60.48 59.96
62.24 63.02 62.68 62.81 62.94 63.47 65.05 67.19 67.14 67.21 66.58 66.15 65.87 65.19 63.68 64.35 64.98 64.69 65.63 65.94 65.93 65.44 65.11 64.62 63.68 62.55 61.56 60.34 59.93 60.60 59.15 56.59 57.64 58.07 58.21 62.86 62.12 61.39 60.58 60.38 59.99 59.78 59.66
60.05 61.02 61.33 61.40 61.53 62.23 64.57 65.77 65.36 65.04 63.46 62.72 61.76 59.51 60.06 60.53 62.41 64.24 64.67 65.01 64.47 64.31 64.04 63.68 62.88 61.83 59.95 54.01 54.73 57.43 53.86 54.76 56.82 56.97 58.42 62.87 62.24 61.52 60.56 59.89 59.64 59.43 59.15
59.05 60.48 59.85 59.40 59.56 61.32 62.17 61.62 63.55 63.01 62.78 61.45 60.60 60.75 60.71 61.75 61.61 61.52 61.52 61.86 61.73 62.09 59.39 59.91 59.47 56.60 56.41 55.43 53.74 53.12 51.36 51.28 51.48 54.01 59.10 61.42 61.77 61.79 60.83 59.90 59.62 59.27 58.73
56.18 57.70 57.97 58.41 58.81 59.14 57.95 57.12 60.21 60.97 61.04 60.14 60.94 61.46 60.53 60.65 59.75 59.54 59.15 59.26 58.49 57.64 55.40 55.58 55.50 56.50 55.91 55.00 54.39 52.75 50.10 48.66 49.36 50.79 55.30 59.40 60.31 60.67 61.30 60.34 59.71 59.27 58.51
55.12 56.26 57.09 57.96 57.94 58.11 58.49 58.81 59.10 60.83 59.65 59.99 61.21 62.28 60.99 60.47 59.52 59.56 59.47 58.91 58.03 57.11 54.94 55.95 56.78 56.50 55.31 54.59 53.13 51.28 49.74 48.72 49.73 49.93 50.02 57.42 57.94 57.74 57.99 61.11 60.09 59.71 58.60
55.98 56.36 57.11 57.01 57.19 57.11 57.09 55.98 56.50 59.16 58.31 58.66 59.55 61.52 61.68 60.48 60.86 59.58 59.90 59.85 58.34 58.63 57.39 57.60 56.77 55.55 54.86 53.38 51.52 49.74 49.02 48.61 47.93 49.44 48.87 50.63 56.74 57.74 57.18 57.43 60.11 60.36 59.11
55.43 56.02 55.78 55.76 56.33 56.20 57.14 57.01 57.55 58.61 59.89 58.88 58.82 60.54 61.61 61.97 60.63 60.83 61.18 60.84 61.44 59.50 58.76 57.08 56.57 55.44 53.80 54.03 51.35 49.56 49.23 48.35 48.15 47.98 49.13 49.30 52.31 56.57 58.13 59.65 58.30 60.38 59.20
55.17 55.23 55.59 56.22 55.93 56.05 56.25 57.08 57.62 57.64 59.22 59.36 59.63 60.18 61.04 62.33 61.92 60.51 59.82 59.88 59.83 59.33 57.98 56.76 55.99 54.66 53.44 51.53 48.91 47.92 48.00 47.91 47.54 47.86 48.33 49.63 49.59 52.90 55.71 57.48 59.00 58.37 57.88
55.05 55.40 55.38 55.97 55.65 56.02 56.46 56.24 56.55 57.86 57.49 58.22 58.77 59.98 60.99 61.48 62.32 60.25 61.11 60.01 59.51 58.16 57.39 57.12 55.78 54.75 52.74 50.34 49.02 47.82 47.23 47.36 46.77 49.09 47.93 47.86 46.81 50.47 51.13 56.03 56.08 55.65 54.88
54.65 54.64 55.23 55.13 55.00 55.73 56.58 55.71 56.10 55.71 55.56 57.40 58.30 58.59 61.32 61.04 61.52 61.70 60.96 60.16 59.29 57.75 57.02 56.51 55.43 54.33 52.16 49.92 51.69 48.67 46.50 46.99 47.15 46.27 46.23 48.08 46.93 47.39 49.27 50.07 49.95 49.97 54.53
53.19 52.88 53.27 53.63 53.78 54.73 54.90 53.84 53.24 53.36 56.04 56.17 57.73 58.57 59.97 61.73 62.02 61.35 60.51 59.82 59.17 57.60 56.69 56.17 54.73 52.49 49.28 47.71 45.66 45.30 46.08 46.67 47.05 46.51 46.15 45.52 45.57 45.39 44.68 45.51 44.27 43.68 47.77
53.73 53.21 52.92 53.14 53.66 53.54 56.69 53.70 53.52 55.29 56.25 58.53 58.56 58.05 59.81 61.98 61.95 61.44 60.35 59.21 58.44 57.67 56.97 55.77 53.28 50.03 48.95 47.20 44.84 45.89 43.91 45.72 46.52 46.85 45.75 45.49 44.01 44.99 44.87 44.84 44.17 43.65 44.73
52.60 52.87 52.59 52.73 53.61 54.90 57.38 56.84 55.81 57.42 56.46 54.78 55.74 57.48 59.72 62.49 61.79 61.67 60.63 59.72 58.18 57.84 56.22 54.42 52.69 50.50 48.23 47.77 47.54 46.69 42.17 41.35 41.75 44.60 45.72 45.34 43.89 43.39 43.82 44.37 44.28 43.94 42.94
52.81 54.48 54.93 53.84 53.89 55.95 58.03 57.01 55.89 56.78 55.79 56.00 54.76 56.95 60.78 61.78 61.24 61.81 61.06 59.95 58.41 58.52 56.71 54.97 54.62 52.57 51.57 48.10 48.30 48.30 45.64 45.67 40.65 39.13 45.13 45.64 44.37 44.27 43.21 42.88 43.50 43.67 43.23
54.93 54.65 55.95 55.91 55.78 57.12 58.12 58.44 58.40 58.25 57.82 55.98 56.06 56.14 60.14 60.31 60.55 60.63 60.42 59.82 58.76 59.24 58.04 56.16 54.55 53.28 52.30 49.73 48.07 47.52 46.07 47.25 46.57 42.91 38.29 42.53 43.90 43.63 43.30 42.96 43.10 41.87 42.73
56.95 56.26 56.58 56.92 57.39 58.08 58.15 58.76 60.11 60.06 58.79 56.38 56.06 57.03 60.23 60.23 60.32 61.55 61.38 59.69 59.37 57.72 57.29 55.62 53.60 52.96 50.36 49.29 47.96 47.00 46.37 45.18 44.89 44.15 41.95 39.30 41.06 40.37 43.16 43.41 42.39 41.46 41.25

GFSSE_sfc_wetblb_054.txt.gz
Wetbulb
69.13 71.08 71.97 72.52 72.15 72.02 71.51 71.20 71.04 70.81 71.06 70.98 70.86 71.25 71.47 71.56 70.81 70.33 70.01 70.06 69.81 69.40 68.17 68.57 68.81 68.48 68.00 67.73 67.41 68.08 68.18 67.98 67.69 67.96 67.55 66.86 67.71 67.89 68.11 68.04 68.11 66.65 68.45
66.52 70.30 70.60 71.42 72.05 71.95 71.69 71.33 70.93 70.81 70.80 70.81 70.74 71.40 71.57 71.04 70.20 70.18 70.04 69.69 69.36 69.05 68.24 68.52 68.35 68.24 68.04 67.76 68.23 68.10 67.99 67.34 66.75 66.78 67.00 67.01 66.37 66.48 67.09 67.25 67.88 66.25 67.29
66.62 69.87 69.91 69.91 71.68 71.86 71.63 71.37 71.22 71.00 70.76 70.61 70.95 71.52 71.42 70.66 70.15 69.84 69.52 69.03 68.56 68.76 68.18 67.98 67.77 67.54 67.57 67.33 67.73 67.95 67.54 66.85 65.95 65.89 65.02 61.65 62.62 65.65 65.86 65.45 66.63 66.37 66.39
64.90 69.10 69.38 70.12 70.69 71.22 71.23 71.08 70.78 70.78 70.61 70.61 71.04 71.50 71.50 70.39 69.89 69.59 69.03 68.50 68.22 68.47 68.31 67.65 67.50 66.84 66.02 66.68 66.86 67.41 65.88 64.90 64.41 62.74 59.54 60.49 61.79 64.82 64.78 64.93 64.83 64.32 64.21
64.49 66.68 69.41 69.78 69.51 70.14 71.14 70.81 70.32 69.92 70.01 70.42 70.71 71.28 71.50 70.32 69.89 69.61 68.88 68.30 68.03 68.10 67.73 67.39 66.64 65.61 65.60 66.00 65.95 65.77 65.18 64.41 63.54 60.13 56.94 58.35 59.88 62.92 63.93 64.17 63.41 63.52 62.83
64.94 66.41 65.48 68.05 69.46 70.16 71.01 70.44 69.67 69.19 69.24 69.73 70.15 70.70 71.31 70.28 69.91 69.24 68.39 68.13 67.87 67.73 66.71 66.41 65.61 64.81 64.96 65.62 65.86 65.38 64.29 63.37 60.68 56.24 56.78 60.44 59.46 63.51 63.64 62.76 62.58 62.39 62.81
66.93 67.22 68.02 68.17 68.69 69.31 69.54 69.45 69.14 68.96 69.01 69.49 69.77 70.02 70.58 70.21 69.60 68.86 68.19 67.74 67.41 67.01 65.67 64.91 64.57 65.17 64.84 65.75 65.24 64.05 63.14 62.33 57.25 55.44 55.77 56.80 59.06 62.69 62.88 62.51 61.78 61.68 61.18
67.56 67.74 67.38 68.38 68.12 68.62 68.19 66.60 67.74 68.60 69.01 69.04 69.48 69.64 70.01 69.93 68.97 68.65 68.02 67.45 67.32 66.95 66.17 65.41 65.09 64.76 64.60 64.52 64.52 63.26 62.29 61.52 58.12 56.13 56.46 56.76 61.63 62.34 62.55 61.66 61.11 61.02 60.67
66.68 66.77 64.94 66.46 67.74 67.00 66.42 65.79 65.77 67.97 68.81 69.11 69.23 69.17 69.14 69.00 68.38 68.15 67.75 67.48 67.00 66.34 65.62 64.94 64.27 64.00 64.03 63.55 63.50 62.92 61.28 60.89 55.52 56.30 57.53 56.74 61.98 61.96 61.89 61.52 60.79 60.39 60.18
65.66 66.10 65.81 65.80 66.01 64.54 64.47 64.71 65.23 67.42 67.60 67.91 68.45 68.27 68.03 68.13 67.74 67.31 66.70 66.73 66.22 65.69 65.09 64.48 63.38 63.28 63.08 62.45 62.74 61.99 61.30 60.07 54.86 55.60 56.48 58.98 61.96 61.64 61.13 60.95 60.51 59.88 59.50
63.04 64.37 64.97 63.92 62.92 62.89 62.79 62.98 64.51 67.19 66.86 66.91 67.15 67.02 65.99 66.28 65.76 64.54 65.40 65.59 65.69 65.00 64.33 63.71 63.04 62.07 60.12 61.34 61.69 61.19 59.38 56.07 56.38 56.39 56.93 62.66 61.80 61.27 61.07 60.39 60.14 59.42 59.09
60.22 61.25 62.77 62.89 61.77 60.55 61.02 63.32 65.17 65.39 63.99 63.47 62.27 62.84 62.73 63.25 63.62 64.09 64.57 64.53 64.21 63.80 63.35 62.78 62.00 61.02 57.74 53.25 53.78 57.91 54.89 56.31 56.71 57.06 58.13 62.69 62.04 61.27 60.74 60.23 59.46 58.84 58.63
59.89 60.28 60.96 61.49 61.44 60.39 59.66 60.79 64.38 62.97 61.56 59.75 59.71 60.54 62.48 62.86 62.15 62.36 61.94 61.53 61.27 61.60 59.55 58.77 56.82 54.94 55.77 53.23 51.65 51.40 52.77 53.71 54.07 55.84 60.00 62.64 62.06 61.49 60.77 60.33 59.65 59.34 58.71
59.21 58.97 59.47 60.44 60.51 60.46 62.51 63.67 62.73 61.37 60.19 59.61 59.96 60.32 60.53 60.12 59.40 59.69 59.80 59.64 58.84 57.45 56.32 55.01 54.12 55.40 54.34 53.71 52.15 49.10 50.18 49.84 50.58 52.19 57.27 60.59 62.28 61.45 61.26 59.83 60.02 59.46 58.74
57.35 57.44 57.94 58.61 58.52 58.60 57.92 60.57 61.26 60.45 60.00 60.51 60.61 60.01 59.42 57.80 57.59 58.27 58.39 57.41 56.66 56.27 53.60 54.08 55.25 55.04 53.14 52.98 51.07 49.45 47.95 48.46 48.30 49.39 50.08 58.15 59.71 60.89 61.23 61.17 60.74 59.85 58.77
56.53 56.52 57.45 57.49 57.36 58.12 56.51 57.93 59.81 59.84 59.29 60.60 60.66 60.18 59.05 57.88 57.87 57.54 57.31 56.41 55.90 56.26 54.45 55.31 55.33 54.20 53.13 51.62 49.20 48.34 47.78 48.16 48.61 47.80 48.62 50.51 56.49 57.58 58.31 59.40 60.98 60.65 59.46
56.35 56.58 56.70 56.27 57.58 57.14 56.27 56.84 58.24 58.61 58.83 59.47 59.40 60.69 59.82 59.48 58.80 58.05 58.54 58.62 57.65 56.98 56.27 56.40 55.38 54.52 52.92 52.55 49.38 48.01 47.52 46.82 48.16 48.18 47.42 48.70 52.27 56.32 57.84 59.02 58.47 60.18 59.82
55.55 55.59 56.30 57.35 56.72 56.22 55.61 55.80 56.95 57.51 58.85 58.46 58.11 59.87 60.36 61.07 60.19 59.66 59.68 60.11 59.83 58.93 57.21 55.90 55.29 54.21 52.39 51.50 48.29 46.87 46.63 46.74 46.31 46.30 48.36 48.77 49.00 52.38 55.92 58.73 60.68 60.70 59.60
54.94 54.74 54.92 55.71 55.27 55.71 56.16 55.65 56.38 56.65 57.43 58.33 57.47 59.35 59.79 60.53 61.29 59.76 59.85 59.29 59.25 58.10 56.83 56.72 54.75 53.83 51.77 49.99 48.56 46.67 45.86 45.83 45.59 47.55 47.27 48.60 48.01 50.22 50.72 56.44 57.12 56.93 57.60
54.59 54.65 54.57 55.40 55.22 55.77 55.96 55.65 56.03 55.93 56.06 56.81 57.54 57.25 59.16 59.80 59.89 59.86 59.76 59.31 59.16 57.00 55.77 55.16 54.38 53.76 52.51 50.72 50.82 48.53 45.02 45.52 45.05 44.87 45.56 47.45 46.48 49.10 49.92 50.67 50.70 51.05 55.35
54.50 54.34 54.25 54.34 54.96 55.58 54.85 54.03 54.07 53.52 54.20 54.94 56.15 56.89 57.40 59.26 59.55 59.08 60.01 58.94 58.48 57.50 56.51 55.55 54.32 52.94 49.71 48.33 45.55 44.39 44.86 45.38 45.00 44.48 44.24 44.57 45.24 47.67 47.62 47.86 47.33 46.23 48.02
52.96 53.59 53.98 53.51 54.30 55.10 55.36 54.57 53.71 53.27 52.83 54.96 55.80 56.35 57.11 58.52 59.77 59.84 59.57 59.01 58.32 57.18 56.03 55.17 53.49 50.20 49.72 46.46 45.45 46.00 45.37 45.71 45.74 45.91 44.26 44.61 43.07 43.63 44.25 45.84 44.60 43.92 43.02
52.16 52.22 53.23 53.22 53.21 53.89 55.13 54.06 51.23 51.59 54.46 54.29 55.23 55.49 56.49 58.14 59.49 59.96 59.75 58.73 57.56 56.92 56.18 54.82 53.03 51.37 50.21 48.86 48.20 47.79 44.05 42.84 41.35 43.21 44.91 44.37 43.64 42.70 42.92 43.01 43.13 43.04 43.20
52.40 52.71 53.22 53.60 53.05 53.20 54.28 54.72 51.39 51.70 51.78 54.57 55.11 55.83 56.18 58.16 59.69 60.52 60.48 58.85 57.75 57.88 56.39 55.51 54.32 52.20 52.52 49.43 47.80 48.70 47.32 46.29 42.58 41.58 44.86 44.69 44.97 44.54 42.30 42.15 42.68 42.38 41.83
53.23 52.40 52.76 52.69 53.32 53.46 53.46 56.25 53.75 51.75 53.77 55.84 55.04 53.68 55.61 58.31 59.91 60.54 60.14 58.78 58.15 58.18 58.45 56.71 55.05 53.04 52.55 50.21 48.70 46.72 47.45 46.69 45.90 43.10 40.29 41.69 44.66 44.93 43.77 42.32 43.62 41.72 42.27
52.74 52.33 51.96 51.60 52.79 53.56 53.27 55.47 54.99 53.23 53.94 55.25 54.66 53.51 54.65 58.10 59.17 59.81 60.47 59.39 58.39 58.38 58.04 57.85 55.95 54.46 51.84 50.19 49.72 48.83 47.85 46.40 45.85 44.79 41.73 41.51 41.17 41.75 43.93 44.96 43.86 42.33 41.31

GFSSE_sfc_wetblb_057.txt.gz
Wetbulb
69.06 71.09 71.58 71.99 71.87 71.83 71.34 71.12 70.88 70.79 70.91 71.11 71.38 71.37 71.05 70.95 70.42 70.30 70.03 69.42 69.19 69.98 68.87 68.56 68.05 67.45 67.38 67.63 67.48 67.26 67.84 67.91 67.36 67.53 68.04 68.21 68.08 68.05 68.37 67.81 67.74 65.55 68.21
69.90 70.72 70.89 71.52 71.64 71.48 71.11 70.96 70.84 70.65 71.07 71.59 71.41 70.89 70.50 70.19 69.97 69.81 69.40 69.12 69.51 69.81 68.78 68.45 68.25 67.89 67.66 67.26 66.90 66.58 66.22 66.86 66.93 66.90 66.73 66.23 66.82 66.91 67.65 67.42 67.97 66.90 67.26
69.19 69.49 69.09 69.43 69.81 69.55 70.19 70.83 71.03 70.98 71.37 71.56 71.38 70.63 70.36 70.17 69.97 69.30 68.79 69.10 69.59 69.75 68.70 68.59 68.43 68.09 68.01 67.91 67.17 66.21 65.78 65.50 65.63 65.44 64.71 61.32 61.94 65.70 66.10 65.77 65.67 65.89 66.39
65.58 66.58 67.50 67.90 68.29 68.28 68.19 70.10 70.77 70.86 71.42 71.44 70.99 70.48 70.36 70.00 69.54 68.91 68.42 68.64 69.35 69.41 68.11 67.70 67.50 67.30 67.12 67.31 66.88 65.34 64.67 64.20 63.71 62.77 59.53 59.71 61.38 65.05 64.94 64.52 63.83 63.73 64.12
63.87 68.06 67.75 66.87 66.59 67.62 67.54 69.77 70.32 70.21 70.68 71.03 70.52 70.34 70.27 69.93 69.42 68.72 67.94 68.42 69.03 69.07 67.39 66.77 66.16 65.93 67.14 66.50 65.77 64.84 64.01 63.33 62.52 59.69 57.06 58.06 59.64 62.87 64.28 63.45 63.10 63.45 62.51
63.54 67.44 67.99 66.99 65.61 68.17 68.78 69.77 69.64 69.93 70.09 70.37 70.12 69.93 70.00 69.83 69.25 68.21 67.36 68.18 69.01 68.56 66.64 65.24 65.42 66.18 66.27 65.60 65.12 64.33 63.55 62.43 60.10 55.75 56.90 60.44 59.15 63.32 63.07 62.74 62.15 61.70 61.80
63.09 65.30 67.95 67.65 68.19 69.17 69.58 68.58 68.77 69.64 69.67 70.16 70.13 69.28 69.41 69.44 68.93 67.89 67.33 67.62 68.06 67.70 66.01 64.79 65.92 66.72 65.96 65.02 64.26 63.45 62.81 61.14 56.03 54.92 55.84 57.01 58.95 62.95 62.76 62.25 61.49 61.26 61.00
64.46 66.26 65.22 68.21 68.25 68.19 67.92 67.68 66.93 68.49 69.31 69.64 69.51 68.95 69.22 68.78 68.20 67.84 67.31 67.02 66.87 66.10 65.52 65.26 65.92 66.08 65.24 64.36 63.50 62.98 62.09 61.11 57.12 55.38 56.08 56.96 61.75 62.20 62.27 61.59 61.09 60.50 60.34
65.64 65.82 66.08 67.06 66.48 65.19 64.14 62.92 63.07 66.07 68.54 68.41 68.41 68.40 68.29 67.90 67.35 67.43 67.01 66.54 65.62 64.96 64.75 64.44 64.48 64.84 64.90 63.79 63.26 62.09 61.16 59.99 54.71 55.36 57.17 56.49 62.10 62.01 62.01 61.21 60.62 59.99 59.69
64.80 64.08 65.78 65.49 65.60 63.75 62.58 62.99 64.09 66.51 67.62 67.46 67.82 68.24 67.26 67.27 66.97 66.60 65.96 65.39 65.02 64.85 64.46 64.20 63.78 64.23 64.45 63.88 62.38 61.61 61.08 59.35 54.28 55.10 56.20 59.06 61.85 61.67 61.51 60.86 60.16 59.58 59.20
64.12 63.90 64.78 64.26 63.80 62.88 61.96 62.07 64.25 66.57 67.25 67.58 67.94 67.51 65.88 65.48 64.46 63.31 64.30 64.82 64.59 64.50 64.23 63.20 61.94 62.86 63.43 62.74 62.37 61.25 58.71 54.81 54.94 55.68 56.82 62.47 61.82 61.44 61.14 60.49 59.83 59.16 58.81
61.67 62.47 62.03 62.15 61.28 61.23 61.35 61.58 63.36 65.27 66.08 66.97 67.19 66.22 65.51 63.21 62.49 63.31 63.73 63.94 63.47 63.34 63.16 62.69 61.51 59.97 57.71 55.34 58.47 58.54 55.46 55.92 55.90 56.42 58.06 62.44 61.78 61.37 60.65 60.05 59.21 58.66 58.24
60.90 61.64 60.98 60.66 60.72 59.17 57.87 58.22 61.95 64.24 64.08 61.46 61.24 63.19 62.91 62.85 62.73 61.68 60.80 60.34 60.49 60.55 57.70 56.48 54.34 54.78 52.82 53.15 52.97 53.60 55.30 55.77 55.73 56.75 59.69 62.27 61.70 61.19 60.84 60.21 59.62 59.15 58.62
59.52 60.52 60.64 59.76 58.80 58.71 58.97 57.55 60.99 62.16 61.44 61.24 61.69 62.66 61.62 60.74 60.30 59.80 58.75 58.47 57.78 56.66 54.90 54.46 54.88 54.01 52.37 50.92 50.91 51.64 52.49 52.27 52.85 54.36 58.45 61.42 62.47 60.94 60.84 60.49 60.14 59.49 58.77
58.31 59.16 59.96 60.57 59.60 57.73 57.11 58.91 61.83 60.48 60.15 60.38 61.00 61.82 60.93 59.31 58.43 58.03 57.54 56.83 56.08 54.47 53.85 52.99 54.37 52.69 51.98 50.30 48.25 49.17 48.99 48.83 49.46 50.40 52.23 59.72 60.78 62.04 60.74 60.36 60.23 60.16 59.22
57.65 58.01 58.79 59.01 59.98 59.40 60.08 61.29 59.95 58.33 59.17 60.05 60.16 60.15 59.03 58.05 58.14 57.25 56.70 56.23 54.69 54.24 53.74 53.83 54.57 52.24 51.50 49.08 47.26 47.07 47.42 46.94 47.08 47.22 48.35 50.92 56.94 59.34 60.77 61.14 60.91 60.50 59.66
57.09 57.61 57.28 57.56 57.95 58.16 58.63 58.94 59.24 58.54 59.88 59.33 59.07 58.90 57.79 57.31 57.31 57.00 56.63 56.47 55.04 54.90 53.62 54.76 53.96 52.67 50.58 49.88 47.51 46.76 46.60 46.96 47.44 46.69 47.19 48.64 52.11 56.28 56.81 58.65 61.03 60.71 59.94
56.85 56.66 57.16 58.23 57.12 57.52 58.21 58.55 58.31 58.09 59.29 59.11 59.42 59.14 58.27 58.15 58.05 57.32 57.81 57.11 56.84 55.88 54.43 54.65 53.85 52.48 51.00 50.45 47.04 45.76 45.19 45.34 46.67 46.89 46.74 47.62 49.06 51.40 56.10 58.01 59.01 58.76 60.62
56.05 56.21 56.51 56.77 56.01 55.79 56.26 56.35 56.55 57.10 57.72 58.04 59.36 59.62 59.56 59.31 59.48 58.64 58.73 58.84 58.07 57.74 56.20 55.16 53.76 52.89 50.83 50.06 48.32 45.73 45.05 44.78 44.54 46.56 47.17 47.72 47.34 50.09 50.25 57.19 58.97 59.58 60.49
55.24 55.69 55.85 55.81 55.77 55.55 55.28 55.84 55.81 55.51 56.23 57.25 57.15 58.57 59.69 60.00 60.08 59.46 59.02 58.83 59.35 57.86 56.75 54.84 53.76 52.95 51.77 50.27 50.75 47.56 44.49 44.61 44.18 43.76 45.33 48.30 46.91 48.72 49.59 50.85 52.00 52.67 56.93
54.01 54.13 54.64 54.66 55.37 55.35 54.74 54.04 53.94 53.50 54.46 55.30 56.81 57.58 58.41 59.14 58.89 58.70 58.79 58.28 57.98 56.72 56.04 55.28 53.27 52.32 50.41 49.00 45.58 44.22 44.31 44.45 44.31 43.53 43.42 44.77 44.79 47.47 48.09 48.65 48.16 47.51 50.03
53.41 53.78 54.28 54.28 54.81 55.04 54.62 54.91 54.26 53.55 53.65 55.12 55.57 55.90 56.81 57.28 58.20 58.29 58.58 58.24 58.22 56.92 55.31 54.28 53.00 50.71 51.00 47.47 45.70 45.49 41.85 44.36 45.29 44.83 43.10 43.41 43.08 44.42 46.98 47.08 46.55 45.88 44.63
53.25 53.29 53.33 54.02 54.37 54.67 55.12 54.19 52.78 52.66 53.10 53.88 54.40 55.04 55.68 56.75 57.62 58.50 58.10 57.78 56.81 56.23 55.89 54.28 53.51 51.35 50.90 47.36 47.75 48.31 44.64 43.38 43.91 44.46 45.59 45.28 43.39 41.79 42.70 43.60 45.32 44.41 43.16
52.67 53.61 53.25 52.71 52.77 53.59 55.36 54.07 52.64 51.65 51.49 51.63 53.64 54.75 55.43 56.23 56.58 57.99 58.43 57.90 57.05 57.11 55.63 55.51 54.96 52.36 51.81 49.70 48.85 49.74 48.15 47.65 44.15 43.80 45.79 45.72 45.79 44.80 41.99 43.35 42.11 42.14 42.23
52.62 51.18 52.82 52.95 52.57 53.00 53.23 54.20 52.17 50.00 50.43 51.15 53.63 53.78 53.88 55.05 56.29 57.59 58.24 57.66 57.46 57.61 57.36 55.89 54.16 52.08 51.81 51.97 50.46 48.77 48.75 47.30 47.02 45.13 41.33 43.77 45.14 45.48 45.71 43.66 42.05 42.16 41.91
51.70 51.43 51.37 52.29 52.79 52.50 52.17 53.43 53.23 50.88 49.98 50.93 52.15 52.96 53.74 53.82 55.89 57.26 58.32 58.43 58.02 57.57 56.73 56.65 55.75 54.45 53.38 52.91 50.95 50.06 49.56 48.00 46.34 44.99 42.85 42.92 42.19 43.75 42.08 42.99 42.96 43.64 43.06

GFSSE_sfc_wetblb_060.txt.gz
Wetbulb
68.15 70.32 71.40 71.98 71.81 71.62 71.35 71.09 71.22 71.36 71.76 71.93 71.81 71.71 71.51 71.36 71.10 70.76 70.35 69.91 69.83 70.06 68.82 68.53 68.32 68.08 68.09 67.92 67.05 67.09 67.62 67.98 68.31 68.88 68.94 68.44 68.43 68.11 68.11 68.30 68.08 66.27 68.35
69.34 70.00 70.57 71.10 71.33 71.33 71.40 71.08 71.02 71.15 71.49 71.81 71.66 71.24 71.11 70.89 70.59 69.91 69.76 69.79 69.81 69.59 68.27 67.78 67.60 67.42 67.43 67.45 67.28 66.95 67.13 66.98 66.71 66.99 67.38 67.95 67.86 67.72 67.91 67.61 67.79 66.78 68.01
68.77 69.73 70.30 70.52 70.83 71.12 71.40 71.17 71.35 71.63 71.76 71.64 71.29 70.92 70.60 70.41 69.76 69.55 69.67 69.59 69.76 69.82 68.57 68.09 67.97 67.56 67.14 66.44 66.73 66.08 65.72 65.71 66.06 65.58 64.76 61.95 63.57 66.46 66.22 65.91 66.32 66.46 66.22
69.24 68.62 68.51 70.00 70.29 70.88 70.77 70.82 71.10 71.53 71.61 71.06 70.94 70.65 70.44 70.03 69.62 69.86 69.40 69.13 69.52 69.76 68.93 68.20 68.65 67.74 66.77 66.34 65.99 65.25 64.84 64.43 63.68 62.86 59.69 60.79 61.71 64.65 63.96 63.88 64.04 63.93 64.45
66.43 66.42 67.69 69.05 69.14 69.60 70.14 70.47 70.92 71.10 70.72 70.34 70.37 70.46 70.10 69.74 69.84 69.79 69.03 68.93 69.37 69.41 68.51 68.57 68.25 67.59 66.18 65.89 65.37 64.65 63.84 63.30 62.60 59.79 57.98 58.91 61.02 63.55 64.21 63.26 62.97 63.28 63.05
63.15 66.20 66.07 66.43 68.00 68.42 68.45 69.94 70.57 70.48 69.94 69.62 69.82 69.99 69.91 69.59 69.72 69.32 68.66 68.72 68.96 68.59 67.72 67.45 67.85 66.32 65.70 64.91 64.59 63.74 63.05 62.50 60.24 56.73 58.01 61.07 59.77 63.29 63.13 62.46 62.08 62.10 61.77
62.90 64.38 66.87 65.78 67.67 68.17 68.67 69.43 69.58 70.02 69.61 69.40 69.48 69.37 69.29 68.98 69.23 68.71 68.39 68.18 67.55 66.84 66.70 67.32 66.29 65.87 65.14 64.54 64.09 63.21 62.68 61.20 56.51 55.97 56.66 57.88 59.93 62.95 62.83 62.29 61.70 61.33 61.18
62.23 64.27 66.15 66.30 67.58 67.87 68.41 67.78 67.70 68.17 68.42 68.78 68.64 68.68 68.73 68.13 67.93 68.29 67.87 67.08 66.29 66.65 67.14 67.25 66.36 65.28 64.76 64.03 62.98 62.82 62.25 61.05 57.29 56.12 56.91 58.17 62.27 62.46 62.48 61.61 61.02 60.62 60.41
62.99 64.41 66.33 66.02 67.08 66.62 66.22 65.29 65.53 66.27 67.89 68.09 67.98 68.01 67.83 67.37 67.07 67.52 67.08 66.10 65.83 66.42 66.98 66.26 65.32 64.62 64.32 63.53 62.83 62.17 61.17 59.92 55.24 56.26 57.65 58.05 62.25 62.17 61.99 61.30 60.51 60.23 59.64
64.54 64.64 64.61 64.74 63.02 62.58 62.84 63.94 63.53 63.46 66.94 67.65 67.92 67.56 67.24 66.86 66.60 66.06 64.98 64.93 65.05 65.32 65.88 65.79 64.96 64.16 63.78 63.16 62.29 61.78 61.08 59.25 55.13 55.95 56.99 59.98 62.20 62.08 61.61 60.67 60.35 59.69 59.22
63.34 63.25 64.20 63.25 62.13 61.42 60.81 62.11 62.62 63.55 65.50 66.30 67.45 67.05 65.51 64.52 63.08 60.89 63.15 64.22 64.29 63.89 64.17 64.71 64.73 63.92 62.88 62.71 62.25 61.39 58.53 55.51 55.63 56.48 57.66 62.32 62.06 61.84 61.38 60.46 59.71 59.18 58.92
61.14 63.04 63.27 63.00 61.45 61.00 60.69 59.67 59.05 61.49 61.50 64.02 66.37 65.09 64.27 62.22 60.66 61.58 63.09 63.36 62.83 62.70 62.69 63.90 64.20 63.22 60.61 57.92 58.95 58.48 55.39 55.60 55.92 56.62 58.47 62.20 61.92 61.75 60.98 60.23 59.41 59.06 58.48
61.10 61.24 61.22 61.19 61.03 60.36 59.94 60.38 61.64 61.36 62.21 63.39 65.78 64.40 62.47 61.97 61.80 60.37 59.83 59.68 58.99 59.99 56.47 57.29 56.59 55.41 54.92 54.18 54.30 55.09 55.78 55.65 55.98 57.09 60.34 62.11 61.87 61.54 60.91 60.00 59.37 58.88 57.91
60.35 60.19 60.65 61.48 60.71 59.99 59.43 59.42 61.56 60.90 61.78 61.74 63.27 62.94 61.98 60.90 59.04 57.94 58.09 56.66 55.23 54.12 53.12 54.71 53.09 52.38 52.67 53.34 53.89 54.68 54.82 54.37 54.61 56.10 59.43 61.64 62.00 61.35 61.04 60.79 60.18 59.34 58.04
59.17 59.37 59.77 59.26 57.76 57.62 57.71 58.61 61.09 60.87 61.27 61.95 62.60 62.74 61.28 59.14 57.77 57.61 57.59 56.53 54.60 53.69 53.23 53.67 51.98 51.44 50.87 50.79 52.10 52.26 51.92 52.45 53.09 54.03 55.33 60.78 61.51 61.90 60.94 61.12 60.94 60.32 59.31
58.55 59.03 59.53 58.54 58.29 58.14 56.17 59.48 60.05 60.00 59.48 61.10 61.92 61.73 59.80 58.67 57.58 57.26 56.43 54.65 53.62 52.68 53.46 54.09 52.43 51.25 50.05 48.81 48.50 49.12 48.99 48.92 49.36 49.40 51.02 54.61 59.13 61.10 61.81 60.93 60.88 60.91 60.14
58.35 58.87 58.49 59.19 58.92 58.41 57.61 59.91 58.97 59.16 59.72 59.84 60.56 59.00 57.66 57.66 56.89 56.17 56.28 55.42 54.46 52.82 53.69 54.56 52.62 51.71 49.12 48.19 47.33 47.74 47.85 47.56 47.36 47.39 48.41 49.50 52.37 56.19 57.70 60.96 61.54 60.96 60.39
57.28 57.54 58.14 59.19 58.90 58.92 59.16 59.16 58.19 58.85 59.19 59.52 58.70 58.32 57.51 57.55 57.01 56.04 56.03 55.85 55.17 53.97 54.14 54.07 52.76 51.21 50.27 48.57 46.63 46.29 46.67 47.20 48.02 47.05 47.42 48.55 50.12 51.07 55.26 57.19 59.09 61.52 60.89
57.16 57.02 57.15 57.36 57.78 58.42 58.93 57.88 57.45 57.90 58.04 58.55 58.78 57.89 57.43 57.72 57.42 56.54 56.24 56.35 56.08 55.35 53.93 54.49 53.11 52.63 50.68 50.45 48.28 46.54 45.75 45.63 46.26 47.70 47.35 47.85 48.90 50.61 51.65 55.67 57.74 58.34 60.31
56.48 57.08 56.54 55.97 56.14 56.50 56.85 56.53 55.82 56.32 56.99 58.53 58.36 58.21 58.71 58.32 58.00 57.24 57.64 57.60 57.31 56.64 55.27 54.66 53.91 52.98 52.19 50.93 50.54 47.84 45.68 45.39 45.05 44.82 46.35 48.27 47.99 49.70 50.21 51.82 55.25 56.19 58.94
55.19 55.41 55.49 54.95 55.49 55.45 55.80 55.60 55.27 54.80 54.71 56.11 56.94 58.77 59.33 59.26 59.38 58.52 58.54 58.29 58.20 57.28 56.58 55.82 53.68 52.72 51.23 50.22 47.63 46.53 45.95 45.35 44.87 44.55 44.80 45.83 47.21 48.03 48.99 50.09 50.76 51.03 53.66
53.45 54.42 54.84 54.85 55.27 55.33 56.89 57.00 55.42 54.36 54.19 55.22 55.97 56.65 58.16 58.70 58.93 58.76 58.81 58.23 57.92 57.14 55.98 54.81 53.70 51.83 51.67 48.79 47.36 45.18 43.72 45.23 45.79 45.61 44.69 43.94 44.97 46.08 48.00 48.66 48.69 48.52 48.00
52.87 53.56 54.38 54.48 54.83 55.09 55.51 54.96 52.60 52.93 54.27 53.36 54.14 54.45 55.61 56.57 57.27 58.43 57.98 58.12 57.42 57.08 55.33 53.99 53.28 52.19 50.96 48.53 47.77 49.19 44.35 43.29 44.06 45.16 45.40 44.56 45.11 44.98 45.09 47.25 47.33 47.40 46.76
53.11 53.77 54.22 54.47 54.58 54.55 54.87 54.26 52.82 53.18 53.05 52.94 53.57 54.46 55.24 56.36 55.72 57.06 57.26 56.78 56.56 56.22 55.41 54.87 54.70 52.97 51.81 49.09 47.12 48.52 49.01 48.41 45.23 44.08 45.18 45.81 46.32 45.18 45.05 44.70 45.07 45.49 45.55
53.58 53.25 53.50 53.00 54.19 54.49 53.67 53.27 51.94 49.57 51.23 51.40 53.70 54.00 54.64 55.25 55.16 55.58 56.59 56.56 56.40 56.38 56.00 55.03 53.75 52.05 51.86 50.14 48.19 47.18 47.66 47.83 48.12 47.02 45.27 45.33 45.64 46.57 46.57 44.85 44.36 44.23 43.69
51.10 52.02 52.79 51.59 52.13 53.17 53.37 53.06 52.42 51.27 50.11 49.55 49.93 51.39 52.46 53.22 53.81 55.21 56.12 55.77 55.87 55.98 56.02 55.74 54.76 54.74 53.88 53.33 51.58 50.73 49.45 47.90 47.11 46.57 44.83 44.41 43.99 45.02 44.60 45.60 44.78 44.73 44.77

GFSSE_sfc_wetblb_063.txt.gz
Wetbulb
68.92 71.41 71.23 71.76 72.11 72.44 72.46 72.00 71.80 71.90 72.08 72.16 71.75 71.72 71.94 72.09 71.98 71.78 71.49 71.18 71.05 71.19 70.31 69.94 69.74 68.94 68.18 68.44 68.78 68.51 69.18 69.33 69.13 69.39 69.34 69.10 68.78 68.80 68.41 69.00 68.60 68.28 69.36
69.98 71.00 70.10 71.47 71.99 72.06 72.26 72.00 71.94 71.90 71.93 71.95 71.77 71.71 71.44 71.42 71.34 70.93 70.69 70.44 70.39 70.29 68.98 68.70 68.46 67.60 67.33 67.64 67.71 67.55 67.21 67.54 68.06 68.62 68.95 68.26 68.12 68.19 68.20 68.31 68.29 67.97 68.00
69.85 70.78 70.68 70.55 71.41 71.55 71.98 72.13 72.09 72.05 72.12 71.85 71.80 71.41 71.22 70.97 70.56 70.17 69.78 69.56 69.65 69.60 68.33 68.15 67.90 67.93 67.56 67.01 67.23 66.94 66.15 66.42 66.49 66.85 67.32 65.37 65.78 67.00 66.86 67.06 67.17 66.55 66.53
70.22 70.53 70.62 70.41 70.83 71.26 71.46 71.64 71.76 72.16 71.99 71.57 71.44 71.20 70.81 70.46 70.29 69.98 69.68 69.27 69.39 69.32 67.91 67.53 67.37 67.31 67.22 66.52 66.29 65.65 65.23 64.79 64.67 65.35 64.52 64.67 63.86 65.31 65.51 64.91 64.96 64.77 64.87
70.00 70.62 70.59 70.09 70.23 70.86 71.08 71.39 71.31 71.32 70.97 70.85 70.80 70.79 70.31 70.41 70.44 70.07 69.31 69.12 69.46 69.65 68.66 67.77 66.81 66.45 66.21 66.24 65.98 65.50 64.92 64.19 64.37 64.23 63.83 63.67 63.23 63.32 64.46 64.30 63.94 63.37 63.42
67.89 69.26 68.38 68.32 69.01 70.50 70.83 71.17 70.88 70.49 69.91 70.05 69.99 70.09 70.17 70.41 70.34 69.63 69.04 69.15 69.56 69.42 69.30 67.53 66.45 65.84 65.83 65.26 64.91 64.55 63.92 63.36 63.27 63.24 63.40 63.89 62.89 63.35 63.67 62.82 62.59 62.38 62.38
66.10 68.55 68.56 66.32 68.53 69.62 70.77 71.12 70.46 69.75 69.44 69.48 69.51 69.28 69.74 70.04 69.84 69.15 68.77 68.75 68.97 68.93 68.88 66.93 65.27 64.95 65.16 64.75 64.41 63.81 62.84 62.88 62.48 62.41 62.87 62.82 62.99 63.43 63.24 62.64 62.10 61.72 61.41
66.03 68.17 67.75 66.24 67.93 68.41 69.09 69.18 69.53 69.28 69.11 69.04 68.91 68.81 69.34 69.00 68.58 68.49 68.09 67.68 67.75 68.26 67.94 66.61 65.47 65.00 64.50 64.16 63.22 63.00 62.35 62.28 62.11 62.11 62.38 62.52 63.32 62.96 62.78 62.05 61.41 61.04 60.85
65.86 65.72 68.09 67.65 67.83 67.62 67.30 66.95 67.72 68.31 68.65 68.48 68.23 67.84 68.03 67.50 67.44 67.65 66.94 67.17 67.35 67.68 66.82 65.79 65.31 64.73 64.19 63.57 62.95 62.29 61.53 62.25 61.79 61.86 61.76 62.36 62.47 62.54 62.49 61.65 60.92 60.43 60.03
64.76 65.66 67.89 66.70 67.62 67.69 67.22 65.21 66.41 67.10 67.33 67.80 67.51 66.94 66.56 66.60 66.88 66.82 66.01 66.96 67.38 67.25 66.33 65.41 64.80 64.40 63.86 63.22 62.42 62.01 61.33 61.50 61.73 61.83 62.10 62.28 62.47 62.23 61.98 61.18 60.62 59.94 59.56
64.62 65.63 66.59 65.10 65.86 66.76 65.64 65.36 65.89 65.16 66.80 66.97 67.15 66.47 65.80 67.58 66.41 64.64 64.39 65.85 66.69 65.79 65.11 64.64 64.32 63.66 62.92 62.64 62.18 61.12 60.81 61.24 61.47 61.62 62.06 62.70 62.40 62.16 61.32 60.64 60.06 59.52 59.00
61.22 63.17 63.71 63.21 62.94 63.31 62.21 62.04 63.22 64.06 64.13 65.28 66.42 66.47 65.65 65.20 63.53 62.83 64.15 64.21 64.76 64.91 64.59 64.17 63.81 63.14 61.88 61.34 61.02 60.00 60.43 61.28 61.11 61.62 61.86 62.63 62.28 61.98 61.20 60.43 59.77 59.30 58.70
61.52 62.25 63.11 60.87 60.40 60.73 59.48 59.37 61.47 63.37 63.73 63.95 65.50 64.99 64.49 63.00 63.50 64.19 63.14 62.92 63.68 64.03 64.11 63.60 62.68 61.42 61.15 60.67 60.00 60.09 60.65 60.95 61.08 61.59 61.90 62.30 62.14 62.00 61.39 60.50 59.82 59.26 58.36
60.71 60.74 60.66 60.34 60.23 59.87 59.53 58.82 59.66 60.34 61.53 62.80 63.81 65.28 63.46 61.87 62.47 61.83 61.01 60.87 61.15 61.43 62.99 62.80 60.90 61.14 60.71 60.11 60.09 60.24 60.27 60.44 60.85 61.58 61.82 61.51 62.19 61.58 61.24 60.71 59.94 58.87 58.25
60.16 60.23 60.55 61.05 60.64 59.99 59.51 60.03 60.54 60.27 61.39 61.61 63.12 64.81 62.09 60.79 60.32 61.15 60.48 60.03 59.49 60.01 60.65 59.62 60.12 59.82 59.57 59.73 59.98 59.66 59.54 60.21 61.08 61.34 61.97 61.27 61.50 62.13 61.58 61.49 60.87 60.00 59.09
59.47 59.54 59.88 59.82 59.61 59.78 59.23 60.24 61.55 61.61 61.25 61.66 63.56 64.54 63.10 60.97 60.88 60.42 59.73 59.08 58.99 59.64 59.38 59.67 59.34 59.07 58.92 59.06 58.48 58.65 58.11 59.03 60.16 60.90 60.87 61.77 60.88 61.72 61.98 61.44 61.48 61.17 60.48
58.97 58.79 58.19 58.27 58.49 57.74 59.77 60.19 60.75 60.82 61.16 61.22 63.40 64.07 62.29 61.16 61.64 61.30 60.37 58.93 58.83 59.34 58.90 58.06 57.65 57.19 56.13 56.28 56.27 56.06 55.76 56.40 56.20 57.13 58.34 60.20 60.30 58.88 59.61 62.14 61.65 61.41 61.03
58.83 58.25 59.13 59.04 57.88 57.61 59.89 59.49 60.38 60.39 61.33 60.97 61.47 62.64 61.72 61.47 61.33 60.58 59.58 59.14 59.70 59.82 59.65 58.05 57.07 55.87 54.48 53.90 53.66 53.69 54.01 54.28 54.43 54.30 54.58 55.06 55.95 56.55 56.71 58.31 60.81 62.25 61.34
58.06 58.33 58.61 58.33 58.39 58.16 59.12 59.28 59.36 60.23 61.21 60.86 60.20 60.62 60.83 60.87 60.86 60.50 59.50 59.69 59.84 59.42 59.61 58.64 57.41 57.03 54.91 53.64 53.41 53.29 53.66 53.54 53.99 52.58 53.14 53.99 55.39 55.34 55.50 56.38 57.24 59.12 61.44
57.92 58.00 57.86 58.71 58.26 58.88 58.23 59.46 58.77 58.52 60.54 60.92 60.23 59.37 60.87 60.03 60.15 60.25 60.33 60.07 60.24 58.97 59.56 59.22 58.20 57.77 56.38 55.70 53.31 52.24 52.59 52.37 52.48 52.60 53.31 53.51 54.48 54.96 55.67 55.99 56.84 56.61 57.63
56.87 56.61 56.76 56.25 57.67 58.19 57.25 56.79 56.55 57.36 59.65 60.36 60.48 59.35 60.47 59.92 60.24 60.73 60.75 60.52 60.50 59.90 59.54 59.11 58.88 57.54 56.44 56.19 54.16 54.03 53.54 51.98 52.01 52.30 52.55 52.97 53.53 53.86 55.08 55.61 56.52 57.42 58.08
55.81 56.28 56.38 55.95 56.76 57.59 58.07 57.99 57.48 58.66 58.54 59.41 59.97 59.75 60.29 59.71 60.56 60.74 60.90 60.77 60.39 60.32 59.54 59.33 58.82 58.02 58.37 56.20 55.51 54.46 53.10 52.77 52.45 52.87 52.29 51.62 51.83 53.62 53.73 53.59 54.47 54.39 55.47
54.44 55.62 56.12 55.83 55.78 56.28 57.49 56.09 55.46 55.22 55.88 56.92 57.98 59.23 60.10 60.75 61.23 61.60 61.53 61.02 61.17 61.48 60.17 60.17 59.52 58.53 57.75 56.04 56.34 57.15 51.75 52.08 53.51 53.16 52.31 51.64 52.32 51.99 51.63 49.54 50.86 54.29 54.42
55.52 56.92 56.85 56.11 56.11 56.02 56.80 55.98 55.86 55.88 54.43 56.91 57.14 59.40 58.60 60.25 60.75 60.62 60.36 60.26 60.93 61.34 60.46 60.04 59.70 59.76 59.39 57.03 54.55 54.41 55.31 55.52 52.80 52.55 53.03 49.98 49.27 51.21 47.48 48.08 51.50 51.39 50.38
54.98 56.12 56.59 55.97 56.71 55.80 56.08 55.92 54.20 55.23 56.57 55.12 55.24 57.46 58.04 58.30 59.01 59.19 58.85 60.08 60.50 61.18 61.46 61.40 60.18 59.20 59.20 58.88 57.08 54.30 54.23 54.41 54.25 52.02 50.84 50.93 48.36 51.21 48.28 48.47 50.74 49.58 49.41
54.59 55.86 56.36 55.64 56.49 55.84 55.30 56.04 55.00 54.41 54.15 53.91 53.55 54.46 55.77 57.96 57.97 59.20 59.11 59.93 61.01 60.75 60.83 61.31 61.31 60.40 59.49 58.65 57.69 56.64 55.72 51.13 52.50 50.18 49.68 51.06 47.59 49.85 51.04 50.93 50.15 47.78 48.53

GFSSE_sfc_wetblb_066.txt.gz
Wetbulb
70.83 73.43 71.57 72.50 73.04 72.65 72.43 71.86 71.65 72.02 72.24 72.36 72.09 71.95 71.90 72.07 72.26 71.65 71.68 71.54 71.37 71.61 70.70 70.49 70.46 69.74 69.67 69.59 69.58 69.53 69.96 69.79 69.74 69.89 69.73 69.38 69.61 69.47 69.23 69.58 69.43 69.07 69.21
72.08 73.02 71.12 71.99 72.77 72.80 72.42 71.86 71.88 72.05 72.20 72.26 71.90 71.89 71.81 71.98 71.92 71.83 71.52 71.15 71.24 71.18 70.04 69.23 68.69 69.36 69.28 68.85 68.40 69.33 69.47 69.10 68.87 68.94 69.48 69.01 68.99 68.82 68.75 68.83 68.62 68.37 68.25
71.22 72.14 71.85 71.28 72.44 72.74 72.47 72.22 72.30 72.37 72.33 72.02 71.84 71.99 71.97 71.86 71.57 71.26 70.73 70.58 70.51 70.67 69.43 68.35 68.20 68.71 68.36 67.75 67.97 68.09 67.53 67.92 67.69 68.41 68.69 67.89 66.69 67.53 67.46 67.29 67.57 66.90 66.95
71.43 71.64 71.03 71.04 71.68 72.41 72.21 72.23 72.19 72.43 72.07 71.80 71.81 71.79 71.52 71.33 71.09 70.65 70.14 69.63 69.74 69.90 68.92 68.50 67.85 67.74 67.43 67.08 67.18 66.72 66.19 66.54 66.78 67.58 65.89 66.43 66.41 66.13 66.18 65.87 65.75 65.58 65.13
71.16 72.00 71.32 70.54 70.08 71.89 71.89 71.68 71.82 71.66 71.19 71.34 71.31 71.50 71.29 71.00 70.53 70.02 69.19 68.92 69.28 69.19 67.84 67.86 68.11 67.20 66.53 66.63 66.44 66.01 65.84 65.84 65.61 65.40 64.83 64.92 65.43 64.92 65.14 64.52 64.34 64.17 64.36
70.92 71.16 69.80 69.37 69.52 70.73 71.75 71.52 71.42 71.05 70.60 70.63 70.62 70.81 70.99 70.90 70.46 69.70 68.89 68.95 69.11 68.85 67.30 67.22 67.24 66.51 66.27 65.80 65.67 64.98 65.11 65.26 65.45 64.70 64.26 64.60 64.62 64.16 64.32 63.58 63.27 63.03 62.51
70.80 70.35 71.81 68.04 68.40 67.85 69.58 70.92 71.12 70.48 70.18 70.00 69.89 70.07 70.35 70.45 70.11 69.20 68.91 68.80 68.97 68.58 67.10 66.35 66.08 65.54 65.42 65.15 64.81 64.27 64.05 64.26 64.41 64.25 64.23 64.07 64.19 63.53 63.45 62.66 62.44 62.11 61.88
68.47 70.38 70.94 67.66 67.01 66.84 68.23 70.04 69.90 69.58 69.63 69.39 69.29 69.62 69.93 69.53 69.04 69.19 69.00 69.03 68.74 67.68 66.66 66.35 65.62 64.98 64.67 64.26 63.61 63.33 63.17 63.66 64.05 63.99 63.97 63.85 63.70 63.28 63.05 62.37 61.81 61.57 61.17
67.71 69.35 69.35 69.08 68.33 67.61 67.29 68.00 68.01 68.67 68.96 68.64 68.79 68.82 68.87 68.38 68.16 68.45 68.52 68.52 68.48 67.00 66.08 65.92 65.30 64.84 64.30 63.57 62.81 62.65 62.64 63.66 63.86 63.73 63.20 63.26 62.96 62.77 62.68 61.95 61.38 60.96 60.42
67.52 66.69 68.75 69.77 68.63 69.56 70.20 66.54 66.96 67.84 67.57 67.74 68.22 67.96 67.24 67.31 67.23 66.86 66.96 68.03 67.66 66.77 65.88 65.39 64.98 64.50 63.84 63.15 62.52 62.18 61.99 62.91 63.87 63.61 63.41 63.17 62.80 62.72 62.27 61.46 60.96 60.42 59.79
67.27 67.80 69.09 68.31 68.33 67.68 68.74 68.21 67.62 67.20 67.09 67.06 67.46 66.50 65.96 67.62 66.97 66.35 66.13 67.01 66.56 65.41 65.10 64.96 64.40 63.79 63.11 62.81 62.42 62.02 61.93 63.27 63.77 63.44 63.07 62.82 62.63 62.46 61.78 60.92 60.35 59.95 59.53
63.33 64.90 67.82 67.43 67.67 67.41 66.65 67.61 67.44 65.87 66.22 66.35 66.14 65.75 66.66 67.08 66.73 64.97 65.97 65.80 65.42 64.53 64.40 64.36 63.81 62.96 62.30 62.12 62.14 61.33 62.63 63.24 63.52 63.43 62.98 62.77 62.54 62.13 61.60 60.57 59.98 59.63 59.02
62.99 64.99 66.04 66.05 64.74 65.14 66.34 63.66 64.87 64.53 64.93 64.79 65.58 65.43 66.39 66.50 65.36 65.34 66.67 66.86 65.83 63.79 63.77 63.48 62.74 62.92 62.55 61.71 61.16 62.00 62.85 63.13 63.44 63.04 62.51 62.63 62.14 61.94 61.55 60.68 59.98 59.26 58.63
62.35 61.95 62.51 63.61 61.86 61.65 61.89 62.43 62.21 61.50 62.54 63.08 63.07 64.61 64.90 63.69 64.62 64.53 65.34 65.57 64.99 64.42 64.01 63.60 63.23 63.64 63.04 62.01 61.61 61.91 62.41 62.65 63.13 62.97 62.52 62.27 62.50 61.69 61.27 60.87 60.12 59.47 58.65
61.74 60.99 62.08 60.72 60.19 59.86 60.49 61.58 60.96 60.96 61.33 61.94 62.23 63.04 65.38 63.53 63.45 62.85 64.65 65.35 65.05 65.45 64.90 63.88 63.69 62.89 62.27 61.78 61.74 61.19 61.55 62.29 62.95 62.83 62.86 61.78 62.01 62.20 61.64 61.43 60.52 59.89 59.21
61.41 61.04 60.64 60.87 60.84 60.25 59.57 60.93 60.79 61.21 61.16 62.07 62.07 62.67 64.48 63.51 63.06 62.22 62.62 62.71 63.46 64.75 64.93 63.87 62.97 62.16 61.69 61.59 61.23 60.89 60.48 61.40 62.06 62.92 62.60 62.25 61.37 61.88 62.38 61.83 61.66 60.66 60.16
60.91 60.49 60.72 60.28 60.29 59.81 59.48 60.00 60.65 61.54 61.47 61.41 61.64 63.22 65.02 63.86 63.33 63.31 61.86 61.64 62.47 63.63 63.76 63.26 62.62 62.13 61.01 60.84 60.40 60.28 59.52 60.17 60.57 61.05 61.90 62.42 61.68 60.56 61.49 62.40 62.08 61.55 60.85
59.92 58.65 59.80 59.62 59.28 59.77 59.55 60.08 61.26 60.66 60.27 61.12 61.70 62.13 63.37 63.16 63.15 62.70 61.81 61.82 63.00 62.60 62.08 61.47 61.63 60.97 60.52 60.00 58.93 58.21 58.33 58.47 58.63 59.00 59.49 60.71 60.91 61.08 59.82 60.46 62.15 62.45 61.66
61.24 59.92 59.33 58.81 57.44 59.63 60.15 61.59 61.74 60.85 60.24 61.38 62.14 62.82 62.12 62.60 62.79 61.66 61.10 61.44 62.98 62.18 61.52 60.99 60.85 60.67 59.14 58.70 57.93 57.57 57.56 56.98 57.33 56.62 56.78 57.64 58.07 58.30 59.40 59.15 59.54 60.87 61.83
58.97 59.81 59.52 59.27 57.57 59.95 61.21 60.28 60.76 60.68 60.34 60.94 60.86 62.19 62.64 61.91 62.30 61.83 61.60 61.74 62.19 62.22 62.08 61.56 61.28 61.31 60.39 59.53 57.30 56.71 57.06 56.90 57.49 56.79 56.84 57.26 57.85 57.93 57.98 58.10 57.95 58.53 59.27
58.00 57.71 58.82 57.54 57.62 59.67 59.36 58.31 58.45 58.67 60.10 59.62 59.52 60.28 62.39 61.44 61.94 62.90 61.68 61.44 61.92 61.47 62.59 62.38 61.79 60.74 59.75 60.56 58.21 57.60 56.79 56.62 57.00 57.37 57.48 56.74 57.11 57.64 58.15 58.07 58.31 58.40 57.49
57.64 58.44 57.81 58.24 59.45 58.96 59.37 58.90 60.16 60.49 59.97 60.03 59.47 59.97 61.18 62.23 60.57 60.76 62.15 61.05 61.77 61.76 62.08 62.21 61.92 60.47 60.86 60.39 58.97 59.27 56.30 57.10 57.46 57.00 57.29 56.43 57.26 56.89 56.71 57.03 58.10 57.76 57.40
56.95 57.62 58.01 57.87 58.25 60.02 59.58 59.71 57.86 58.06 58.27 59.17 59.54 59.38 60.29 61.04 59.40 60.18 61.49 62.09 62.46 62.45 61.26 61.73 61.64 61.54 59.68 60.61 61.07 59.47 55.90 54.67 59.14 59.44 58.16 57.72 57.12 55.64 53.31 55.12 55.96 55.66 55.96
56.74 58.07 59.07 58.09 57.75 58.45 58.99 57.69 57.75 55.25 54.34 60.13 60.12 59.82 59.15 61.33 59.90 60.07 62.09 62.75 62.63 62.81 61.88 62.11 62.08 61.64 61.79 59.70 60.39 60.61 61.72 60.19 55.73 54.66 57.81 57.84 57.86 55.09 53.41 52.20 50.75 51.56 55.26
59.17 57.81 59.50 58.98 57.67 57.71 57.72 57.22 56.48 55.43 56.09 58.66 59.04 59.99 58.41 59.91 61.12 61.11 62.27 62.66 62.28 63.12 62.83 63.63 62.26 62.49 62.59 62.02 60.47 60.28 59.74 59.84 59.75 56.96 54.83 56.55 56.06 55.07 53.20 50.20 51.83 52.27 54.46
58.91 59.45 59.00 59.43 58.44 57.64 57.20 57.83 56.59 58.04 58.08 58.05 57.23 58.25 57.49 58.00 59.93 59.84 60.29 61.56 62.03 61.87 62.37 61.84 63.25 63.54 62.98 62.75 62.23 61.82 60.15 58.75 57.29 57.25 53.89 56.75 55.86 51.00 51.41 52.66 52.77 52.22 54.19

GFSSE_sfc_wetblb_069.txt.gz
Wetbulb
70.78 73.33 72.26 72.85 73.34 72.61 72.18 72.11 71.90 72.15 72.54 72.44 72.16 72.14 72.32 72.18 71.91 71.59 71.53 71.56 71.61 72.02 71.49 71.20 71.03 70.57 70.57 70.28 70.09 70.77 70.54 70.10 69.96 69.91 69.94 70.18 69.95 69.85 69.59 69.53 69.32 68.76 69.63
72.12 74.00 71.51 72.58 73.12 72.90 72.73 72.09 72.08 72.23 72.36 72.42 72.01 71.96 72.17 71.76 71.74 71.62 71.61 71.71 71.61 71.70 70.67 70.43 70.20 70.06 70.26 69.84 69.99 69.93 69.86 69.38 69.12 69.37 69.84 69.50 69.33 69.33 69.06 69.01 68.83 68.11 68.92
72.18 74.02 72.17 71.60 72.74 72.90 72.62 72.40 72.42 72.65 72.67 72.23 72.01 72.03 72.05 71.82 71.85 71.82 71.40 71.00 71.19 71.03 69.62 69.84 69.73 69.67 69.38 68.87 68.94 69.27 69.26 69.20 69.28 69.43 68.77 66.94 67.40 68.16 67.85 67.54 67.75 67.14 67.29
71.76 72.53 72.40 71.27 72.22 72.54 72.11 72.15 72.32 72.69 72.43 72.13 72.20 72.28 72.28 72.04 71.72 71.28 70.94 70.53 70.41 70.32 69.10 69.52 69.42 68.82 68.05 67.71 67.83 68.12 68.10 68.23 68.62 68.58 66.54 66.60 65.75 67.04 66.99 66.35 66.28 66.23 66.06
71.56 71.90 71.75 71.08 71.51 72.16 71.94 71.99 72.00 71.80 71.45 71.43 71.72 72.32 72.16 71.82 71.31 70.77 69.84 69.84 70.11 69.85 68.38 68.80 68.53 67.66 67.02 67.12 66.83 66.62 66.30 65.91 66.03 66.70 65.59 65.75 65.56 65.25 65.62 65.65 65.12 64.84 64.96
71.69 71.28 69.39 70.08 70.61 71.03 71.75 71.75 71.71 71.21 70.67 70.94 71.20 71.58 71.67 71.45 70.79 70.08 69.47 69.45 69.82 69.71 69.04 67.58 67.42 66.81 66.78 66.40 66.03 65.79 65.13 65.51 66.05 64.51 64.45 65.15 64.48 64.84 64.89 64.38 63.67 63.50 63.10
72.08 71.64 70.37 68.60 69.51 70.20 70.78 70.04 70.07 70.76 70.40 70.71 70.70 70.64 70.63 70.62 69.96 69.20 68.74 68.70 68.62 68.70 68.45 67.16 66.64 65.99 66.05 65.79 65.34 64.92 64.81 64.38 63.96 63.70 63.78 63.43 63.54 63.76 63.83 63.41 62.86 62.51 62.37
71.27 72.03 72.05 69.26 68.97 68.79 68.06 66.94 63.05 69.07 70.09 69.93 69.93 69.95 69.96 69.53 69.09 68.73 68.47 68.03 67.67 67.36 67.24 66.72 65.85 65.28 65.18 64.88 64.14 63.37 62.90 64.30 64.37 63.67 63.39 62.95 64.02 63.47 63.36 62.75 62.06 61.73 61.54
70.79 71.31 71.05 71.19 69.31 66.76 64.21 63.00 62.15 64.83 69.36 69.34 69.12 69.19 69.00 68.29 68.20 68.57 68.59 67.80 67.10 66.82 66.46 65.91 65.48 65.15 64.54 63.96 63.57 62.58 62.38 63.74 63.86 63.12 62.58 62.68 62.96 63.04 62.93 62.35 61.69 61.21 60.69
70.01 70.24 70.96 71.02 69.30 67.44 66.70 63.57 65.93 66.81 67.95 68.31 68.78 68.36 67.77 67.89 68.19 68.18 67.89 67.10 66.75 66.36 65.83 65.41 64.98 64.74 63.98 63.44 62.72 62.47 62.05 62.82 63.53 63.03 62.73 62.52 63.03 62.85 62.39 61.80 61.15 60.74 60.34
68.41 68.65 69.70 69.87 69.47 69.31 68.91 68.74 67.03 67.14 67.31 67.83 68.30 67.25 66.38 68.24 68.27 68.31 66.86 66.11 65.80 65.36 65.23 65.13 64.78 64.08 63.46 62.93 62.58 62.52 62.56 63.58 63.31 62.66 62.22 63.27 62.89 62.76 62.11 61.31 60.68 60.11 59.78
65.89 67.53 68.29 68.74 69.11 69.46 68.87 68.85 68.40 66.53 67.64 67.85 67.94 66.51 66.35 67.02 68.01 67.40 66.44 65.11 64.76 64.60 64.43 64.39 63.91 63.18 62.25 60.98 61.50 61.67 63.21 63.88 63.36 62.57 62.02 63.29 62.79 62.50 61.80 60.98 60.28 59.76 59.20
64.41 65.33 66.59 67.36 69.06 69.04 69.35 69.50 67.49 67.45 66.56 65.90 65.90 66.47 66.20 65.75 65.09 66.93 66.78 64.80 64.08 63.57 62.45 62.33 61.90 61.51 61.18 60.50 62.20 63.21 63.58 64.00 63.29 62.67 62.10 62.87 62.56 62.22 61.59 60.87 60.30 59.67 58.85
63.05 64.77 66.20 66.89 66.61 65.52 67.81 66.01 65.92 66.47 64.66 63.98 63.88 63.82 63.11 63.28 63.74 66.13 65.61 63.84 63.00 63.29 62.50 61.49 61.69 63.59 62.44 61.31 62.23 63.06 63.39 63.39 63.01 62.55 61.79 62.18 62.24 61.97 61.87 61.01 60.26 59.51 58.71
62.63 64.04 62.83 62.44 64.77 64.15 63.01 64.47 65.69 63.58 63.67 63.07 62.57 62.44 62.00 61.99 63.44 65.34 64.68 63.87 63.60 64.95 63.22 62.40 63.25 62.62 62.20 61.70 61.84 62.37 62.58 63.33 63.31 62.55 61.84 61.97 62.10 62.31 61.57 61.19 60.59 59.84 59.16
62.68 62.82 62.26 61.07 61.01 61.81 63.99 61.87 62.82 62.71 62.22 62.03 61.95 62.14 62.14 62.43 63.57 64.50 64.78 65.32 64.65 65.19 64.15 63.57 63.16 62.31 61.56 61.47 61.05 61.90 62.12 62.91 63.31 63.12 62.14 61.67 61.65 62.15 62.34 61.52 60.84 60.63 60.09
62.55 62.62 61.62 59.93 60.53 60.18 60.56 61.24 60.68 61.24 60.94 60.44 61.01 62.19 62.15 62.79 64.29 64.56 65.08 64.22 65.21 64.21 66.01 64.70 63.05 62.35 61.36 61.26 60.70 60.94 61.25 62.26 62.23 62.72 62.01 61.27 61.18 60.85 61.75 62.51 61.85 61.09 60.78
61.85 61.61 61.87 60.58 60.31 59.85 60.15 60.65 60.36 60.89 60.62 60.01 59.67 61.52 61.83 63.36 65.23 64.77 63.72 63.43 64.74 65.24 64.64 63.14 61.96 60.63 60.48 60.56 60.13 59.95 59.87 60.54 60.92 61.34 62.04 62.61 61.29 61.08 60.73 61.78 62.33 62.37 61.65
60.73 60.83 60.30 60.71 60.22 60.10 59.89 60.91 61.23 60.62 60.76 60.44 59.90 60.74 61.92 63.49 64.29 64.21 63.06 63.37 65.65 64.20 64.05 62.96 61.98 61.69 60.37 60.11 59.25 59.03 59.02 58.65 59.01 58.84 59.45 60.84 61.88 61.45 61.04 59.99 60.91 61.46 61.74
61.49 61.14 60.03 59.82 59.76 59.38 60.83 61.03 59.93 59.75 60.03 60.63 60.31 60.65 62.42 62.68 63.17 62.64 62.82 63.99 63.82 61.85 61.62 62.28 62.37 61.99 61.34 60.53 58.64 57.75 58.60 58.46 58.19 58.01 57.60 58.15 58.66 59.34 59.82 61.01 60.57 60.30 60.35
59.23 59.44 59.02 57.88 58.42 59.07 59.43 59.39 57.98 57.69 58.54 59.08 59.23 60.84 61.84 62.92 62.68 62.89 61.54 62.50 62.58 61.92 61.67 62.92 62.64 62.38 60.81 61.48 58.46 57.67 58.13 58.59 58.82 58.43 58.19 57.88 58.10 58.50 59.37 58.99 59.10 58.85 59.51
58.67 58.90 59.27 58.64 58.80 59.03 60.49 60.23 59.69 58.26 58.89 58.07 59.24 59.96 62.53 63.20 62.43 61.95 61.69 61.86 62.41 62.18 63.48 63.38 62.74 60.96 60.89 62.14 58.03 58.25 55.11 56.40 57.61 58.97 59.53 58.67 59.98 58.45 57.94 58.97 59.23 59.29 59.39
58.43 59.39 59.09 59.16 59.20 59.60 60.34 60.14 59.45 59.20 58.95 57.44 57.89 58.53 60.58 62.27 62.21 61.67 62.95 62.56 61.90 63.31 62.91 63.41 63.65 62.74 59.42 61.61 61.57 60.35 55.50 54.06 57.50 59.97 59.49 59.46 59.39 58.87 58.95 58.47 57.81 57.49 57.79
58.50 59.19 59.84 59.67 59.75 59.52 60.50 60.02 58.57 58.70 57.22 57.30 57.28 58.74 58.92 61.84 61.24 62.00 62.68 61.66 62.28 63.52 63.52 63.40 63.65 63.40 60.99 58.40 60.86 60.77 61.96 60.78 56.19 53.67 59.36 59.76 60.48 58.63 58.81 57.78 57.24 56.03 55.02
59.75 58.45 59.43 59.18 59.22 60.14 60.43 60.44 58.49 56.70 59.77 58.38 57.60 57.88 58.79 59.78 61.25 60.71 60.68 60.72 60.37 63.35 63.37 64.02 62.88 62.65 62.04 59.52 58.47 61.06 60.70 59.98 60.45 57.10 54.20 56.53 58.04 59.23 58.69 58.41 56.19 54.30 52.80
61.33 60.11 59.77 58.66 58.57 59.43 60.18 59.92 58.70 58.19 58.63 56.67 58.06 57.87 57.73 58.92 61.32 61.73 60.05 60.01 61.00 61.54 62.70 62.12 60.87 61.05 60.98 62.21 60.89 61.69 60.20 58.19 57.33 57.90 56.82 57.94 57.96 57.77 55.12 56.48 53.82 53.08 55.56

GFSSE_sfc_wetblb_072.txt.gz
Wetbulb
71.20 71.71 72.55 73.35 72.82 72.49 72.28 72.15 72.17 72.28 72.38 72.42 72.72 72.57 72.40 72.06 71.76 71.52 71.37 71.31 71.41 71.87 71.86 71.42 71.50 70.93 71.08 70.94 70.93 70.99 70.55 70.26 70.14 70.45 70.47 70.79 70.27 70.24 70.52 69.98 69.34 68.28 70.07
72.43 71.71 72.15 72.98 73.10 72.82 72.52 72.33 72.20 72.39 72.33 72.44 72.63 72.34 72.05 71.77 71.46 71.59 71.50 71.41 71.98 72.37 71.52 71.28 70.86 70.49 70.47 70.15 70.61 70.32 70.12 69.67 69.51 69.59 69.92 69.93 69.64 69.37 69.30 69.49 68.95 68.22 69.33
73.08 71.77 71.81 72.50 73.16 72.85 72.68 72.47 72.52 72.81 72.66 72.39 72.45 72.15 71.83 71.90 71.66 71.64 71.65 71.60 71.58 71.70 71.06 70.84 70.64 70.38 69.86 70.04 69.93 69.86 69.68 69.60 68.92 68.84 69.01 66.08 66.41 68.42 68.20 68.19 68.32 67.83 67.54
72.49 71.79 71.82 71.54 72.43 72.59 72.36 72.10 72.43 72.83 72.56 72.17 72.34 72.04 71.97 71.90 71.97 71.59 71.18 70.69 70.87 71.14 70.38 69.91 69.95 69.62 69.07 69.28 69.22 69.46 69.53 69.28 68.18 67.53 65.08 65.56 65.62 67.57 67.38 66.80 66.75 66.58 66.46
71.48 72.17 72.10 71.05 71.56 72.47 71.98 71.69 71.68 72.00 71.68 71.64 71.90 72.22 72.05 72.34 71.96 71.34 70.56 69.98 70.30 70.96 69.85 69.59 69.10 68.43 67.99 67.67 67.63 67.47 67.46 67.14 67.28 66.03 63.47 63.73 64.01 65.95 66.29 65.71 65.55 65.49 65.13
71.40 71.85 69.39 70.09 71.30 72.05 72.01 71.58 71.30 71.41 71.01 71.08 71.58 71.85 72.22 71.91 71.64 70.94 69.89 69.45 69.89 70.25 69.20 68.81 67.66 67.25 66.98 66.24 65.97 65.88 65.33 65.50 65.69 62.27 62.47 63.88 63.69 65.86 65.17 64.57 63.90 63.50 63.45
71.90 72.29 70.37 69.16 70.46 70.70 71.74 71.11 70.23 70.40 70.36 70.49 71.13 71.24 71.30 71.09 70.63 70.05 69.38 69.05 68.84 68.96 68.63 67.53 66.73 66.53 66.26 65.56 65.49 64.25 63.76 64.75 61.68 60.93 60.78 61.34 61.46 64.35 64.31 63.81 63.28 63.14 63.02
71.45 72.59 71.77 69.75 69.92 68.89 69.59 68.90 67.62 64.68 66.79 70.06 70.49 70.49 70.61 69.87 69.33 69.22 68.84 68.48 68.39 68.15 67.66 66.94 66.18 66.06 65.73 65.09 63.91 62.87 63.03 64.04 62.25 60.41 60.47 60.40 63.83 63.73 63.69 62.90 62.45 62.16 62.00
71.87 72.05 71.48 69.96 67.60 68.23 66.88 65.27 64.17 63.30 63.43 67.63 69.51 69.48 68.96 68.25 68.16 68.35 68.10 68.04 67.71 67.39 66.88 65.92 65.91 65.63 65.21 64.09 63.16 62.89 62.89 64.86 60.46 60.35 61.04 60.04 63.64 63.31 63.14 62.50 62.05 61.51 61.37
70.10 70.63 70.07 70.51 68.72 65.65 64.43 63.81 63.02 62.35 64.26 65.55 68.46 68.37 67.54 67.43 67.77 67.59 67.08 67.16 67.06 66.69 65.86 65.24 65.35 65.07 64.16 63.12 62.61 62.68 62.30 64.19 59.88 59.89 59.76 60.54 63.19 63.09 62.79 62.10 61.56 61.08 60.94
68.20 69.23 69.41 68.62 68.88 67.66 64.54 63.92 64.01 63.68 63.27 64.51 68.30 67.42 66.26 67.00 67.12 66.14 65.82 66.04 66.10 65.51 65.33 65.09 64.61 64.03 62.97 62.47 62.83 62.58 62.63 60.77 60.36 59.67 59.83 63.16 63.05 62.88 62.20 61.54 60.99 60.71 60.56
65.69 67.65 67.94 67.61 67.66 67.38 66.83 63.99 63.74 64.42 62.72 65.50 67.36 66.83 66.72 66.60 66.53 65.93 65.30 65.01 64.96 64.57 64.50 64.41 63.69 62.78 61.61 58.71 58.66 60.76 58.93 61.05 59.90 59.39 59.93 63.04 62.74 62.55 61.96 61.02 60.57 60.43 59.98
65.14 66.00 66.21 66.50 66.42 66.39 65.56 65.65 65.83 63.69 62.18 63.25 66.04 65.83 65.94 66.05 65.14 64.74 63.53 63.35 63.25 63.51 61.86 61.93 60.84 58.42 57.31 58.17 58.49 58.95 60.37 60.74 59.67 59.32 61.07 62.47 62.10 62.34 61.89 61.09 60.43 59.82 59.30
63.54 64.80 65.92 65.98 66.17 66.20 66.59 65.58 65.82 65.06 65.50 65.45 65.29 65.52 65.03 63.98 64.47 63.53 60.89 60.93 59.92 59.93 59.08 58.59 57.93 58.42 57.16 58.62 59.77 60.19 60.64 60.51 59.36 59.12 60.29 61.96 61.93 61.93 61.80 61.40 60.46 59.59 59.09
63.12 63.31 64.20 63.92 65.23 64.58 64.96 65.62 65.69 65.10 64.48 63.92 63.16 62.62 63.20 62.87 62.52 62.89 60.39 59.80 59.81 59.86 59.18 57.59 58.60 58.95 58.12 57.83 59.83 59.92 60.96 60.41 59.39 58.99 58.85 61.45 61.91 61.82 61.63 61.52 60.83 60.06 59.28
62.69 63.04 62.76 61.36 62.45 63.66 62.77 63.68 64.05 63.82 62.76 62.52 62.10 61.73 62.06 62.24 61.87 62.20 60.66 59.56 60.48 59.96 60.28 58.82 60.07 59.17 58.10 58.09 58.75 59.33 59.72 60.77 59.66 59.18 58.88 59.10 60.87 61.52 61.58 61.35 61.16 60.51 60.01
62.67 62.55 60.45 60.19 61.05 61.49 62.44 62.36 63.17 62.62 61.92 61.02 61.01 60.57 61.22 61.55 61.28 61.28 61.65 59.85 60.77 60.98 60.88 60.04 59.95 59.25 58.12 58.15 57.54 58.54 59.15 59.39 60.57 59.21 58.89 58.74 59.21 60.72 61.28 61.93 61.60 60.79 60.52
62.45 61.48 60.42 60.38 60.32 60.32 60.67 61.48 61.80 61.72 61.26 60.41 60.69 60.84 60.47 61.53 61.34 60.80 61.42 61.77 61.61 61.40 61.54 61.08 59.05 58.23 57.42 56.74 55.96 56.15 56.98 57.94 58.74 59.16 59.11 58.84 58.88 59.49 60.33 61.63 61.74 61.93 61.30
61.86 61.21 60.21 60.19 60.22 59.86 60.24 60.08 60.80 60.60 59.94 60.09 60.41 60.84 61.00 61.05 61.48 61.16 61.32 62.05 62.63 61.73 61.44 59.91 58.71 57.59 56.83 56.64 56.41 55.70 55.79 55.79 56.90 57.69 58.26 58.25 58.49 58.78 59.05 60.33 61.10 61.09 61.58
61.53 60.49 60.15 60.37 60.61 59.84 60.24 59.93 59.81 59.39 59.16 59.16 59.97 60.45 60.16 59.84 60.89 61.58 61.33 60.91 62.31 60.85 60.30 59.62 58.43 58.79 57.98 56.89 56.76 55.65 54.90 54.84 54.96 54.90 55.35 57.24 58.36 58.48 58.75 58.76 59.28 59.47 60.19
60.87 59.25 59.58 59.38 59.33 59.46 59.13 58.10 57.96 57.80 58.27 57.61 58.57 59.79 60.16 60.77 61.20 61.42 61.17 61.62 61.05 59.54 59.29 60.09 59.56 58.62 58.40 58.26 55.73 54.25 54.66 55.46 54.82 54.28 54.20 54.15 54.83 55.95 55.17 57.58 58.11 58.70 59.17
58.61 59.33 58.59 58.54 58.87 59.21 59.71 58.86 58.53 58.61 58.68 57.81 58.00 59.41 60.25 60.41 60.57 60.37 60.24 60.12 60.34 60.04 59.55 59.34 58.93 57.96 57.93 58.00 54.51 53.65 51.15 52.39 53.71 54.87 53.96 54.18 53.70 54.58 54.98 55.47 56.55 56.90 56.75
57.57 58.84 57.79 58.52 59.18 59.51 59.66 59.25 58.63 58.37 57.98 57.09 56.80 57.44 58.98 60.25 60.34 60.29 59.77 59.41 59.99 59.92 59.73 59.88 59.79 58.46 56.64 57.52 57.96 55.60 51.58 50.73 52.70 53.91 54.17 54.10 53.45 53.98 53.41 53.98 54.58 54.95 55.03
58.38 59.15 59.24 58.75 58.76 59.35 60.03 58.64 57.36 56.27 54.77 55.66 55.39 56.52 58.42 59.97 59.89 60.18 60.11 59.84 59.75 60.20 60.51 60.15 61.13 59.32 58.83 55.93 57.38 59.10 57.95 57.14 52.75 52.48 55.00 54.82 55.20 54.36 53.79 53.84 53.33 53.88 53.96
59.07 58.50 59.55 59.23 58.91 59.37 59.32 58.68 57.85 56.80 56.82 56.86 55.41 55.45 57.72 58.51 59.30 59.92 60.09 60.31 59.67 59.56 60.71 60.25 60.06 59.68 59.20 57.03 56.56 56.21 56.27 56.67 56.68 52.89 50.19 52.66 54.52 55.25 54.30 53.89 53.42 53.09 53.68
59.51 58.35 59.64 59.59 58.99 58.85 58.94 58.83 58.66 57.83 57.00 56.34 55.33 55.05 56.81 57.32 59.27 59.09 60.03 60.46 59.88 60.90 60.66 59.61 59.73 59.45 58.18 57.38 57.27 57.52 56.28 54.62 54.62 53.47 52.22 52.74 52.76 54.06 54.68 54.34 53.96 52.10 52.32

GFSSE_sfc_wetblb_075.txt.gz
Wetbulb
69.35 71.97 72.12 72.48 72.40 72.51 72.23 72.29 72.31 72.14 72.49 72.87 72.85 72.61 72.29 72.18 71.74 71.60 71.46 71.29 71.27 71.88 71.84 71.70 72.06 71.64 71.54 71.42 71.57 71.44 70.92 70.58 70.47 70.75 70.95 71.15 70.58 70.38 69.94 70.16 69.73 68.31 70.76
70.32 71.73 71.87 72.25 72.49 72.48 72.42 72.41 72.43 72.10 72.72 72.82 72.69 72.19 71.74 71.65 71.51 71.55 71.24 71.64 71.96 71.97 71.18 71.26 71.31 70.52 70.97 70.75 70.63 70.53 70.23 69.91 69.74 69.99 70.28 70.09 69.72 69.62 69.62 69.54 69.41 68.41 69.64
69.85 71.47 72.49 71.90 72.30 72.38 72.52 72.46 72.64 72.52 72.70 72.69 72.34 72.00 71.68 71.78 71.76 71.45 71.67 71.90 72.11 72.28 71.28 70.55 70.10 70.14 70.48 70.57 70.09 69.92 69.51 68.99 68.58 68.75 68.99 66.83 67.02 69.16 68.96 68.51 68.75 68.19 68.23
70.11 70.54 71.71 72.01 72.01 72.25 72.10 72.15 72.35 72.69 72.81 72.40 72.19 71.94 71.90 71.88 71.91 71.85 71.49 71.20 71.61 71.79 70.80 70.05 70.20 70.21 70.27 69.85 69.51 69.52 69.06 68.50 67.94 67.52 65.63 66.04 66.61 68.28 68.23 67.68 67.49 67.23 66.77
69.55 69.79 70.81 71.31 71.71 71.90 71.82 71.90 72.13 72.07 71.72 71.82 71.83 71.97 72.00 72.03 72.03 71.64 70.81 70.92 71.38 71.14 70.48 70.02 69.69 69.50 69.45 69.18 69.22 68.72 68.34 67.33 66.24 64.72 63.74 64.31 64.93 66.59 67.00 66.54 65.84 65.65 65.24
68.16 69.97 69.38 70.02 71.36 71.97 71.94 71.74 71.62 71.59 71.03 71.20 71.33 71.60 72.20 72.13 71.74 70.95 70.08 70.56 70.80 70.68 70.33 69.50 68.84 68.49 67.61 67.38 67.42 66.56 65.68 66.16 64.05 61.88 62.70 64.50 63.70 65.94 65.70 64.72 64.17 64.22 63.98
67.43 68.59 69.13 69.01 70.80 71.78 71.98 71.79 71.27 70.84 69.79 70.68 71.01 71.21 71.60 71.58 71.14 70.18 69.59 69.87 69.93 70.03 69.25 68.93 68.12 67.45 66.54 66.31 65.79 64.64 64.90 63.95 60.49 60.10 60.22 62.34 62.70 64.96 64.65 63.93 63.17 62.98 63.22
67.79 68.55 68.96 69.80 70.43 70.74 70.88 70.46 69.20 65.66 64.09 63.05 64.95 70.31 71.10 70.57 69.73 69.23 69.04 69.10 68.93 68.47 67.72 67.83 67.18 66.63 66.15 65.33 64.37 63.41 64.02 63.05 61.05 59.44 59.15 60.55 63.98 64.05 64.12 63.43 62.91 62.55 62.46
66.86 68.15 67.68 68.20 68.54 68.06 67.28 66.76 65.68 66.31 64.79 63.48 63.65 68.49 68.84 68.91 68.57 68.87 68.56 68.39 68.16 67.63 67.22 66.81 66.48 66.01 65.25 64.38 63.10 62.61 63.00 62.57 59.28 59.69 60.15 59.51 63.48 63.60 63.46 63.01 62.60 62.27 61.79
66.51 66.61 67.96 67.66 65.75 65.09 63.56 64.73 64.73 64.69 64.03 63.90 63.21 65.09 67.30 67.51 68.05 68.04 67.69 67.51 67.38 67.12 66.64 66.29 65.78 65.03 64.36 63.06 62.57 63.17 62.48 62.02 59.07 58.29 58.27 60.86 63.20 63.29 63.03 62.46 62.08 61.84 61.51
65.14 65.83 65.81 67.01 64.67 63.39 62.64 63.34 64.41 64.59 64.56 63.67 63.81 62.17 65.96 66.64 66.16 65.88 66.24 66.42 66.35 65.91 65.82 65.61 64.84 63.77 63.00 62.53 62.56 62.64 61.79 59.01 58.97 58.91 58.11 63.13 63.03 63.05 62.65 62.03 61.63 61.55 61.18
61.77 63.09 64.91 64.66 65.30 63.92 63.59 63.12 61.97 62.19 62.84 63.38 63.25 61.93 66.18 65.33 64.62 65.27 65.43 65.29 65.10 65.03 64.85 64.45 63.57 62.81 60.79 57.34 57.49 59.97 59.17 58.93 58.89 58.67 59.15 62.97 62.82 62.84 62.46 61.56 61.25 61.11 60.82
61.30 62.46 62.73 63.58 63.72 64.72 63.92 62.79 62.35 61.33 61.85 62.52 61.68 62.18 65.65 64.67 64.37 64.06 63.70 63.39 63.28 63.73 62.02 61.26 60.24 57.49 56.94 56.59 56.54 57.14 58.43 58.62 58.75 59.04 60.92 62.74 62.48 62.44 62.20 61.40 61.02 60.71 60.25
59.83 60.84 61.96 62.65 63.28 63.43 64.52 62.74 63.00 60.87 61.44 62.15 64.35 65.62 65.15 63.94 63.08 62.17 61.44 61.28 60.99 60.31 58.96 57.34 55.62 56.04 56.32 57.46 57.57 58.32 57.94 57.94 58.23 58.51 59.96 61.63 62.49 62.23 61.95 61.36 60.81 60.52 59.69
59.42 60.87 59.47 60.04 62.34 63.26 63.57 63.98 64.38 62.80 62.40 61.88 64.24 64.72 64.74 63.77 61.31 60.58 60.42 59.31 57.33 58.53 57.60 55.79 55.79 54.95 55.66 56.29 57.77 58.66 58.01 57.84 58.08 58.53 57.67 61.08 61.87 62.23 61.83 61.57 60.84 60.27 59.70
60.16 59.10 58.67 58.15 59.29 62.92 62.05 63.06 64.66 64.51 64.37 63.20 63.43 63.45 64.00 63.03 60.57 59.48 58.63 57.37 57.12 56.94 55.70 56.42 57.35 55.26 54.82 55.89 56.75 58.12 58.10 57.72 57.84 57.78 57.31 58.44 60.44 60.83 61.98 61.45 61.14 60.55 60.10
59.76 58.66 57.62 58.10 58.54 61.32 60.79 62.82 63.29 63.53 63.55 62.35 62.37 62.54 62.65 62.40 61.12 59.66 57.93 58.27 58.77 57.90 56.04 56.96 57.64 57.12 55.25 56.86 56.29 56.86 59.01 57.64 57.59 57.56 57.55 57.11 58.26 59.75 61.02 61.72 61.45 60.83 60.33
59.56 58.37 58.36 60.03 58.71 59.63 61.32 62.39 62.28 62.68 62.83 62.04 61.61 61.62 61.27 61.11 61.56 60.33 58.32 58.58 59.26 58.72 57.62 57.92 57.86 56.66 54.95 54.50 54.10 55.16 56.33 57.93 57.57 57.39 57.64 57.55 57.25 58.64 59.53 61.17 61.63 61.66 61.22
60.19 58.65 56.87 57.65 59.35 59.48 60.24 61.47 62.01 61.60 61.14 61.29 60.45 60.71 60.62 60.72 60.74 60.93 59.64 59.32 60.01 58.93 58.66 59.21 57.14 56.57 54.52 53.92 54.19 53.27 54.11 56.43 57.32 57.99 57.32 57.25 57.14 57.74 58.09 60.18 60.58 60.78 61.25
59.90 59.29 57.96 58.39 59.33 59.56 59.41 60.42 60.28 60.05 60.22 60.31 59.88 59.73 60.34 60.35 60.55 60.28 60.93 60.85 60.94 59.11 59.09 58.40 57.12 55.41 55.66 55.25 56.30 54.03 53.19 53.95 55.12 56.48 57.09 57.51 57.21 57.62 58.06 58.38 59.27 58.95 59.84
58.98 59.29 58.71 58.25 58.77 59.20 58.48 58.09 58.09 57.35 58.77 59.00 59.48 59.61 60.07 60.09 60.46 60.29 60.63 60.29 60.77 59.71 58.68 57.77 56.17 55.87 54.65 55.08 52.40 51.13 52.09 53.12 53.12 53.07 53.18 56.18 56.75 57.32 57.36 57.87 58.26 58.86 58.91
58.41 58.89 58.82 58.17 58.72 59.10 58.87 58.57 58.51 57.87 58.23 59.04 59.51 59.17 59.21 59.04 59.60 59.53 59.88 59.54 60.36 59.48 58.97 57.04 56.77 56.04 55.88 55.41 52.01 51.85 49.48 51.25 51.72 51.80 51.62 52.20 51.82 54.42 56.27 56.84 57.09 57.53 57.95
57.52 58.17 57.99 57.48 58.27 59.12 59.27 58.78 58.82 58.49 57.75 57.00 57.95 57.59 58.11 59.04 59.85 59.67 60.00 59.73 59.71 59.59 58.16 57.12 56.81 56.00 55.11 55.90 55.08 53.64 50.56 48.04 49.88 52.26 51.78 51.58 51.13 51.33 51.87 52.22 55.88 56.62 56.78
55.68 58.13 58.11 58.18 58.26 59.19 59.13 57.96 57.55 56.52 55.21 55.98 56.84 57.43 57.92 59.57 59.17 58.98 59.00 58.38 58.57 58.29 57.68 57.91 58.06 56.87 56.84 55.03 55.92 57.82 56.21 54.97 50.95 49.18 53.95 52.02 52.28 52.08 51.35 51.04 52.40 54.00 55.18
55.46 57.86 57.50 58.37 58.39 58.69 59.05 58.24 57.36 56.38 56.83 56.89 56.30 56.40 57.35 58.19 59.19 58.82 58.70 57.89 56.99 57.47 57.99 58.45 57.96 58.04 57.32 55.93 54.85 54.58 54.36 54.84 54.54 51.92 49.70 52.24 53.35 53.02 52.85 52.95 53.06 53.20 53.58
56.50 57.86 57.96 57.69 57.73 58.66 58.87 58.09 57.23 56.52 55.85 55.30 55.25 55.04 56.14 57.20 58.19 58.34 58.29 57.76 57.04 57.21 58.22 58.79 58.40 58.13 57.32 56.59 56.65 56.20 54.05 52.92 52.45 51.75 49.95 50.43 51.03 51.78 53.70 53.84 53.33 53.28 52.53

GFSSE_sfc_wetblb_078.txt.gz
Wetbulb
69.48 70.94 72.06 72.56 72.62 72.40 72.25 72.12 71.94 72.20 72.72 72.70 72.65 72.58 72.56 72.52 72.20 71.99 71.73 71.66 72.13 72.87 72.49 72.40 72.45 72.50 72.38 71.91 71.87 71.88 71.51 71.04 70.68 70.89 70.94 70.87 70.75 70.48 70.38 70.37 69.98 68.30 70.22
70.14 71.28 71.56 72.20 72.44 72.51 72.43 72.12 72.10 72.38 72.83 72.79 72.52 72.20 71.89 71.80 71.64 71.60 71.63 71.68 72.05 72.52 71.99 71.85 72.08 71.41 71.44 70.98 71.10 70.85 70.71 70.21 69.96 70.19 70.55 70.23 69.97 69.72 69.55 69.52 69.47 68.57 69.70
70.33 71.45 71.45 71.50 72.22 72.46 72.48 72.50 72.56 72.75 72.91 72.64 72.29 72.01 71.79 71.65 71.49 71.33 71.33 71.38 71.73 72.03 71.65 71.37 71.23 71.05 70.84 70.67 70.30 70.10 69.96 69.44 69.10 69.32 69.41 67.26 66.97 69.01 69.27 69.02 69.33 69.38 69.03
70.09 71.34 71.18 71.50 71.76 72.26 72.17 72.27 72.34 72.58 72.65 72.34 71.93 71.94 71.89 71.73 71.85 71.93 71.40 70.99 71.19 71.69 71.50 70.88 70.50 70.46 70.51 69.77 69.37 69.13 68.89 68.57 68.14 68.06 66.43 66.67 66.97 68.62 68.79 68.29 67.86 67.50 67.26
69.60 70.96 71.42 71.14 71.29 71.98 72.04 72.14 71.92 72.00 71.99 71.68 71.51 72.05 71.93 71.90 72.26 71.89 71.34 71.06 71.26 71.39 69.96 70.25 70.42 70.43 69.72 68.88 68.67 68.44 67.83 67.18 66.58 65.51 64.75 65.61 65.95 67.57 67.76 66.84 66.20 65.70 65.29
68.64 69.91 70.53 70.32 70.92 71.64 72.01 72.10 71.79 71.66 71.08 71.07 71.10 71.79 72.00 72.14 72.05 71.51 70.89 70.93 71.09 71.14 70.85 70.23 70.54 69.80 68.79 68.33 67.24 67.22 66.06 65.37 64.49 63.85 64.22 64.98 64.64 67.08 66.51 65.69 65.23 64.76 64.38
67.11 68.64 70.05 69.68 70.63 71.49 71.94 71.85 71.57 71.10 70.71 70.32 70.47 70.98 71.54 71.66 71.41 70.88 70.35 70.36 70.42 70.23 70.06 70.09 69.48 68.49 67.41 66.23 65.84 65.79 64.92 64.02 60.45 60.38 62.48 62.94 62.91 65.34 64.82 64.00 63.84 63.36 63.50
67.00 67.83 68.69 70.38 70.64 70.83 71.16 70.97 68.40 66.22 66.57 64.86 64.43 64.02 68.27 70.25 70.24 70.14 70.00 69.70 69.55 69.34 69.16 68.73 67.82 66.86 65.91 65.26 65.61 64.41 63.76 63.10 60.32 58.20 61.11 61.18 63.91 64.43 64.24 63.43 63.12 62.81 62.86
67.25 67.00 67.07 68.35 70.12 69.99 69.21 68.22 65.39 65.39 65.40 64.80 63.62 63.74 64.37 67.69 68.14 69.54 69.49 69.22 68.70 68.43 68.27 67.63 66.54 65.84 65.34 64.81 64.46 63.46 62.52 62.19 58.90 59.15 59.66 60.63 63.95 63.90 63.79 63.20 62.93 62.60 62.43
65.81 66.77 66.62 67.74 66.54 65.65 66.06 66.64 65.17 66.13 66.22 65.28 64.79 63.25 63.82 66.78 67.33 68.16 68.15 68.00 67.69 67.62 67.61 67.04 65.68 65.19 64.44 64.28 63.60 62.63 62.33 62.00 57.78 57.31 57.58 60.63 63.67 63.78 63.43 63.10 62.55 62.12 61.96
64.24 64.74 66.01 65.60 65.64 63.89 63.31 64.88 65.93 66.15 65.26 65.06 64.44 63.43 64.94 65.37 66.03 66.65 66.80 66.94 67.04 66.60 66.45 66.05 64.94 64.02 63.58 63.70 63.28 62.63 61.52 58.76 58.37 58.07 58.23 63.19 63.27 63.33 63.01 62.44 62.17 61.95 61.79
61.98 63.06 63.59 63.94 63.53 63.44 63.74 63.58 62.68 63.64 63.76 63.29 62.35 61.80 65.39 65.23 65.81 65.77 66.10 65.82 65.70 65.46 65.37 64.95 63.75 63.22 60.70 59.92 60.80 60.97 58.32 58.53 58.41 57.98 58.95 62.86 62.98 63.17 62.77 62.17 62.00 61.64 61.45
60.91 61.64 63.13 63.00 63.13 62.48 62.71 61.45 61.11 61.19 62.36 62.11 62.06 61.03 65.03 65.09 65.33 65.24 64.35 64.09 63.68 64.18 62.53 61.22 60.51 57.10 56.63 56.50 58.08 57.41 57.88 57.82 58.12 58.65 60.78 62.62 62.95 62.91 62.65 62.19 61.74 61.50 60.97
59.96 60.67 60.94 61.41 62.53 62.74 62.32 61.54 61.47 60.64 62.18 62.23 61.91 61.15 61.59 64.24 63.83 63.23 62.71 62.38 61.93 61.03 59.23 57.53 55.74 55.11 55.59 56.56 58.01 57.21 57.63 57.52 57.67 58.02 60.45 62.15 62.62 62.58 62.46 62.25 61.56 61.24 60.50
58.65 59.29 59.25 60.52 61.31 63.51 62.40 62.11 62.26 60.16 60.88 61.56 61.75 62.08 61.18 63.75 62.53 61.96 61.35 60.49 58.91 57.66 56.88 55.62 55.21 55.53 55.59 56.63 57.97 57.12 57.18 57.18 57.59 58.24 57.72 61.42 61.93 62.27 62.06 61.87 61.35 61.06 60.59
59.33 57.89 57.58 57.84 59.75 63.04 63.51 62.22 62.35 60.75 61.11 61.34 63.90 62.42 62.76 63.08 61.65 60.43 59.55 58.46 56.95 55.97 55.37 54.35 53.93 53.22 53.82 55.86 57.25 57.14 57.10 57.24 57.77 57.10 57.06 59.19 60.86 61.77 61.95 61.63 61.35 60.90 60.40
58.82 57.55 56.67 56.64 57.76 60.36 62.61 63.63 63.38 62.11 62.56 62.62 63.93 64.06 63.19 61.35 59.89 59.87 58.33 57.55 56.90 54.40 52.98 53.98 54.82 53.43 52.99 56.26 57.07 56.63 56.82 56.77 57.24 56.81 56.55 56.35 58.47 60.10 61.08 61.58 61.35 60.87 60.49
57.65 56.65 57.07 59.02 57.09 60.58 60.80 63.06 63.40 63.59 62.68 62.90 63.58 63.81 62.31 60.41 59.59 57.63 56.51 56.93 56.57 55.44 54.38 54.46 55.11 53.24 53.41 54.67 56.07 56.49 55.95 56.14 56.76 56.63 56.47 56.13 56.07 56.97 59.60 61.16 61.36 61.36 60.42
57.62 56.53 55.78 56.69 58.21 59.78 60.76 62.01 62.29 63.14 62.69 62.91 63.24 62.70 62.14 60.43 58.95 56.66 56.17 57.54 56.77 55.48 55.28 56.19 55.29 54.28 53.42 53.05 55.34 55.25 55.79 55.29 55.61 56.86 56.10 55.88 56.17 56.96 57.08 59.98 60.53 60.49 61.03
57.07 56.15 56.08 57.45 58.37 59.41 60.38 61.14 61.59 61.79 61.92 61.87 61.96 61.78 61.35 60.88 59.58 57.56 57.77 59.03 57.01 56.34 56.20 56.57 55.37 54.48 54.37 53.44 55.48 54.07 54.54 55.41 55.27 55.18 55.89 57.03 56.69 56.91 56.77 56.95 58.46 58.56 59.58
56.49 56.21 56.16 56.85 58.79 58.83 59.11 58.63 59.04 58.79 59.72 60.17 60.64 60.53 60.62 60.67 60.28 58.75 57.80 59.56 58.50 57.55 57.52 56.91 55.23 54.32 52.29 52.79 51.44 50.47 51.06 53.45 54.65 55.31 55.52 55.96 55.70 56.21 55.76 57.02 57.58 57.95 58.42
57.04 56.51 57.07 57.01 58.47 58.13 58.42 58.68 58.60 58.74 59.41 59.71 59.98 59.67 59.82 59.76 59.54 59.57 58.65 59.54 59.92 58.46 56.97 55.01 55.13 53.94 53.58 53.65 51.60 50.02 47.45 50.06 51.81 52.41 53.77 55.04 54.35 56.16 56.18 56.82 56.93 57.50 57.60
56.60 56.49 57.41 57.71 57.68 58.11 58.54 58.56 58.25 58.02 58.09 58.13 58.51 58.54 58.90 59.54 59.57 59.50 59.58 59.67 59.74 59.08 57.03 55.09 54.85 55.67 53.52 52.92 53.34 51.61 48.92 46.89 49.81 50.65 50.57 51.04 52.05 53.13 55.61 56.08 56.16 56.63 57.37
56.25 57.08 57.48 57.67 58.46 58.28 58.14 57.74 56.99 56.38 55.63 57.26 57.97 58.39 57.82 58.70 59.16 58.98 59.16 59.26 59.09 59.00 57.58 57.46 56.91 54.82 54.50 53.28 53.23 56.00 55.14 53.66 49.06 48.97 52.59 50.98 50.34 50.25 51.03 52.31 54.85 55.80 56.18
56.19 56.25 57.64 57.83 58.23 58.88 58.35 57.24 57.08 56.28 56.58 57.00 57.58 57.30 57.36 57.84 58.79 58.52 58.90 58.96 58.77 58.27 57.85 58.01 57.96 56.31 55.47 54.56 52.82 54.46 54.64 54.41 53.14 50.44 47.49 50.75 51.51 51.59 51.62 51.69 51.79 52.30 54.61
55.61 55.77 57.35 57.29 57.79 58.71 58.28 57.79 56.83 56.12 56.06 55.58 56.05 55.80 56.26 57.13 58.08 57.98 57.91 58.46 58.51 58.35 57.19 57.86 58.68 57.30 56.10 55.80 54.86 54.72 54.27 52.62 51.59 50.75 48.73 49.50 49.74 51.87 52.72 52.09 51.21 51.82 52.23

GFSSE_sfc_wetblb_081.txt.gz
Wetbulb
68.34 69.95 71.83 72.33 72.65 72.35 71.88 71.83 72.03 72.28 72.85 73.19 73.36 73.31 73.07 72.93 72.60 72.29 72.35 72.42 72.78 73.03 72.95 72.73 73.45 73.48 72.38 71.79 71.69 71.67 71.34 71.14 70.93 70.92 70.93 70.83 70.78 70.73 70.26 70.00 69.90 68.33 70.40
69.10 70.55 71.20 72.01 72.26 72.36 72.03 72.17 72.10 72.34 72.68 73.02 73.01 72.72 72.47 72.50 72.13 72.02 72.22 72.47 72.70 72.85 71.73 72.29 72.73 72.01 71.37 71.49 71.50 71.27 70.80 70.32 69.98 69.98 70.18 70.39 70.27 70.10 70.09 69.35 69.73 68.76 70.12
69.29 70.51 71.01 71.38 72.11 72.23 72.15 72.39 72.45 72.74 72.94 72.69 72.55 72.36 72.22 72.25 71.94 71.92 71.97 72.05 72.09 72.23 72.21 71.86 71.99 71.50 70.76 71.13 70.68 70.49 70.18 69.82 69.46 69.49 69.63 66.82 67.66 69.39 69.52 69.74 69.19 69.36 68.91
70.10 70.19 70.57 71.31 71.87 72.08 71.89 72.33 72.47 72.68 72.63 72.37 72.18 72.07 72.01 71.86 71.79 71.84 71.64 71.45 71.77 72.31 72.26 71.44 71.32 70.73 70.72 70.34 69.84 69.72 69.40 68.98 68.57 68.15 66.55 66.73 67.01 68.93 68.90 68.48 68.24 68.29 68.27
69.93 70.48 70.29 70.93 71.22 71.83 71.85 71.91 72.12 72.01 71.89 71.63 71.64 71.90 71.79 71.57 71.77 71.69 71.06 70.93 71.24 71.92 72.01 71.22 70.95 70.32 69.81 69.04 68.77 68.58 68.20 67.63 67.17 66.00 64.82 65.36 65.87 67.78 68.32 67.37 66.48 66.35 66.07
69.05 70.30 69.77 70.04 70.66 71.55 71.78 71.91 71.92 71.68 71.06 70.93 71.06 71.41 71.60 71.97 71.81 71.31 70.64 70.81 71.25 71.52 70.57 71.47 70.44 69.83 68.43 68.01 67.67 67.35 66.73 66.41 65.54 64.14 65.09 66.15 65.44 67.41 66.74 65.90 65.35 64.82 65.00
67.07 68.98 70.07 69.14 70.39 71.20 71.98 71.91 71.65 71.22 70.47 70.63 69.87 70.38 70.91 70.99 71.36 71.11 70.31 70.37 70.10 69.67 70.37 70.38 69.62 68.86 67.68 67.04 66.59 66.11 65.47 65.24 62.81 63.01 63.01 63.67 64.80 66.58 66.48 65.47 64.06 64.33 64.16
66.62 67.63 69.81 70.06 70.37 70.65 71.18 70.96 69.98 67.99 67.66 67.01 66.47 67.39 69.27 69.08 69.19 69.45 69.79 70.05 69.82 69.54 69.38 68.92 68.65 67.87 66.78 66.44 65.76 64.69 64.07 63.66 61.49 61.82 62.01 62.92 65.08 65.13 64.85 63.96 63.25 63.30 62.82
66.31 66.82 67.63 69.66 70.29 69.63 69.36 68.57 68.01 66.22 65.18 64.82 64.69 64.48 66.20 66.49 66.84 67.77 69.06 68.90 69.24 68.98 68.54 68.11 67.43 65.87 66.88 65.89 64.79 63.76 62.80 62.35 58.10 58.28 61.08 62.49 64.75 63.81 64.35 63.39 62.99 62.63 62.58
65.38 65.74 66.05 67.65 69.75 70.01 68.69 66.13 66.29 65.35 64.97 65.08 64.88 64.20 63.26 64.84 66.49 67.38 67.28 67.93 68.17 68.44 67.60 67.11 65.50 65.87 65.85 64.90 63.92 62.97 62.51 61.73 57.43 57.24 58.64 61.20 63.53 64.10 63.58 63.23 62.85 62.30 62.02
64.01 64.68 64.85 65.37 66.16 66.81 66.86 65.93 66.02 66.22 65.53 65.44 64.89 64.35 63.36 64.05 65.02 65.95 66.04 66.81 67.61 67.15 66.53 65.90 64.83 64.87 64.24 63.98 63.48 62.80 61.49 58.11 57.52 56.71 58.56 62.14 63.63 63.96 63.34 62.80 62.32 61.97 61.74
61.57 62.73 64.01 63.20 64.12 63.26 65.62 65.85 64.93 65.23 64.95 64.14 63.83 62.81 62.99 63.85 64.63 65.06 65.32 65.29 66.29 65.98 65.55 64.81 63.96 64.22 62.87 61.06 61.23 61.14 57.94 57.47 57.35 57.78 58.71 63.00 63.51 63.63 63.13 62.31 61.74 61.66 61.45
61.98 61.56 62.19 63.08 62.51 62.29 63.54 64.30 64.10 64.10 63.11 62.07 61.49 62.22 64.05 64.56 64.70 64.56 64.97 64.83 64.64 65.04 63.07 61.93 61.30 60.60 60.13 59.55 57.13 57.07 57.69 57.62 57.81 57.78 60.52 62.74 63.60 63.37 62.92 62.21 61.78 61.49 61.14
59.88 60.88 61.79 62.01 63.11 62.73 62.27 62.09 62.57 62.41 62.89 61.72 60.65 61.31 63.93 63.47 63.67 64.12 64.28 63.53 62.73 61.65 59.28 59.06 56.94 56.75 58.20 58.02 56.70 56.75 57.15 57.40 57.30 57.42 60.35 62.14 62.91 62.97 62.97 62.70 62.07 61.54 60.76
58.72 59.65 59.67 60.05 62.47 62.70 61.96 61.40 60.92 61.35 61.77 61.98 61.14 60.63 63.80 61.91 62.99 63.86 63.17 62.43 61.40 59.60 58.50 55.38 54.59 55.84 56.47 56.64 56.64 57.23 56.82 57.22 57.28 57.87 58.24 61.58 61.98 62.75 62.54 62.59 62.33 61.61 61.01
58.37 58.47 58.33 59.32 60.14 63.14 61.77 61.15 60.35 60.67 61.21 61.15 61.02 60.74 62.65 63.45 63.65 62.87 61.76 60.40 59.56 59.07 57.51 55.29 54.90 54.68 56.18 56.47 55.89 56.84 57.03 56.96 57.09 56.66 57.56 59.21 60.97 61.88 62.33 62.02 61.97 61.49 60.92
58.90 57.93 57.21 57.51 59.26 62.95 62.33 61.56 61.44 60.33 61.19 61.09 61.13 61.17 61.07 63.83 62.99 62.01 60.75 58.77 58.17 57.06 55.33 53.78 52.70 53.21 55.20 56.87 55.87 56.13 56.89 56.75 56.80 56.36 56.30 56.94 58.82 59.99 61.02 61.87 61.52 61.04 60.94
57.68 56.91 55.99 57.84 57.41 60.91 62.79 62.64 62.20 60.66 61.20 61.19 62.96 62.58 61.48 63.05 62.60 60.99 59.36 57.77 57.41 54.68 54.09 54.41 53.04 51.90 55.18 56.00 55.37 55.01 55.89 56.22 56.01 55.76 55.68 55.98 56.20 57.37 59.66 60.84 61.13 61.24 60.73
57.20 55.86 55.58 55.56 56.18 59.76 61.32 62.67 63.09 61.31 61.59 61.89 63.63 62.79 61.59 61.22 60.81 59.50 57.99 56.16 56.52 54.92 54.31 54.85 53.55 52.74 53.52 54.36 55.23 54.35 55.04 55.32 55.03 56.22 55.17 55.01 55.11 55.53 56.26 59.94 60.32 60.19 60.73
56.36 55.34 56.32 56.20 58.14 59.60 60.30 61.47 61.99 62.23 61.55 62.40 63.16 62.60 60.98 60.24 58.91 57.36 56.46 55.24 55.37 53.89 54.18 54.86 54.47 52.57 54.11 54.78 56.03 54.34 53.56 54.22 54.32 54.29 54.22 55.49 55.27 55.57 55.92 56.58 57.59 57.85 59.45
54.74 54.68 56.28 56.38 57.74 59.09 59.35 59.13 59.74 59.72 61.10 62.12 62.51 62.14 60.75 59.32 57.53 56.01 56.47 55.11 55.01 53.36 54.65 56.01 54.62 52.64 51.70 53.27 51.86 50.51 51.23 53.86 53.88 54.12 54.62 54.68 55.27 55.91 54.85 55.92 56.66 56.68 57.59
55.72 54.70 55.50 56.04 57.72 57.31 59.14 58.87 59.24 59.77 60.14 61.15 61.34 61.48 61.33 59.18 57.23 56.37 57.34 55.30 55.67 54.70 55.65 55.44 54.02 52.09 51.45 52.06 51.35 49.85 47.81 50.03 51.75 53.32 54.34 55.34 54.93 55.40 55.54 56.29 56.10 56.71 56.57
56.04 55.43 56.20 56.08 56.58 57.40 58.78 58.45 58.43 58.73 58.85 58.57 59.29 59.85 60.26 60.11 59.14 56.91 57.72 56.97 56.82 56.89 56.22 55.90 54.57 53.48 52.01 51.46 52.94 50.37 47.13 46.40 49.78 50.34 52.03 54.27 54.09 53.77 55.22 55.65 56.02 56.20 56.62
56.02 56.49 56.74 55.62 57.25 58.07 58.59 57.81 57.44 57.14 56.18 57.69 58.56 58.91 58.77 59.64 59.30 58.96 58.61 59.29 57.88 57.52 57.10 56.22 56.01 55.28 54.03 51.73 51.00 54.32 52.80 51.75 47.88 47.59 51.77 51.58 52.98 53.03 54.07 54.58 55.16 55.69 56.04
56.37 55.80 56.36 55.83 57.36 58.13 57.82 57.91 57.23 56.18 56.67 57.91 58.61 57.63 57.74 58.28 59.02 58.74 59.12 58.89 58.88 58.62 57.96 57.14 55.72 55.01 54.17 52.49 50.81 53.08 53.34 53.06 52.15 50.28 48.88 50.86 49.77 50.48 52.11 53.37 53.93 54.76 55.41
55.99 55.92 55.40 55.78 56.64 57.88 57.76 57.08 56.78 56.37 55.77 56.50 56.93 56.56 56.91 57.33 58.17 58.40 58.61 58.80 58.79 58.28 58.05 57.79 57.58 56.14 55.45 54.38 53.29 53.65 53.01 52.16 51.50 50.51 49.68 48.86 49.29 50.76 51.41 50.87 50.95 51.98 52.92

GFSSE_sfc_wetblb_084.txt.gz
Wetbulb
67.62 68.84 71.41 71.25 71.46 72.01 72.22 72.33 72.56 73.01 73.49 73.53 73.35 73.24 73.11 73.14 72.93 72.65 72.68 72.72 73.05 73.50 73.47 72.90 73.52 73.45 72.89 72.62 72.41 72.08 72.04 71.53 71.15 71.17 71.27 71.30 70.85 70.88 70.73 70.50 70.21 69.00 70.77
68.14 70.28 70.95 71.09 71.82 71.89 72.31 72.39 72.42 72.97 73.46 73.72 73.31 73.09 72.93 72.93 72.57 72.63 72.90 72.62 73.10 73.45 72.79 73.18 73.50 73.13 72.26 71.79 71.64 71.37 71.27 70.69 70.44 70.42 70.90 70.78 70.61 70.24 70.24 69.99 69.86 69.16 70.29
68.30 70.17 70.74 71.07 71.75 72.09 72.30 72.39 72.67 73.19 73.69 73.70 73.28 72.96 72.93 72.79 72.50 72.60 72.65 72.44 72.85 72.42 71.62 73.08 72.95 72.47 71.86 71.57 70.95 70.81 70.47 70.15 69.79 69.77 70.12 68.29 68.29 69.88 69.92 69.64 69.86 69.88 70.01
68.79 69.74 70.25 71.20 71.50 71.04 72.12 72.22 72.50 72.33 73.26 73.27 73.15 72.96 72.71 72.53 72.43 72.45 72.22 71.70 72.04 72.44 72.88 72.88 72.08 71.69 71.36 70.72 70.33 70.04 69.98 69.60 69.07 68.57 67.22 67.27 67.53 69.46 69.46 69.23 69.06 68.97 68.85
68.73 69.47 69.95 70.95 70.95 70.59 71.81 71.80 72.09 72.31 71.42 72.39 72.52 72.74 72.57 72.33 72.40 72.40 71.16 71.57 72.23 72.53 72.71 72.09 71.89 71.47 70.49 69.61 69.43 69.17 68.81 68.35 67.82 66.37 65.95 65.96 66.56 68.22 68.78 68.22 67.59 67.90 68.03
68.73 69.14 69.11 70.08 70.67 70.76 71.69 71.87 71.87 71.68 71.39 71.31 71.67 72.00 72.36 72.27 72.21 71.96 71.19 71.24 71.51 71.57 72.04 71.74 71.35 70.33 69.32 68.70 68.37 68.20 67.74 66.94 65.68 64.86 65.34 66.60 65.75 67.59 67.38 65.94 66.39 66.22 66.35
68.17 69.05 69.30 69.11 70.34 70.49 71.16 71.90 71.57 71.09 70.71 70.95 71.12 70.46 70.84 70.55 70.38 70.57 69.82 69.88 70.37 70.60 71.07 70.73 70.05 69.23 68.39 67.87 67.58 67.00 66.34 65.76 63.54 63.43 64.20 64.66 65.29 66.96 66.52 65.30 64.80 64.75 64.72
66.99 68.27 68.49 69.80 70.21 70.08 70.47 70.98 70.41 70.26 70.29 70.04 69.54 69.56 69.66 69.79 69.42 69.01 69.28 69.36 69.34 69.67 70.04 69.62 68.75 68.23 67.78 67.26 66.58 65.74 65.01 64.58 62.21 62.06 63.29 64.73 66.84 66.64 65.90 64.58 64.21 63.95 63.89
65.80 66.97 68.32 69.09 70.28 69.42 69.24 68.71 68.26 68.12 67.80 67.95 67.98 68.03 68.52 68.30 68.14 68.14 69.19 69.00 68.37 68.97 68.77 68.36 67.89 67.42 67.04 66.38 65.41 64.38 63.54 62.75 59.63 61.89 63.00 63.44 65.82 65.72 64.91 64.03 63.16 63.15 62.80
64.80 65.25 67.29 68.70 69.69 69.52 68.98 67.13 66.31 65.88 65.97 66.08 66.46 66.13 65.75 65.46 66.02 66.90 67.83 67.71 68.49 68.26 68.49 67.82 66.65 66.91 66.14 65.32 64.35 63.28 62.75 61.73 58.46 59.29 61.70 62.87 65.14 65.14 63.94 63.12 63.04 62.19 62.14
63.46 64.07 65.56 67.56 68.54 69.18 67.31 66.95 66.37 66.19 65.64 65.15 65.22 64.68 63.67 63.87 64.01 64.42 66.31 66.81 66.62 66.84 67.32 66.10 66.40 65.92 65.10 64.27 63.83 62.82 60.84 57.84 57.97 57.74 59.84 63.94 63.72 63.57 63.35 62.78 62.09 61.93 61.97
62.45 62.93 64.25 65.86 66.88 67.00 66.75 66.59 65.47 64.68 64.32 64.08 63.87 63.21 62.91 63.46 63.20 63.43 65.37 65.39 66.07 65.82 65.72 65.27 65.48 64.66 63.03 61.37 61.57 60.69 58.34 57.59 58.00 57.87 58.82 63.24 64.15 63.65 63.56 62.64 62.05 61.76 61.84
62.52 62.17 63.23 63.59 64.87 64.37 64.89 65.55 65.14 64.97 64.21 64.07 63.30 63.14 62.62 62.69 63.81 63.97 64.52 64.45 64.45 64.88 62.69 62.49 63.52 61.23 59.92 60.04 57.07 57.91 57.78 57.84 57.72 58.26 60.52 63.20 64.27 63.65 63.15 62.18 62.34 62.30 61.77
60.14 62.00 62.63 64.17 62.68 63.77 64.32 64.42 64.25 64.65 64.08 63.26 62.98 62.24 62.20 62.21 62.99 62.97 63.58 63.53 63.51 62.96 59.96 60.52 60.69 59.03 58.52 57.34 57.26 57.43 57.74 57.63 57.61 57.94 60.54 62.38 63.50 63.39 63.06 63.06 62.65 61.97 61.37
59.80 60.45 61.11 63.34 63.50 63.04 62.54 63.00 63.37 63.19 63.72 62.76 61.39 62.32 62.58 62.44 62.71 62.31 63.57 63.14 63.23 60.28 58.05 57.26 57.28 58.00 56.42 56.14 56.71 57.48 57.01 57.11 57.54 58.30 59.16 61.73 62.49 63.44 63.24 63.34 62.70 62.07 61.63
58.59 60.06 60.14 61.66 63.05 63.09 62.34 62.12 61.84 62.20 62.42 62.26 60.84 61.49 63.31 63.09 63.23 62.88 63.24 62.40 61.13 60.34 57.29 55.51 56.67 57.08 56.44 56.62 56.12 56.37 56.86 57.61 57.56 57.84 58.39 60.01 61.12 62.29 62.23 62.28 62.19 62.14 61.54
58.48 58.76 58.92 59.25 61.24 62.01 61.91 61.54 61.09 61.13 61.20 61.18 60.99 60.38 63.06 62.76 62.43 63.10 62.28 60.76 60.24 59.33 56.35 54.61 54.29 55.21 55.69 56.04 55.73 55.93 56.70 57.45 57.41 57.23 57.49 58.18 59.57 60.25 61.44 62.42 62.26 61.45 61.23
57.44 57.86 57.24 59.09 60.89 61.60 61.63 61.45 60.94 60.53 60.57 60.83 61.02 60.45 62.26 62.77 62.98 62.51 61.79 60.25 59.62 58.09 55.72 54.97 54.98 54.99 54.95 54.99 54.32 54.83 55.89 56.61 56.46 56.68 56.96 57.39 57.53 58.24 59.97 60.99 61.43 61.81 60.87
57.31 56.62 55.81 56.00 59.43 61.49 61.84 61.69 61.68 60.45 60.30 60.55 61.46 61.22 60.83 62.85 63.03 62.57 61.40 59.73 57.11 56.55 55.86 53.93 52.97 55.49 54.77 54.55 54.73 54.43 54.71 55.00 55.32 56.54 55.82 56.11 56.55 57.05 57.40 59.98 60.06 60.17 60.86
56.24 55.92 56.80 54.67 56.74 59.96 61.60 62.45 62.38 60.59 60.61 60.91 61.43 62.05 61.40 61.76 62.84 62.20 60.07 57.63 57.72 56.13 55.34 54.16 53.53 54.34 55.26 54.87 55.55 53.85 53.50 54.13 54.89 54.87 54.83 55.86 55.72 56.26 56.99 58.02 58.73 58.39 59.22
54.99 56.42 56.70 55.45 55.47 58.52 59.17 59.91 60.34 59.93 60.11 60.45 61.93 62.51 62.16 61.77 62.31 60.26 57.54 55.87 56.59 56.03 54.91 54.22 53.68 53.32 52.61 54.18 52.69 51.22 51.54 53.03 53.86 54.01 54.69 54.81 55.16 55.79 56.40 56.95 57.71 57.52 58.40
55.62 56.40 56.34 56.77 56.54 58.81 57.70 59.36 59.89 59.91 60.95 61.17 61.82 61.09 60.27 59.47 58.58 57.96 56.07 55.61 54.56 54.39 54.63 54.54 53.69 51.52 51.83 54.60 51.53 50.64 48.64 50.85 53.00 54.26 54.63 55.01 55.13 56.03 55.92 56.39 56.54 57.12 57.15
55.26 55.32 55.28 56.05 56.63 57.56 59.16 58.63 58.75 59.31 59.09 59.91 60.80 59.95 59.24 58.19 56.99 57.26 55.93 55.32 53.85 54.40 54.15 54.76 53.54 52.91 52.86 52.47 54.88 51.60 47.86 48.29 50.47 52.15 53.22 54.57 54.87 54.89 56.02 56.18 56.20 56.56 57.16
55.78 56.06 55.76 55.73 56.23 56.93 58.09 58.11 57.43 57.52 56.98 57.78 59.37 60.36 58.54 57.72 56.76 57.15 56.00 54.88 54.63 54.73 54.54 55.40 55.11 53.82 53.92 51.71 51.63 53.30 52.72 51.48 49.55 47.66 51.39 53.28 54.61 53.98 54.87 55.12 55.87 56.28 56.65
56.32 55.87 56.02 55.28 55.67 57.92 57.71 58.13 57.89 56.96 57.28 58.18 58.97 58.73 58.92 58.43 57.20 57.59 58.23 56.47 55.59 55.93 56.20 56.13 55.30 54.57 54.26 53.01 51.82 52.55 52.68 52.97 52.27 49.47 48.03 50.31 51.13 53.17 54.84 55.02 55.26 55.66 56.10
55.89 55.50 55.75 55.50 55.95 57.32 57.50 57.77 57.15 56.18 56.94 57.26 57.14 57.08 57.92 58.20 58.01 57.62 57.97 58.35 58.12 57.21 57.16 56.34 55.91 55.28 54.18 53.67 53.15 53.56 53.01 51.99 51.63 51.07 49.75 49.97 49.75 51.08 52.51 53.48 54.10 54.71 55.63

GFSSE_sfc_wetblb_087.txt.gz
Wetbulb
69.39 71.77 71.36 71.07 71.53 72.56 72.69 72.78 72.98 73.09 73.19 73.42 73.63 73.41 73.29 73.24 73.38 73.38 73.21 73.40 73.38 73.45 73.37 72.87 73.38 73.35 73.10 72.51 72.90 72.55 72.31 71.71 71.21 71.45 71.64 72.09 71.49 71.40 71.10 71.16 70.78 70.49 71.17
71.14 71.96 70.65 71.12 71.79 72.44 72.65 72.81 73.12 73.12 73.29 73.79 73.48 73.18 73.11 73.21 73.10 72.99 72.83 73.00 73.10 73.57 73.24 73.13 73.80 73.55 72.95 72.80 72.38 72.01 71.67 71.19 70.71 70.83 71.24 71.45 71.23 71.05 70.76 70.70 70.42 70.45 70.82
70.95 72.05 71.49 70.58 71.43 72.31 72.78 72.87 73.26 73.78 73.82 73.86 73.46 73.25 73.08 73.03 72.97 72.75 72.88 72.92 73.20 73.45 73.47 73.40 73.70 73.25 72.29 71.95 71.45 71.33 71.13 70.64 70.15 70.14 70.56 69.59 69.65 70.49 70.36 70.41 70.03 70.27 70.30
71.03 71.92 71.89 70.47 70.57 71.93 72.36 72.63 72.35 73.83 73.99 73.50 73.48 73.23 73.18 72.89 72.80 72.97 72.72 72.49 72.63 73.05 73.50 73.17 73.10 72.46 71.83 71.21 70.84 70.75 70.37 70.07 69.57 69.53 69.44 69.02 68.99 70.02 69.85 69.63 70.11 69.92 69.77
70.74 71.33 71.52 69.99 70.22 71.02 71.93 72.36 71.76 72.19 73.08 72.94 72.92 73.31 73.06 72.95 73.02 72.86 72.28 71.93 72.21 72.73 73.05 72.96 72.58 72.05 70.93 70.13 69.92 69.75 69.49 68.85 68.56 68.72 69.08 69.38 69.49 69.52 69.70 69.18 69.41 68.99 68.97
70.36 71.04 69.93 69.56 70.11 71.09 71.86 72.18 71.62 71.39 71.65 72.20 72.33 72.83 72.94 72.95 72.70 71.44 71.16 71.59 72.38 72.76 72.71 71.96 71.58 70.97 69.90 69.37 69.05 68.71 68.18 67.74 67.60 68.63 68.19 69.14 68.33 68.68 67.97 67.44 68.07 67.98 67.72
70.21 70.98 70.27 69.16 69.76 70.91 71.61 71.92 71.70 71.09 70.69 71.47 71.97 71.97 72.16 72.32 71.16 70.80 70.06 70.12 70.62 71.40 71.50 71.04 70.28 69.95 68.99 68.63 68.41 67.56 66.98 67.08 68.56 68.73 68.48 68.35 67.95 67.22 66.71 66.25 65.90 66.25 66.31
70.02 70.90 69.85 69.85 69.96 70.07 70.85 71.17 70.70 70.48 70.67 70.93 71.26 71.23 70.82 70.55 69.82 70.14 69.89 69.08 69.92 70.43 70.08 69.87 69.39 69.02 68.45 67.98 67.38 66.32 65.74 66.36 67.71 68.10 68.01 67.79 67.35 66.81 66.26 65.75 65.40 65.08 65.02
70.00 68.98 69.20 70.03 71.04 69.28 68.97 69.33 69.13 69.62 70.10 69.87 69.07 69.55 69.57 69.00 68.76 69.29 69.06 69.00 68.96 69.59 69.33 69.06 68.66 68.05 67.92 67.09 66.14 64.90 64.17 65.50 67.33 67.47 66.85 66.43 67.29 66.31 66.02 65.28 64.87 64.37 64.01
70.07 68.33 68.81 69.73 70.62 70.84 70.62 68.09 68.37 68.34 68.11 67.93 67.61 67.28 67.01 67.62 68.16 68.37 68.39 68.70 68.66 69.18 68.84 68.36 67.81 67.38 66.88 65.92 64.93 63.80 63.08 63.74 66.23 66.15 66.20 65.82 66.51 65.90 65.27 64.41 63.75 63.47 62.77
68.30 68.93 68.72 69.58 70.38 70.91 70.19 68.68 67.96 67.91 67.35 67.09 67.32 66.12 65.35 68.07 68.01 67.34 66.88 67.00 67.01 67.63 67.61 67.47 66.99 66.21 65.32 64.62 64.22 62.99 62.82 65.13 65.00 65.22 64.59 65.32 65.68 65.47 64.22 63.14 63.38 62.66 62.83
64.78 66.03 67.44 68.83 69.52 70.31 68.63 67.82 68.21 68.62 68.86 67.73 67.61 66.83 67.85 67.60 67.12 65.84 66.21 65.79 66.01 66.46 66.24 66.58 65.79 64.97 64.96 65.89 63.91 62.39 64.24 64.38 64.68 64.19 64.12 64.22 65.00 64.51 64.08 63.32 62.56 62.49 62.28
66.16 65.63 66.28 67.33 68.80 68.50 67.31 67.17 66.45 66.34 66.68 67.39 65.01 64.70 66.01 65.99 64.94 64.55 65.66 65.32 65.52 65.34 64.84 66.27 65.55 65.91 65.67 65.45 64.35 64.12 63.79 63.89 63.72 63.57 63.24 63.45 64.58 64.46 63.96 62.63 62.17 61.99 62.05
65.82 66.53 65.77 66.53 66.64 66.70 66.86 66.83 65.93 64.83 64.73 64.71 65.70 63.57 64.08 63.95 63.01 63.05 65.94 66.08 64.37 64.28 64.31 65.78 65.66 65.08 64.58 64.21 63.54 63.29 63.19 63.06 62.72 62.70 62.44 62.69 63.95 64.25 63.82 62.65 63.00 63.03 62.13
64.61 66.33 65.88 65.81 65.57 65.32 65.22 66.16 65.55 65.14 64.41 64.76 64.42 63.44 63.41 63.74 62.84 63.90 65.22 65.30 63.75 62.50 62.48 64.54 64.06 63.68 63.54 62.78 63.10 62.76 62.09 62.22 61.89 62.36 62.30 62.10 62.64 63.60 63.08 63.84 63.38 62.94 62.26
64.32 65.32 67.05 64.81 65.20 64.83 64.31 64.87 64.72 65.04 65.06 64.21 64.01 63.78 63.36 63.94 63.23 64.23 65.80 63.69 63.81 61.73 62.59 63.41 63.20 63.22 62.60 62.59 62.05 62.11 61.92 61.75 61.93 62.60 62.64 62.34 61.26 62.49 63.42 63.33 63.14 62.66 62.22
63.69 64.99 65.41 64.40 65.05 64.87 63.94 64.00 63.69 63.71 64.13 62.77 62.56 63.24 63.32 63.50 64.22 64.79 63.87 63.75 62.38 60.91 61.59 62.94 63.09 62.63 61.20 60.85 61.32 61.34 61.47 61.75 61.50 62.05 62.27 62.67 61.64 60.81 61.88 63.20 62.77 61.83 61.57
63.16 63.32 64.53 63.76 63.08 64.18 64.72 63.69 62.95 62.64 62.86 62.87 62.23 62.53 63.59 63.59 64.40 63.55 62.96 62.43 62.05 60.18 61.68 61.00 61.13 60.35 60.68 60.36 59.22 60.20 59.85 61.09 61.66 61.76 62.22 62.36 62.06 61.25 60.62 61.27 62.03 62.08 61.74
62.15 62.76 63.29 63.55 61.89 63.01 64.17 63.64 62.65 61.99 61.86 61.80 62.05 61.60 63.06 63.18 63.64 63.50 62.43 61.92 60.71 59.15 61.05 60.69 60.31 60.52 59.83 59.82 59.59 59.87 60.13 59.99 61.01 61.12 61.41 61.81 62.02 61.74 61.09 60.42 60.32 60.47 60.91
61.74 62.84 62.95 62.66 62.26 63.93 63.89 63.17 62.88 61.69 61.75 61.48 61.57 61.89 62.87 62.71 63.79 63.00 62.28 59.92 60.63 60.17 59.70 59.68 59.48 60.23 59.92 59.52 58.44 58.77 59.82 60.54 60.93 60.77 60.99 61.07 61.25 61.79 61.83 61.38 60.82 59.96 59.38
61.05 61.24 61.31 61.42 60.82 61.93 62.15 61.28 60.92 59.98 60.46 60.72 61.53 62.43 61.64 62.70 63.06 62.53 60.98 59.47 60.11 60.23 59.51 59.63 59.72 59.15 58.83 60.08 58.11 57.52 58.06 59.26 59.68 60.15 60.38 60.02 59.89 60.87 61.18 61.27 60.93 60.99 60.32
59.41 60.42 60.00 60.88 60.70 60.52 61.92 62.10 62.06 61.50 61.55 61.67 61.58 62.40 61.83 61.59 62.63 61.18 59.15 59.05 59.41 60.71 59.37 58.20 58.64 58.33 58.43 58.97 57.43 56.55 52.81 55.60 58.02 58.40 59.07 59.37 60.20 60.33 60.07 60.59 60.59 60.87 60.89
58.49 59.24 58.84 60.31 60.18 60.40 60.68 60.64 60.75 61.31 61.02 61.04 60.62 61.21 61.63 61.68 62.02 60.32 59.33 59.58 60.51 59.72 58.52 58.75 59.13 58.72 56.11 58.13 59.28 57.81 53.98 53.44 55.60 58.07 58.40 59.02 59.26 59.24 59.51 59.70 59.24 59.83 60.63
58.11 58.52 59.26 59.82 60.05 60.35 60.81 59.86 59.07 58.49 58.12 58.75 60.61 59.92 59.16 60.07 60.49 58.68 59.41 59.54 58.68 58.24 58.79 58.40 58.16 58.11 58.58 57.09 58.49 57.87 59.47 58.61 55.31 53.92 56.53 57.82 58.89 57.94 58.87 58.90 58.87 59.82 60.06
57.71 56.88 57.83 59.01 58.48 58.99 59.57 59.70 59.14 58.18 58.92 60.11 59.87 58.66 57.53 57.15 57.53 57.64 58.29 57.55 56.92 57.48 58.47 57.77 56.38 58.35 60.00 58.61 57.38 57.05 57.43 57.69 57.91 55.92 53.65 54.59 57.25 57.55 57.97 59.05 59.44 59.53 59.81
57.10 56.65 56.89 56.55 58.04 57.93 58.25 59.27 59.26 59.08 58.80 58.53 58.22 57.37 56.59 56.25 57.17 56.47 56.42 56.30 56.74 57.75 57.78 58.45 58.19 58.12 58.27 59.11 58.71 58.98 57.41 55.75 54.90 55.94 55.09 55.24 55.86 57.08 58.38 59.22 59.08 59.16 59.52

GFSSE_sfc_wetblb_090.txt.gz
Wetbulb
71.47 73.35 71.78 72.31 72.50 72.94 73.11 73.05 73.19 73.20 73.39 73.53 73.86 73.66 73.57 73.77 73.74 73.84 73.82 73.91 74.00 74.34 74.08 73.09 73.12 72.97 72.79 72.35 72.57 73.13 72.64 72.14 71.64 72.07 72.15 72.35 72.07 71.75 71.53 71.63 71.29 71.34 71.17
72.79 73.90 70.91 71.66 72.28 72.99 73.11 73.13 73.53 73.30 73.42 73.73 73.59 73.66 73.36 73.59 73.66 73.71 73.70 73.55 73.81 74.29 73.63 72.94 73.12 72.94 72.64 72.99 72.78 72.20 71.82 71.56 71.29 71.41 71.63 71.88 71.48 71.25 71.18 71.02 70.79 70.80 70.85
73.20 74.19 72.71 71.22 72.05 72.88 73.23 73.47 73.68 73.76 73.90 73.93 73.66 73.57 73.36 73.64 73.66 73.42 73.40 73.15 73.34 73.94 73.48 73.04 72.89 72.89 72.55 72.75 71.93 71.77 71.39 71.22 70.81 70.55 71.12 71.43 70.77 70.85 70.74 70.51 70.29 70.67 70.63
73.34 74.43 73.95 70.86 71.57 72.55 73.00 73.22 73.53 73.99 74.11 73.84 73.64 73.49 73.57 73.59 73.37 73.13 73.01 72.77 73.11 73.49 73.69 72.91 73.08 72.82 72.32 71.67 71.29 71.00 70.89 70.47 70.23 70.33 71.02 70.41 70.32 70.18 70.13 69.76 69.85 70.10 70.00
73.12 73.79 73.78 70.43 70.48 72.12 72.54 72.87 73.12 73.45 73.48 73.32 73.31 73.72 73.49 73.35 73.40 73.38 72.58 72.47 73.01 73.46 73.46 72.94 72.70 72.34 71.47 70.54 70.40 70.28 70.02 69.73 69.49 70.10 71.07 70.73 69.48 70.27 70.06 69.79 69.47 69.32 69.57
72.35 73.31 70.65 69.42 70.47 71.72 72.47 72.59 72.02 72.72 72.49 72.56 72.81 73.21 73.35 73.33 73.31 72.91 72.06 72.25 72.96 72.62 72.60 72.20 72.03 71.32 70.30 69.70 69.65 69.35 68.91 68.83 68.56 69.76 69.20 69.31 69.12 69.28 69.50 68.76 69.06 68.76 68.59
72.11 73.13 72.94 68.74 69.91 71.14 72.18 72.35 71.24 71.85 71.98 72.13 72.57 72.62 72.75 72.93 72.55 71.70 71.37 71.68 72.09 72.17 71.56 71.46 71.47 70.29 69.62 69.17 68.80 68.21 67.74 67.76 68.65 69.38 68.90 68.84 69.26 68.52 68.30 67.95 67.65 67.60 67.46
72.58 73.24 73.40 69.83 69.92 70.19 71.35 71.66 70.54 70.61 71.26 71.52 71.53 71.90 72.36 72.00 70.85 70.75 70.55 70.72 70.82 70.66 70.40 70.56 70.17 69.51 68.88 68.39 67.80 66.99 66.69 67.06 68.82 67.98 67.53 67.47 67.72 67.40 66.98 66.96 66.54 66.29 65.84
73.67 73.39 72.18 71.88 71.06 69.20 69.07 69.70 69.36 69.62 70.12 70.74 70.79 70.61 70.67 69.67 69.35 69.72 69.91 70.28 70.04 69.88 69.96 69.72 69.08 68.65 68.36 67.69 66.65 66.00 65.80 66.75 68.40 67.40 67.01 67.32 67.43 66.51 66.05 65.77 65.73 65.50 64.77
72.69 73.25 72.01 71.46 71.86 72.12 72.25 68.49 68.87 69.14 69.29 69.57 68.71 68.99 68.57 68.30 68.80 69.07 68.94 69.11 69.52 69.61 69.48 69.01 68.01 68.03 67.43 66.56 65.51 64.87 64.94 65.95 67.55 66.84 66.77 67.10 66.98 66.44 65.86 65.29 65.16 64.58 64.17
72.10 71.80 72.15 71.26 72.16 71.61 72.63 71.82 69.31 69.41 68.76 67.75 68.11 67.14 67.58 71.68 70.91 69.76 67.26 66.89 67.44 67.70 68.36 68.12 67.23 66.81 65.98 65.54 64.94 64.47 64.66 67.37 67.09 66.13 66.09 66.06 66.88 66.15 65.24 64.36 63.95 63.31 63.21
70.31 71.40 70.21 72.16 71.93 71.36 71.44 72.66 71.89 71.90 71.95 72.13 71.66 71.01 71.92 70.85 69.87 68.31 66.35 65.82 66.63 66.62 66.99 66.79 65.89 65.22 66.01 67.51 66.68 64.66 67.18 67.33 66.31 65.41 65.91 65.56 66.52 65.65 64.10 64.02 63.36 63.10 63.09
69.92 70.14 68.81 70.79 71.39 71.61 71.14 70.81 71.49 71.79 71.70 71.11 70.88 70.95 70.41 69.37 68.55 68.06 67.35 66.99 67.21 66.22 66.47 66.00 65.35 67.59 67.24 67.35 67.35 67.13 66.30 67.15 65.60 66.28 64.09 64.82 65.55 64.85 64.31 63.43 63.00 63.40 62.79
68.57 69.92 69.04 69.51 70.48 70.47 71.10 69.51 69.71 69.57 70.35 69.48 70.19 69.21 68.31 66.98 67.42 67.25 64.81 65.23 65.74 66.45 65.33 64.91 65.62 67.49 66.89 66.49 66.65 66.35 66.66 66.24 66.05 65.76 64.28 63.00 64.51 64.86 64.19 63.47 62.66 62.55 62.40
67.59 69.84 70.06 69.17 69.60 69.90 69.17 68.57 68.04 68.44 68.40 68.95 69.00 68.81 67.65 65.81 66.00 65.98 64.12 65.14 67.22 65.48 64.58 64.13 65.14 66.12 66.28 66.11 66.75 66.29 65.87 65.28 65.15 64.49 64.37 62.42 63.40 64.64 63.88 63.47 63.83 63.02 62.49
65.98 68.69 70.88 68.32 68.88 68.48 68.29 68.14 67.23 67.38 67.52 67.88 68.15 66.45 68.24 65.11 65.21 65.36 64.87 65.78 66.66 65.76 64.60 64.27 64.43 65.77 65.49 66.09 65.83 65.84 64.93 64.70 64.25 63.70 63.49 62.74 61.87 62.92 63.63 63.93 63.66 63.40 63.03
64.99 67.61 69.79 69.09 67.72 67.09 67.19 68.03 67.66 67.67 67.42 66.56 66.56 65.29 65.98 64.72 64.70 64.69 64.65 64.20 65.91 65.16 63.44 63.61 65.23 65.86 65.08 65.25 64.82 64.90 64.53 63.88 63.20 63.17 63.20 62.43 61.89 61.05 62.38 63.72 63.68 63.13 62.67
64.09 65.87 69.09 68.73 67.39 67.33 66.25 66.20 66.76 67.42 67.00 65.98 65.80 64.95 63.62 63.87 64.28 66.43 63.80 63.55 65.29 63.74 62.85 62.75 64.37 64.38 64.10 64.22 63.87 63.96 63.29 62.61 62.73 63.11 62.70 62.13 61.82 61.93 61.62 62.08 62.72 62.98 62.55
63.08 65.47 67.73 69.29 66.77 66.75 66.15 65.27 66.21 66.65 65.68 65.13 63.93 63.77 63.46 63.34 64.08 64.61 64.70 63.70 63.35 62.13 60.89 62.52 63.22 63.90 62.99 63.19 62.95 62.75 62.99 62.70 62.52 62.25 62.40 63.13 63.05 62.32 61.79 60.89 60.87 61.04 61.79
63.32 65.45 66.91 68.44 66.98 66.01 66.10 66.36 66.19 65.53 64.60 64.47 63.00 62.93 63.17 63.71 63.85 63.89 63.08 62.66 62.00 60.54 60.30 61.59 62.69 63.76 63.54 62.84 61.57 61.50 62.59 62.57 62.73 61.33 62.02 62.45 63.08 62.72 62.58 62.25 61.37 60.87 59.61
62.95 64.73 65.73 67.19 64.91 64.84 65.01 64.38 63.99 62.87 62.89 62.55 62.90 62.62 62.79 63.30 63.33 63.46 62.71 61.69 60.75 59.84 60.03 62.52 62.63 62.88 62.38 63.05 60.35 59.28 60.20 60.80 61.01 61.89 62.04 62.13 61.96 62.53 62.85 62.87 62.33 61.93 61.03
62.41 64.13 65.02 66.46 63.63 65.60 66.81 66.54 64.96 62.95 63.08 63.00 62.59 62.21 62.62 62.57 63.53 63.07 61.74 60.96 60.68 59.53 59.38 62.82 62.44 61.92 61.87 62.51 58.96 58.82 54.35 56.51 59.05 60.48 61.57 61.29 61.85 62.05 61.68 62.01 62.50 62.26 62.30
62.24 63.54 64.46 65.88 64.71 66.45 66.30 65.64 64.12 63.61 62.75 62.39 61.52 61.19 61.73 62.66 63.21 62.42 61.10 60.77 60.40 60.13 59.31 61.80 62.91 62.17 59.89 61.49 62.19 59.39 55.11 54.44 57.54 59.78 60.73 60.98 61.28 61.29 61.81 61.97 62.00 62.19 62.35
62.63 63.88 64.64 65.30 65.82 65.55 65.75 64.58 63.50 62.21 59.84 61.54 61.04 62.03 61.94 61.46 61.98 61.32 60.94 60.59 60.55 60.55 60.66 62.20 63.56 62.86 62.22 59.63 61.09 61.47 61.47 60.37 56.51 55.07 59.88 60.51 61.22 60.76 61.74 61.67 61.75 62.10 61.92
62.82 63.30 63.86 65.00 64.97 64.92 64.65 64.54 62.60 61.12 61.54 63.48 63.28 61.34 60.88 61.33 61.23 60.40 60.29 60.24 59.81 60.14 61.60 63.02 62.95 62.67 61.92 61.38 60.34 60.26 61.05 61.33 61.08 57.77 55.68 57.85 60.47 61.27 61.92 62.21 61.52 61.19 61.42
62.75 60.68 62.01 63.73 63.94 64.33 64.04 63.29 62.80 61.75 60.50 61.47 59.84 59.57 58.49 57.93 59.87 59.70 60.07 60.10 59.80 60.00 61.22 61.79 61.40 63.05 62.58 62.66 61.64 61.08 59.89 58.43 58.61 58.39 56.53 57.82 57.97 59.76 61.30 61.76 61.65 61.68 62.13

GFSSE_sfc_wetblb_093.txt.gz
Wetbulb
70.43 73.26 72.29 73.16 73.22 73.59 73.37 73.56 73.37 73.30 73.50 73.89 74.06 73.90 73.98 74.00 74.13 74.18 74.09 74.03 73.87 74.61 74.25 73.76 73.29 73.11 72.66 72.24 72.52 73.31 72.92 72.55 72.18 72.52 72.63 72.82 72.09 71.69 71.67 71.53 71.20 71.03 71.41
72.08 73.44 71.77 72.53 73.01 73.38 73.49 73.52 73.68 73.51 73.65 73.86 73.90 73.93 73.72 73.92 73.97 74.18 74.06 74.03 73.95 74.48 73.80 73.41 73.23 73.06 72.56 72.52 72.82 72.29 72.13 71.99 71.85 71.70 71.97 72.22 71.87 71.46 71.24 71.21 71.01 70.65 71.08
72.43 73.64 72.84 71.64 72.46 73.05 73.47 73.59 73.89 74.02 73.91 74.06 74.00 73.82 73.89 73.89 74.10 73.95 73.94 73.88 73.95 74.23 73.55 73.31 73.13 72.83 72.62 72.45 71.96 71.84 71.91 71.29 70.97 71.20 71.65 71.00 70.92 71.01 70.91 70.65 70.52 70.63 70.43
71.99 73.81 73.49 71.45 72.12 73.00 73.23 73.54 73.85 74.18 74.19 73.91 73.95 73.72 73.50 73.98 73.94 73.81 73.39 73.32 73.55 73.73 73.56 73.23 73.08 72.84 72.63 71.96 71.47 71.39 71.11 70.85 70.36 70.52 70.74 69.84 70.13 70.67 70.57 70.20 70.53 70.63 70.02
71.11 73.35 74.11 71.06 71.67 72.65 73.01 73.24 73.53 73.70 73.57 73.44 73.44 73.42 73.83 73.86 73.80 73.77 72.91 72.95 73.32 73.83 73.63 73.30 72.74 72.56 71.76 70.91 70.65 70.57 70.56 70.14 69.79 70.06 69.58 69.62 69.75 70.16 70.03 69.84 69.59 69.45 69.46
71.08 72.44 70.25 69.97 70.85 72.11 72.79 73.08 73.26 73.23 72.74 72.91 72.87 73.32 73.79 73.50 73.55 73.27 71.91 72.78 73.10 73.43 73.24 72.89 72.12 71.55 70.59 70.09 70.14 70.03 69.74 69.49 68.81 67.20 69.47 69.12 69.48 69.54 69.88 69.37 69.42 69.31 68.85
71.19 73.11 73.13 69.06 70.35 71.79 72.47 72.68 72.17 72.49 72.28 72.43 72.59 72.88 72.17 72.97 72.11 71.45 71.76 72.18 71.97 72.49 72.34 72.04 71.52 70.59 70.05 69.55 69.47 69.10 68.73 67.40 69.24 68.29 69.38 69.32 69.45 69.56 69.36 68.59 68.27 68.10 67.92
71.58 72.99 73.61 70.17 70.22 70.81 71.74 71.67 70.85 71.40 71.74 71.83 72.08 72.24 72.55 72.14 70.90 71.56 71.52 71.33 71.69 71.38 70.89 70.91 70.29 69.92 69.49 68.99 68.51 67.99 67.58 67.16 67.95 67.11 68.99 68.19 68.59 68.75 68.78 67.84 67.58 67.51 67.17
73.26 73.50 73.66 72.37 71.48 69.63 69.70 70.33 69.63 70.21 70.96 71.09 71.06 71.06 70.72 70.65 70.01 70.94 70.75 70.39 70.24 70.72 70.54 70.17 69.70 69.00 68.80 67.46 67.73 66.97 66.25 66.13 69.14 67.38 67.62 67.17 67.88 67.77 67.76 67.36 66.61 66.29 66.54
73.61 73.88 73.56 73.39 72.56 72.44 72.38 69.22 69.12 69.30 69.78 70.38 70.24 68.90 69.22 69.00 69.37 69.15 68.92 69.72 69.58 69.82 69.68 69.25 68.76 68.35 67.62 66.50 66.75 66.06 65.66 66.61 66.90 67.23 67.22 67.14 67.34 66.58 66.33 66.39 65.70 65.33 64.84
72.66 73.37 73.44 73.00 72.90 73.10 72.74 71.75 69.72 69.52 69.49 69.12 69.66 68.43 68.15 72.09 71.65 70.60 68.87 67.99 68.28 68.06 67.86 67.93 67.15 66.88 66.39 66.10 65.28 64.99 65.00 67.33 67.36 66.42 66.98 66.30 67.39 66.38 65.64 65.14 64.73 64.37 64.23
71.22 72.00 73.19 72.99 72.59 72.96 71.85 72.86 72.03 71.93 72.01 72.09 71.96 72.01 72.13 71.69 71.46 69.89 67.96 66.19 66.61 66.88 67.01 66.99 66.31 65.51 66.29 67.73 67.27 65.42 67.46 67.09 65.60 65.42 66.22 66.35 66.95 65.97 65.11 64.33 63.76 63.35 63.56
70.74 71.51 71.85 72.56 73.25 72.84 71.67 71.73 71.67 71.83 71.38 71.70 72.32 71.55 71.17 70.86 71.11 70.91 68.52 67.05 66.64 66.63 67.42 66.68 65.48 66.65 68.08 68.08 67.63 67.71 67.03 65.34 64.99 64.37 65.24 65.61 66.39 65.47 64.64 64.26 63.50 63.24 63.58
68.73 70.40 72.17 71.72 72.56 72.64 72.42 70.90 71.47 70.99 71.50 71.06 71.43 72.60 71.47 70.61 70.51 69.30 67.76 67.33 66.58 65.90 66.83 65.71 65.50 65.41 66.26 67.16 67.61 66.98 65.71 65.00 66.19 64.66 64.85 64.34 65.20 65.09 64.61 63.85 64.04 63.38 62.64
65.16 69.45 71.96 70.64 72.04 72.00 72.56 71.51 71.11 71.07 71.10 71.63 71.28 71.20 70.63 69.57 68.99 68.44 65.99 66.74 67.11 66.05 64.62 64.28 64.48 64.62 64.50 65.84 66.00 66.19 65.18 66.04 64.64 64.94 64.91 63.07 64.00 65.07 64.37 63.59 63.45 63.52 62.19
62.41 66.96 72.75 71.47 71.57 71.79 71.66 70.94 70.88 70.54 69.98 70.69 70.60 70.48 70.37 69.76 68.68 66.89 66.34 65.61 65.43 65.52 64.79 64.37 63.99 63.55 63.84 64.17 65.92 64.86 64.56 65.15 64.75 64.32 64.07 63.44 62.57 63.68 64.06 63.95 63.46 63.64 63.32
61.64 63.82 71.68 72.90 70.37 70.92 70.34 70.07 69.64 70.00 69.70 68.69 69.59 70.83 69.68 69.45 68.15 67.11 65.22 65.39 66.99 65.12 65.85 63.85 63.75 63.69 63.17 64.04 64.27 64.53 64.76 64.31 63.32 63.17 63.50 63.48 62.87 61.32 62.65 63.80 64.52 63.58 63.13
60.98 63.22 67.47 70.98 69.81 69.41 69.18 69.72 69.05 69.52 69.53 69.05 68.27 69.17 68.61 68.28 67.15 66.15 64.09 65.68 65.16 64.79 64.51 63.27 62.71 62.12 61.96 62.72 63.32 63.03 63.62 63.42 62.99 62.84 62.88 63.01 62.95 62.12 61.62 62.59 63.63 63.64 63.51
60.23 62.41 65.92 70.36 69.54 68.09 68.39 69.10 68.58 68.83 68.34 68.63 68.98 67.82 67.22 66.84 66.67 64.94 66.39 64.52 64.62 63.10 63.39 63.70 62.25 62.06 61.21 62.77 61.99 63.55 63.03 61.52 62.01 61.90 63.00 62.66 62.67 61.72 62.40 61.81 61.85 61.87 62.45
59.79 62.71 65.50 69.13 70.43 67.73 67.74 67.58 67.07 67.25 67.54 66.53 66.54 67.02 66.06 66.06 65.53 66.16 64.81 63.71 65.10 62.50 62.23 62.66 61.42 61.75 61.98 62.12 61.36 61.17 61.67 61.96 61.54 61.45 61.84 62.68 62.30 62.76 62.20 62.84 62.33 61.25 60.62
60.37 61.94 65.08 67.28 70.10 67.39 65.65 64.48 65.07 64.68 64.50 65.10 64.92 64.83 65.34 65.10 64.26 63.93 63.28 63.55 63.55 61.25 61.58 61.72 61.40 60.36 60.36 64.11 60.67 59.50 60.90 62.29 62.28 61.07 61.95 61.67 62.05 62.76 62.45 62.85 62.22 61.73 60.76
59.97 61.43 64.56 66.21 68.63 67.03 65.42 66.56 67.52 65.96 65.76 65.17 65.29 64.28 64.52 64.17 64.08 63.20 63.42 62.78 61.91 60.85 60.73 60.35 60.83 59.43 59.79 62.22 59.69 58.88 55.67 56.94 59.78 61.17 61.03 61.10 62.95 61.85 61.72 62.85 62.27 61.99 62.01
60.02 62.12 63.74 65.69 67.69 66.87 67.62 67.81 67.00 66.00 64.06 63.13 63.69 64.15 64.32 64.26 63.57 63.32 62.92 61.92 61.03 60.83 60.60 60.35 60.92 59.78 59.23 60.95 61.79 58.77 55.00 53.07 56.63 59.73 61.16 60.48 62.39 61.17 61.75 61.66 61.89 61.92 62.61
60.43 63.10 64.51 65.66 67.60 65.76 67.84 67.29 65.86 62.46 61.05 62.72 63.49 63.69 62.75 62.66 62.51 62.83 62.34 61.69 60.70 60.85 60.09 60.30 61.10 60.50 61.03 59.17 61.09 62.17 61.60 59.99 55.66 54.02 58.51 60.18 60.80 60.58 62.25 61.53 61.87 61.78 62.30
60.13 62.63 64.76 65.57 66.85 66.64 67.83 67.40 66.10 64.61 64.77 64.06 63.64 63.75 63.05 62.09 62.00 62.19 61.66 61.09 60.44 60.34 60.39 60.43 60.49 61.57 61.47 61.17 60.84 60.71 61.32 60.85 61.02 57.64 54.50 57.25 59.62 60.35 61.27 62.21 62.26 62.55 62.66
59.61 64.12 65.01 65.18 65.84 66.45 66.84 66.65 66.15 64.95 64.29 62.37 63.33 63.08 62.08 61.43 61.06 61.05 60.97 60.82 60.63 60.27 60.46 60.50 61.50 61.35 61.79 62.76 62.56 61.78 60.36 58.28 58.48 58.35 57.05 57.82 58.24 59.73 61.28 62.50 62.63 62.61 62.81

GFSSE_sfc_wetblb_096.txt.gz
Wetbulb
70.75 72.06 72.57 73.27 73.62 73.86 73.73 73.33 73.23 73.29 73.57 73.94 74.08 73.95 74.18 74.18 74.20 74.04 74.17 74.06 74.53 74.92 74.70 73.93 73.63 73.21 72.73 72.83 73.04 73.26 72.73 72.36 72.09 72.59 72.82 72.98 72.36 71.98 71.92 71.69 71.33 70.27 71.69
71.59 72.43 72.13 72.98 73.49 73.57 73.86 73.63 73.16 73.30 73.61 73.94 73.88 73.78 73.92 73.94 73.90 74.04 73.97 73.99 74.51 74.82 74.15 73.70 73.31 72.98 72.86 72.85 72.50 72.42 72.12 71.92 71.51 71.87 72.21 72.63 71.91 71.70 71.57 71.61 70.95 70.54 71.19
71.12 72.44 72.48 72.17 73.07 73.44 73.59 73.98 73.56 73.56 73.82 73.94 73.95 73.82 73.85 73.92 73.98 73.91 73.64 73.91 74.16 74.50 74.00 73.30 73.20 72.83 72.92 72.45 72.03 71.91 71.84 71.45 70.96 70.88 71.15 69.19 69.53 71.47 71.16 71.07 71.02 70.91 70.63
71.69 71.60 72.17 71.81 72.48 73.22 73.26 73.48 73.92 74.07 74.00 73.83 73.98 73.82 73.82 74.00 73.23 73.50 73.61 73.59 73.68 73.92 73.93 73.35 73.10 72.88 72.51 71.93 71.55 71.38 71.25 70.90 70.40 70.50 68.88 69.02 69.27 70.88 70.95 70.59 70.77 70.52 70.42
71.44 71.62 72.04 71.16 71.89 72.95 73.08 73.23 73.65 73.76 73.60 73.43 73.45 73.88 73.72 73.61 73.57 73.65 72.92 73.26 73.36 73.77 73.83 73.37 73.21 72.71 71.63 70.90 70.73 70.67 70.50 70.06 69.35 69.16 68.29 68.18 68.20 70.04 70.48 70.07 69.87 70.13 69.22
71.01 72.17 69.50 70.48 71.32 72.52 72.93 73.08 73.20 73.23 72.80 72.93 72.91 73.33 73.82 73.48 73.48 72.94 72.52 72.93 73.33 72.68 73.26 73.30 72.97 71.75 70.52 70.00 69.97 69.94 69.49 68.97 68.48 67.17 67.59 68.55 67.37 69.97 70.02 69.73 69.48 69.32 68.92
71.26 72.29 70.86 69.66 70.96 72.17 72.73 73.02 72.89 72.63 72.21 72.32 72.63 72.82 73.05 73.12 72.88 71.95 71.60 72.23 72.43 72.35 72.65 72.16 71.87 70.77 70.17 69.56 69.69 69.27 68.52 67.91 67.39 66.79 67.76 67.44 67.85 69.75 69.88 68.98 68.92 68.70 68.22
73.18 73.10 71.18 70.33 70.77 71.23 71.99 72.05 71.72 71.60 71.84 71.90 72.12 72.37 72.53 72.38 71.28 71.33 71.45 71.38 71.68 71.55 71.55 70.75 70.55 70.21 69.79 69.39 69.09 68.36 67.54 66.31 67.81 66.74 67.20 66.92 68.56 69.31 69.13 68.52 68.01 67.73 67.27
73.57 73.17 71.13 70.53 70.69 70.20 70.12 70.08 69.66 70.31 71.14 71.37 71.46 71.45 71.46 70.59 69.93 70.90 70.92 70.86 70.43 70.37 70.08 70.54 69.88 69.36 69.24 68.90 68.27 67.42 65.99 67.00 66.14 66.69 66.72 66.53 68.86 68.63 68.45 67.64 67.21 67.19 66.63
73.38 73.68 71.69 71.35 70.90 70.55 70.76 69.15 68.96 69.53 70.17 70.77 70.96 70.56 70.15 69.83 69.24 69.64 69.89 69.70 69.52 69.75 69.43 69.33 68.59 68.18 67.49 67.86 67.30 65.70 65.91 66.87 66.65 65.80 65.88 65.82 68.05 68.17 67.97 67.41 66.59 66.53 66.12
72.65 73.02 72.95 71.94 71.45 71.38 71.08 70.52 69.49 69.73 69.66 70.05 70.44 69.53 67.94 70.83 70.20 70.02 68.80 67.97 68.10 68.19 67.95 67.63 67.24 66.81 65.71 65.47 66.34 65.80 65.73 64.88 65.59 65.33 65.20 66.45 67.50 67.37 67.11 66.24 66.32 65.04 63.89
70.49 72.11 72.07 72.17 71.54 71.74 71.17 70.72 70.42 70.72 70.46 70.62 70.96 70.96 70.46 70.40 69.98 69.51 68.06 66.77 67.31 67.08 67.08 67.04 66.74 66.03 65.63 65.53 64.14 64.28 64.57 65.88 64.66 64.16 64.46 66.26 67.24 66.42 65.54 64.75 64.42 64.46 63.13
70.28 70.81 71.83 71.42 72.06 71.92 70.19 71.10 70.21 70.39 70.07 70.55 70.89 70.88 71.05 69.78 69.41 68.59 66.79 66.46 66.55 66.57 66.19 66.20 65.89 65.80 66.06 65.83 64.76 64.39 64.97 63.91 64.36 64.42 65.14 65.75 66.67 65.90 64.94 64.13 63.36 63.32 63.53
68.90 70.68 70.97 71.59 71.82 72.04 71.21 70.84 70.30 69.76 69.78 70.03 70.22 70.48 69.79 68.71 68.70 67.74 66.77 65.70 65.19 65.16 64.87 65.60 64.99 64.67 64.81 65.78 65.25 65.21 64.10 63.63 63.64 64.14 64.52 64.79 65.54 65.85 65.11 64.32 63.63 64.11 63.55
62.04 69.38 70.74 70.67 71.27 71.81 71.50 70.31 70.76 69.72 69.62 70.15 70.19 70.53 70.02 68.53 68.08 67.50 66.73 65.90 64.65 64.61 64.80 64.61 63.85 63.20 63.97 64.12 64.82 64.51 63.85 63.41 63.21 63.75 63.82 63.60 64.07 64.96 64.63 64.10 63.88 63.54 62.85
60.03 64.03 70.83 70.15 71.14 71.09 70.64 70.65 69.92 70.79 70.79 70.25 70.05 69.77 69.75 68.81 68.29 67.12 66.08 65.20 65.11 64.84 65.09 64.37 63.78 62.45 63.27 63.67 63.73 64.10 63.39 63.61 63.27 63.02 62.39 62.22 62.94 63.62 63.98 63.53 63.87 63.02 62.87
58.31 61.81 70.59 70.07 70.59 70.78 70.30 70.61 70.26 69.70 69.45 69.26 69.41 69.57 69.10 68.48 67.61 66.31 65.58 65.01 64.86 65.08 64.04 63.58 63.15 63.24 62.81 63.34 62.70 62.92 63.69 62.94 62.21 61.87 61.26 61.60 61.52 61.79 62.59 63.57 64.17 63.81 62.97
57.72 59.89 69.52 71.02 70.15 70.20 70.20 69.85 68.34 69.65 68.94 68.34 68.56 69.19 68.91 68.34 67.42 66.06 65.34 64.79 64.83 64.41 63.94 63.29 62.86 62.64 62.02 61.64 60.86 62.00 61.96 60.95 61.03 60.69 60.85 60.77 60.66 60.78 61.40 62.22 63.38 63.59 63.67
57.51 60.17 63.79 70.70 70.10 69.38 69.46 68.11 67.58 68.28 68.53 67.90 67.74 67.56 68.24 67.94 66.87 65.71 64.66 64.72 64.51 64.03 63.69 62.80 62.32 62.12 61.08 61.01 60.79 61.42 60.65 59.87 59.17 60.88 60.15 60.19 60.22 59.88 59.75 61.56 61.92 62.16 62.76
58.22 58.73 63.20 70.49 69.84 69.05 68.93 67.60 67.46 66.83 66.82 68.03 67.56 66.86 66.83 67.03 66.57 65.68 64.68 64.16 64.31 63.17 62.85 62.42 61.19 61.66 61.12 60.65 62.32 61.01 58.84 58.31 58.29 59.08 59.76 60.48 59.82 59.73 59.74 60.51 60.78 60.40 60.73
59.62 60.14 62.86 67.18 69.22 68.20 67.12 65.85 65.41 64.72 65.40 65.76 66.85 66.61 66.40 65.68 65.16 65.08 64.19 63.58 63.48 62.53 62.23 62.15 61.20 60.34 60.12 61.01 59.41 57.94 58.19 57.66 57.17 57.21 59.94 59.25 59.22 59.49 59.52 60.86 60.20 59.54 59.51
58.66 59.94 61.98 65.86 68.86 67.60 66.94 66.47 65.62 64.68 64.97 64.99 64.74 64.90 65.08 64.81 64.48 64.31 64.06 63.12 62.69 62.07 61.65 61.60 60.87 59.57 59.98 60.65 57.41 56.17 53.31 55.18 57.54 58.29 59.13 59.33 59.15 59.83 59.40 60.12 59.66 59.22 58.82
58.87 60.55 61.59 64.06 68.78 68.19 67.17 65.91 65.58 65.46 65.40 64.39 63.72 63.02 63.65 64.30 63.92 63.53 63.46 62.96 62.42 62.06 61.05 61.15 60.56 59.25 58.30 59.44 59.29 55.98 52.10 50.53 53.54 55.95 57.35 56.59 58.60 59.24 58.85 59.34 60.15 59.46 58.90
58.91 61.06 61.10 62.94 64.78 68.17 66.66 65.29 64.92 64.01 62.09 62.44 62.59 62.81 63.05 63.56 63.42 63.43 62.92 62.73 62.17 61.64 61.03 60.79 61.14 60.05 59.20 57.24 58.80 58.71 56.73 56.03 51.96 50.65 55.34 56.89 57.96 57.44 57.84 58.13 58.60 59.01 58.60
57.92 60.97 61.89 62.66 63.82 67.06 66.03 65.85 65.30 64.07 63.05 62.58 62.59 62.30 62.41 62.53 62.78 62.65 62.74 62.38 61.47 61.31 61.01 60.80 60.56 59.93 59.77 58.44 57.90 57.27 56.00 56.91 55.97 52.85 50.45 52.64 55.89 56.88 57.01 57.67 57.16 57.34 58.42
58.11 60.71 62.40 62.81 64.35 66.31 66.00 65.87 65.78 63.30 63.00 62.13 61.50 61.76 61.38 61.44 61.51 61.83 62.06 61.80 61.00 60.81 60.59 60.53 60.67 60.28 59.69 59.23 58.82 58.17 56.46 55.46 54.67 54.56 52.40 52.82 53.46 55.34 57.07 57.36 57.31 57.94 57.99

GFSSE_sfc_wetblb_099.txt.gz
Wetbulb
69.41 71.57 72.49 73.32 73.25 73.06 72.90 72.89 72.80 73.00 73.40 73.93 73.97 73.68 73.78 73.90 73.94 73.87 74.16 74.54 74.77 74.81 74.56 73.96 74.24 73.99 74.19 73.29 73.43 73.16 72.83 71.95 72.15 72.30 72.91 73.29 72.45 72.33 72.22 71.91 71.39 70.43 71.95
70.38 71.39 71.90 72.91 73.29 73.27 73.27 72.85 72.89 73.16 73.60 73.98 73.89 73.59 73.50 73.68 73.84 73.85 74.18 74.42 74.69 74.76 73.96 73.52 73.44 73.22 73.24 72.93 72.87 72.47 72.31 71.22 71.34 71.76 72.22 72.65 72.23 72.25 71.77 71.55 71.03 70.61 71.44
69.85 71.43 71.81 72.11 73.08 73.50 73.42 73.22 73.16 73.61 74.02 74.01 73.75 73.68 73.67 73.91 73.81 73.65 73.69 74.00 74.22 74.63 73.79 73.62 73.27 73.29 72.68 72.41 72.18 72.07 71.78 71.00 70.90 70.64 71.07 68.91 69.56 71.80 71.61 71.34 71.08 71.19 71.28
70.72 71.13 71.46 71.68 72.43 73.14 73.25 73.08 73.23 73.78 73.97 73.95 73.83 73.73 73.92 73.93 73.86 73.74 73.36 73.40 74.16 74.40 73.79 73.54 73.19 72.67 72.20 71.70 71.45 71.34 71.10 70.68 70.26 70.21 68.78 68.92 69.77 71.36 71.32 70.96 70.91 71.01 70.87
69.44 70.77 71.26 71.20 71.76 72.51 72.72 73.01 73.00 73.29 73.28 73.42 73.48 73.91 74.01 73.90 73.98 73.74 73.05 73.04 73.75 73.73 73.91 73.39 73.12 72.25 71.42 70.64 70.56 70.49 70.24 70.06 69.28 68.80 67.31 67.62 68.49 70.07 70.76 70.31 70.37 70.14 69.51
68.63 70.53 69.52 70.24 71.28 72.19 72.56 72.76 72.93 72.77 72.33 72.58 72.91 73.45 73.72 73.74 73.76 73.44 72.72 73.16 73.64 73.43 73.56 73.74 72.97 71.62 70.42 70.01 70.00 69.93 69.50 68.86 67.77 66.86 67.16 68.47 67.73 70.11 70.11 70.12 69.46 69.18 68.29
68.30 69.19 69.43 69.43 70.89 71.88 72.54 72.74 72.58 72.36 71.98 72.11 72.34 72.69 73.10 73.36 73.21 72.52 72.07 72.42 72.40 72.90 73.03 72.39 71.77 70.65 69.97 69.49 69.48 68.99 68.22 67.89 66.34 66.14 66.34 66.74 67.82 69.96 69.88 69.24 69.25 68.69 68.12
69.22 69.02 69.53 70.34 70.67 71.12 71.70 71.65 71.37 71.35 71.38 71.17 71.92 72.24 72.75 72.47 72.02 71.72 71.60 71.26 71.72 71.80 71.45 71.21 70.76 70.16 69.79 69.40 68.97 67.82 66.78 67.40 67.19 66.12 66.78 66.54 68.86 69.71 69.39 68.55 68.01 68.02 67.06
70.10 68.84 68.85 69.32 70.42 70.13 69.80 69.95 70.18 70.57 70.86 70.48 71.01 71.17 71.59 70.93 70.23 70.78 70.91 71.05 71.04 70.90 70.16 70.21 69.90 69.47 69.48 68.71 67.25 66.68 65.93 67.07 65.84 66.36 66.57 67.02 68.81 69.38 68.65 68.14 67.30 66.46 66.01
69.66 68.49 67.95 68.11 68.49 68.13 69.42 68.67 68.96 69.64 69.46 70.10 70.72 70.53 69.97 69.57 69.59 69.97 69.33 69.59 69.57 70.21 70.35 69.16 68.56 68.22 67.97 66.70 65.62 66.14 65.64 66.24 64.93 65.14 65.53 66.56 68.30 68.71 68.30 67.34 66.76 66.02 65.68
69.44 68.63 68.29 68.15 68.04 67.91 68.09 68.93 68.98 69.36 69.64 69.81 70.50 69.81 68.15 69.30 68.85 69.17 68.84 68.51 68.85 68.58 67.81 68.24 67.68 67.17 66.18 65.78 64.85 64.44 65.33 64.81 64.27 64.09 65.55 66.90 68.31 68.35 67.96 67.39 66.86 65.76 65.20
67.48 68.74 68.46 68.28 68.02 68.13 69.81 68.56 67.46 69.03 68.93 69.86 70.52 69.92 68.36 68.34 68.31 69.14 67.73 66.85 66.90 66.76 66.90 66.76 66.49 66.45 66.56 65.93 64.52 64.10 63.56 64.14 64.01 63.94 64.70 66.42 67.99 68.06 67.21 65.91 65.57 64.57 63.45
68.37 69.73 68.98 69.22 68.54 68.35 68.52 67.93 68.43 68.38 68.34 68.53 68.65 68.90 68.22 68.65 67.50 66.19 65.06 65.85 65.75 66.18 65.39 64.62 64.41 65.48 65.64 65.53 64.96 63.60 63.63 63.52 63.33 64.18 64.69 65.69 67.16 67.00 66.06 65.12 64.36 63.57 62.84
67.46 69.39 69.18 69.13 69.33 68.70 67.86 67.73 67.81 68.04 67.82 68.02 68.61 68.27 68.52 66.42 65.63 64.99 64.61 64.61 64.89 64.91 64.19 63.49 64.39 65.21 65.10 65.81 65.12 64.21 63.12 63.45 63.02 63.56 64.37 64.78 65.81 66.08 65.09 64.47 63.58 63.64 63.10
65.21 68.62 69.07 68.78 69.35 69.48 67.57 68.19 67.52 67.78 67.67 67.92 67.97 68.01 67.75 66.22 65.82 65.23 64.33 64.30 64.23 64.21 63.46 62.69 63.25 62.86 63.49 64.25 64.54 63.91 62.45 62.66 63.20 63.45 63.84 63.79 64.33 65.35 64.88 64.17 64.38 64.17 63.45
54.91 67.66 69.29 68.95 69.24 69.23 69.02 67.47 67.37 67.46 67.18 67.81 67.89 68.06 66.85 66.67 66.21 65.44 64.22 63.49 63.18 63.72 63.23 63.42 62.38 61.98 62.85 63.63 63.77 63.64 63.42 62.83 62.92 63.17 63.55 63.02 62.76 63.94 64.45 64.38 64.55 63.78 63.26
53.17 57.56 68.20 68.91 69.35 69.38 68.86 67.80 67.12 66.94 67.31 67.16 67.64 67.76 66.92 66.76 66.27 65.18 64.69 63.74 63.90 63.49 63.87 63.20 62.66 62.17 62.09 63.32 62.76 63.25 63.17 63.03 62.28 62.42 62.15 61.80 61.71 61.69 62.63 64.06 64.00 63.50 63.00
53.28 54.42 68.28 69.25 68.88 69.24 68.75 68.22 67.53 66.63 66.15 65.84 66.90 67.47 66.70 66.30 66.03 64.71 64.03 63.34 63.83 63.64 63.80 63.01 62.65 61.45 61.12 61.68 61.76 61.78 62.23 62.51 61.95 61.75 61.79 61.22 60.46 60.49 60.81 62.11 62.99 62.74 63.10
54.29 53.81 66.27 68.64 68.28 68.33 68.11 68.27 67.03 66.56 65.68 65.32 65.09 66.58 66.41 66.07 65.67 64.66 63.88 64.03 64.34 63.88 63.28 62.78 62.40 61.65 60.68 60.98 61.27 61.04 61.45 60.63 60.61 60.96 60.48 60.42 59.44 58.79 58.93 61.12 61.50 61.67 62.19
55.27 54.64 63.50 68.54 68.01 67.82 67.86 66.63 65.85 66.12 67.01 65.62 64.37 65.17 65.89 66.00 64.82 63.83 63.23 63.25 63.32 62.84 62.61 62.44 61.88 62.22 61.76 61.14 61.22 60.54 60.76 59.67 60.03 59.53 59.25 60.00 59.26 58.70 58.58 59.94 60.38 60.28 60.54
53.83 54.74 60.86 67.73 67.47 67.76 66.51 65.37 64.74 64.35 65.67 65.87 66.07 64.58 66.10 66.39 65.36 64.56 64.02 63.64 63.42 62.60 61.76 62.06 61.57 60.98 59.98 61.29 59.02 58.34 58.43 57.92 57.82 59.06 58.89 58.51 58.04 58.04 58.52 59.89 60.10 59.20 60.02
52.02 53.25 60.73 67.72 67.39 67.30 66.74 66.13 65.27 65.14 65.13 65.23 65.49 65.40 65.52 65.32 65.18 64.57 63.86 63.31 63.22 62.43 61.95 61.53 60.88 59.98 60.03 60.73 57.18 56.84 53.63 55.12 55.55 57.94 58.06 58.06 57.21 58.19 58.95 59.62 59.47 58.42 58.53
52.53 53.07 63.25 67.47 67.14 66.73 66.22 65.27 63.89 63.36 64.34 63.74 63.91 64.16 64.33 64.78 64.43 63.96 63.61 63.14 63.03 62.71 61.66 61.59 60.84 60.03 58.37 59.54 59.40 55.98 51.97 50.62 53.42 55.39 56.45 57.01 56.72 57.06 58.21 59.11 58.83 58.85 58.28
52.06 53.24 63.00 67.31 66.53 65.80 65.40 64.65 63.04 62.46 61.64 63.10 63.46 63.58 63.60 64.09 63.69 63.40 63.48 62.88 62.68 62.41 61.48 61.41 61.21 60.23 59.48 57.64 59.31 59.40 56.12 55.64 51.62 51.09 55.53 56.65 57.19 57.23 56.58 58.14 58.40 58.36 58.19
52.85 53.50 60.20 66.73 66.16 65.48 64.94 64.12 63.31 62.15 62.10 62.96 62.87 62.12 62.59 62.70 63.30 62.63 62.58 62.63 62.12 61.83 61.38 61.10 60.80 60.14 59.96 58.84 58.42 57.53 55.08 55.05 53.93 52.78 50.25 52.59 55.12 57.45 57.64 57.07 58.38 57.89 57.49
56.34 52.83 55.24 63.91 65.97 64.98 64.04 63.35 62.85 62.32 61.58 60.94 60.68 60.74 61.43 61.50 61.87 62.11 62.41 62.30 62.31 62.00 61.26 61.11 61.06 59.98 59.88 59.38 59.42 58.18 55.78 54.31 53.19 53.04 51.48 51.90 52.62 54.07 56.08 56.76 56.40 57.51 57.51

GFSSE_sfc_wetblb_105.txt.gz
Wetbulb
67.96 70.67 72.08 72.95 73.17 72.82 72.68 72.33 72.30 72.68 73.19 73.79 73.79 73.89 74.05 74.22 74.15 74.17 74.13 74.01 74.31 74.37 74.00 73.60 74.18 74.23 73.53 73.36 73.70 72.85 72.64 72.54 72.36 72.51 72.40 72.64 72.42 72.44 72.13 71.80 71.51 70.23 71.89
69.18 71.41 71.63 72.69 73.15 73.02 72.81 72.51 72.51 72.69 73.21 73.57 73.73 73.65 73.53 73.81 74.04 74.26 74.17 74.28 74.23 74.48 73.57 73.50 74.15 73.51 72.96 72.66 72.61 72.20 72.15 71.91 71.67 71.95 72.15 72.52 72.32 71.65 71.57 71.48 71.07 70.38 71.39
69.70 71.23 71.68 72.05 72.84 72.82 72.96 72.82 72.98 73.30 73.42 73.33 73.50 73.60 73.68 73.93 73.98 73.98 73.88 73.95 73.84 74.15 73.40 73.40 73.36 73.18 72.91 72.39 72.16 71.91 71.96 71.53 71.19 71.47 71.84 69.81 69.59 71.38 71.34 71.24 71.22 71.13 71.52
70.37 70.95 71.34 71.88 72.40 72.63 72.55 72.74 72.98 73.53 73.36 73.22 73.33 73.57 73.67 73.89 74.12 73.92 73.69 73.40 73.65 73.97 73.51 73.46 73.28 72.95 72.36 71.80 71.60 71.61 71.33 71.07 70.44 70.34 68.77 68.49 69.18 71.16 71.26 70.64 70.81 71.09 70.99
70.00 70.80 71.03 71.38 71.79 72.30 72.40 72.44 72.68 72.92 72.55 72.62 73.07 73.68 73.80 74.00 74.10 73.99 73.35 73.16 73.61 74.09 73.31 72.63 72.66 72.34 71.50 70.79 70.69 70.55 70.44 69.75 69.31 68.42 67.19 68.34 68.84 70.30 71.00 70.77 70.37 70.38 70.20
69.58 70.39 70.34 70.45 71.20 71.89 72.25 72.36 72.65 72.30 72.00 72.08 72.39 73.39 73.73 73.81 74.11 73.63 72.95 73.33 73.69 73.87 73.23 72.39 71.83 71.31 70.32 70.00 70.02 69.64 69.15 68.66 67.68 66.42 66.90 69.14 67.76 70.42 70.51 70.10 69.76 69.83 69.84
68.53 69.37 70.07 69.84 70.75 71.64 72.26 72.36 72.15 71.66 71.34 71.73 72.20 72.58 73.27 73.35 73.29 72.70 72.10 72.87 73.06 72.90 73.10 72.24 71.51 70.47 69.89 69.48 69.43 68.93 68.15 67.73 65.70 65.50 65.25 66.27 67.46 69.97 70.18 69.48 69.21 69.21 68.78
67.99 69.15 69.95 70.58 70.78 70.98 71.53 71.42 71.12 70.97 71.05 71.32 71.61 72.08 72.84 72.80 72.14 72.16 71.63 71.83 72.14 72.01 71.50 71.35 70.36 69.82 69.45 69.27 68.51 67.46 66.97 67.10 66.03 64.94 65.00 66.06 69.13 70.01 69.78 68.59 68.54 68.40 67.87
67.53 68.40 69.51 70.18 70.34 69.82 69.60 69.69 69.44 70.12 70.50 70.61 70.97 71.21 71.64 71.06 70.78 71.27 71.35 71.34 71.49 71.14 70.62 70.30 69.69 69.40 69.28 68.74 67.58 66.68 66.21 66.52 64.66 65.08 65.67 66.14 69.40 69.63 69.45 68.16 67.62 67.11 66.45
65.77 67.14 68.31 69.13 70.17 69.75 69.40 68.88 68.92 69.28 69.55 69.73 70.23 70.03 69.66 69.91 70.16 70.49 70.24 70.36 70.30 69.56 69.61 69.78 69.20 68.93 68.77 67.67 66.81 66.07 65.78 66.05 64.55 64.44 64.22 65.70 69.12 69.55 68.97 67.52 66.95 66.24 65.62
64.99 65.34 67.41 68.24 68.88 69.08 69.17 69.35 69.38 69.80 69.19 69.15 69.78 69.35 68.16 69.80 69.51 69.66 69.21 68.94 69.00 68.87 68.99 68.98 68.46 67.68 67.39 66.65 66.10 65.96 65.80 64.84 64.55 64.15 63.51 66.27 68.94 69.26 68.68 67.13 66.34 65.74 65.20
63.85 64.48 66.15 67.50 67.39 67.50 68.40 69.19 69.86 69.76 69.01 68.29 69.30 69.31 69.71 68.38 68.38 68.94 68.16 67.95 67.89 67.53 67.73 67.93 67.30 66.54 66.23 65.25 64.75 65.71 65.04 64.53 63.82 63.77 63.88 66.80 68.02 68.72 68.28 66.95 66.17 65.47 64.91
65.07 65.07 65.88 66.56 66.90 66.92 67.59 68.15 68.31 68.47 67.11 66.85 67.28 67.55 69.06 68.29 67.68 67.77 66.68 66.62 66.53 67.03 65.25 65.67 65.46 64.64 63.74 64.20 64.20 64.12 63.86 64.34 64.17 63.68 64.43 65.61 67.67 68.85 67.54 66.81 66.09 65.33 64.48
65.51 65.70 66.09 66.07 66.49 66.78 67.37 67.66 68.08 68.31 66.76 67.19 67.27 67.68 68.25 68.02 67.36 66.75 66.14 64.90 64.75 64.41 63.19 62.85 62.44 62.45 62.94 63.10 63.81 63.69 63.36 63.46 63.05 63.70 63.66 64.36 66.49 68.62 68.03 66.72 65.76 65.01 64.32
64.15 65.98 65.80 65.98 66.03 66.51 66.56 66.81 67.07 67.49 67.42 67.36 67.33 67.90 68.22 68.38 67.24 65.97 64.72 64.85 64.36 63.18 62.86 61.77 61.88 61.37 61.73 62.37 62.70 63.44 62.89 63.01 63.63 63.73 63.29 63.38 64.91 67.16 68.06 66.82 65.88 64.87 64.15
62.38 65.87 66.77 66.00 66.09 66.32 66.02 66.09 66.12 66.72 66.92 66.63 66.95 67.42 68.20 68.27 66.83 65.65 64.43 64.43 64.52 63.15 62.41 62.29 61.06 60.96 61.25 61.77 61.80 62.68 62.90 63.07 63.62 63.62 63.65 63.29 62.92 65.01 66.44 66.56 65.75 64.42 63.85
56.12 65.39 66.77 66.88 66.81 66.38 66.25 65.80 65.82 66.34 66.61 66.12 66.54 67.52 68.11 67.68 65.22 64.64 64.50 64.40 64.52 63.45 61.74 61.38 60.20 60.62 61.40 61.31 61.42 62.46 62.69 62.90 63.06 63.30 63.52 63.27 62.92 62.42 63.64 65.04 65.21 64.41 63.55
49.09 58.96 66.68 68.11 67.23 66.74 66.41 66.31 66.21 66.23 66.11 66.38 66.47 67.12 67.66 67.21 64.89 63.83 63.64 64.21 64.45 63.34 61.53 60.94 60.70 60.54 61.45 61.75 61.01 61.69 62.22 62.45 62.84 62.95 63.17 63.04 62.29 62.00 61.65 62.70 63.62 63.88 64.00
49.72 50.51 60.89 67.59 67.23 67.39 66.87 66.61 66.56 65.98 66.16 66.07 66.29 66.49 66.97 66.54 64.92 64.11 63.15 63.82 63.61 63.05 62.15 60.91 61.29 61.03 60.45 60.80 61.06 61.45 61.74 61.95 62.30 63.06 62.24 62.25 61.60 61.06 60.54 61.35 61.80 61.96 62.78
49.16 49.72 53.38 65.42 67.48 67.64 67.48 66.40 65.95 65.52 65.95 66.00 66.13 66.18 65.82 66.22 64.88 64.18 63.01 63.11 63.07 62.68 62.59 62.31 61.18 61.35 60.69 60.54 60.99 60.81 61.14 61.55 62.14 62.23 61.87 62.05 60.90 59.80 59.26 59.77 60.75 60.48 60.79
47.05 48.22 52.04 61.06 66.63 67.16 66.79 65.88 65.30 64.96 65.46 65.31 65.80 66.07 65.32 65.71 64.70 64.20 63.73 63.45 63.34 62.19 62.31 62.53 61.70 60.56 59.96 60.46 59.56 59.39 60.21 60.99 61.19 61.72 61.93 61.05 60.36 59.33 58.86 59.42 59.01 58.96 59.57
44.84 47.11 50.22 59.64 65.05 66.67 67.00 66.81 66.22 65.70 65.44 65.47 65.64 65.57 65.69 64.99 64.56 64.55 63.96 63.22 63.34 62.53 61.96 62.18 61.51 60.59 60.46 60.62 58.30 57.04 54.48 55.53 58.56 60.42 60.94 60.57 59.90 59.07 58.13 58.50 58.30 57.30 57.55
43.80 43.32 48.55 57.47 63.00 66.17 67.04 66.63 63.28 62.81 63.29 63.73 64.11 65.04 65.48 65.08 64.50 64.21 64.12 63.82 63.52 63.39 62.25 62.18 61.69 60.56 59.26 60.59 60.40 57.21 53.39 51.96 54.54 57.66 58.16 59.34 58.87 57.88 58.14 57.93 58.10 58.18 57.41
51.50 52.06 48.38 53.48 62.16 65.28 66.57 65.71 64.02 63.61 62.98 64.04 64.41 64.90 65.62 65.44 64.84 64.62 63.83 63.67 63.55 63.41 62.44 62.10 62.26 61.25 60.27 58.52 60.03 59.95 57.41 55.86 53.25 51.56 56.35 57.14 57.83 57.14 56.97 57.50 58.05 57.99 57.71
51.08 53.66 54.12 50.93 60.26 64.22 66.04 65.72 64.45 63.42 63.64 62.77 63.81 63.58 64.43 64.54 64.32 64.48 63.91 63.53 63.27 63.23 62.52 61.93 61.62 61.05 60.96 59.73 59.06 58.32 57.69 56.68 56.12 53.86 52.02 53.86 55.58 56.54 56.93 57.14 57.76 57.88 57.91
48.40 49.53 54.33 58.62 61.32 64.54 65.74 65.35 64.14 63.41 62.53 62.44 62.92 63.04 63.25 63.34 63.79 63.79 63.69 63.56 63.24 62.99 62.31 62.09 62.02 61.35 60.75 60.38 60.01 59.00 57.86 55.28 54.20 54.26 53.04 53.84 53.91 55.08 56.38 56.74 56.87 57.32 57.37

GFSSE_sfc_wetblb_108.txt.gz
Wetbulb
66.77 70.44 72.26 73.07 73.31 72.73 72.40 72.46 72.43 72.75 73.66 74.10 74.21 74.11 73.75 73.84 73.79 73.81 73.96 74.09 74.49 74.51 74.33 73.93 74.34 74.21 74.51 74.24 73.86 73.27 73.12 72.97 72.55 73.04 72.88 73.02 72.75 72.50 71.87 72.11 71.67 70.62 71.96
68.20 70.94 71.79 72.71 73.00 72.85 72.60 72.45 72.54 72.81 73.44 74.16 74.15 74.05 73.74 73.80 73.73 73.81 73.91 74.04 74.24 74.56 73.60 73.69 74.09 73.69 73.56 73.92 72.88 72.59 72.74 71.85 71.96 72.14 72.53 72.62 72.70 72.25 71.89 71.46 71.34 71.19 71.65
69.14 70.71 71.54 72.03 72.80 72.85 72.85 72.77 72.90 73.36 73.65 73.83 73.68 73.85 73.86 73.90 74.00 73.94 73.97 73.86 74.05 74.09 73.86 73.41 73.38 72.99 72.89 72.59 72.32 72.40 72.04 71.71 71.43 71.53 71.93 70.15 70.18 71.51 71.67 71.61 71.46 71.66 71.43
69.80 70.44 71.25 71.71 72.33 72.59 72.50 72.73 72.78 73.57 73.57 73.39 73.65 73.74 73.92 74.02 74.06 73.96 73.62 73.37 73.59 74.01 73.94 73.41 73.14 72.92 72.35 71.96 71.74 71.70 71.60 71.25 70.79 70.17 68.75 69.41 69.84 71.24 71.23 70.99 71.40 71.39 70.95
69.41 70.21 70.98 71.46 71.73 72.32 72.42 72.50 72.68 72.48 72.47 72.84 73.09 73.80 73.97 74.02 74.06 73.88 73.09 73.08 73.58 74.15 73.76 73.37 73.09 72.43 71.66 71.00 70.93 70.89 70.59 70.06 69.51 68.81 68.51 69.11 69.41 70.44 70.94 70.86 70.88 70.78 70.43
69.13 70.08 70.18 70.63 71.28 72.10 72.29 72.52 72.55 72.04 71.66 72.08 72.71 73.39 73.77 74.10 73.96 73.41 72.77 73.10 73.60 73.68 72.59 72.12 72.39 71.81 70.46 70.04 70.17 70.03 69.36 68.92 68.04 66.99 68.23 69.39 68.54 70.53 70.59 70.31 69.99 69.85 70.05
68.76 69.32 70.18 69.69 70.90 71.81 72.41 72.59 72.14 71.46 71.21 71.66 72.36 72.80 73.27 73.62 73.66 72.88 72.50 72.86 72.81 72.87 72.32 71.29 71.95 70.59 69.99 69.72 69.63 68.91 68.33 67.98 66.47 66.49 67.93 67.55 68.18 70.28 70.45 69.80 69.65 69.83 69.61
68.09 68.72 69.62 70.47 70.63 70.94 71.54 71.66 70.92 70.78 70.75 71.24 71.83 72.14 72.72 72.81 72.46 72.19 71.82 72.19 72.11 72.15 71.58 71.36 70.46 70.00 69.65 69.22 68.80 67.71 67.33 67.44 66.57 65.77 66.09 67.21 69.60 70.11 70.13 69.45 69.16 68.63 68.47
67.26 68.87 69.46 69.66 70.38 69.89 69.62 69.67 69.51 69.96 70.36 70.65 70.94 71.24 71.64 71.08 71.03 71.38 71.54 71.49 71.36 70.71 70.91 70.51 69.74 69.38 69.46 68.64 68.00 66.81 66.32 66.59 65.74 65.71 66.05 66.13 69.67 69.95 69.69 69.15 68.59 68.06 67.60
66.50 68.23 68.58 69.45 68.99 68.95 69.35 68.65 68.86 69.33 69.46 69.69 70.18 70.25 69.83 69.73 70.25 70.44 70.19 70.45 70.45 70.53 70.34 69.72 69.11 68.97 68.70 67.54 67.08 66.14 65.87 66.27 65.01 65.42 65.90 66.13 68.69 69.91 69.25 68.21 68.02 67.18 66.50
64.35 66.63 67.82 67.97 68.61 67.80 68.86 69.06 69.37 69.76 69.22 69.17 69.76 69.28 68.13 69.71 69.37 69.73 69.50 69.18 69.59 69.35 69.14 69.07 68.51 68.08 67.39 66.85 66.61 66.03 65.94 64.92 64.64 64.93 65.02 66.68 68.65 69.67 69.03 67.64 66.91 66.50 65.89
61.92 63.27 66.58 66.96 67.81 68.56 68.86 69.19 69.69 69.91 69.91 69.89 69.84 69.56 69.15 68.04 68.00 69.42 68.72 67.95 67.98 67.75 68.27 68.13 67.66 67.01 66.77 64.77 65.61 66.20 64.88 64.84 64.55 64.39 64.74 66.28 68.29 69.34 68.65 67.05 66.58 65.98 65.29
62.56 62.97 65.12 66.32 67.21 67.18 67.70 68.14 68.85 69.19 68.74 68.27 68.83 69.21 69.37 68.36 67.05 67.88 67.75 67.98 66.80 67.39 67.03 67.10 66.42 66.13 64.71 63.99 63.88 63.61 64.03 63.71 64.16 65.12 65.45 66.03 67.73 69.07 68.46 67.34 66.51 65.78 65.12
64.27 63.90 64.14 64.89 65.89 66.31 66.80 67.52 67.31 67.81 67.50 67.02 67.28 67.80 68.34 67.89 67.66 66.89 66.50 65.42 65.60 65.58 64.12 64.98 64.77 63.50 63.55 63.92 63.84 63.35 63.26 63.52 63.50 64.18 64.48 64.95 66.76 68.41 68.30 67.08 66.33 65.81 65.05
63.69 65.67 65.04 64.69 65.54 65.63 66.43 66.87 66.91 66.96 67.74 67.17 66.72 66.59 67.48 68.05 67.78 67.57 66.39 65.72 64.77 63.54 63.42 62.74 62.31 62.47 61.85 62.74 63.21 63.17 62.90 63.01 63.06 63.71 63.73 63.60 64.35 66.94 68.40 67.64 66.70 65.69 64.73
58.49 63.53 66.05 65.42 65.28 65.72 66.10 65.53 66.16 66.90 67.38 66.95 66.52 66.21 66.92 68.11 67.70 67.06 65.76 65.75 63.93 63.78 62.81 62.48 62.15 62.02 61.89 61.80 61.81 62.26 62.24 63.06 63.58 63.38 63.47 63.69 62.94 64.58 66.79 67.43 66.78 65.97 64.78
49.07 56.55 64.71 65.87 65.72 65.23 65.71 64.62 65.09 65.78 66.43 66.52 66.22 65.50 66.68 67.35 67.37 66.54 65.64 65.46 65.20 62.53 61.43 60.91 59.90 60.00 60.15 61.09 61.08 61.39 62.08 63.15 63.30 63.04 63.01 63.32 63.33 62.35 64.02 65.65 66.10 65.80 64.74
47.10 49.98 57.37 66.39 65.56 65.43 65.38 65.32 64.84 64.84 65.04 65.12 65.59 66.27 67.12 66.98 66.83 65.98 65.35 65.05 65.12 63.29 61.43 60.94 60.21 59.86 60.08 60.95 61.13 60.51 61.15 62.30 62.53 62.84 63.50 63.40 63.04 63.48 62.82 63.55 64.67 64.63 64.63
47.48 48.09 50.86 63.12 65.60 65.53 65.54 65.38 64.83 65.06 65.29 65.63 65.52 65.63 66.24 66.71 66.39 65.53 65.29 64.83 64.45 63.13 62.30 61.45 59.90 60.15 60.14 60.53 61.40 61.71 62.13 62.09 62.47 63.02 62.94 62.75 62.58 62.27 62.59 62.24 62.45 62.17 62.93
47.26 46.86 47.91 56.41 65.50 66.01 66.25 65.67 65.60 65.17 65.13 65.47 65.65 65.48 65.89 66.30 66.01 65.80 64.48 64.16 63.78 62.93 62.09 61.46 60.59 61.48 61.08 60.89 61.21 60.74 61.53 61.95 62.32 62.43 62.37 62.81 62.28 61.78 60.65 61.04 61.59 60.96 61.08
43.74 45.22 46.76 48.04 57.51 65.74 65.94 65.33 65.18 63.98 64.95 65.02 65.41 65.61 65.94 66.14 65.63 65.31 64.27 63.55 63.09 62.38 62.14 61.78 61.64 60.46 59.70 60.79 59.40 59.20 60.01 61.11 61.47 61.82 62.49 62.25 61.49 61.13 60.34 60.25 60.68 60.72 60.79
42.35 43.16 45.02 46.84 49.46 64.07 64.95 66.05 65.81 65.63 65.65 65.90 65.76 65.60 65.51 65.70 65.39 64.98 64.21 63.41 62.81 62.47 62.36 62.17 61.54 60.30 60.29 60.28 57.57 57.53 54.98 56.61 59.78 61.10 61.76 61.46 61.05 60.64 59.61 59.55 59.98 59.14 60.18
49.15 49.73 48.30 45.84 50.47 61.36 64.76 66.20 65.31 65.29 64.66 64.14 64.23 64.83 65.24 65.38 65.07 64.96 64.62 63.87 63.23 62.79 62.18 62.34 62.04 60.90 59.36 60.00 60.42 56.97 53.67 52.68 54.82 57.86 60.16 61.04 60.67 59.66 59.71 59.02 59.06 58.26 57.17
47.51 48.55 50.26 53.16 49.59 60.95 65.00 65.36 64.43 63.38 62.47 63.58 64.17 64.65 64.98 65.09 65.07 65.16 64.76 64.03 63.40 63.44 62.64 62.30 62.58 61.61 60.31 58.83 59.50 60.05 57.38 56.39 53.58 52.01 56.85 58.28 60.14 58.95 58.87 58.59 58.52 58.52 57.67
46.81 46.02 47.29 49.90 53.22 56.66 64.26 64.88 64.70 63.53 63.39 63.55 64.52 63.99 64.32 64.62 64.97 64.76 64.58 64.27 63.66 63.45 63.14 62.63 62.09 61.69 61.01 60.10 59.38 59.02 58.75 56.45 56.45 54.04 51.85 54.44 56.69 58.31 58.46 58.04 58.25 58.33 58.03
43.75 44.75 45.41 50.23 55.02 54.76 63.40 64.72 64.36 63.31 62.48 62.03 63.49 63.36 63.28 64.34 64.29 64.47 64.10 63.94 63.89 63.46 63.21 62.65 62.18 61.78 61.16 60.76 60.40 59.28 58.59 57.01 55.00 54.89 53.52 54.06 54.68 55.81 57.25 57.70 57.49 57.88 58.16

GFSSE_sfc_wetblb_111.txt.gz
Wetbulb
69.43 73.12 72.47 73.16 73.12 72.92 72.80 72.62 73.06 73.56 74.05 74.29 74.00 73.65 73.79 73.91 73.78 74.16 74.36 74.57 74.65 74.69 74.51 74.02 74.72 75.17 74.54 74.19 74.39 73.95 73.22 73.06 73.07 72.90 72.61 73.10 72.75 72.55 72.37 72.20 71.92 71.70 72.41
70.95 73.39 71.91 72.80 72.97 73.00 72.95 72.68 72.85 73.48 74.34 74.50 73.87 73.69 73.53 73.62 73.67 74.12 74.16 74.40 74.30 74.89 74.03 73.89 74.54 74.97 74.54 73.69 73.43 73.21 72.77 72.44 72.24 72.36 72.62 72.75 72.50 72.23 72.02 71.99 71.66 71.97 72.03
71.66 73.12 73.17 72.08 72.56 72.68 72.94 73.05 73.25 74.14 74.52 74.35 74.03 73.79 73.70 73.75 73.80 73.77 73.89 74.05 74.28 74.39 74.24 73.91 73.59 73.59 74.02 73.10 72.36 72.42 72.22 71.82 71.65 71.95 72.27 72.46 71.78 72.06 71.87 71.82 71.70 71.67 71.54
72.05 72.97 73.34 71.96 72.25 72.55 72.57 72.76 73.18 74.03 74.24 74.09 74.05 74.08 73.87 73.83 73.92 73.91 73.63 73.41 73.85 74.26 74.27 73.53 73.33 73.35 72.86 72.22 72.05 71.96 71.86 71.61 71.10 70.98 72.18 71.39 70.67 71.64 71.53 71.28 71.49 71.52 71.18
71.67 72.60 73.08 71.55 71.70 72.23 72.40 72.46 72.86 73.13 73.25 73.35 73.76 74.09 74.07 74.15 74.16 73.88 73.12 73.08 73.74 74.31 74.24 73.56 73.30 72.59 71.93 71.19 71.21 71.21 71.13 70.43 69.41 70.41 71.08 70.42 70.72 70.85 71.32 71.21 71.17 70.74 70.60
71.47 72.38 71.09 70.73 71.44 72.04 72.51 72.60 72.57 72.37 72.20 72.55 72.98 73.78 74.07 74.12 74.13 73.52 72.88 73.26 73.69 74.06 74.24 73.79 73.06 71.86 70.79 70.64 70.57 70.30 69.91 69.47 69.02 71.06 69.76 70.26 70.07 71.07 71.04 70.91 70.57 70.42 70.29
71.33 72.33 71.97 69.95 71.09 71.97 72.45 72.56 72.05 71.44 71.41 71.97 72.66 72.90 73.37 73.77 73.56 72.67 72.43 72.79 73.27 73.18 72.73 73.08 71.97 70.92 70.32 70.05 69.94 69.38 68.82 68.58 71.10 70.53 69.70 69.80 70.80 70.82 70.99 70.18 70.12 69.87 70.15
71.13 71.93 72.35 70.36 70.74 71.09 71.62 71.67 70.85 70.64 71.12 71.46 72.02 72.36 73.09 73.00 72.49 72.21 72.35 72.34 72.31 71.87 71.20 71.34 70.88 70.32 70.05 69.74 69.15 68.17 67.68 68.01 70.08 70.63 69.64 69.57 70.35 70.62 70.46 69.92 69.77 69.54 69.54
71.08 71.59 71.86 71.38 71.18 69.95 69.77 69.86 69.36 69.93 70.29 70.75 71.18 71.43 71.83 71.30 71.11 71.66 71.81 71.68 71.83 71.31 71.08 70.63 70.18 69.80 69.66 69.02 68.23 67.14 66.73 67.65 70.96 70.47 69.60 69.20 70.41 70.50 70.16 69.76 69.48 68.72 68.45
69.28 71.16 71.36 70.73 70.88 72.15 72.73 68.82 68.84 69.07 69.42 69.92 70.42 70.33 70.02 70.20 70.44 70.75 70.68 71.16 71.20 70.66 70.49 70.11 69.40 69.31 68.97 68.12 67.34 66.58 66.40 66.71 70.84 70.46 70.17 70.39 69.46 70.35 70.02 69.39 69.21 68.44 67.80
66.93 68.54 69.78 70.02 70.15 71.58 72.33 71.69 69.67 69.50 69.20 69.27 70.22 69.57 69.13 73.26 73.07 72.47 70.86 69.62 69.96 69.76 69.44 69.24 68.75 68.26 67.54 67.27 66.89 66.29 66.31 70.06 70.44 70.31 70.16 67.74 68.75 69.97 69.77 68.93 68.53 67.58 66.73
66.27 65.97 67.76 68.41 68.82 70.50 70.85 71.47 72.22 71.61 71.81 71.95 72.07 72.45 72.65 72.73 72.75 72.05 70.56 68.08 68.46 68.26 68.21 68.16 67.96 67.36 67.63 69.92 69.41 66.84 69.58 69.96 69.82 69.76 69.71 66.58 68.76 69.59 69.32 68.19 67.49 67.01 66.50
66.79 67.27 66.84 67.00 68.27 69.15 69.52 69.23 69.98 70.68 70.54 70.58 70.87 71.20 71.81 71.37 72.08 72.03 72.13 71.54 72.00 69.05 70.85 69.27 69.20 69.77 70.02 69.73 69.58 69.70 69.79 69.66 69.40 69.41 68.26 65.95 68.65 69.71 69.19 67.78 66.91 66.45 65.96
67.44 67.27 68.11 68.32 67.18 67.90 68.40 68.39 69.03 69.63 69.54 68.92 69.26 69.99 70.15 69.06 69.86 70.70 71.00 71.51 71.27 71.21 71.12 70.44 70.28 69.95 69.90 69.40 69.27 69.01 69.19 69.28 69.28 68.81 67.10 64.99 66.89 69.04 69.07 68.11 67.14 66.33 65.53
65.85 68.44 67.70 68.36 68.24 67.21 67.02 67.48 68.18 68.26 68.36 68.37 68.73 69.28 69.27 68.32 68.55 69.24 70.01 70.65 71.01 70.68 69.99 69.80 69.34 69.30 69.08 68.70 68.70 68.55 68.43 68.68 68.53 68.62 68.77 63.84 64.20 67.01 68.63 68.43 67.57 66.62 65.60
56.90 63.49 69.39 68.12 68.42 68.15 66.78 66.75 67.38 67.76 68.04 68.01 69.30 70.27 69.34 68.98 68.54 68.72 68.35 69.33 69.79 69.80 69.41 69.33 68.48 68.37 68.47 68.35 68.01 68.36 68.11 68.38 68.28 68.29 68.40 67.58 62.81 63.89 66.49 67.85 67.66 66.75 65.86
54.09 56.34 64.49 68.83 68.67 67.89 67.91 67.85 67.31 68.07 67.98 67.62 69.37 70.94 70.38 70.59 69.85 68.43 68.01 67.50 68.63 68.58 68.69 68.29 68.16 68.32 68.02 67.64 67.66 67.68 67.75 67.85 67.77 67.17 66.73 65.09 65.60 62.05 62.86 65.92 66.90 66.83 65.88
52.82 53.92 57.03 64.14 68.52 68.24 68.38 68.51 68.45 68.32 68.75 68.77 69.50 69.92 70.45 70.50 69.94 68.70 67.11 67.24 68.19 67.15 67.37 67.14 66.94 66.72 66.73 66.69 66.50 66.49 66.96 67.12 66.86 66.33 65.28 64.79 64.85 64.00 62.71 62.64 64.89 65.53 65.51
51.77 53.76 55.22 58.03 65.65 68.16 68.59 68.62 68.51 68.44 68.38 68.76 69.16 69.06 69.48 69.89 68.41 68.09 67.32 66.56 66.98 66.24 65.64 66.10 66.14 66.46 65.35 65.16 65.39 65.84 66.14 65.07 64.92 65.63 64.05 63.91 64.20 63.63 63.67 63.61 62.93 63.15 64.13
50.79 52.61 53.83 55.50 59.33 66.76 68.31 68.75 68.22 67.85 68.21 68.45 68.06 67.53 67.84 67.84 66.99 67.51 67.28 66.15 66.00 65.05 64.45 63.98 64.35 64.84 65.45 65.35 64.05 64.47 64.96 64.00 65.76 64.58 63.47 63.81 64.08 63.32 64.05 63.53 63.83 64.08 61.51
50.22 49.86 50.97 52.65 55.76 62.03 65.48 65.56 64.95 64.03 65.40 66.91 66.91 67.28 67.16 67.13 66.69 66.81 67.16 65.28 65.44 64.54 64.06 63.26 63.54 62.89 62.64 63.53 61.92 61.57 62.42 63.92 63.38 63.48 64.01 63.63 63.42 62.94 63.34 62.16 63.61 64.84 63.50
52.41 53.57 54.63 54.58 52.19 54.60 63.56 66.40 66.50 65.66 65.58 66.76 66.24 66.29 66.58 66.65 66.47 65.91 65.99 64.88 64.82 64.52 63.61 63.01 62.70 61.77 62.30 62.69 60.80 60.13 57.75 60.23 62.55 63.65 63.89 63.15 63.31 62.74 62.09 61.65 61.99 62.97 64.09
49.70 50.56 51.34 53.24 55.34 56.38 56.13 64.49 67.20 67.41 67.26 65.01 64.99 65.49 65.33 66.13 66.20 65.73 65.66 65.18 64.53 64.40 63.29 63.29 63.02 62.29 60.60 61.31 62.73 60.33 56.45 55.41 58.31 61.49 61.55 61.86 62.08 61.87 62.17 61.66 61.06 61.55 63.27
47.43 48.62 49.70 50.77 52.12 55.13 57.70 59.66 65.25 64.29 63.00 64.10 65.11 65.86 65.51 65.75 65.91 65.76 65.06 64.91 64.31 64.13 64.12 63.61 63.59 63.10 62.79 59.83 60.82 61.43 63.47 61.65 57.30 55.12 59.13 60.60 61.73 60.92 60.90 60.60 60.26 60.41 61.36
43.30 44.24 45.66 48.08 51.00 54.68 57.40 59.77 65.34 65.32 65.75 66.21 66.63 66.48 65.53 65.20 65.53 65.16 65.15 64.62 64.04 64.44 64.66 63.56 63.30 63.20 63.53 61.94 60.67 60.38 61.32 60.65 59.49 56.87 55.43 56.67 58.78 60.72 60.98 60.28 59.93 59.82 59.57
40.33 41.24 42.93 44.83 47.70 53.09 58.08 58.83 64.76 65.69 65.15 65.49 65.87 64.66 64.62 65.06 64.52 64.88 64.78 64.42 64.38 64.00 64.24 63.43 63.81 63.56 62.50 62.33 61.92 61.88 60.22 58.74 56.81 56.86 56.00 56.14 57.60 57.68 59.31 59.55 59.27 59.79 60.58

GFSSE_sfc_wetblb_114.txt.gz
Wetbulb
72.36 75.79 72.64 73.17 73.25 73.18 73.21 73.56 73.65 73.56 73.74 73.97 73.86 73.88 74.00 74.02 73.94 74.35 74.51 74.56 74.82 75.34 75.21 74.79 74.71 74.29 73.60 73.82 74.26 74.00 73.71 73.49 73.19 73.29 73.18 73.27 72.84 72.87 72.62 72.71 72.05 71.92 72.53
73.42 75.91 72.04 72.75 73.02 73.20 73.25 73.49 73.67 73.99 74.25 74.22 73.89 73.80 73.77 73.72 73.91 74.28 74.34 74.53 74.58 75.34 74.56 74.09 74.79 74.33 74.13 74.38 74.01 73.30 73.26 72.71 72.33 72.43 72.78 72.65 72.74 72.55 72.01 71.93 71.78 72.44 72.25
73.53 75.65 74.38 72.11 72.76 72.95 73.33 73.56 73.98 74.50 74.85 74.23 73.85 73.97 73.77 73.87 74.04 74.21 74.11 74.20 74.48 74.81 74.28 73.70 74.46 74.18 73.64 73.63 72.93 72.90 72.83 72.22 71.89 72.19 72.42 72.40 72.68 72.03 71.86 71.98 71.73 71.87 71.85
74.06 75.13 74.72 71.82 72.39 72.77 72.82 73.28 74.07 74.77 74.78 74.20 74.00 73.92 73.92 73.80 74.09 73.96 73.90 73.94 74.22 74.71 74.59 73.51 73.77 74.29 73.29 72.59 72.37 72.12 72.20 71.84 71.35 71.50 72.80 71.68 72.06 71.66 71.85 71.26 71.54 71.67 71.47
73.88 74.80 74.74 71.45 71.62 72.43 72.49 73.01 73.64 74.06 73.81 73.86 73.65 74.04 74.07 73.98 74.10 73.91 73.39 73.56 74.09 74.73 74.51 73.72 73.74 73.23 72.25 71.49 71.47 71.69 71.53 71.17 70.82 71.40 71.43 72.33 71.52 71.44 71.49 71.47 71.15 71.08 70.92
73.91 74.91 71.86 70.68 71.45 72.01 72.37 72.69 73.12 73.01 72.79 73.17 73.25 73.71 74.08 74.02 74.07 73.63 72.90 73.56 74.11 74.53 74.46 74.24 73.22 72.12 71.20 70.72 70.81 70.76 70.41 69.72 69.49 72.22 71.94 71.23 70.92 71.27 71.51 71.41 70.63 70.90 70.58
73.72 74.80 74.52 69.74 71.03 72.01 72.48 72.62 72.35 72.24 72.21 72.65 73.13 73.23 73.65 73.96 73.81 72.98 72.62 73.17 73.59 73.94 73.87 73.56 72.31 71.20 70.65 70.37 70.41 70.09 69.25 68.99 72.12 70.98 70.39 71.72 71.61 71.21 70.77 70.64 70.35 70.54 70.49
73.68 74.65 74.70 71.34 71.11 71.29 71.80 71.67 71.04 71.18 71.61 72.09 72.40 72.75 73.42 73.31 72.73 72.48 72.38 72.54 72.90 72.84 72.54 72.15 71.18 70.67 70.34 70.14 69.53 68.82 68.07 68.27 70.60 70.22 70.45 70.68 70.54 70.86 70.77 70.25 70.17 69.75 69.99
74.00 74.40 74.18 72.85 72.67 70.22 70.01 70.00 69.66 70.28 70.87 71.21 71.55 71.96 72.07 71.63 71.29 71.97 72.21 72.20 72.07 71.28 71.15 71.16 70.47 70.05 70.14 69.58 68.91 67.74 67.29 68.11 71.32 71.32 69.52 69.85 70.24 70.40 70.48 70.00 69.58 69.83 69.72
72.94 74.22 74.38 72.61 73.50 73.97 73.85 69.34 69.11 69.26 69.80 70.23 70.70 70.80 70.51 70.53 70.79 71.22 71.04 71.45 71.31 70.81 70.83 70.56 69.87 69.51 69.42 68.64 67.81 67.18 66.80 67.58 71.75 70.83 70.47 70.84 70.23 70.45 70.16 69.62 69.78 69.43 69.08
71.17 71.95 72.39 71.87 71.95 73.39 74.28 72.68 69.70 69.76 69.69 69.58 70.80 70.08 69.98 73.84 73.87 73.41 71.31 70.08 70.56 69.89 69.93 69.67 69.11 68.66 68.17 67.79 67.38 66.75 66.73 70.86 70.96 70.61 70.79 68.58 69.54 70.18 70.05 69.35 69.13 68.60 68.07
70.11 71.20 71.15 71.55 70.99 71.73 73.20 74.17 73.61 73.21 72.81 72.92 72.93 73.38 73.64 73.63 73.50 72.86 71.12 68.82 68.39 68.28 68.73 68.57 68.19 67.61 68.01 70.86 70.18 67.62 70.64 70.30 70.34 70.13 70.69 67.88 69.36 69.92 69.73 68.98 68.88 67.87 67.58
68.34 70.86 71.26 70.78 71.54 71.46 72.80 71.85 72.46 72.48 73.04 73.18 73.63 73.62 73.38 72.82 73.23 73.15 73.02 72.60 73.09 69.75 72.05 69.86 70.08 70.93 70.65 70.46 70.21 70.26 70.21 70.50 70.08 70.05 69.73 66.75 68.99 69.92 69.61 68.73 68.18 67.57 67.04
64.34 69.63 71.25 71.79 71.39 72.07 71.68 70.31 71.00 72.75 71.65 71.59 72.56 73.64 73.06 72.15 72.92 72.34 72.60 72.49 72.20 72.78 71.92 71.28 70.60 70.50 70.42 70.41 70.32 70.21 70.33 70.15 69.02 70.42 69.74 65.68 67.13 69.33 69.57 69.04 67.88 67.44 66.71
58.03 64.52 70.29 71.36 71.34 71.33 71.24 70.70 70.14 71.51 71.85 72.28 71.59 71.38 72.89 72.31 71.33 71.60 72.20 72.08 72.26 71.66 72.06 71.02 70.58 69.89 69.49 69.57 69.98 70.11 69.82 69.97 69.45 70.06 70.50 65.28 65.25 66.84 69.03 68.72 68.14 67.34 66.30
55.64 57.42 62.10 69.55 71.27 71.33 70.87 71.17 70.87 71.46 71.83 70.94 70.45 70.73 71.39 72.13 71.52 70.25 71.58 71.91 71.87 71.44 71.60 71.20 70.81 70.35 69.70 69.70 68.89 69.00 69.37 69.85 69.73 69.69 69.59 69.16 63.96 64.34 67.48 68.37 68.16 67.77 66.90
55.50 56.68 59.01 63.05 69.30 71.14 70.87 70.76 70.87 70.79 70.77 70.38 69.42 71.39 70.58 70.75 71.76 70.24 69.91 71.25 71.26 72.04 71.30 71.16 70.21 69.92 68.85 69.09 68.47 68.21 69.44 69.15 68.99 68.94 69.20 69.08 67.25 62.27 64.16 66.13 67.30 66.67 66.81
54.92 55.84 57.30 58.38 62.84 69.38 70.66 70.50 70.30 70.44 70.63 70.34 70.12 71.80 72.07 69.89 70.90 70.41 69.50 69.74 71.27 71.40 70.70 70.27 69.28 68.70 68.70 68.00 67.98 67.51 67.76 68.33 68.38 68.62 68.60 68.34 67.58 67.18 63.21 62.92 63.60 65.56 65.80
54.19 55.20 56.18 57.81 59.06 65.55 69.04 70.51 71.06 70.76 70.43 70.47 70.53 70.94 71.55 71.79 71.85 71.31 70.15 69.32 70.52 69.24 69.59 69.55 69.16 68.66 67.56 66.86 66.90 67.21 67.99 67.32 68.03 67.73 67.72 67.74 67.28 66.35 65.92 63.11 62.36 62.26 64.16
57.13 58.18 57.86 57.22 57.74 59.82 65.81 69.03 69.17 69.95 70.66 70.61 70.35 70.75 71.49 71.77 71.72 71.52 70.46 70.41 69.26 67.46 67.66 68.84 68.49 68.46 68.29 67.09 66.70 66.57 67.31 67.86 68.12 67.70 67.38 67.16 67.45 66.24 64.47 65.50 64.38 62.98 61.47
56.57 56.75 57.87 58.63 59.93 57.48 57.84 63.44 65.06 66.83 68.27 69.71 70.46 70.69 70.98 71.83 71.56 70.64 69.79 69.53 67.68 66.71 66.98 67.93 67.52 66.99 67.19 68.01 65.72 65.12 66.30 66.22 66.22 66.58 66.90 66.29 66.71 66.15 65.06 64.89 64.25 64.10 63.10
53.10 54.49 55.31 55.89 57.18 58.66 58.83 58.24 64.93 66.44 67.36 68.10 70.25 71.04 71.06 70.49 70.65 70.59 69.77 68.50 67.21 66.48 66.04 66.48 66.06 64.47 64.93 66.20 62.94 62.58 60.00 62.58 64.95 65.78 66.19 65.40 65.71 65.62 63.73 63.82 63.40 63.60 63.76
49.72 51.13 51.81 53.38 54.83 55.99 57.80 60.23 58.97 65.38 66.82 66.70 68.31 69.45 70.38 69.89 70.13 70.56 69.43 67.84 66.64 66.80 64.88 65.22 65.90 64.67 62.50 63.85 66.41 63.49 59.89 58.22 61.05 64.39 64.81 64.85 65.13 64.62 63.08 63.34 62.51 62.98 63.36
46.18 48.06 49.46 50.95 52.05 53.89 56.10 57.59 58.83 59.68 62.58 65.74 66.50 67.87 68.90 70.35 69.35 69.30 68.76 67.91 66.78 66.49 65.26 65.06 65.74 65.88 64.58 61.48 63.29 65.67 65.57 63.77 58.77 57.88 62.67 63.38 64.77 63.81 62.71 62.63 62.31 62.31 63.13
45.60 45.30 45.94 47.88 48.96 51.58 54.30 56.11 58.33 58.49 64.73 65.73 67.40 67.17 67.80 67.95 67.45 67.65 67.73 67.81 66.56 66.75 65.44 64.98 65.04 65.31 65.17 63.77 62.22 62.64 64.42 64.33 63.30 59.68 58.33 60.72 62.31 64.23 64.43 62.65 62.10 62.04 61.98
43.98 43.85 43.58 44.37 45.87 47.21 49.14 53.19 56.53 59.86 61.56 64.51 65.61 66.39 67.35 67.15 65.86 66.09 66.26 66.58 66.74 66.16 65.35 64.86 65.13 65.57 65.08 64.64 63.36 65.21 63.93 62.26 61.47 60.13 58.80 59.83 60.42 62.17 62.62 62.62 61.97 61.68 61.49

GFSSE_sfc_wetblb_117.txt.gz
Wetbulb
71.70 74.89 72.68 73.38 73.74 73.63 73.94 73.97 74.04 73.75 73.85 74.26 74.22 74.07 74.24 74.19 74.34 74.43 74.56 74.68 75.05 75.67 75.53 74.66 74.49 74.21 73.44 72.85 73.55 73.57 73.60 73.51 73.50 73.47 73.44 73.55 73.05 73.02 72.26 72.63 72.28 71.93 72.57
72.56 75.76 72.00 72.92 73.48 73.68 74.04 73.91 73.92 73.64 74.21 74.26 74.09 74.11 74.00 73.95 74.15 74.48 74.59 74.68 75.12 75.64 75.03 74.86 74.39 73.73 73.67 74.34 74.09 73.63 73.51 72.93 72.56 72.98 72.99 73.20 72.75 72.55 71.95 72.13 71.98 71.94 72.41
72.78 76.81 74.14 72.21 72.97 73.50 74.04 74.06 74.16 74.26 74.54 74.26 74.14 74.21 74.11 74.13 74.35 74.53 74.31 74.42 74.98 75.37 74.33 74.24 74.06 74.03 73.99 74.41 73.09 73.25 72.93 72.51 72.24 72.44 72.84 71.99 71.96 72.13 72.18 71.98 71.84 71.93 71.86
73.60 76.60 75.13 72.00 72.64 73.19 73.60 73.96 74.16 74.68 74.59 74.28 74.05 74.08 74.01 74.24 74.46 74.33 74.28 74.07 74.22 74.99 74.13 74.28 74.17 74.02 73.60 72.95 72.72 72.71 72.42 72.14 71.60 71.80 72.58 71.60 71.52 71.81 72.03 71.70 71.77 71.68 71.77
73.80 75.83 75.45 71.68 71.99 72.77 73.17 73.70 74.09 74.30 73.91 73.79 73.83 74.17 74.25 74.27 74.47 74.36 73.87 73.83 74.46 74.76 74.26 73.64 74.51 73.60 72.37 71.79 71.79 71.95 71.96 71.46 71.13 71.28 71.20 71.55 70.93 71.80 71.69 71.63 71.03 71.01 71.04
73.98 75.26 71.59 70.88 71.47 72.27 72.89 73.54 73.76 73.60 73.14 73.05 73.29 73.74 74.10 74.30 74.42 74.00 73.31 73.58 74.54 74.81 74.64 74.39 73.82 72.52 71.46 71.11 71.09 71.15 70.85 70.64 70.24 71.56 71.62 71.01 70.96 71.37 71.56 71.27 70.84 71.06 70.98
73.76 75.41 74.73 70.23 71.10 72.09 72.78 73.33 73.26 72.84 72.73 72.86 73.05 73.31 73.58 74.05 73.91 73.21 72.91 73.30 73.89 74.29 74.33 73.88 72.73 71.46 70.98 70.76 70.78 70.41 69.89 69.83 71.54 70.86 70.53 70.62 71.45 71.56 71.07 70.96 71.18 70.45 70.94
73.85 75.29 75.78 71.50 71.24 71.46 71.83 72.18 71.84 71.92 72.31 72.52 72.82 72.97 73.39 73.41 73.06 72.67 72.58 72.71 73.17 73.29 73.11 72.48 71.46 70.98 70.76 70.45 70.16 69.42 68.85 68.74 70.84 71.00 69.66 70.43 70.86 71.14 70.82 70.62 69.92 70.11 70.46
74.76 74.84 75.38 74.01 72.59 70.72 70.30 70.21 70.10 71.11 71.56 71.90 72.01 72.20 72.48 71.98 71.62 72.05 72.29 72.47 72.80 72.46 72.12 71.49 70.71 70.40 70.30 69.94 69.49 68.33 67.88 68.17 70.46 70.57 69.47 69.95 70.42 70.67 70.85 70.41 70.04 70.20 69.99
74.02 75.21 75.68 74.24 73.97 73.28 72.98 69.63 69.47 70.05 70.39 71.00 71.27 71.38 70.87 71.07 71.10 71.35 71.37 71.91 72.05 71.15 71.12 70.85 70.16 69.78 69.83 69.13 68.35 67.77 67.45 68.13 70.91 69.79 69.98 70.47 70.37 70.60 70.61 70.01 69.91 69.79 69.72
72.16 72.87 74.92 73.68 73.58 74.13 73.57 72.36 69.91 70.07 70.14 70.26 71.26 70.72 70.40 74.08 73.80 73.26 71.39 70.43 70.58 70.07 70.08 70.00 69.53 69.16 68.66 68.35 67.99 67.39 67.52 70.14 69.09 69.85 69.04 68.62 70.47 70.56 70.43 70.46 69.95 69.59 69.46
67.67 71.69 72.48 72.95 72.81 74.86 73.63 73.94 72.78 72.49 72.11 72.51 72.81 73.55 73.84 73.52 73.66 72.46 71.04 69.62 69.40 69.00 69.02 69.00 68.62 68.24 68.19 70.41 69.95 67.64 70.30 69.67 68.53 69.42 68.44 68.73 70.25 70.12 69.85 69.39 69.27 69.03 68.68
63.97 71.49 71.98 71.85 72.35 72.57 73.90 74.00 72.96 72.96 72.49 72.62 72.96 73.43 73.09 73.20 73.94 72.61 73.25 72.41 72.75 69.59 71.82 70.11 69.71 70.30 70.11 69.92 69.61 69.69 69.41 69.45 68.43 68.15 67.57 67.96 69.68 69.87 69.70 69.05 68.62 68.43 68.13
60.14 68.22 72.17 72.54 71.97 72.33 73.80 72.93 72.93 72.62 73.08 72.71 73.02 75.07 73.82 73.20 73.53 73.10 72.12 72.29 72.65 72.35 71.86 71.47 70.47 70.44 70.95 71.02 70.06 69.20 69.65 69.17 68.93 68.93 67.35 67.29 68.42 69.84 69.68 69.37 68.59 68.05 67.54
57.93 61.60 68.65 72.17 72.40 72.47 72.63 72.68 72.48 72.97 72.20 72.86 72.96 74.45 73.68 72.34 73.50 72.97 72.33 72.56 71.89 72.12 71.79 71.61 70.18 70.30 69.76 69.93 70.21 69.72 69.33 69.57 69.30 68.81 70.00 66.02 67.42 68.44 69.52 69.38 68.88 68.30 67.64
57.52 58.16 60.95 64.13 72.09 72.02 72.32 72.95 72.83 72.98 73.09 72.73 72.58 72.92 74.78 73.56 73.09 72.24 72.40 71.28 72.24 71.81 71.00 71.88 70.87 69.26 69.51 69.44 69.49 69.55 69.44 69.27 68.84 69.11 69.00 68.26 65.35 66.00 67.75 69.10 69.04 68.51 67.86
56.12 57.90 59.25 61.32 64.22 70.25 71.39 71.88 72.01 71.72 72.09 72.36 72.08 73.80 71.76 73.84 74.11 72.90 71.53 71.67 70.91 71.98 71.91 72.20 71.67 70.48 69.19 69.67 69.23 69.30 69.08 69.30 69.07 69.13 68.88 68.28 66.98 63.10 64.04 66.75 67.40 67.33 67.55
54.77 56.06 57.99 58.33 60.58 63.75 68.63 70.41 71.26 71.57 72.07 71.87 72.33 71.72 72.42 71.07 73.17 72.76 70.59 71.59 72.30 72.22 71.88 70.69 70.19 69.80 68.10 67.65 68.24 68.79 68.44 68.98 68.92 68.92 68.65 68.62 67.29 67.33 63.69 63.82 65.00 65.49 63.94
55.85 57.56 58.33 60.01 59.84 61.14 63.75 68.59 70.49 71.82 71.78 71.34 71.61 71.53 72.26 72.18 72.62 72.69 70.90 70.42 72.98 72.00 71.68 70.41 69.14 69.40 68.89 68.70 67.97 67.77 68.41 68.22 68.33 67.53 67.79 68.53 67.70 67.49 66.83 63.14 62.71 62.31 63.84
58.21 58.64 58.86 59.59 61.11 61.63 60.34 63.48 67.40 69.41 70.75 71.46 71.43 70.96 71.48 72.89 72.52 71.96 71.17 71.21 71.03 70.97 70.91 71.03 69.63 69.18 68.27 67.97 66.65 66.98 68.36 67.74 68.14 67.61 67.57 67.20 67.01 67.95 67.20 66.56 64.93 62.70 60.91
55.89 55.92 56.47 57.40 58.96 59.77 60.63 58.24 61.29 66.73 68.78 70.49 70.70 71.81 70.99 72.15 73.06 72.14 71.75 71.69 70.98 69.23 68.98 70.07 69.80 68.85 67.56 68.77 66.84 66.78 66.77 67.51 67.38 67.47 67.85 66.85 65.74 66.56 67.20 66.54 65.74 64.60 62.21
52.75 53.56 54.27 54.63 55.84 57.11 58.40 59.93 60.08 61.89 66.53 69.61 70.66 71.10 72.17 72.49 72.73 72.51 72.24 71.64 71.33 69.07 67.27 67.79 67.99 67.88 69.01 69.55 65.50 64.23 60.50 62.96 65.89 66.91 66.87 66.56 66.91 66.73 66.18 66.64 66.08 64.73 64.98
49.95 51.03 51.08 52.28 53.34 54.98 56.21 57.36 58.64 61.43 61.07 66.72 68.54 69.27 70.66 71.87 72.35 72.49 72.32 72.01 71.37 69.98 68.39 66.86 66.68 66.16 64.76 67.93 68.71 63.67 59.96 58.43 62.46 65.23 66.15 65.85 66.08 65.76 66.22 65.72 65.27 65.04 64.65
48.08 49.99 50.50 50.37 50.64 52.23 54.28 54.55 56.08 56.75 58.02 62.91 67.65 68.68 68.98 71.19 71.60 72.39 72.49 72.02 71.40 69.86 68.20 66.69 66.70 66.02 64.97 63.02 65.71 66.76 66.65 64.55 60.47 59.18 63.86 65.23 66.17 65.60 65.93 65.76 64.69 64.20 64.10
46.72 47.03 47.45 47.78 48.32 50.13 51.54 52.11 53.25 55.37 58.08 60.92 62.29 67.86 68.36 69.90 70.54 71.59 71.82 71.32 70.58 69.41 68.62 67.73 66.18 65.60 65.45 64.05 63.35 65.01 66.40 66.06 65.71 62.02 59.72 60.72 63.80 64.64 65.21 65.75 65.54 64.32 63.72
44.05 44.17 44.11 44.77 46.12 47.65 48.45 49.05 49.66 51.86 55.27 57.93 61.01 63.72 65.99 67.76 68.94 70.70 70.36 70.21 69.23 68.38 68.23 68.17 66.88 65.59 65.37 64.48 64.37 64.53 64.04 63.59 63.10 61.74 60.32 61.40 60.80 62.75 64.25 65.28 64.77 64.36 63.81

GFSSE_sfc_wetblb_120.txt.gz
Wetbulb
72.69 72.37 72.62 73.46 73.93 74.29 74.21 74.05 73.50 73.59 73.95 74.13 74.12 74.29 74.42 74.22 74.12 74.52 74.75 74.89 74.99 75.61 75.71 75.23 74.93 74.45 73.02 72.94 73.76 73.66 73.75 73.44 73.23 73.60 73.50 73.88 73.36 72.56 72.69 72.52 72.37 71.19 72.57
73.92 72.84 71.98 73.05 73.70 74.14 74.26 74.05 73.56 73.70 74.06 74.10 74.09 74.13 74.01 74.06 74.04 74.37 74.46 74.62 75.21 75.56 75.20 74.75 74.68 73.93 73.69 73.93 73.94 73.61 73.10 72.64 72.55 72.79 73.30 73.34 72.86 72.41 72.36 72.17 71.85 71.50 72.22
73.86 73.65 72.61 72.48 73.39 73.96 74.26 74.36 73.94 74.06 74.31 74.15 74.07 74.04 73.96 74.13 74.31 74.39 74.33 74.47 75.04 75.63 75.38 74.78 74.23 73.92 74.48 73.94 73.23 73.00 72.77 72.45 72.16 72.33 72.96 70.48 70.79 72.44 72.59 72.01 71.97 72.23 72.19
73.93 74.19 73.16 72.22 72.80 73.55 73.76 73.92 73.96 74.49 74.31 73.97 74.02 74.12 74.12 74.29 74.36 74.44 74.09 73.96 74.56 74.95 74.40 74.25 74.12 74.63 74.27 72.93 72.54 72.59 72.32 72.00 71.68 71.69 71.18 70.59 70.11 72.27 72.15 71.79 71.84 72.05 71.89
74.18 75.70 73.92 71.76 72.19 73.11 73.50 73.68 73.80 74.07 73.79 73.74 73.66 74.20 74.20 74.35 74.49 74.44 73.74 73.54 74.40 74.75 74.28 74.30 74.61 73.97 72.76 71.87 71.86 71.94 71.89 71.35 71.13 70.96 69.98 70.33 69.90 71.38 71.87 71.74 71.47 71.49 71.29
74.07 75.32 70.32 70.81 71.68 72.75 73.42 73.75 73.86 73.63 73.03 73.06 73.26 73.89 74.08 74.40 74.55 74.11 73.43 73.68 74.67 74.62 74.43 74.51 74.21 72.60 71.39 71.10 71.33 71.46 71.11 70.72 70.44 69.24 68.98 70.43 70.27 71.15 71.60 71.55 71.16 71.07 70.95
74.29 73.90 72.22 70.25 71.38 72.32 73.42 73.74 73.54 72.99 72.56 72.64 73.20 73.49 73.81 73.94 74.09 73.44 72.92 73.36 74.02 74.20 74.24 73.89 72.98 71.40 70.97 70.71 70.86 70.57 70.23 69.63 69.86 69.30 67.96 69.20 69.83 71.50 71.11 71.35 71.02 70.60 70.72
74.81 75.24 72.39 71.32 71.25 71.65 72.51 72.78 72.31 72.17 72.12 72.25 72.58 72.89 73.31 73.36 73.06 72.84 72.54 72.85 73.23 73.25 73.19 72.48 71.44 70.99 70.73 70.49 70.40 69.64 68.96 68.98 69.24 68.84 68.06 68.94 70.19 71.34 71.14 70.99 70.19 69.83 70.43
75.53 75.57 74.28 72.59 71.65 70.91 70.46 70.65 70.68 71.37 71.75 71.88 71.98 72.06 72.39 71.97 71.90 72.12 72.18 72.36 72.66 72.68 72.40 71.52 70.73 70.31 70.34 70.02 69.67 68.80 67.95 68.33 67.79 68.98 68.40 69.10 70.85 70.98 70.74 70.46 70.63 70.26 70.26
74.46 75.74 74.83 73.80 72.36 71.80 71.37 69.97 70.00 70.61 70.88 71.15 71.52 71.50 71.01 71.19 71.22 71.55 71.55 71.73 71.30 71.89 71.71 70.87 70.11 69.89 69.81 69.45 68.85 67.89 67.37 67.86 67.66 67.82 67.76 69.03 70.42 71.26 70.69 70.01 70.41 70.11 69.94
72.48 73.85 75.42 73.58 72.91 72.16 71.51 70.98 70.04 70.86 70.85 70.68 71.41 70.83 69.58 72.37 71.85 71.60 71.02 70.46 71.30 69.43 70.39 70.09 69.54 69.23 68.91 68.65 68.09 67.66 67.39 68.13 67.18 67.16 67.99 68.32 70.47 71.19 70.59 70.44 70.10 69.87 69.78
66.77 72.11 73.43 73.30 72.84 73.06 71.94 71.52 70.89 71.04 71.30 71.89 72.31 71.98 72.44 72.42 72.25 71.87 70.67 69.30 69.72 68.60 69.20 69.18 68.87 68.38 68.11 68.61 67.62 67.23 67.74 68.11 67.46 66.40 67.54 68.20 70.39 71.11 70.64 70.37 69.66 69.75 69.39
61.54 70.49 72.39 72.38 71.66 73.04 72.46 71.96 70.64 70.84 70.38 71.04 71.73 72.09 72.18 72.03 71.95 70.63 70.62 70.05 70.30 68.85 69.82 68.94 68.40 68.70 68.62 68.20 68.17 67.87 67.69 67.59 66.53 66.87 67.35 67.93 69.79 70.91 70.13 69.52 69.66 69.40 68.85
58.64 61.89 71.72 72.09 71.12 71.34 72.94 72.49 71.48 70.77 70.66 70.31 70.61 71.65 71.09 71.28 71.09 70.00 70.48 70.46 70.42 70.06 69.93 69.48 68.74 68.15 67.97 68.10 68.18 67.28 66.92 66.33 66.53 67.08 67.17 67.27 68.98 70.38 70.20 69.54 69.32 68.84 68.17
59.08 62.20 68.41 71.60 71.04 70.95 71.22 70.96 71.36 70.60 70.65 71.06 70.94 71.43 71.58 70.31 70.49 70.85 70.02 70.63 70.06 70.30 69.63 69.29 68.68 68.00 67.62 67.79 68.17 68.07 67.55 67.22 67.46 66.47 67.01 66.23 67.16 69.16 70.43 69.88 69.17 68.38 67.60
57.70 59.65 60.95 63.13 70.64 70.94 70.48 69.77 71.07 70.83 71.24 71.34 71.15 71.37 71.59 71.04 70.49 70.26 70.01 70.30 69.94 69.96 70.07 69.46 68.87 68.10 67.54 67.86 67.60 67.45 66.85 66.87 67.16 66.73 67.25 65.40 65.76 67.03 68.46 69.80 69.65 68.87 68.21
55.75 57.74 61.38 61.32 62.52 67.16 69.80 69.52 70.28 70.50 70.46 70.40 70.33 71.75 71.43 71.32 71.00 70.73 70.18 69.21 69.80 69.94 69.77 68.86 69.35 68.42 68.04 67.86 67.30 66.97 67.38 67.50 67.04 66.43 67.39 66.64 64.57 64.03 65.43 67.73 68.65 68.71 67.95
56.74 57.60 58.73 60.31 60.10 61.09 62.62 68.79 68.68 69.55 69.65 69.94 70.69 70.51 71.03 71.34 71.51 69.86 69.22 69.42 70.25 69.22 69.44 68.54 68.29 67.72 66.92 67.02 66.59 66.35 66.41 67.29 66.67 66.39 66.36 67.20 66.03 65.52 63.34 64.60 66.21 67.13 66.44
55.88 56.36 56.81 57.98 58.62 60.34 60.84 61.05 62.83 68.69 68.54 69.49 70.07 70.07 71.01 70.59 70.28 70.60 69.75 69.01 69.66 69.52 69.05 68.76 68.12 67.93 66.74 66.23 66.41 66.85 66.80 65.90 65.66 66.69 66.29 66.14 65.67 65.56 64.74 63.17 63.63 64.04 63.59
54.13 54.97 55.06 56.01 56.96 57.91 58.82 60.31 59.63 60.18 68.50 69.39 69.53 69.19 70.02 70.40 69.66 69.30 70.20 69.09 68.81 68.62 68.44 68.35 67.74 67.64 67.46 66.45 66.31 65.94 65.63 65.67 66.15 65.32 65.73 66.24 65.90 65.06 64.17 63.45 62.18 61.59 61.69
51.81 51.91 52.64 52.86 54.18 54.96 55.42 56.11 57.51 57.60 60.96 67.73 69.10 69.54 69.34 69.40 69.78 69.17 69.22 69.09 68.57 67.41 67.85 68.42 67.51 66.55 66.27 66.57 65.14 64.17 65.12 65.05 65.18 65.04 65.69 64.93 65.25 65.20 65.06 63.29 62.29 62.55 60.57
49.64 49.97 50.14 51.34 51.95 52.36 53.06 54.46 55.20 55.81 57.49 59.42 66.71 68.98 69.40 69.17 69.45 69.59 69.00 68.54 68.39 67.11 67.00 67.95 67.80 65.92 65.96 66.53 63.43 62.73 60.48 61.98 64.00 64.81 65.16 64.55 64.74 64.96 64.41 64.56 63.68 62.64 62.21
46.79 47.18 48.12 49.25 49.82 50.45 51.09 52.03 53.50 54.95 56.28 57.10 58.66 63.20 68.45 69.15 68.81 69.93 69.37 68.42 68.37 68.05 66.72 67.23 67.10 66.44 64.45 65.67 65.27 61.85 58.33 56.57 59.55 62.97 63.90 64.11 62.91 63.03 63.20 63.84 63.92 63.50 63.16
44.50 45.52 45.88 46.21 46.42 47.95 49.21 49.24 50.31 50.80 51.71 54.92 56.76 59.90 66.17 68.39 68.83 69.25 69.52 69.32 68.71 68.77 67.50 66.99 66.82 65.87 65.42 64.17 65.25 65.07 63.07 61.20 56.13 56.70 61.76 62.97 62.88 62.85 62.68 63.01 63.16 63.25 63.33
42.14 41.67 42.24 43.06 43.12 44.01 46.04 47.44 47.14 47.87 50.30 53.35 55.34 57.07 59.60 63.54 67.31 68.48 67.89 68.62 68.82 68.26 68.10 66.82 65.88 65.27 65.81 64.40 64.60 63.51 63.48 63.13 61.89 58.73 55.93 58.88 62.03 62.81 63.55 63.57 63.45 63.00 63.43
39.11 38.72 38.88 38.94 39.87 40.75 41.93 43.57 44.28 44.86 46.03 47.61 50.50 53.15 56.20 59.88 64.04 66.66 67.11 67.74 68.51 67.88 66.62 66.88 65.71 65.27 64.92 64.82 64.38 64.15 62.88 62.00 61.13 60.22 57.63 57.12 58.07 60.06 61.76 63.04 63.33 63.38 62.92

GFSSE_sfc_wetblb_123.txt.gz
Wetbulb
70.55 71.95 72.56 73.69 74.06 73.85 73.30 72.87 73.00 73.05 73.42 73.89 73.91 73.99 73.87 74.01 74.13 74.02 74.26 74.71 75.21 75.48 74.86 74.06 74.49 73.94 73.66 73.72 73.48 72.84 72.59 72.81 72.59 73.33 73.35 73.67 73.04 72.79 72.97 73.07 72.29 71.59 72.63
71.22 71.98 71.75 73.07 73.66 74.00 73.80 73.10 72.86 73.25 73.69 73.88 73.85 73.73 73.61 73.70 74.05 74.13 74.19 74.54 74.91 75.64 75.04 74.47 74.34 73.69 73.36 73.58 73.17 72.81 72.73 72.29 71.81 72.14 72.78 73.07 73.24 72.61 72.77 72.41 72.03 71.72 72.18
71.32 71.95 72.61 72.13 73.27 73.75 74.10 73.54 73.42 73.73 74.11 74.11 73.92 73.73 73.78 73.78 74.00 74.00 73.91 74.39 74.88 75.26 74.86 74.37 73.94 73.46 73.91 73.25 72.54 72.50 72.30 71.95 71.97 72.07 72.23 69.92 70.80 72.75 72.75 72.10 71.67 72.26 71.99
72.09 71.69 72.13 72.03 72.75 73.52 73.64 73.64 73.46 74.19 74.23 74.03 73.90 73.73 73.80 74.00 73.87 73.80 73.61 73.58 74.60 75.10 74.96 74.54 73.81 74.07 74.16 72.42 72.15 71.90 71.83 71.58 71.12 71.62 69.87 69.66 70.40 72.40 72.15 72.05 71.69 72.19 71.87
71.99 71.88 72.30 71.40 71.99 73.03 73.30 73.40 73.36 73.62 73.49 73.42 73.53 73.95 74.03 74.10 74.05 73.82 73.30 73.23 74.50 74.65 74.59 74.29 74.44 73.91 72.61 71.46 71.47 71.39 71.38 70.91 70.21 69.47 69.40 69.14 69.30 71.41 71.96 71.89 71.71 72.00 71.50
71.99 72.43 70.30 70.63 71.41 72.64 73.17 73.19 73.30 72.99 72.30 72.76 73.05 73.56 74.12 74.17 74.15 73.47 72.84 73.37 74.29 74.30 74.44 74.74 74.22 72.42 71.18 70.69 70.78 70.82 69.41 70.05 68.94 68.84 68.86 70.27 69.58 71.61 71.61 71.80 71.22 71.18 71.17
71.31 70.82 70.77 70.16 71.21 72.36 73.24 73.40 73.11 72.52 71.94 72.25 72.76 73.00 73.49 74.03 73.90 72.98 72.42 73.03 73.67 73.68 73.97 73.70 72.54 71.31 70.58 70.40 70.63 70.27 68.89 68.51 66.67 64.93 67.74 68.86 69.45 71.93 71.44 71.34 71.34 71.08 71.05
71.91 71.13 70.82 71.17 71.17 71.64 72.46 72.55 72.04 71.70 71.69 71.66 72.14 72.56 73.21 73.22 72.65 72.36 72.38 72.46 72.97 72.67 72.61 72.16 71.22 70.56 70.32 70.19 69.99 69.32 68.85 67.56 66.09 63.15 63.85 67.88 70.28 71.78 71.66 71.31 70.00 69.93 70.11
72.29 71.00 69.87 70.43 71.10 70.77 70.65 70.74 70.54 70.96 71.29 71.40 71.65 71.85 72.03 71.81 71.54 71.63 71.94 72.12 72.29 71.99 71.73 71.31 70.48 70.08 69.92 69.79 69.50 68.55 67.59 67.83 67.20 67.07 67.81 67.14 70.50 71.58 71.17 70.63 70.42 70.09 70.01
70.23 72.11 70.40 70.02 70.11 69.30 69.71 69.68 70.07 70.34 70.38 70.76 71.07 70.94 70.58 70.79 71.00 71.03 71.03 71.48 71.59 71.47 71.05 70.53 69.75 69.46 69.48 69.17 68.52 67.81 67.23 67.57 67.02 66.82 68.12 68.16 70.33 71.46 70.80 70.83 70.58 70.18 69.86
68.87 70.43 70.80 70.05 69.80 69.25 69.07 70.06 70.18 70.65 70.36 70.29 70.65 70.38 69.19 71.06 70.83 70.88 70.43 70.37 70.66 70.11 70.22 69.74 69.08 68.82 68.57 68.46 68.13 67.48 67.01 66.92 66.97 66.83 64.67 68.13 70.01 71.27 70.92 70.90 70.61 70.03 69.83
64.47 68.37 70.54 70.31 69.57 69.44 70.45 68.79 68.78 70.17 70.43 70.70 70.88 70.91 70.59 70.49 70.43 70.99 70.11 69.02 69.59 68.67 69.05 68.91 68.44 68.04 67.86 67.29 66.75 67.37 66.57 67.09 65.95 66.38 66.85 67.75 70.11 71.34 70.75 70.25 70.23 70.03 69.47
55.06 69.35 70.31 70.37 70.21 70.79 69.45 68.39 68.54 68.53 69.28 70.00 70.25 70.27 70.52 70.75 70.47 70.31 69.94 69.46 69.46 68.60 68.58 68.35 67.81 67.70 67.50 67.05 66.89 66.25 66.78 66.60 65.57 66.08 66.68 67.11 69.69 71.31 70.87 70.25 69.71 69.78 69.02
51.69 58.83 69.89 70.08 69.46 68.99 69.77 69.69 68.31 68.55 68.20 68.98 69.83 70.51 70.33 70.04 69.70 69.28 69.00 68.69 68.96 68.67 68.08 67.97 67.18 67.20 66.89 67.12 66.84 66.65 66.40 65.76 64.95 65.46 66.29 66.51 68.32 70.60 70.92 69.98 69.70 69.42 68.26
52.13 54.59 67.80 69.01 68.84 69.31 69.65 68.15 69.46 68.84 68.41 68.97 68.86 70.29 70.41 69.28 68.10 68.23 68.41 68.75 69.04 68.80 68.80 67.90 67.34 67.09 66.85 66.51 66.80 65.80 66.03 65.02 66.05 66.40 66.30 65.94 66.74 68.78 70.71 69.87 69.74 69.33 68.54
54.20 54.92 56.11 57.58 61.61 67.12 67.14 66.42 67.18 68.33 69.36 68.47 68.95 69.72 70.18 69.52 68.36 68.65 66.88 68.80 68.76 69.01 68.74 68.55 67.48 66.67 66.27 65.96 66.00 66.06 64.74 65.28 65.66 65.60 65.35 65.55 65.40 67.09 68.75 69.91 69.95 69.37 68.61
53.28 54.57 54.57 55.83 56.71 57.05 58.27 62.65 66.65 67.23 68.35 67.95 69.30 69.53 69.92 69.95 68.89 68.86 68.13 68.04 68.65 68.89 68.52 68.18 67.81 66.87 65.82 65.82 65.60 65.50 65.39 65.10 64.83 65.96 65.58 64.95 64.72 64.41 65.69 67.95 68.82 69.10 68.97
51.84 51.71 52.99 54.54 53.79 54.03 54.56 56.48 59.15 62.45 65.68 67.71 68.18 69.07 70.18 69.97 69.67 68.42 68.48 67.58 68.58 68.48 68.36 67.62 67.41 66.47 65.95 65.69 64.65 66.06 65.32 65.42 65.33 64.81 65.75 65.44 64.92 65.53 63.78 64.79 66.67 67.59 67.85
49.24 50.02 50.06 51.06 51.29 51.82 52.81 54.35 55.64 57.26 60.84 65.34 67.36 68.08 68.71 69.31 69.47 68.33 68.53 68.17 67.59 67.77 67.53 67.54 66.86 66.83 65.69 64.97 64.98 65.59 64.73 64.51 64.63 65.24 64.55 65.18 64.68 64.33 64.30 63.35 64.08 64.48 65.96
47.43 47.86 47.91 49.33 50.22 50.74 51.29 51.71 52.91 54.07 55.62 58.25 64.74 66.84 67.59 68.57 69.26 68.66 67.93 66.45 67.34 66.33 66.38 67.03 66.06 66.74 66.04 65.29 65.41 65.19 64.65 64.68 64.62 63.93 64.25 64.91 65.48 64.91 64.10 63.23 63.40 63.31 62.46
44.46 44.74 45.50 45.90 47.23 48.26 48.41 48.22 48.34 49.05 51.59 53.24 56.19 59.33 66.82 67.49 68.30 67.89 68.15 66.69 66.63 66.47 66.71 66.04 66.18 65.56 65.14 65.46 63.09 61.28 62.28 64.16 64.03 64.13 63.83 63.59 64.59 64.65 63.94 63.65 62.70 63.11 62.19
41.89 41.95 42.39 42.76 43.39 44.19 45.72 46.75 47.65 48.36 50.36 52.30 54.57 56.49 58.21 63.39 67.51 67.92 66.73 66.90 67.66 66.37 65.42 66.02 66.04 65.16 64.89 65.44 62.01 61.06 58.71 60.58 63.09 63.82 63.38 63.72 64.15 63.44 63.34 62.92 62.04 61.91 61.38
38.35 38.40 39.30 39.49 40.22 41.35 42.59 43.42 45.13 47.15 48.03 49.02 51.18 53.42 56.13 59.38 64.76 66.97 66.88 66.73 67.09 67.02 65.20 65.94 66.52 65.41 63.69 64.52 63.61 60.17 56.40 55.64 58.28 61.31 62.91 63.24 62.93 63.17 63.48 62.65 61.60 61.57 60.88
35.82 36.58 36.99 37.54 37.50 39.34 40.09 39.40 39.34 40.57 42.69 46.01 47.70 50.43 51.85 55.06 58.28 62.96 66.89 67.06 66.42 66.99 66.53 64.78 66.95 66.52 64.76 63.08 63.86 63.84 59.82 58.71 55.74 54.83 59.93 63.13 62.00 61.73 61.85 62.62 62.28 62.11 61.79
35.12 34.55 34.95 35.38 36.47 36.78 36.76 37.43 36.98 37.67 41.84 44.03 45.27 45.97 48.09 51.19 55.23 59.13 62.76 66.06 66.79 66.26 67.19 66.00 65.08 66.16 65.29 64.13 63.87 63.26 61.53 59.19 59.26 56.50 54.87 57.74 59.86 61.56 62.03 62.26 62.87 62.64 62.46
33.07 32.91 32.82 33.34 34.01 34.95 35.50 35.53 35.34 35.57 38.20 40.22 42.01 42.29 44.39 47.32 50.89 55.25 58.66 62.43 65.43 66.60 66.06 66.82 66.44 66.21 65.54 64.20 64.53 63.97 63.13 61.06 59.43 57.36 55.38 56.70 59.11 59.45 62.09 62.11 62.17 62.50 62.73

GFSSE_sfc_wetblb_126.txt.gz
Wetbulb
70.11 71.98 72.70 73.54 73.55 73.19 72.98 72.85 72.68 72.92 73.25 73.73 73.83 73.95 73.89 73.92 74.01 74.40 74.55 74.64 74.66 74.91 74.34 73.99 73.94 74.07 73.40 73.12 73.12 72.87 72.76 72.81 73.01 73.33 73.26 73.62 73.05 72.98 73.02 72.90 72.39 71.58 72.46
70.52 71.99 72.08 73.08 73.59 73.36 73.13 72.80 72.75 73.06 73.56 73.87 73.72 73.49 73.65 73.62 73.81 74.08 74.55 74.70 74.76 74.79 73.84 73.69 73.87 73.42 73.20 72.67 72.76 72.36 72.28 71.96 72.19 72.61 72.83 73.05 72.95 73.10 72.50 72.46 72.06 71.63 72.25
70.36 71.90 72.49 72.49 73.44 73.68 73.40 73.14 73.38 73.67 73.90 73.93 73.69 73.54 73.76 73.83 73.74 73.93 74.00 74.36 74.92 75.21 74.42 74.17 73.82 73.52 72.90 72.66 71.83 71.64 72.02 71.72 71.71 71.93 71.97 70.14 70.63 72.80 72.37 72.10 71.79 72.19 72.12
70.73 71.39 71.94 72.25 72.80 73.41 73.17 73.07 73.20 74.00 73.95 73.67 73.56 73.59 73.66 73.90 73.90 73.74 73.58 73.68 74.52 75.22 74.49 73.89 73.79 73.71 73.06 72.06 71.60 71.57 71.60 71.47 71.08 70.92 69.47 69.19 70.44 72.57 72.05 71.71 71.87 71.83 71.61
70.85 71.20 71.89 71.61 72.11 72.94 73.06 72.91 73.08 73.31 73.08 73.22 73.24 73.84 73.84 73.91 74.01 73.58 73.10 73.47 74.24 74.77 74.42 73.97 73.99 73.68 71.93 71.11 71.07 70.93 71.00 70.64 69.68 70.06 67.93 68.38 69.60 71.39 72.03 71.75 71.57 71.73 71.47
70.58 71.41 70.16 70.34 71.60 72.60 73.11 72.99 73.05 72.81 72.29 72.44 72.74 73.57 73.86 73.99 73.96 73.23 72.66 73.48 74.02 74.39 74.60 74.56 73.97 72.13 70.83 70.56 70.63 70.45 70.31 69.67 68.61 68.21 68.15 69.78 69.42 71.81 71.83 71.49 71.00 71.20 70.29
70.12 70.41 70.48 69.31 70.97 72.38 73.03 73.08 72.72 72.23 71.78 72.04 72.42 72.70 73.39 73.54 73.42 72.48 72.24 72.94 73.27 73.43 73.74 73.79 71.80 70.97 70.36 70.16 70.25 69.29 69.11 68.59 64.65 66.59 66.64 68.32 68.88 71.43 71.69 71.30 71.06 70.14 70.95
70.32 70.29 70.49 70.51 70.82 71.40 72.16 72.17 71.48 71.32 71.33 71.62 71.86 72.28 73.02 72.80 72.18 72.04 72.07 72.28 72.49 72.31 72.32 72.10 70.89 70.44 70.15 69.87 69.81 68.61 67.99 67.40 64.86 63.99 65.13 67.36 69.70 70.94 71.07 71.06 70.68 70.14 70.28
70.41 69.63 69.67 70.17 70.67 70.19 70.08 70.17 70.13 70.55 70.68 70.82 71.08 71.35 71.80 71.15 70.99 71.36 71.65 71.97 71.97 71.74 71.77 71.11 70.41 69.87 69.74 69.60 69.23 67.90 67.25 67.09 64.20 63.32 65.63 67.74 70.57 71.51 71.02 70.83 70.35 70.28 70.13
69.82 69.01 68.57 68.78 69.61 69.88 70.22 69.32 69.54 69.63 69.88 70.03 70.42 70.42 69.95 70.10 70.43 70.56 70.68 71.19 71.51 71.48 71.29 70.64 69.68 69.41 69.30 68.88 68.41 67.15 66.69 67.09 66.33 66.22 66.42 66.80 69.99 71.39 71.17 70.72 70.15 70.12 69.83
69.12 69.72 68.64 68.24 68.62 68.60 68.91 70.03 69.84 70.26 69.81 69.36 69.99 69.68 68.93 70.73 70.60 70.45 70.02 69.72 70.34 70.17 70.03 69.60 69.08 68.63 68.16 67.99 67.99 67.11 66.59 66.32 65.84 66.10 66.59 67.79 70.35 71.29 71.05 70.89 70.35 70.05 69.44
55.31 67.60 69.05 68.53 68.39 68.17 69.82 68.82 68.91 69.93 70.80 71.05 70.69 70.22 70.81 70.37 70.06 70.56 69.62 68.59 68.93 68.82 69.11 68.57 68.16 67.81 67.70 66.83 66.65 67.22 66.09 66.23 66.06 65.73 64.37 67.48 70.15 71.39 70.87 70.74 70.25 69.94 69.50
51.15 65.99 69.07 68.91 68.23 67.76 68.14 67.85 68.01 68.46 69.63 69.29 70.19 70.42 69.79 70.28 69.68 69.68 69.32 69.29 69.21 68.51 69.14 68.19 67.42 67.40 66.79 66.49 65.75 65.54 65.85 65.76 65.70 65.17 65.63 66.55 69.34 71.02 71.00 70.63 70.11 69.81 69.45
53.45 57.82 62.62 63.65 66.89 67.29 68.69 67.83 67.51 67.99 68.14 68.84 69.34 69.49 69.05 69.61 69.43 69.14 69.02 68.96 68.73 69.14 68.35 68.28 67.61 67.38 66.70 66.66 66.23 65.76 65.69 65.01 64.78 65.00 64.59 65.62 67.76 70.23 70.87 70.51 70.13 69.52 69.10
52.06 53.56 54.86 56.24 56.57 58.66 60.85 64.12 67.99 67.29 67.26 67.78 69.07 69.86 70.00 69.29 69.07 69.01 68.81 68.55 68.84 69.02 68.06 67.47 67.04 66.50 66.18 66.16 66.05 65.94 65.54 64.54 64.67 65.16 64.94 65.12 66.04 68.51 70.66 70.16 70.15 69.62 68.98
50.96 51.31 52.88 52.75 53.48 54.47 54.82 56.26 59.09 63.69 67.00 67.58 67.99 69.40 69.38 69.40 68.98 69.33 68.51 68.23 68.39 68.64 68.30 67.72 67.25 66.41 65.98 65.80 65.56 65.61 65.52 64.40 65.13 65.19 65.13 65.45 64.48 66.22 68.34 70.19 70.19 69.67 69.05
48.93 49.77 50.29 51.27 51.06 51.22 51.69 53.82 55.50 57.42 60.19 63.45 67.74 68.88 69.03 68.94 68.69 68.50 67.77 68.07 68.23 68.43 67.97 67.67 66.88 66.32 65.28 65.11 65.00 65.19 65.13 64.51 65.20 64.90 65.19 65.25 64.98 63.68 65.19 67.67 68.91 69.31 69.43
46.42 46.36 47.83 50.03 49.15 49.42 49.96 50.52 52.24 53.80 55.88 57.95 61.27 64.06 67.21 68.58 68.37 67.20 67.73 67.55 68.60 68.33 67.74 67.27 67.20 65.98 65.01 64.34 64.31 64.67 64.71 64.42 64.53 64.92 64.89 64.66 64.82 65.68 64.03 65.17 66.68 67.74 68.02
43.68 44.24 44.28 45.51 44.83 46.44 48.01 49.07 49.24 50.10 51.65 53.11 54.50 57.43 60.40 64.95 68.16 67.02 67.87 67.66 66.84 67.40 67.71 67.04 66.35 66.19 65.08 64.30 64.15 64.28 64.38 64.05 64.04 64.52 64.62 64.20 64.07 64.60 64.89 63.77 64.43 64.79 66.24
40.68 41.39 41.43 42.33 42.06 43.23 44.59 45.72 46.84 47.53 48.46 49.78 51.68 54.71 56.71 58.16 60.90 66.17 67.35 66.34 65.96 66.71 66.33 66.73 66.15 66.26 65.57 65.11 64.68 63.94 63.28 63.87 63.90 63.60 63.72 64.82 64.07 64.12 64.27 64.10 64.48 64.46 63.14
37.81 37.76 38.28 38.25 38.98 40.03 40.55 40.14 41.53 42.61 44.94 47.26 49.16 51.38 54.60 57.84 58.68 60.14 65.91 62.99 65.55 66.26 66.31 66.22 65.84 65.25 65.27 65.30 62.68 60.22 60.72 62.09 63.42 63.70 64.05 63.43 64.20 63.96 63.56 63.67 63.72 64.24 63.73
35.18 35.37 36.19 36.27 36.69 37.40 38.79 38.96 40.05 40.75 43.00 44.68 47.32 49.36 51.65 53.23 54.63 56.67 57.89 65.02 63.61 65.68 65.55 64.88 64.91 64.58 64.94 64.73 62.37 60.36 57.47 59.33 61.75 63.34 63.75 63.45 62.87 63.92 63.44 63.00 62.57 62.91 63.37
33.17 33.12 34.41 34.53 34.90 36.41 37.05 36.61 37.27 38.25 39.41 40.83 43.44 44.92 47.62 49.31 50.02 52.50 54.43 57.90 63.85 62.06 61.29 64.80 65.32 64.59 62.70 64.57 63.85 59.66 57.71 57.52 58.60 60.52 62.56 63.33 62.76 62.70 63.08 63.07 62.05 62.08 62.51
32.07 32.69 33.12 33.51 33.96 35.63 35.32 34.45 34.23 33.86 33.50 36.48 38.76 42.26 43.74 46.57 48.08 50.27 52.89 55.70 58.55 63.70 63.26 64.33 65.42 65.11 64.24 62.34 63.77 64.22 59.96 58.10 56.56 55.58 59.78 62.51 63.01 62.52 62.00 61.98 61.56 61.67 61.53
31.82 31.35 32.09 32.77 33.43 34.08 34.44 33.78 33.15 32.70 34.09 35.61 37.15 38.71 41.21 43.13 44.73 47.10 50.30 52.67 55.85 59.79 63.47 64.07 64.66 63.95 64.68 63.58 62.93 62.29 60.12 58.06 57.14 55.32 53.53 59.23 62.08 62.62 62.77 61.99 61.76 61.35 60.79
31.63 31.98 32.13 32.46 32.72 33.66 33.03 32.89 32.18 31.40 31.95 32.93 34.76 35.81 37.74 40.52 42.68 45.09 47.85 51.28 55.50 57.61 58.70 63.22 64.30 64.68 64.25 64.30 64.35 63.76 62.13 59.73 57.76 56.46 53.76 56.06 59.01 60.72 61.82 62.01 61.72 61.84 61.71